# Wetter Temperatur Luftdruck Luftfeuchtigkeit Sichtweite Windgeschwindigkeit Windrichtung Zeit
1 Clear 18 1025 68 10000 6.17 320 07:29 02.10.2022
2 Clear 19 1026 74 10000 3.09 320 02:54 02.10.2022
3 Clear 19 1026 71 10000 1.54 310 00:45 02.10.2022
4 Clear 19 1026 70 10000 2.06 290 00:20 02.10.2022
5 Clear 20 1025 68 10000 4.12 250 22:36 01.10.2022
6 Clear 22 1024 64 10000 7.2 240 20:21 01.10.2022
7 Clear 25 1023 52 10000 9.26 220 17:55 01.10.2022
8 Clear 24 1023 48 10000 8.23 220 16:31 01.10.2022
9 Clear 23 1024 47 10000 5.36 172 14:26 01.10.2022
10 Clear 23 1023 47 10000 4.12 240 13:21 01.10.2022
11 Clear 22 1024 48 10000 2.57 320 12:30 01.10.2022
12 Clear 19 1023 50 10000 5.14 330 11:19 01.10.2022
13 Clear 18 1023 56 10000 6.69 330 10:31 01.10.2022
14 Clear 16 1022 64 10000 6.17 340 09:27 01.10.2022
15 Clear 16 1022 62 10000 5.66 330 08:57 01.10.2022
16 Clear 15 1019 83 10000 5.14 330 04:19 01.10.2022
17 Clear 15 1019 77 10000 4.63 330 03:31 01.10.2022
18 Clouds 17 1017 77 10000 4.12 30 23:59 30.09.2022
19 Clouds 18 1016 77 10000 3.58 90 22:37 30.09.2022
20 Clouds 19 1015 71 10000 6.17 190 21:28 30.09.2022
21 Clouds 19 1014 70 10000 5.14 180 20:44 30.09.2022
22 Clouds 20 1014 69 10000 5.66 180 19:49 30.09.2022
23 Clouds 21 1012 57 10000 5.36 179 17:32 30.09.2022
24 Clouds 21 1011 53 10000 7.2 130 15:56 30.09.2022
25 Clouds 21 1010 51 10000 2.68 125 13:30 30.09.2022
26 Clouds 20 1010 55 10000 5.66 330 11:58 30.09.2022
27 Clouds 17 1009 64 10000 5.66 330 10:40 30.09.2022
28 Clouds 15 1007 72 10000 6.17 330 08:26 30.09.2022
29 Clouds 15 1005 76 10000 3.6 320 05:54 30.09.2022
30 Clouds 16 1005 76 10000 3.09 330 02:39 30.09.2022
31 Clouds 17 1003 79 10000 6.69 70 22:40 29.09.2022
32 Clouds 18 1003 76 10000 4.63 80 21:28 29.09.2022
33 Clouds 19 1003 76 10000 4.47 62 20:57 29.09.2022
34 Clouds 22 1001 54 10000 3.13 143 18:45 29.09.2022
35 Clouds 22 1001 55 10000 5.66 100 17:32 29.09.2022
36 Clouds 23 1001 51 10000 5.14 270 16:28 29.09.2022
37 Clouds 23 1001 50 10000 4.12 140 15:36 29.09.2022
38 Clouds 23 1002 49 10000 3.09 250 14:31 29.09.2022
39 Clouds 18 1002 65 10000 3.13 296 10:33 29.09.2022
40 Clouds 18 1003 66 10000 6.17 330 07:22 29.09.2022
41 Clouds 19 1005 79 10000 2.06 40 02:51 29.09.2022
42 Clouds 20 1005 68 10000 3.09 300 23:56 28.09.2022
43 Clouds 20 1005 68 10000 3.09 300 23:56 28.09.2022
44 Clear 22 1005 55 10000 4.47 82 22:58 28.09.2022
45 Clouds 23 1004 45 10000 4.63 270 21:30 28.09.2022
46 Clouds 24 1004 43 10000 6.17 270 20:25 28.09.2022
47 Clouds 25 1004 45 10000 5.14 230 18:42 28.09.2022
48 Clouds 25 1005 49 10000 7.2 280 15:32 28.09.2022
49 Clouds 22 1007 58 10000 6.17 280 13:27 28.09.2022
50 Clouds 20 1008 64 10000 4.12 340 11:18 28.09.2022
51 Clouds 17 1009 72 10000 3.6 300 09:18 28.09.2022
52 Clouds 17 1009 72 10000 5.66 320 07:39 28.09.2022
53 Clear 17 1010 67 10000 6.17 320 04:34 28.09.2022
54 Clouds 18 1012 70 10000 5.14 320 01:36 28.09.2022
55 Clouds 20 1011 72 10000 2.57 330 23:27 27.09.2022
56 Clear 20 1011 73 10000 2.57 70 21:47 27.09.2022
57 Clear 21 1011 71 10000 3.09 120 20:49 27.09.2022
58 Clear 22 1010 67 10000 4.12 130 19:49 27.09.2022
59 Clouds 22 1010 64 10000 5.14 120 19:30 27.09.2022
60 Clouds 24 1010 57 10000 4.63 200 17:46 27.09.2022
61 Clouds 24 1009 54 10000 4.12 180 15:59 27.09.2022
62 Clouds 23 1009 52 10000 2.06 260 14:59 27.09.2022
63 Clear 22 1010 53 10000 3.09 310 13:32 27.09.2022
64 Clear 21 1010 52 10000 5.14 330 12:22 27.09.2022
65 Clear 18 1010 60 10000 4.63 360 09:49 27.09.2022
66 Clouds 16 1009 65 10000 3.6 320 07:38 27.09.2022
67 Clear 17 1010 57 10000 4.12 300 02:59 27.09.2022
68 Clear 19 1010 52 10000 5.66 270 01:35 27.09.2022
69 Clear 20 1011 48 10000 3.09 280 23:39 26.09.2022
70 Clear 20 1011 47 10000 3.09 280 23:20 26.09.2022
71 Clear 22 1010 43 10000 5.66 250 20:48 26.09.2022
72 Clear 23 1010 40 10000 7.72 250 19:42 26.09.2022
73 Clear 24 1010 42 10000 9.77 220 18:38 26.09.2022
74 Clouds 25 1010 43 10000 10.8 220 17:24 26.09.2022
75 Clouds 24 1011 51 10000 5.14 270 14:48 26.09.2022
76 Clear 22 1012 60 10000 6.17 270 12:30 26.09.2022
77 Clouds 19 1012 70 10000 5.14 330 10:41 26.09.2022
78 Clouds 18 1012 72 10000 5.14 330 10:22 26.09.2022
79 Clouds 18 1012 74 10000 4.63 330 09:56 26.09.2022
80 Clouds 17 1012 74 10000 5.14 330 09:26 26.09.2022
81 Clouds 17 1011 77 10000 3.09 310 08:58 26.09.2022
82 Clear 17 1012 70 10000 3.09 330 03:48 26.09.2022
83 Clear 18 1013 69 10000 3.09 330 01:56 26.09.2022
84 Clouds 19 1013 68 10000 3.09 70 23:23 25.09.2022
85 Clouds 20 1013 69 10000 2.57 80 21:44 25.09.2022
86 Clouds 20 1013 68 10000 2.06 90 20:57 25.09.2022
87 Clouds 20 1012 68 10000 2.06 110 20:33 25.09.2022
88 Clouds 22 1012 64 10000 5.14 140 18:49 25.09.2022
89 Clouds 22 1012 63 10000 5.14 140 18:24 25.09.2022
90 Clouds 22 1012 61 10000 5.66 130 17:22 25.09.2022
91 Clouds 23 1012 62 10000 4.12 140 15:50 25.09.2022
92 Clouds 23 1012 62 10000 2.57 140 14:35 25.09.2022
93 Clouds 22 1013 60 10000 3.6 200 13:58 25.09.2022
94 Clouds 19 1013 68 10000 5.66 330 10:38 25.09.2022
95 Clouds 18 1012 75 10000 5.66 330 09:37 25.09.2022
96 Clouds 17 1012 80 10000 3.6 320 06:53 25.09.2022
97 Clouds 17 1012 85 10000 2.57 330 05:19 25.09.2022
98 Rain 19 1012 75 10000 7.2 60 23:36 24.09.2022
99 Clouds 21 1012 78 10000 6.17 80 21:19 24.09.2022
100 Clouds 21 1011 76 10000 5.36 74 19:34 24.09.2022
101 Clouds 22 1011 74 10000 4.63 80 18:57 24.09.2022
102 Clouds 22 1011 70 10000 5.66 70 16:50 24.09.2022
103 Clouds 22 1012 72 10000 5.66 80 15:23 24.09.2022
104 Clouds 22 1012 72 10000 5.66 80 15:23 24.09.2022
105 Clouds 22 1013 71 10000 5.14 70 14:36 24.09.2022
106 Clouds 22 1013 71 10000 4.63 70 13:18 24.09.2022
107 Clouds 21 1014 78 10000 5.14 70 12:23 24.09.2022
108 Clouds 19 1013 83 10000 5.14 70 09:59 24.09.2022
109 Clouds 19 1013 83 10000 6.69 80 08:58 24.09.2022
110 Clouds 18 1013 85 10000 2.57 350 07:41 24.09.2022
111 Clouds 18 1012 94 10000 2.06 310 04:53 24.09.2022
112 Clouds 18 1012 91 10000 1.03 360 04:21 24.09.2022
113 Clouds 22 1014 81 10000 6.69 240 22:58 23.09.2022
114 Clouds 23 1014 82 10000 4.12 200 21:37 23.09.2022
115 Clouds 23 1014 78 10000 3.6 210 21:19 23.09.2022
116 Rain 23 1015 76 10000 4.02 217 20:43 23.09.2022
117 Clouds 24 1015 71 10000 4.63 200 19:20 23.09.2022
118 Rain 24 1015 72 10000 4.63 190 19:20 23.09.2022
119 Clouds 25 1016 66 10000 5.66 170 16:48 23.09.2022
120 Clouds 25 1018 69 10000 3.6 110 12:52 23.09.2022
121 Clouds 21 1018 74 10000 4.12 330 09:36 23.09.2022
122 Clouds 19 1018 80 10000 4.12 330 07:29 23.09.2022
123 Clouds 20 1019 79 10000 2.57 330 01:21 23.09.2022
124 Clouds 21 1019 76 10000 2.06 30 23:29 22.09.2022
125 Clouds 21 1019 75 10000 3.09 70 22:27 22.09.2022
126 Clouds 22 1018 73 10000 2.06 110 21:24 22.09.2022
127 Clouds 22 1018 72 10000 3.6 90 20:21 22.09.2022
128 Clear 23 1017 68 10000 4.63 90 18:44 22.09.2022
129 Clouds 25 1018 57 10000 6.69 80 14:49 22.09.2022
130 Clouds 22 1019 71 10000 6.17 60 10:39 22.09.2022
131 Clouds 22 1018 71 10000 6.17 60 10:19 22.09.2022
132 Clouds 20 1017 71 10000 2.57 340 07:50 22.09.2022
133 Clouds 20 1017 65 10000 2.06 330 04:38 22.09.2022
134 Clouds 22 1018 66 10000 3.09 60 00:25 22.09.2022
135 Clouds 22 1018 69 10000 3.6 80 22:29 21.09.2022
136 Clouds 21 1018 71 10000 4.12 80 21:18 21.09.2022
137 Clouds 23 1016 67 10000 5.14 130 18:50 21.09.2022
138 Clouds 24 1016 63 10000 5.66 140 17:41 21.09.2022
139 Clouds 25 1017 62 10000 5.14 120 15:35 21.09.2022
140 Clouds 25 1017 60 10000 4.63 90 13:42 21.09.2022
141 Clouds 24 1018 62 10000 5.14 80 11:42 21.09.2022
142 Clouds 23 1018 64 10000 5.14 70 10:54 21.09.2022
143 Clouds 21 1018 70 10000 2.57 360 09:39 21.09.2022
144 Clouds 21 1018 71 10000 2.57 360 09:39 21.09.2022
145 Clouds 20 1017 76 10000 2.57 330 08:31 21.09.2022
146 Clear 20 1017 87 10000 2.57 330 03:51 21.09.2022
147 Clear 20 1017 88 10000 2.06 340 02:38 21.09.2022
148 Clear 20 1018 86 10000 2.57 340 01:52 21.09.2022
149 Clouds 21 1018 83 10000 2.06 350 00:19 21.09.2022
150 Clouds 22 1018 78 10000 2.06 70 21:52 20.09.2022
151 Clouds 23 1017 78 10000 3.09 180 20:32 20.09.2022
152 Clouds 24 1016 70 10000 2.57 170 18:41 20.09.2022
153 Clouds 25 1016 65 10000 6.17 120 15:51 20.09.2022
154 Clouds 25 1018 62 10000 4.12 120 14:18 20.09.2022
155 Clouds 24 1018 67 10000 3.6 80 11:51 20.09.2022
156 Clouds 21 1017 74 10000 2.57 70 08:44 20.09.2022
157 Clouds 21 1017 74 10000 3.09 70 08:23 20.09.2022
158 Clear 21 1016 84 10000 3.6 330 04:37 20.09.2022
159 Clear 21 1016 84 10000 2.06 350 02:24 20.09.2022
160 Clouds 22 1016 81 10000 2.57 270 22:44 19.09.2022
161 Clouds 23 1016 80 10000 1.54 230 21:28 19.09.2022
162 Clouds 23 1015 78 10000 2.57 110 20:40 19.09.2022
163 Clouds 24 1014 73 10000 4.63 110 18:49 19.09.2022
164 Clouds 26 1015 67 10000 4.63 120 17:20 19.09.2022
165 Clouds 26 1016 62 10000 4.63 130 13:49 19.09.2022
166 Clouds 25 1016 65 10000 3.6 100 12:26 19.09.2022
167 Clear 22 1015 73 10000 3.09 340 10:19 19.09.2022
168 Clear 19 1015 82 10000 4.12 320 08:41 19.09.2022
169 Clouds 20 1015 85 10000 4.12 320 04:26 19.09.2022
170 Clouds 21 1016 79 10000 1.54 300 00:52 19.09.2022
171 Clouds 21 1016 76 10000 1.54 60 22:42 18.09.2022
172 Clouds 22 1016 76 10000 1.54 120 21:26 18.09.2022
173 Clouds 23 1016 71 10000 3.6 120 19:56 18.09.2022
174 Clouds 24 1016 65 10000 3.6 180 17:53 18.09.2022
175 Clouds 25 1016 61 10000 4.63 180 16:56 18.09.2022
176 Clouds 25 1017 55 10000 3.6 180 14:52 18.09.2022
177 Clouds 25 1017 52 10000 3.6 170 13:41 18.09.2022
178 Clouds 24 1017 51 10000 2.57 140 12:28 18.09.2022
179 Clouds 22 1017 48 10000 3.09 320 10:28 18.09.2022
180 Clouds 21 1015 55 10000 3.09 90 03:35 18.09.2022
181 Clouds 22 1016 57 10000 2.57 120 01:22 18.09.2022
182 Clouds 22 1016 65 10000 2.06 120 23:36 17.09.2022
183 Clouds 23 1015 67 10000 3.09 130 21:35 17.09.2022
184 Clouds 23 1014 69 10000 4.63 130 19:40 17.09.2022
185 Clouds 23 1014 69 10000 4.63 130 19:40 17.09.2022
186 Clouds 24 1014 69 10000 4.63 130 18:43 17.09.2022
187 Clouds 24 1015 63 10000 4.12 170 14:54 17.09.2022
188 Clouds 24 1014 56 10000 2.57 160 13:38 17.09.2022
189 Clouds 21 1014 63 10000 4.63 330 10:56 17.09.2022
190 Clouds 20 1013 68 10000 7.2 330 08:33 17.09.2022
191 Clouds 20 1011 67 10000 5.66 320 06:21 17.09.2022
192 Thunderstorm 23 1012 86 10000 7.2 50 23:56 16.09.2022
193 Thunderstorm 23 1011 84 10000 5.36 53 22:51 16.09.2022
194 Clouds 25 1010 77 10000 2.57 160 20:54 16.09.2022
195 Clouds 26 1009 74 10000 3.6 160 19:50 16.09.2022
196 Clouds 26 1011 74 10000 5.14 180 16:26 16.09.2022
197 Clouds 27 1011 70 10000 6.17 200 14:53 16.09.2022
198 Rain 27 1012 67 10000 5.66 180 13:42 16.09.2022
199 Clouds 26 1012 68 10000 4.12 320 10:46 16.09.2022
200 Clouds 22 1012 78 10000 5.14 330 08:19 16.09.2022
201 Clouds 22 1011 81 10000 5.14 330 06:48 16.09.2022
202 Clouds 22 1011 81 10000 4.63 320 05:58 16.09.2022
203 Clouds 23 1012 82 10000 1.03 350 02:37 16.09.2022
204 Clouds 25 1012 80 10000 1.54 80 22:20 15.09.2022
205 Clouds 25 1012 81 10000 2.06 120 22:20 15.09.2022
206 Clouds 26 1010 77 10000 1.54 200 20:40 15.09.2022
207 Clouds 27 1010 72 10000 3.09 180 19:45 15.09.2022
208 Clouds 28 1010 71 10000 4.63 180 18:29 15.09.2022
209 Clouds 29 1010 66 10000 5.14 150 17:31 15.09.2022
210 Clouds 30 1010 61 10000 4.12 140 15:50 15.09.2022
211 Clouds 29 1011 63 10000 3.6 80 13:19 15.09.2022
212 Clear 28 1012 64 10000 3.6 60 11:48 15.09.2022
213 Clouds 25 1011 68 10000 5.14 320 09:52 15.09.2022
214 Clouds 22 1010 76 10000 4.12 330 07:45 15.09.2022
215 Clear 23 1009 78 10000 3.6 300 03:52 15.09.2022
216 Clouds 25 1010 78 10000 3.6 280 23:43 14.09.2022
217 Clouds 26 1009 76 10000 4.12 250 21:26 14.09.2022
218 Clouds 27 1008 72 10000 6.17 230 19:33 14.09.2022
219 Clouds 28 1009 67 10000 6.69 240 18:30 14.09.2022
220 Clouds 27 1009 66 10000 6.17 250 16:44 14.09.2022
221 Clouds 27 1009 67 10000 6.69 230 15:29 14.09.2022
222 Clouds 27 1008 68 10000 4.63 300 13:36 14.09.2022
223 Rain 24 1008 76 10000 4.63 310 10:52 14.09.2022
224 Drizzle 23 1009 81 10000 3.09 340 09:41 14.09.2022
225 Rain 22 1007 82 10000 5.66 330 06:52 14.09.2022
226 Rain 22 1008 83 10000 5.14 320 06:34 14.09.2022
227 Rain 24 1009 66 10000 8.23 310 03:55 14.09.2022
228 Clouds 25 1009 64 10000 3.6 330 01:43 14.09.2022
229 Clouds 25 1009 65 10000 3.6 340 01:20 14.09.2022
230 Clouds 26 1010 61 10000 4.12 300 23:55 13.09.2022
231 Rain 26 1010 61 10000 4.63 320 23:37 13.09.2022
232 Rain 26 1009 60 10000 4.63 320 23:19 13.09.2022
233 Clouds 26 1009 60 10000 2.57 280 22:44 13.09.2022
234 Rain 26 1009 59 10000 4.47 341 21:44 13.09.2022
235 Clouds 27 1010 54 10000 4.12 350 19:32 13.09.2022
236 Rain 29 1012 48 10000 5.66 320 17:33 13.09.2022
237 Clouds 29 1011 44 10000 4.63 330 15:54 13.09.2022
238 Clouds 30 1011 54 10000 7.2 290 13:54 13.09.2022
239 Clouds 30 1011 69 10000 4.12 70 12:28 13.09.2022
240 Clouds 25 1011 85 10000 2.57 320 08:33 13.09.2022
241 Clouds 25 1010 86 10000 2.06 40 04:32 13.09.2022
242 Clear 26 1012 81 10000 2.06 30 23:32 12.09.2022
243 Clear 26 1012 81 10000 2.06 10 22:49 12.09.2022
244 Clear 27 1012 82 10000 2.57 40 21:36 12.09.2022
245 Clouds 27 1011 82 10000 4.12 130 20:25 12.09.2022
246 Clouds 29 1011 79 10000 4.63 120 18:42 12.09.2022
247 Clouds 30 1012 76 10000 5.66 190 16:23 12.09.2022
248 Clouds 30 1013 74 10000 3.13 250 13:41 12.09.2022
249 Clouds 28 1013 80 10000 2.06 270 11:22 12.09.2022
250 Clouds 25 1013 86 10000 3.6 330 09:35 12.09.2022
251 Clouds 24 1013 89 10000 3.09 340 04:49 12.09.2022
252 Clouds 24 1013 89 10000 3.09 340 03:33 12.09.2022
253 Clouds 25 1014 86 10000 1.54 310 23:22 11.09.2022
254 Clouds 26 1014 85 10000 1.54 240 21:58 11.09.2022
255 Clouds 26 1014 82 10000 2.57 210 20:46 11.09.2022
256 Clouds 27 1014 83 10000 4.12 110 19:53 11.09.2022
257 Clouds 27 1014 82 10000 4.12 120 19:22 11.09.2022
258 Clouds 28 1014 82 10000 4.12 130 18:20 11.09.2022
259 Clouds 28 1015 81 10000 5.14 120 16:34 11.09.2022
260 Clouds 27 1016 79 10000 5.14 120 14:19 11.09.2022
261 Clouds 26 1017 79 10000 6.17 70 12:40 11.09.2022
262 Clouds 24 1016 81 10000 3.09 330 08:48 11.09.2022
263 Clouds 24 1016 84 10000 3.09 330 06:56 11.09.2022
264 Clouds 25 1017 82 10000 1.54 300 00:50 11.09.2022
265 Clouds 25 1017 81 10000 1.03 0 22:55 10.09.2022
266 Clouds 26 1017 79 10000 3.09 210 21:25 10.09.2022
267 Clouds 27 1017 74 10000 4.12 220 19:47 10.09.2022
268 Clouds 27 1017 72 10000 4.63 220 19:28 10.09.2022
269 Clouds 27 1017 72 10000 5.14 220 18:51 10.09.2022
270 Clouds 28 1018 69 10000 4.63 180 15:49 10.09.2022
271 Clouds 27 1018 68 10000 4.12 160 14:42 10.09.2022
272 Clouds 27 1019 67 10000 3.6 150 12:52 10.09.2022
273 Clouds 26 1019 70 10000 1.79 196 10:58 10.09.2022
274 Clouds 23 1019 72 10000 3.09 320 09:37 10.09.2022
275 Clouds 22 1019 76 10000 3.6 330 08:36 10.09.2022
276 Clouds 22 1018 76 10000 4.12 330 06:43 10.09.2022
277 Clouds 23 1019 73 10000 3.6 90 00:41 10.09.2022
278 Clouds 24 1018 73 10000 6.17 70 23:33 09.09.2022
279 Clouds 24 1018 71 10000 6.69 80 22:18 09.09.2022
280 Clouds 25 1017 70 10000 7.2 70 20:46 09.09.2022
281 Clouds 25 1017 73 10000 6.69 80 19:24 09.09.2022
282 Clouds 25 1017 73 10000 6.17 90 18:47 09.09.2022
283 Clouds 26 1016 73 10000 6.17 90 16:23 09.09.2022
284 Clouds 28 1016 69 10000 5.66 120 13:49 09.09.2022
285 Clouds 27 1016 70 10000 4.47 81 12:32 09.09.2022
286 Clouds 25 1016 65 10000 3.6 330 09:55 09.09.2022
287 Clear 23 1015 77 10000 2.06 350 05:19 09.09.2022
288 Clouds 24 1015 76 10000 1.34 259 03:20 09.09.2022
289 Clear 25 1014 70 10000 3.6 220 21:53 08.09.2022
290 Clouds 26 1014 68 10000 4.12 220 20:56 08.09.2022
291 Clouds 26 1014 67 10000 4.12 220 20:31 08.09.2022
292 Clouds 27 1013 64 10000 5.14 220 19:56 08.09.2022
293 Clouds 28 1014 57 10000 4.63 200 18:22 08.09.2022
294 Clouds 28 1014 51 10000 3.6 160 16:21 08.09.2022
295 Clouds 28 1015 51 10000 3.09 200 14:40 08.09.2022
296 Clouds 27 1015 55 10000 2.57 90 13:27 08.09.2022
297 Rain 26 1015 61 10000 4.12 70 11:57 08.09.2022
298 Clouds 26 1015 66 10000 4.63 80 10:57 08.09.2022
299 Clouds 24 1014 71 10000 4.12 70 08:51 08.09.2022
300 Clouds 24 1012 70 10000 4.12 20 06:42 08.09.2022
301 Clouds 26 1011 79 10000 2.57 320 02:37 08.09.2022
302 Clouds 26 1011 79 10000 2.06 300 02:18 08.09.2022
303 Clouds 26 1011 81 10000 2.57 250 00:56 08.09.2022
304 Clouds 27 1012 80 10000 2.06 230 22:44 07.09.2022
305 Clouds 27 1012 80 10000 2.57 240 21:42 07.09.2022
306 Clouds 27 1011 80 10000 3.09 230 20:49 07.09.2022
307 Clouds 28 1011 75 10000 3.6 230 19:42 07.09.2022
308 Clouds 29 1011 70 10000 3.09 200 18:27 07.09.2022
309 Clouds 29 1013 75 10000 5.66 70 14:26 07.09.2022
310 Clouds 26 1014 79 10000 5.14 60 10:48 07.09.2022
311 Clear 25 1014 81 10000 1.79 71 09:19 07.09.2022
312 Clear 23 1013 82 10000 4.12 330 07:23 07.09.2022
313 Clouds 24 1013 82 10000 2.06 290 03:33 07.09.2022
314 Clear 26 1014 80 10000 3.6 240 23:38 06.09.2022
315 Clear 27 1013 74 10000 4.12 240 21:42 06.09.2022
316 Clear 28 1013 77 10000 2.57 210 20:45 06.09.2022
317 Clouds 30 1013 71 10000 8.23 220 18:45 06.09.2022
318 Clouds 30 1014 70 10000 8.23 220 18:22 06.09.2022
319 Clouds 31 1014 69 10000 7.72 210 17:22 06.09.2022
320 Clouds 31 1014 67 10000 7.72 220 16:37 06.09.2022
321 Clouds 31 1015 67 10000 7.2 210 15:22 06.09.2022
322 Clear 31 1015 66 10000 3.6 210 13:45 06.09.2022
323 Clear 31 1015 66 10000 3.6 210 13:45 06.09.2022
324 Clear 31 1015 68 10000 3.6 190 13:24 06.09.2022
325 Clouds 29 1016 71 10000 2.57 190 11:59 06.09.2022
326 Clouds 28 1016 74 10000 2.57 320 10:41 06.09.2022
327 Clouds 25 1016 84 10000 3.6 320 08:50 06.09.2022
328 Clouds 24 1016 89 10000 4.12 330 07:45 06.09.2022
329 Clouds 25 1016 89 10000 2.57 330 02:44 06.09.2022
330 Clouds 26 1017 86 10000 1.03 50 23:27 05.09.2022
331 Clouds 27 1017 86 10000 1.54 80 22:21 05.09.2022
332 Clouds 27 1017 83 10000 3.6 130 20:35 05.09.2022
333 Clouds 28 1016 80 10000 3.6 110 19:20 05.09.2022
334 Clouds 28 1016 79 10000 4.12 140 18:45 05.09.2022
335 Clouds 29 1017 78 10000 4.12 130 18:21 05.09.2022
336 Clouds 29 1017 79 10000 4.12 130 16:43 05.09.2022
337 Rain 28 1018 80 10000 6.17 130 15:47 05.09.2022
338 Clouds 30 1018 79 10000 5.14 100 13:26 05.09.2022
339 Clouds 29 1019 78 10000 5.14 80 12:28 05.09.2022
340 Clouds 27 1018 77 10000 3.6 320 10:18 05.09.2022
341 Clouds 24 1018 87 10000 4.12 330 06:42 05.09.2022
342 Clouds 25 1018 84 10000 2.06 330 02:42 05.09.2022
343 Clouds 25 1018 83 10000 2.06 60 23:26 04.09.2022
344 Clouds 26 1017 86 10000 2.06 110 22:27 04.09.2022
345 Clouds 26 1017 84 10000 2.57 110 21:32 04.09.2022
346 Clouds 27 1016 81 10000 3.6 100 19:38 04.09.2022
347 Clouds 28 1016 80 10000 4.12 90 18:20 04.09.2022
348 Clouds 28 1016 76 10000 4.12 110 16:56 04.09.2022
349 Clouds 29 1016 75 10000 5.14 120 14:33 04.09.2022
350 Clouds 29 1017 75 10000 5.14 110 13:52 04.09.2022
351 Clouds 29 1017 72 10000 5.14 110 12:18 04.09.2022
352 Clouds 27 1016 75 10000 3.09 60 10:47 04.09.2022
353 Clouds 23 1015 87 10000 3.6 330 08:21 04.09.2022
354 Clouds 23 1014 89 10000 2.57 330 05:36 04.09.2022
355 Clouds 24 1013 87 10000 1.54 10 00:53 04.09.2022
356 Rain 25 1012 85 10000 2.57 50 22:26 03.09.2022
357 Rain 25 1012 85 10000 3.09 50 21:23 03.09.2022
358 Rain 25 1012 84 10000 5.14 70 19:56 03.09.2022
359 Clouds 26 1011 81 10000 6.17 90 17:29 03.09.2022
360 Clouds 28 1012 75 10000 6.69 90 16:33 03.09.2022
361 Clouds 28 1012 69 10000 7.2 90 14:46 03.09.2022
362 Clouds 28 1012 67 10000 7.2 90 14:26 03.09.2022
363 Clouds 28 1012 66 10000 5.66 90 13:21 03.09.2022
364 Clouds 27 1012 69 10000 4.63 60 10:55 03.09.2022
365 Clouds 24 1011 79 10000 3.09 340 08:41 03.09.2022
366 Clouds 23 1011 79 10000 4.63 310 06:59 03.09.2022
367 Clouds 23 1011 80 10000 5.66 40 04:40 03.09.2022
368 Clouds 24 1011 75 10000 3.09 330 00:41 03.09.2022
369 Clouds 24 1010 70 10000 4.12 330 23:20 02.09.2022
370 Clouds 25 1010 68 10000 4.12 30 21:33 02.09.2022
371 Clouds 26 1010 69 10000 8.23 70 20:39 02.09.2022
372 Rain 26 1010 74 10000 4.12 300 19:35 02.09.2022
373 Clouds 28 1010 80 10000 3.09 210 18:43 02.09.2022
374 Clouds 28 1010 80 10000 3.09 210 18:24 02.09.2022
375 Clouds 28 1009 81 10000 5.14 130 16:50 02.09.2022
376 Clouds 29 1010 76 10000 5.66 120 15:40 02.09.2022
377 Rain 29 1012 71 10000 3.6 90 12:49 02.09.2022
378 Clear 27 1012 69 10000 2.57 330 10:25 02.09.2022
379 Clouds 26 1011 77 10000 3.09 0 09:41 02.09.2022
380 Clouds 24 1011 85 10000 4.63 320 08:35 02.09.2022
381 Clouds 24 1012 86 10000 3.6 330 06:42 02.09.2022
382 Clouds 23 1012 85 10000 4.12 320 03:53 02.09.2022
383 Clouds 25 1013 80 10000 1.54 280 22:54 01.09.2022
384 Clouds 26 1012 78 10000 1.54 160 21:45 01.09.2022
385 Clouds 26 1012 78 10000 1.54 160 21:26 01.09.2022
386 Clear 26 1012 76 10000 3.09 160 20:48 01.09.2022
387 Clear 28 1012 71 10000 3.6 140 19:24 01.09.2022
388 Clouds 29 1012 67 10000 5.66 120 17:49 01.09.2022
389 Clouds 29 1013 64 10000 5.66 130 16:41 01.09.2022
390 Clouds 30 1014 61 10000 3.09 180 14:34 01.09.2022
391 Clear 29 1014 58 10000 1.79 36 13:20 01.09.2022
392 Clouds 28 1015 57 10000 2.57 330 11:57 01.09.2022
393 Clear 28 1015 58 10000 2.24 57 11:39 01.09.2022
394 Clear 28 1015 57 10000 1.79 58 11:18 01.09.2022
395 Clear 24 1014 69 10000 6.17 330 09:20 01.09.2022
396 Clear 23 1013 55 10000 6.69 320 06:28 01.09.2022
397 Clear 22 1014 63 10000 4.63 320 01:45 01.09.2022
398 Clear 23 1014 72 10000 3.6 340 00:33 01.09.2022
399 Clouds 22 1015 86 10000 4.63 310 22:21 31.08.2022
400 Rain 22 1014 83 10000 1.54 350 20:27 31.08.2022
401 Thunderstorm 27 1015 80 10000 3.09 160 18:19 31.08.2022
402 Rain 28 1014 75 10000 2.06 140 16:32 31.08.2022
403 Clouds 29 1015 67 10000 4.63 50 15:18 31.08.2022
404 Rain 24 1017 89 10000 2.06 170 12:30 31.08.2022
405 Rain 23 1016 82 10000 2.57 360 11:38 31.08.2022
406 Thunderstorm 24 1016 87 10000 2.68 96 09:25 31.08.2022
407 Rain 26 1015 89 10000 1.54 150 06:35 31.08.2022
408 Clouds 27 1015 85 10000 2.68 318 01:57 31.08.2022
409 Clear 28 1015 83 10000 7.72 230 21:49 30.08.2022
410 Clear 28 1014 81 10000 6.69 220 21:21 30.08.2022
411 Clouds 30 1013 74 10000 6.17 220 19:26 30.08.2022
412 Clouds 31 1014 71 10000 8.75 220 16:35 30.08.2022
413 Clouds 31 1016 70 10000 5.14 190 13:37 30.08.2022
414 Clouds 29 1017 71 10000 3.6 260 11:23 30.08.2022
415 Clouds 28 1017 72 10000 2.06 320 10:57 30.08.2022
416 Clouds 25 1016 77 10000 4.63 330 08:49 30.08.2022
417 Clouds 25 1016 77 10000 3.6 330 03:57 30.08.2022
418 Clouds 27 1015 77 10000 1.54 140 00:26 30.08.2022
419 Clouds 27 1015 73 10000 3.09 100 22:34 29.08.2022
420 Rain 27 1015 73 10000 3.09 270 21:48 29.08.2022
421 Clouds 28 1015 74 10000 3.09 170 20:34 29.08.2022
422 Clouds 30 1014 63 10000 4.12 230 18:55 29.08.2022
423 Clouds 30 1015 65 10000 6.69 230 17:26 29.08.2022
424 Clouds 30 1015 65 10000 6.69 230 16:56 29.08.2022
425 Clouds 30 1015 67 10000 4.92 194 15:18 29.08.2022
426 Clear 30 1016 59 10000 7.72 230 13:40 29.08.2022
427 Clear 29 1016 65 10000 8.23 230 12:20 29.08.2022
428 Clear 29 1015 63 10000 1.34 280 10:42 29.08.2022
429 Clear 25 1015 78 10000 2.68 249 08:53 29.08.2022
430 Clouds 24 1015 85 10000 3.6 340 06:29 29.08.2022
431 Clouds 25 1015 83 10000 1.03 0 01:58 29.08.2022
432 Clouds 26 1015 80 10000 3.09 250 23:33 28.08.2022
433 Clouds 27 1014 76 10000 3.09 230 21:47 28.08.2022
434 Clouds 27 1014 75 10000 3.6 220 21:25 28.08.2022
435 Clear 29 1013 71 10000 5.66 220 20:18 28.08.2022
436 Clear 28 1013 71 10000 5.66 220 20:18 28.08.2022
437 Clouds 29 1014 70 10000 7.2 220 18:22 28.08.2022
438 Clouds 29 1014 70 10000 7.72 230 17:51 28.08.2022
439 Clouds 31 1013 66 10000 7.2 210 16:44 28.08.2022
440 Clouds 31 1013 65 10000 7.2 210 15:00 28.08.2022
441 Clear 31 1013 64 10000 5.36 175 13:19 28.08.2022
442 Clouds 29 1013 66 10000 3.6 200 11:25 28.08.2022
443 Clouds 27 1013 69 10000 4.63 320 10:20 28.08.2022
444 Clouds 25 1013 75 10000 4.12 320 08:49 28.08.2022
445 Clouds 24 1012 82 10000 5.66 320 07:53 28.08.2022
446 Clouds 23 1012 83 10000 5.14 330 07:23 28.08.2022
447 Clouds 25 1012 80 10000 1.54 280 00:36 28.08.2022
448 Clouds 26 1012 78 10000 4.63 220 22:58 27.08.2022
449 Clouds 27 1012 77 10000 4.12 220 22:27 27.08.2022
450 Clouds 28 1011 74 10000 5.14 220 20:35 27.08.2022
451 Clouds 29 1011 71 10000 5.14 210 18:57 27.08.2022
452 Clouds 29 1011 70 10000 6.69 180 16:29 27.08.2022
453 Clouds 29 1011 72 10000 6.17 160 15:31 27.08.2022
454 Clouds 29 1012 71 10000 4.63 120 13:22 27.08.2022
455 Clouds 28 1012 72 10000 3.09 170 11:59 27.08.2022
456 Clouds 27 1012 71 10000 3.09 310 10:27 27.08.2022
457 Clouds 26 1012 75 10000 3.09 340 09:33 27.08.2022
458 Clouds 24 1011 81 10000 3.6 330 06:52 27.08.2022
459 Clouds 26 1012 72 10000 1.54 320 00:53 27.08.2022
460 Clouds 26 1012 70 10000 2.57 240 23:46 26.08.2022
461 Clouds 27 1012 65 10000 4.12 250 21:46 26.08.2022
462 Clouds 28 1011 70 10000 5.66 230 19:50 26.08.2022
463 Clouds 29 1011 67 10000 7.2 220 17:59 26.08.2022
464 Clouds 31 1012 62 10000 6.69 210 16:32 26.08.2022
465 Clouds 31 1012 55 10000 5.66 210 15:24 26.08.2022
466 Clouds 31 1014 50 10000 3.6 200 13:18 26.08.2022
467 Clear 29 1014 53 10000 5.14 320 11:48 26.08.2022
468 Clear 28 1014 58 10000 5.14 340 11:22 26.08.2022
469 Clear 26 1014 67 10000 5.66 330 09:45 26.08.2022
470 Clear 24 1014 71 10000 3.6 320 04:56 26.08.2022
471 Rain 24 1014 75 10000 7.72 340 00:44 26.08.2022
472 Rain 25 1015 70 10000 8.23 320 22:44 25.08.2022
473 Rain 27 1015 79 10000 3.09 310 20:55 25.08.2022
474 Clouds 28 1014 78 10000 4.12 110 19:36 25.08.2022
475 Clouds 29 1014 76 10000 3.09 110 18:35 25.08.2022
476 Clouds 30 1013 74 10000 3.6 130 17:32 25.08.2022
477 Clouds 30 1013 73 10000 4.63 130 16:45 25.08.2022
478 Clouds 30 1014 73 10000 5.66 130 15:37 25.08.2022
479 Clouds 30 1014 69 10000 4.63 90 13:59 25.08.2022
480 Clouds 29 1015 65 10000 3.6 110 11:25 25.08.2022
481 Clouds 29 1015 61 10000 4.02 93 10:44 25.08.2022
482 Clear 25 1013 77 10000 2.57 270 07:35 25.08.2022
483 Clouds 26 1012 71 10000 2.57 190 03:54 25.08.2022
484 Clouds 26 1015 79 10000 1.54 290 23:38 24.08.2022
485 Clouds 27 1015 79 10000 3.09 300 23:18 24.08.2022
486 Clouds 27 1014 79 10000 3.6 260 21:56 24.08.2022
487 Clouds 27 1014 79 10000 4.63 230 21:30 24.08.2022
488 Clouds 29 1013 75 10000 5.14 220 19:56 24.08.2022
489 Clear 31 1014 66 10000 6.17 210 17:32 24.08.2022
490 Clouds 31 1013 63 10000 6.17 210 15:55 24.08.2022
491 Clear 31 1014 64 10000 7.2 220 15:35 24.08.2022
492 Clouds 31 1014 62 10000 4.63 120 12:52 24.08.2022
493 Clouds 31 1014 62 10000 4.63 120 12:52 24.08.2022
494 Clouds 31 1014 62 10000 1.34 55 11:21 24.08.2022
495 Clear 26 1014 77 10000 4.63 310 08:59 24.08.2022
496 Clear 25 1013 84 10000 4.47 248 06:40 24.08.2022
497 Clear 26 1014 84 10000 2.06 300 01:20 24.08.2022
498 Clear 26 1014 81 10000 2.57 210 22:49 23.08.2022
499 Clear 27 1014 79 10000 3.6 230 22:18 23.08.2022
500 Clear 28 1013 72 10000 4.12 220 20:49 23.08.2022
501 Clear 29 1012 68 10000 7.2 230 19:24 23.08.2022
502 Clear 30 1012 65 10000 7.2 220 18:21 23.08.2022
503 Clear 30 1012 64 10000 6.17 210 17:30 23.08.2022
504 Clear 30 1013 65 10000 5.14 190 16:26 23.08.2022
505 Clouds 30 1014 67 10000 5.66 130 14:54 23.08.2022
506 Clouds 29 1014 67 10000 3.09 160 12:46 23.08.2022
507 Clouds 28 1014 69 10000 1.79 122 11:19 23.08.2022
508 Clouds 27 1014 70 10000 3.6 320 10:33 23.08.2022
509 Clouds 26 1014 75 10000 4.12 330 09:46 23.08.2022
510 Clouds 25 1014 82 10000 3.6 340 08:47 23.08.2022
511 Clouds 24 1014 83 10000 3.6 340 08:19 23.08.2022
512 Clouds 23 1014 87 10000 3.09 340 07:33 23.08.2022
513 Clouds 23 1013 86 10000 3.6 320 06:26 23.08.2022
514 Clouds 24 1013 85 10000 2.06 340 01:52 23.08.2022
515 Clouds 25 1013 83 10000 2.06 310 00:27 23.08.2022
516 Clouds 25 1013 82 10000 2.06 220 23:32 22.08.2022
517 Clouds 26 1013 81 10000 2.06 160 22:29 22.08.2022
518 Clouds 26 1013 77 10000 3.09 130 20:58 22.08.2022
519 Clouds 27 1012 75 10000 4.12 120 19:47 22.08.2022
520 Clouds 28 1012 72 10000 5.14 130 18:38 22.08.2022
521 Clouds 28 1013 68 10000 4.63 170 16:26 22.08.2022
522 Clouds 29 1013 67 10000 5.14 160 15:36 22.08.2022
523 Clouds 28 1013 71 10000 2.57 100 12:56 22.08.2022
524 Clouds 25 1013 83 10000 2.57 30 10:20 22.08.2022
525 Clouds 23 1013 90 10000 1.54 10 07:40 22.08.2022
526 Clouds 24 1013 90 10000 2.57 330 02:50 22.08.2022
527 Clouds 24 1013 89 10000 2.06 330 00:37 22.08.2022
528 Clouds 24 1013 89 10000 2.06 330 00:37 22.08.2022
529 Clouds 24 1014 89 10000 3.6 340 23:58 21.08.2022
530 Clouds 24 1014 90 10000 3.09 330 21:57 21.08.2022
531 Clouds 24 1013 92 10000 3.6 340 21:21 21.08.2022
532 Thunderstorm 24 1013 90 10000 2.57 360 20:27 21.08.2022
533 Rain 27 1013 78 10000 9.26 40 19:23 21.08.2022
534 Clouds 30 1012 72 10000 5.66 190 16:54 21.08.2022
535 Clouds 30 1013 73 10000 5.66 130 15:53 21.08.2022
536 Clouds 30 1013 72 10000 5.66 210 15:20 21.08.2022
537 Clouds 30 1014 73 10000 4.12 180 13:51 21.08.2022
538 Clouds 29 1014 73 10000 4.63 110 13:24 21.08.2022
539 Clouds 29 1015 73 10000 2.57 170 11:29 21.08.2022
540 Clouds 26 1015 78 10000 3.09 330 09:31 21.08.2022
541 Clouds 24 1015 83 10000 3.6 330 08:56 21.08.2022
542 Clouds 24 1015 84 10000 3.09 330 08:38 21.08.2022
543 Clouds 24 1015 86 10000 3.09 320 07:26 21.08.2022
544 Clouds 24 1016 81 10000 1.03 320 03:24 21.08.2022
545 Clouds 25 1016 75 10000 3.09 250 23:49 20.08.2022
546 Clouds 26 1016 75 10000 3.6 250 22:24 20.08.2022
547 Clouds 27 1015 74 10000 7.2 240 21:26 20.08.2022
548 Clouds 28 1015 70 10000 8.23 240 20:28 20.08.2022
549 Clouds 29 1015 67 10000 8.23 230 19:40 20.08.2022
550 Clouds 30 1015 65 10000 7.72 220 18:29 20.08.2022
551 Clouds 30 1015 62 10000 8.75 220 17:40 20.08.2022
552 Clouds 30 1016 61 10000 8.75 220 16:49 20.08.2022
553 Clouds 30 1016 54 10000 8.75 210 15:26 20.08.2022
554 Clear 30 1018 60 10000 8.23 200 13:24 20.08.2022
555 Clear 28 1018 61 10000 3.6 180 11:49 20.08.2022
556 Clear 25 1018 71 10000 5.14 330 09:34 20.08.2022
557 Clear 23 1018 78 10000 5.14 320 08:29 20.08.2022
558 Clear 22 1017 81 10000 3.6 330 05:51 20.08.2022
559 Clear 23 1018 76 10000 2.06 360 00:59 20.08.2022
560 Clear 23 1019 74 10000 2.57 280 00:34 20.08.2022
561 Clear 24 1018 71 10000 3.09 60 22:59 19.08.2022
562 Clear 25 1018 70 10000 3.09 130 21:40 19.08.2022
563 Clear 27 1017 61 10000 4.12 110 19:54 19.08.2022
564 Clouds 28 1017 55 10000 6.17 130 17:19 19.08.2022
565 Clear 28 1017 51 10000 4.63 180 14:54 19.08.2022
566 Clear 27 1017 50 10000 4.12 340 13:18 19.08.2022
567 Clear 24 1017 59 10000 5.14 340 10:52 19.08.2022
568 Clear 23 1018 64 10000 5.14 330 10:19 19.08.2022
569 Clear 19 1016 78 10000 5.14 310 06:27 19.08.2022
570 Clouds 21 1016 80 10000 3.6 330 00:56 19.08.2022
571 Clouds 20 1015 81 10000 3.58 308 00:26 19.08.2022
572 Clouds 21 1015 82 10000 1.03 0 23:37 18.08.2022
573 Clouds 21 1015 86 10000 3.6 340 22:49 18.08.2022
574 Clouds 21 1015 85 10000 3.6 330 21:55 18.08.2022
575 Clouds 21 1014 85 10000 3.09 320 21:26 18.08.2022
576 Clouds 21 1014 84 10000 4.63 310 19:56 18.08.2022
577 Rain 21 1014 84 10000 4.12 340 19:26 18.08.2022
578 Thunderstorm 23 1015 76 10000 3.09 20 17:50 18.08.2022
579 Thunderstorm 24 1013 67 10000 5.14 90 16:58 18.08.2022
580 Clouds 27 1012 52 10000 4.12 180 14:45 18.08.2022
581 Clouds 27 1012 52 10000 3.58 133 14:19 18.08.2022
582 Clouds 25 1012 55 10000 4.63 310 12:55 18.08.2022
583 Rain 22 1012 65 10000 4.12 310 11:34 18.08.2022
584 Clouds 21 1011 71 10000 4.12 320 09:43 18.08.2022
585 Clouds 21 1011 71 10000 5.14 320 08:39 18.08.2022
586 Clouds 20 1010 74 10000 4.63 300 07:19 18.08.2022
587 Rain 21 1010 91 10000 3.6 280 03:53 18.08.2022
588 Rain 23 1010 77 10000 2.06 10 23:34 17.08.2022
589 Thunderstorm 23 1009 69 4000 3.09 40 21:40 17.08.2022
590 Clouds 26 1008 65 10000 6.69 80 20:18 17.08.2022
591 Clouds 26 1008 69 10000 5.14 90 19:28 17.08.2022
592 Clouds 29 1007 71 10000 7.2 120 17:35 17.08.2022
593 Clouds 30 1007 60 10000 4.63 170 16:22 17.08.2022
594 Clouds 30 1007 60 10000 4.63 170 16:22 17.08.2022
595 Clouds 31 1007 55 10000 4.12 120 15:22 17.08.2022
596 Clouds 27 1007 67 10000 3.6 30 12:57 17.08.2022
597 Rain 26 1007 73 10000 5.66 70 11:37 17.08.2022
598 Clouds 26 1007 77 10000 2.06 330 09:31 17.08.2022
599 Clouds 25 1007 82 10000 3.09 330 08:23 17.08.2022
600 Clouds 25 1007 86 10000 1.03 0 03:27 17.08.2022
601 Clouds 26 1007 87 10000 1.54 140 23:58 16.08.2022
602 Clouds 27 1007 85 10000 4.12 130 22:35 16.08.2022
603 Clouds 28 1007 80 10000 2.06 130 20:52 16.08.2022
604 Clouds 28 1007 78 10000 1.03 0 19:53 16.08.2022
605 Rain 28 1006 79 10000 3.6 120 18:40 16.08.2022
606 Clouds 29 1007 76 10000 4.12 120 17:43 16.08.2022
607 Clouds 30 1009 68 10000 3.6 100 15:48 16.08.2022
608 Clouds 29 1010 68 10000 4.63 110 14:55 16.08.2022
609 Clouds 29 1008 72 10000 3.6 120 14:37 16.08.2022
610 Clouds 28 1009 72 10000 3.6 120 12:58 16.08.2022
611 Clouds 28 1008 68 10000 2.06 120 10:59 16.08.2022
612 Clear 28 1008 68 10000 1.54 310 09:50 16.08.2022
613 Clear 26 1008 73 10000 2.57 330 08:47 16.08.2022
614 Clear 24 1008 79 10000 3.6 320 07:58 16.08.2022
615 Clouds 24 1009 79 10000 1.03 330 02:50 16.08.2022
616 Clouds 26 1008 77 10000 2.57 100 22:31 15.08.2022
617 Clouds 26 1008 77 10000 3.6 130 21:55 15.08.2022
618 Clouds 26 1008 76 10000 3.09 100 21:35 15.08.2022
619 Clouds 27 1007 75 10000 3.6 100 20:20 15.08.2022
620 Clouds 28 1007 72 10000 5.14 130 18:43 15.08.2022
621 Clouds 28 1007 70 10000 6.17 130 17:46 15.08.2022
622 Clouds 29 1008 65 10000 5.66 120 16:22 15.08.2022
623 Clouds 30 1008 60 10000 7.2 90 13:58 15.08.2022
624 Clouds 30 1008 55 10000 5.66 90 12:38 15.08.2022
625 Clear 28 1007 57 10000 1.54 10 10:18 15.08.2022
626 Clear 26 1007 64 10000 3.09 330 08:51 15.08.2022
627 Clear 25 1007 69 10000 2.06 340 06:33 15.08.2022
628 Clear 26 1008 73 10000 4.12 50 03:34 15.08.2022
629 Clouds 26 1008 77 10000 3.6 50 23:24 14.08.2022
630 Clouds 27 1007 77 10000 3.6 70 21:43 14.08.2022
631 Clouds 28 1007 76 10000 5.66 100 20:33 14.08.2022
632 Clouds 29 1007 74 10000 5.66 100 19:36 14.08.2022
633 Clouds 30 1007 72 10000 6.17 130 18:21 14.08.2022
634 Clouds 32 1006 61 10000 8.23 220 17:31 14.08.2022
635 Clouds 35 1006 43 10000 7.72 210 16:23 14.08.2022
636 Clear 34 1006 41 10000 9.26 220 14:55 14.08.2022
637 Clear 34 1007 41 10000 6.69 220 13:51 14.08.2022
638 Clear 34 1007 41 10000 5.66 200 13:31 14.08.2022
639 Clouds 34 1008 36 10000 4.63 290 12:42 14.08.2022
640 Clear 32 1008 37 10000 6.17 280 11:23 14.08.2022
641 Rain 30 1008 43 10000 7.2 290 08:57 14.08.2022
642 Clouds 27 1008 75 10000 4.63 320 06:41 14.08.2022
643 Clouds 27 1008 80 10000 4.12 330 05:37 14.08.2022
644 Clouds 28 1010 82 10000 2.57 230 01:43 14.08.2022
645 Clear 28 1010 77 10000 2.06 200 23:22 13.08.2022
646 Clear 29 1011 73 10000 2.57 320 22:28 13.08.2022
647 Rain 28 1011 83 10000 7.2 50 20:51 13.08.2022
648 Clear 29 1011 78 10000 2.57 120 19:49 13.08.2022
649 Clear 30 1011 72 10000 2.57 120 19:19 13.08.2022
650 Clear 30 1011 75 10000 6.17 110 17:22 13.08.2022
651 Clouds 31 1011 73 10000 5.14 130 14:51 13.08.2022
652 Clouds 32 1011 73 10000 5.66 120 14:24 13.08.2022
653 Clouds 32 1011 69 10000 7.2 130 13:34 13.08.2022
654 Clear 33 1010 50 10000 2.68 79 11:33 13.08.2022
655 Clear 29 1009 64 10000 4.63 330 09:27 13.08.2022
656 Clear 26 1009 73 10000 3.09 300 07:43 13.08.2022
657 Clear 28 1011 74 10000 2.24 300 01:52 13.08.2022
658 Clear 29 1012 72 10000 4.63 240 23:36 12.08.2022
659 Clear 30 1011 71 10000 6.69 230 21:40 12.08.2022
660 Clear 31 1011 70 10000 5.66 190 19:50 12.08.2022
661 Clouds 32 1011 67 10000 9.77 230 19:24 12.08.2022
662 Clear 33 1010 65 10000 10.29 230 18:29 12.08.2022
663 Clear 34 1010 64 10000 10.29 220 16:27 12.08.2022
664 Clear 34 1011 64 10000 9.77 210 15:23 12.08.2022
665 Clear 34 1011 59 10000 11.32 220 13:50 12.08.2022
666 Clear 33 1012 62 10000 9.77 230 12:50 12.08.2022
667 Clouds 29 1013 70 10000 2.06 310 09:22 12.08.2022
668 Clear 26 1013 76 10000 3.6 320 07:46 12.08.2022
669 Clear 26 1013 78 10000 2.06 320 06:24 12.08.2022
670 Clear 27 1014 63 10000 2.06 270 01:22 12.08.2022
671 Clear 27 1014 69 10000 2.57 240 00:18 12.08.2022
672 Clear 28 1015 73 10000 3.09 220 23:27 11.08.2022
673 Clear 29 1014 70 10000 3.09 220 21:55 11.08.2022
674 Clear 29 1014 68 10000 3.09 210 21:28 11.08.2022
675 Clear 31 1014 60 10000 4.12 170 20:31 11.08.2022
676 Clear 31 1014 61 10000 4.12 210 19:41 11.08.2022
677 Clear 31 1014 61 10000 4.63 190 19:21 11.08.2022
678 Clear 32 1014 55 10000 5.14 170 17:23 11.08.2022
679 Clear 33 1015 51 10000 6.17 140 16:19 11.08.2022
680 Clear 32 1015 55 10000 7.2 130 15:20 11.08.2022
681 Clear 32 1015 60 10000 5.14 190 12:35 11.08.2022
682 Clear 28 1015 56 10000 3.09 320 09:29 11.08.2022
683 Clear 25 1015 65 10000 3.6 320 06:59 11.08.2022
684 Clear 26 1015 64 10000 2.57 290 03:25 11.08.2022
685 Clouds 28 1015 69 10000 2.57 270 00:28 11.08.2022
686 Clouds 30 1015 64 10000 5.14 220 22:21 10.08.2022
687 Clouds 30 1015 67 10000 3.09 250 21:20 10.08.2022
688 Clouds 31 1015 65 10000 4.12 220 20:43 10.08.2022
689 Clouds 30 1015 64 10000 3.09 250 20:43 10.08.2022
690 Clear 32 1014 64 10000 5.66 210 18:53 10.08.2022
691 Clear 32 1015 60 10000 7.72 210 17:31 10.08.2022
692 Clouds 33 1015 55 10000 6.17 200 15:53 10.08.2022
693 Clear 33 1015 52 10000 5.14 180 13:34 10.08.2022
694 Clear 32 1016 54 10000 4.12 190 12:24 10.08.2022
695 Clear 28 1016 54 10000 2.24 316 08:55 10.08.2022
696 Clear 26 1017 58 10000 4.12 320 08:31 10.08.2022
697 Clear 25 1015 61 10000 4.12 310 06:22 10.08.2022
698 Clear 27 1017 59 10000 4.63 330 02:45 10.08.2022
699 Clear 28 1016 68 10000 3.09 200 23:34 09.08.2022
700 Clear 28 1016 67 10000 3.09 210 22:55 09.08.2022
701 Clear 29 1017 67 10000 2.06 180 21:34 09.08.2022
702 Clear 30 1016 65 10000 3.6 130 19:34 09.08.2022
703 Clear 31 1016 63 10000 4.63 120 18:29 09.08.2022
704 Clear 31 1016 59 10000 5.14 130 17:27 09.08.2022
705 Clear 32 1017 55 10000 5.66 120 16:40 09.08.2022
706 Clear 32 1017 56 10000 5.66 120 16:40 09.08.2022
707 Clear 32 1017 51 10000 5.66 140 15:40 09.08.2022
708 Clear 31 1018 59 10000 5.14 150 12:48 09.08.2022
709 Clear 28 1017 62 10000 5.14 320 09:30 09.08.2022
710 Clear 27 1017 62 10000 5.66 320 08:33 09.08.2022
711 Clear 25 1016 65 10000 5.14 320 07:20 09.08.2022
712 Clear 26 1016 70 10000 4.12 320 03:32 09.08.2022
713 Clear 27 1016 75 10000 1.54 120 23:27 08.08.2022
714 Clear 27 1016 75 10000 1.54 120 23:27 08.08.2022
715 Clear 27 1016 73 10000 2.57 130 22:54 08.08.2022
716 Clear 28 1016 68 10000 1.54 180 21:49 08.08.2022
717 Clear 28 1015 65 10000 3.6 140 20:55 08.08.2022
718 Clear 29 1015 61 10000 3.09 140 19:50 08.08.2022
719 Clear 30 1015 57 10000 4.63 120 18:38 08.08.2022
720 Clear 31 1016 53 10000 6.17 130 16:37 08.08.2022
721 Clear 31 1016 52 10000 5.66 110 15:39 08.08.2022
722 Clear 32 1016 43 10000 3.6 130 12:51 08.08.2022
723 Clear 31 1016 43 10000 4.63 90 11:53 08.08.2022
724 Clear 29 1016 51 10000 3.6 340 09:43 08.08.2022
725 Clear 25 1014 65 10000 5.14 310 05:43 08.08.2022
726 Clear 26 1014 64 10000 3.6 330 02:27 08.08.2022
727 Clear 27 1014 61 10000 4.63 300 22:32 07.08.2022
728 Rain 27 1013 59 10000 3.09 280 21:39 07.08.2022
729 Rain 28 1014 57 10000 2.06 300 20:26 07.08.2022
730 Rain 29 1015 56 10000 1.54 340 19:55 07.08.2022
731 Rain 29 1015 55 10000 1.54 50 19:34 07.08.2022
732 Rain 30 1015 60 10000 3.6 100 18:23 07.08.2022
733 Clear 31 1014 52 10000 6.17 130 16:54 07.08.2022
734 Clear 31 1014 50 10000 4.63 160 16:35 07.08.2022
735 Clear 31 1015 52 10000 5.66 140 15:19 07.08.2022
736 Clouds 31 1016 51 10000 5.14 110 13:24 07.08.2022
737 Clear 31 1016 54 10000 5.14 90 11:27 07.08.2022
738 Clear 30 1016 58 10000 1.79 76 10:34 07.08.2022
739 Clouds 25 1014 61 10000 3.6 330 06:52 07.08.2022
740 Clouds 26 1015 61 10000 4.12 320 03:20 07.08.2022
741 Clear 28 1014 71 10000 6.69 240 00:31 07.08.2022
742 Clouds 28 1015 76 10000 4.63 220 22:24 06.08.2022
743 Clear 30 1015 69 10000 3.09 210 20:42 06.08.2022
744 Clear 30 1015 67 10000 6.17 220 19:41 06.08.2022
745 Clear 31 1015 59 10000 7.2 220 18:30 06.08.2022
746 Clear 32 1015 57 10000 7.2 210 17:32 06.08.2022
747 Clear 33 1016 52 10000 4.63 200 14:43 06.08.2022
748 Clear 33 1016 49 10000 4.12 140 13:44 06.08.2022
749 Clear 32 1017 44 10000 1.34 68 11:55 06.08.2022
750 Clear 29 1017 54 10000 5.14 330 10:32 06.08.2022
751 Clear 27 1016 63 10000 7.2 330 08:40 06.08.2022
752 Clear 24 1016 67 10000 5.14 330 03:53 06.08.2022
753 Clouds 25 1015 62 10000 6.17 320 23:50 05.08.2022
754 Clouds 25 1014 67 10000 5.14 310 22:32 05.08.2022
755 Thunderstorm 23 1015 85 8000 4.12 320 19:59 05.08.2022
756 Thunderstorm 22 1017 87 2200 3.6 280 18:46 05.08.2022
757 Thunderstorm 26 1017 68 3000 7.2 330 18:25 05.08.2022
758 Clouds 31 1014 69 10000 6.17 110 16:49 05.08.2022
759 Clouds 32 1014 66 10000 7.2 120 15:22 05.08.2022
760 Clouds 32 1015 67 10000 5.66 160 14:31 05.08.2022
761 Clouds 32 1015 64 10000 5.66 180 13:24 05.08.2022
762 Clouds 32 1015 64 10000 5.66 180 12:44 05.08.2022
763 Clouds 30 1015 66 10000 3.09 190 10:55 05.08.2022
764 Clouds 26 1015 75 10000 3.09 330 08:36 05.08.2022
765 Clear 25 1015 81 10000 3.6 330 07:28 05.08.2022
766 Clear 27 1015 76 10000 2.57 240 01:46 05.08.2022
767 Clear 28 1015 74 10000 3.6 240 22:40 04.08.2022
768 Clear 29 1014 73 10000 2.57 210 21:27 04.08.2022
769 Clear 29 1013 71 10000 3.6 200 20:45 04.08.2022
770 Clear 31 1013 67 10000 5.14 160 19:58 04.08.2022
771 Clear 32 1013 64 10000 5.14 170 18:52 04.08.2022
772 Clouds 32 1013 64 10000 5.14 200 18:32 04.08.2022
773 Clear 33 1014 53 10000 6.17 210 14:50 04.08.2022
774 Clear 33 1014 54 10000 5.14 200 13:23 04.08.2022
775 Clear 32 1014 54 10000 3.6 200 11:38 04.08.2022
776 Clear 30 1014 56 10000 2.57 320 09:58 04.08.2022
777 Clear 26 1014 65 10000 2.06 320 07:31 04.08.2022
778 Clear 27 1014 68 10000 3.09 230 02:46 04.08.2022
779 Clear 29 1014 57 10000 3.09 270 23:58 03.08.2022
780 Clear 29 1014 55 10000 3.09 280 23:36 03.08.2022
781 Clear 30 1013 64 10000 3.09 220 21:26 03.08.2022
782 Clear 31 1013 60 10000 4.63 240 20:20 03.08.2022
783 Clear 32 1013 59 10000 5.14 210 18:53 03.08.2022
784 Clear 33 1013 56 10000 5.66 200 16:27 03.08.2022
785 Clear 33 1013 57 10000 5.66 210 15:53 03.08.2022
786 Clear 33 1014 60 10000 6.17 200 13:38 03.08.2022
787 Clear 31 1013 54 10000 3.6 230 10:50 03.08.2022
788 Clear 26 1013 65 10000 2.57 320 07:23 03.08.2022
789 Clear 27 1013 64 10000 3.09 320 04:22 03.08.2022
790 Clear 27 1014 63 10000 2.06 260 03:23 03.08.2022
791 Clear 28 1014 60 10000 3.09 250 00:49 03.08.2022
792 Clouds 29 1014 66 10000 3.09 230 22:37 02.08.2022
793 Clouds 29 1014 66 10000 3.09 220 21:51 02.08.2022
794 Clear 30 1014 60 10000 4.63 220 20:30 02.08.2022
795 Clear 32 1014 55 10000 6.69 220 17:52 02.08.2022
796 Clear 33 1015 53 10000 3.6 150 14:46 02.08.2022
797 Clear 32 1015 51 10000 2.24 60 10:50 02.08.2022
798 Clouds 29 1016 62 10000 2.06 330 08:54 02.08.2022
799 Clouds 27 1015 67 10000 4.12 320 07:52 02.08.2022
800 Clouds 27 1015 65 10000 2.24 244 05:40 02.08.2022
801 Clouds 28 1015 63 10000 3.09 300 03:40 02.08.2022
802 Clouds 29 1016 58 10000 3.09 240 23:35 01.08.2022
803 Clear 29 1016 60 10000 2.06 220 22:22 01.08.2022
804 Clear 30 1015 58 10000 4.12 220 20:47 01.08.2022
805 Clear 32 1015 53 10000 5.14 220 19:22 01.08.2022
806 Clear 33 1014 46 10000 6.69 170 17:57 01.08.2022
807 Clear 33 1015 43 10000 6.17 180 16:52 01.08.2022
808 Clouds 33 1015 43 10000 5.66 210 15:52 01.08.2022
809 Clouds 33 1015 43 10000 5.66 210 15:30 01.08.2022
810 Clear 33 1016 48 10000 5.14 220 13:45 01.08.2022
811 Clear 33 1016 50 10000 1.79 195 11:49 01.08.2022
812 Clear 33 1016 50 10000 1.79 195 11:49 01.08.2022
813 Clear 29 1016 63 10000 3.6 330 09:39 01.08.2022
814 Clear 26 1016 73 10000 5.14 320 08:22 01.08.2022
815 Clear 25 1016 74 10000 5.66 320 04:47 01.08.2022
816 Clear 26 1016 71 10000 4.12 320 02:32 01.08.2022
817 Clouds 27 1017 67 10000 4.63 240 23:54 31.07.2022
818 Clouds 28 1016 67 10000 2.06 200 22:36 31.07.2022
819 Clouds 28 1016 67 10000 2.06 200 22:36 31.07.2022
820 Clouds 29 1016 60 10000 3.6 210 20:50 31.07.2022
821 Clouds 30 1016 55 10000 4.63 120 19:41 31.07.2022
822 Clouds 32 1016 50 10000 5.66 200 17:47 31.07.2022
823 Clouds 32 1017 51 10000 6.69 160 15:35 31.07.2022
824 Clouds 32 1018 55 10000 3.6 180 13:41 31.07.2022
825 Clouds 31 1018 56 10000 3.6 110 11:55 31.07.2022
826 Clouds 28 1018 70 10000 4.12 340 09:36 31.07.2022
827 Clouds 24 1017 81 10000 2.06 310 06:48 31.07.2022
828 Clear 25 1019 77 10000 3.09 290 02:57 31.07.2022
829 Clear 26 1019 71 10000 1.03 0 23:36 30.07.2022
830 Clear 27 1018 69 10000 1.54 140 22:19 30.07.2022
831 Clear 27 1018 68 10000 2.57 180 21:48 30.07.2022
832 Clear 28 1018 64 10000 3.6 190 20:56 30.07.2022
833 Clear 28 1017 62 10000 5.14 170 19:58 30.07.2022
834 Clear 29 1017 58 10000 5.66 210 18:53 30.07.2022
835 Clear 30 1018 55 10000 6.17 210 17:44 30.07.2022
836 Clouds 30 1018 55 10000 5.14 220 15:50 30.07.2022
837 Clouds 30 1018 56 10000 4.63 190 15:22 30.07.2022
838 Clouds 29 1019 58 10000 2.57 140 12:59 30.07.2022
839 Clouds 28 1019 62 10000 2.57 160 11:55 30.07.2022
840 Clouds 27 1019 71 10000 1.03 0 10:31 30.07.2022
841 Clouds 26 1019 72 10000 2.57 310 09:54 30.07.2022
842 Clouds 24 1018 79 10000 2.57 320 07:55 30.07.2022
843 Clouds 24 1017 85 10000 2.57 40 02:57 30.07.2022
844 Clouds 24 1017 84 10000 2.06 60 02:24 30.07.2022
845 Clouds 25 1017 82 10000 6.69 70 22:41 29.07.2022
846 Clouds 25 1016 82 10000 5.14 60 21:24 29.07.2022
847 Clouds 26 1016 79 10000 3.6 70 20:39 29.07.2022
848 Clouds 27 1016 68 10000 5.81 61 18:18 29.07.2022
849 Clouds 28 1016 76 10000 8.23 90 15:35 29.07.2022
850 Clouds 30 1015 73 10000 4.63 120 13:19 29.07.2022
851 Clouds 29 1015 69 10000 3.09 100 11:28 29.07.2022
852 Clouds 26 1014 83 10000 3.6 330 08:50 29.07.2022
853 Clouds 25 1014 83 10000 3.6 330 08:18 29.07.2022
854 Clouds 25 1014 85 10000 1.54 280 01:58 29.07.2022
855 Clouds 27 1013 80 10000 2.06 150 22:53 28.07.2022
856 Rain 27 1012 76 10000 2.57 210 21:29 28.07.2022
857 Clouds 28 1012 73 10000 3.6 210 20:34 28.07.2022
858 Clouds 29 1012 69 10000 2.24 173 19:44 28.07.2022
859 Clouds 29 1012 66 10000 5.66 200 19:24 28.07.2022
860 Rain 28 1012 69 10000 4.63 200 17:44 28.07.2022
861 Rain 28 1012 71 10000 5.14 200 16:59 28.07.2022
862 Rain 29 1013 68 10000 4.63 190 16:36 28.07.2022
863 Clouds 30 1013 65 10000 4.12 160 13:35 28.07.2022
864 Clouds 28 1013 74 10000 2.06 0 11:42 28.07.2022
865 Rain 25 1012 85 10000 1.54 360 06:59 28.07.2022
866 Clouds 24 1012 83 10000 1.03 0 05:33 28.07.2022
867 Clouds 25 1012 84 10000 1.54 280 03:53 28.07.2022
868 Clouds 26 1012 80 10000 2.57 230 23:19 27.07.2022
869 Clouds 28 1011 72 10000 5.66 220 21:29 27.07.2022
870 Clouds 29 1011 69 10000 7.2 210 19:46 27.07.2022
871 Clouds 28 1011 75 10000 5.66 170 18:41 27.07.2022
872 Clouds 28 1013 69 10000 5.14 150 16:31 27.07.2022
873 Clouds 27 1014 71 10000 5.14 170 15:41 27.07.2022
874 Clouds 27 1014 72 10000 4.12 150 14:41 27.07.2022
875 Clouds 27 1014 72 10000 5.14 160 13:29 27.07.2022
876 Clouds 25 1014 75 10000 1.54 350 09:27 27.07.2022
877 Clouds 24 1014 76 10000 4.63 310 07:40 27.07.2022
878 Clouds 26 1014 85 10000 3.09 190 02:52 27.07.2022
879 Clouds 27 1014 82 10000 3.09 180 22:49 26.07.2022
880 Clouds 27 1013 80 10000 5.14 210 21:36 26.07.2022
881 Clouds 28 1013 78 10000 5.66 210 20:49 26.07.2022
882 Clouds 29 1013 71 10000 5.66 200 18:47 26.07.2022
883 Clouds 29 1013 71 10000 5.66 190 18:28 26.07.2022
884 Clouds 29 1013 69 10000 5.66 180 17:46 26.07.2022
885 Clouds 30 1014 67 10000 6.69 170 15:43 26.07.2022
886 Clouds 30 1015 68 10000 6.69 170 14:38 26.07.2022
887 Clouds 30 1015 60 10000 3.58 110 11:47 26.07.2022
888 Clouds 27 1015 58 10000 7.2 330 09:44 26.07.2022
889 Clouds 25 1015 63 10000 6.69 340 08:18 26.07.2022
890 Clouds 26 1016 81 10000 1.03 0 01:52 26.07.2022
891 Clouds 26 1016 81 10000 1.03 210 23:44 25.07.2022
892 Clouds 27 1015 80 10000 4.12 80 22:39 25.07.2022
893 Clouds 27 1015 77 10000 5.14 90 21:43 25.07.2022
894 Clouds 27 1014 75 10000 5.14 90 20:43 25.07.2022
895 Clouds 28 1014 76 10000 5.66 90 19:55 25.07.2022
896 Clouds 28 1014 75 10000 5.66 130 19:20 25.07.2022
897 Clouds 29 1014 73 10000 5.66 110 17:35 25.07.2022
898 Clouds 30 1014 70 10000 6.17 110 16:40 25.07.2022
899 Clouds 30 1016 71 10000 6.69 70 12:58 25.07.2022
900 Clouds 29 1015 73 10000 6.17 60 10:48 25.07.2022
901 Clear 26 1014 66 10000 3.09 320 07:32 25.07.2022
902 Clear 28 1015 62 10000 4.12 220 00:38 25.07.2022
903 Clear 28 1015 61 10000 4.12 230 23:45 24.07.2022
904 Clear 29 1014 62 10000 5.14 220 22:43 24.07.2022
905 Clear 30 1014 58 10000 5.66 220 21:41 24.07.2022
906 Clear 31 1014 58 10000 6.17 220 20:58 24.07.2022
907 Clear 31 1014 60 10000 6.69 220 20:37 24.07.2022
908 Clear 32 1014 60 10000 7.2 220 19:18 24.07.2022
909 Clear 33 1015 59 10000 6.17 210 17:56 24.07.2022
910 Clear 32 1016 65 10000 6.17 200 15:54 24.07.2022
911 Clear 32 1016 65 10000 6.17 180 14:41 24.07.2022
912 Clear 32 1017 67 10000 5.66 170 13:47 24.07.2022
913 Clear 31 1017 68 10000 3.6 160 12:28 24.07.2022
914 Clear 31 1017 67 10000 3.09 160 11:30 24.07.2022
915 Clear 29 1018 75 10000 2.68 314 09:47 24.07.2022
916 Clear 25 1017 89 10000 3.09 330 07:57 24.07.2022
917 Clouds 25 1017 89 10000 2.57 320 07:31 24.07.2022
918 Clouds 25 1018 90 10000 1.54 280 02:57 24.07.2022
919 Clouds 27 1018 86 10000 2.57 120 22:52 23.07.2022
920 Clouds 29 1017 78 10000 3.6 160 20:47 23.07.2022
921 Clouds 30 1018 74 10000 4.12 180 19:29 23.07.2022
922 Clouds 30 1018 72 10000 4.63 150 18:36 23.07.2022
923 Clouds 30 1018 73 10000 6.17 130 17:27 23.07.2022
924 Clouds 30 1018 71 10000 5.14 130 16:24 23.07.2022
925 Clouds 30 1019 71 10000 6.69 130 15:22 23.07.2022
926 Clouds 30 1019 71 10000 6.17 120 14:52 23.07.2022
927 Clouds 30 1019 70 10000 5.66 120 14:23 23.07.2022
928 Clouds 29 1018 75 10000 5.66 110 11:56 23.07.2022
929 Clouds 28 1018 77 10000 4.63 60 10:44 23.07.2022
930 Clouds 27 1018 75 10000 3.6 50 09:44 23.07.2022
931 Clouds 25 1017 79 10000 3.09 340 07:37 23.07.2022
932 Clear 26 1017 72 10000 2.06 320 03:37 23.07.2022
933 Clear 27 1017 78 10000 2.06 210 00:37 23.07.2022
934 Clear 29 1015 69 10000 4.12 220 21:38 22.07.2022
935 Clear 30 1015 64 10000 6.69 220 20:33 22.07.2022
936 Clear 31 1014 60 10000 7.2 220 18:56 22.07.2022
937 Clear 33 1014 57 10000 8.23 210 17:40 22.07.2022
938 Clear 33 1015 53 10000 7.72 220 16:31 22.07.2022
939 Clear 34 1016 52 10000 6.69 210 13:50 22.07.2022
940 Clear 31 1016 59 10000 3.09 250 10:40 22.07.2022
941 Clear 29 1016 61 10000 2.06 310 09:25 22.07.2022
942 Clear 26 1016 69 10000 2.68 128 08:26 22.07.2022
943 Clear 25 1016 78 10000 2.57 320 04:24 22.07.2022
944 Clear 27 1017 76 10000 3.09 240 23:45 21.07.2022
945 Clear 27 1017 74 10000 3.09 220 22:20 21.07.2022
946 Clear 29 1016 64 10000 4.63 210 20:36 21.07.2022
947 Clear 31 1017 61 10000 6.69 210 18:52 21.07.2022
948 Clear 32 1017 58 10000 8.75 210 17:29 21.07.2022
949 Clear 32 1017 55 10000 8.23 220 16:53 21.07.2022
950 Clear 32 1018 58 10000 7.72 210 14:52 21.07.2022
951 Clear 32 1018 57 10000 7.2 220 14:22 21.07.2022
952 Clear 31 1019 58 10000 3.09 200 12:27 21.07.2022
953 Clear 30 1019 58 10000 3.13 349 10:39 21.07.2022
954 Clear 27 1019 68 10000 3.09 330 08:54 21.07.2022
955 Clear 26 1019 73 10000 3.6 330 08:35 21.07.2022
956 Clear 24 1019 79 10000 3.6 330 07:23 21.07.2022
957 Clouds 25 1019 78 10000 2.57 330 03:55 21.07.2022
958 Clouds 26 1019 77 10000 2.06 70 23:26 20.07.2022
959 Clouds 26 1019 80 10000 3.6 130 22:21 20.07.2022
960 Clouds 28 1018 76 10000 3.6 140 20:50 20.07.2022
961 Clouds 28 1018 76 10000 5.14 120 19:49 20.07.2022
962 Clouds 28 1018 75 10000 5.14 110 19:20 20.07.2022
963 Clouds 29 1018 73 10000 5.14 100 18:33 20.07.2022
964 Clouds 30 1018 70 10000 5.66 100 17:54 20.07.2022
965 Clouds 30 1019 69 10000 6.69 130 16:19 20.07.2022
966 Clouds 30 1019 69 10000 6.17 100 14:57 20.07.2022
967 Clouds 30 1019 69 10000 6.17 100 13:57 20.07.2022
968 Clouds 30 1018 69 10000 4.12 70 11:32 20.07.2022
969 Clear 26 1016 64 10000 3.6 330 07:50 20.07.2022
970 Clear 25 1016 74 10000 3.09 320 03:25 20.07.2022
971 Clear 26 1016 70 10000 2.06 280 00:48 20.07.2022
972 Clouds 27 1016 68 10000 2.06 280 23:41 19.07.2022
973 Clear 27 1016 77 10000 0.51 350 22:31 19.07.2022
974 Clear 28 1015 76 10000 2.06 160 21:23 19.07.2022
975 Clear 29 1015 72 10000 4.12 130 20:27 19.07.2022
976 Clouds 31 1015 66 10000 6.17 120 18:43 19.07.2022
977 Clouds 31 1015 64 10000 6.69 120 17:58 19.07.2022
978 Clear 31 1016 63 10000 6.17 110 16:37 19.07.2022
979 Clear 31 1016 65 10000 6.17 110 14:52 19.07.2022
980 Clouds 30 1016 69 10000 3.09 110 11:39 19.07.2022
981 Clear 29 1016 69 7000 1.54 110 10:52 19.07.2022
982 Mist 27 1017 80 10000 2.57 320 09:23 19.07.2022
983 Clouds 25 1017 86 10000 2.57 320 08:38 19.07.2022
984 Clouds 23 1017 88 10000 1.54 310 07:19 19.07.2022
985 Clouds 24 1016 89 9000 1.54 340 05:28 19.07.2022
986 Clouds 24 1017 89 10000 1.03 0 04:53 19.07.2022
987 Clouds 25 1017 87 10000 1.03 100 01:19 19.07.2022
988 Clouds 25 1017 87 10000 1.54 90 23:47 18.07.2022
989 Clouds 25 1017 86 10000 2.06 120 23:18 18.07.2022
990 Clouds 26 1017 83 10000 2.06 100 21:58 18.07.2022
991 Clouds 27 1017 79 10000 3.6 130 20:51 18.07.2022
992 Clouds 29 1017 74 10000 4.12 130 19:33 18.07.2022
993 Clouds 30 1017 68 10000 6.17 120 17:38 18.07.2022
994 Clear 30 1018 67 10000 5.66 120 15:55 18.07.2022
995 Clear 31 1018 63 10000 6.17 130 14:51 18.07.2022
996 Clear 30 1019 65 10000 4.12 100 13:23 18.07.2022
997 Clear 30 1018 64 10000 4.12 80 11:31 18.07.2022
998 Clouds 27 1019 72 10000 4.12 70 09:28 18.07.2022
999 Clouds 25 1018 70 10000 2.57 330 07:43 18.07.2022
1000 Clear 26 1018 66 10000 1.54 290 02:21 18.07.2022
1001 Clear 27 1018 64 10000 2.06 290 22:51 17.07.2022
1002 Clear 28 1018 62 10000 1.03 0 22:23 17.07.2022
1003 Clear 28 1018 62 10000 1.54 70 21:24 17.07.2022
1004 Clear 29 1018 62 10000 2.57 110 20:44 17.07.2022
1005 Clouds 29 1018 56 10000 3.6 130 19:34 17.07.2022
1006 Clouds 30 1018 53 10000 4.12 80 18:56 17.07.2022
1007 Clear 31 1018 49 10000 5.66 140 17:39 17.07.2022
1008 Clear 31 1018 47 10000 6.17 130 16:51 17.07.2022
1009 Clear 31 1018 46 10000 6.69 130 16:27 17.07.2022
1010 Clear 31 1018 45 10000 6.17 120 15:27 17.07.2022
1011 Clear 32 1018 42 10000 5.14 120 13:47 17.07.2022
1012 Clear 32 1019 42 10000 3.6 120 12:32 17.07.2022
1013 Clear 30 1018 40 10000 2.24 73 09:31 17.07.2022
1014 Clear 26 1016 47 10000 4.12 350 06:58 17.07.2022
1015 Clear 27 1017 50 10000 3.13 126 02:33 17.07.2022
1016 Clear 27 1017 56 10000 2.06 280 23:22 16.07.2022
1017 Clear 28 1016 51 10000 1.54 110 21:57 16.07.2022
1018 Clear 30 1016 49 10000 3.09 80 20:28 16.07.2022
1019 Clear 31 1016 50 10000 5.14 110 18:42 16.07.2022
1020 Clear 32 1016 45 10000 5.14 100 17:24 16.07.2022
1021 Clear 32 1016 46 10000 5.66 120 15:41 16.07.2022
1022 Clear 32 1016 40 10000 3.6 130 11:55 16.07.2022
1023 Clear 31 1016 41 10000 1.34 46 09:41 16.07.2022
1024 Clear 30 1016 42 10000 2.06 340 09:22 16.07.2022
1025 Clear 29 1015 43 10000 3.09 330 08:35 16.07.2022
1026 Clear 27 1015 46 10000 5.14 330 06:47 16.07.2022
1027 Clear 28 1015 42 10000 3.09 330 03:32 16.07.2022
1028 Clear 29 1015 41 10000 2.57 300 23:54 15.07.2022
1029 Clear 30 1015 41 10000 1.03 0 22:46 15.07.2022
1030 Clear 31 1015 43 10000 1.54 200 21:55 15.07.2022
1031 Clear 32 1015 45 10000 4.63 170 20:40 15.07.2022
1032 Clear 32 1014 54 10000 6.17 220 18:55 15.07.2022
1033 Clear 33 1014 55 10000 6.17 200 18:22 15.07.2022
1034 Clear 33 1015 55 10000 6.69 110 16:46 15.07.2022
1035 Clear 33 1015 48 10000 6.69 130 13:58 15.07.2022
1036 Clear 33 1016 48 10000 4.63 220 12:28 15.07.2022
1037 Clear 32 1016 46 10000 2.06 220 10:52 15.07.2022
1038 Clear 27 1015 52 10000 4.12 290 07:48 15.07.2022
1039 Clear 26 1016 57 10000 2.57 300 03:41 15.07.2022
1040 Clear 27 1017 54 10000 3.09 250 00:40 15.07.2022
1041 Clear 28 1017 59 10000 4.12 220 23:24 14.07.2022
1042 Clear 28 1017 59 10000 3.6 220 22:24 14.07.2022
1043 Clear 29 1017 57 10000 4.63 220 21:40 14.07.2022
1044 Clear 29 1017 57 10000 5.14 210 21:21 14.07.2022
1045 Clear 30 1017 58 10000 5.14 210 20:43 14.07.2022
1046 Clear 30 1017 56 10000 4.63 210 20:18 14.07.2022
1047 Clear 31 1017 54 10000 5.14 200 18:24 14.07.2022
1048 Clear 31 1019 57 10000 5.14 210 16:19 14.07.2022
1049 Clouds 31 1019 63 10000 6.17 140 14:56 14.07.2022
1050 Clouds 31 1019 62 10000 6.17 130 13:51 14.07.2022
1051 Clear 30 1019 60 10000 4.12 180 12:36 14.07.2022
1052 Clear 30 1019 57 10000 3.09 170 11:28 14.07.2022
1053 Clear 30 1019 49 10000 2.68 352 10:52 14.07.2022
1054 Clear 27 1019 57 10000 3.09 320 08:58 14.07.2022
1055 Clear 24 1019 73 10000 2.57 320 04:45 14.07.2022
1056 Clear 25 1021 84 10000 1.54 280 01:19 14.07.2022
1057 Clear 25 1020 83 10000 2.06 290 00:51 14.07.2022
1058 Clear 27 1020 82 10000 3.09 130 22:31 13.07.2022
1059 Clear 27 1020 77 10000 4.12 120 21:47 13.07.2022
1060 Clear 29 1019 70 10000 5.14 120 20:41 13.07.2022
1061 Clear 30 1019 64 10000 5.14 160 18:40 13.07.2022
1062 Clear 31 1019 59 10000 5.66 170 17:31 13.07.2022
1063 Clear 31 1020 62 10000 6.17 130 16:19 13.07.2022
1064 Clear 30 1020 66 10000 6.17 120 14:54 13.07.2022
1065 Clear 30 1020 55 10000 5.66 130 11:56 13.07.2022
1066 Clear 30 1020 57 10000 2.06 120 10:45 13.07.2022
1067 Clear 29 1020 56 10000 2.24 272 09:56 13.07.2022
1068 Clear 28 1019 58 10000 2.06 320 09:20 13.07.2022
1069 Clear 26 1019 54 10000 2.57 310 05:29 13.07.2022
1070 Clear 26 1020 62 10000 1.54 280 01:22 13.07.2022
1071 Clear 26 1019 70 10000 1.54 280 23:35 12.07.2022
1072 Clear 27 1019 70 10000 1.54 120 21:54 12.07.2022
1073 Clear 28 1018 69 10000 3.6 120 21:18 12.07.2022
1074 Clear 28 1018 68 10000 3.09 110 20:41 12.07.2022
1075 Clear 30 1018 65 10000 5.14 120 18:56 12.07.2022
1076 Clear 31 1018 62 10000 5.66 120 17:38 12.07.2022
1077 Clear 30 1018 65 10000 6.17 120 15:42 12.07.2022
1078 Clear 30 1020 66 10000 5.66 120 14:23 12.07.2022
1079 Clear 30 1019 63 10000 4.12 70 12:19 12.07.2022
1080 Clear 29 1019 63 10000 4.12 80 11:22 12.07.2022
1081 Clear 27 1019 60 10000 1.03 0 09:28 12.07.2022
1082 Clear 26 1018 59 10000 2.57 340 08:18 12.07.2022
1083 Clear 24 1017 58 10000 3.09 320 06:24 12.07.2022
1084 Clear 24 1017 58 10000 2.57 310 05:39 12.07.2022
1085 Clear 25 1017 65 10000 3.13 247 02:21 12.07.2022
1086 Clear 25 1016 77 10000 2.06 120 23:18 11.07.2022
1087 Clouds 26 1017 76 10000 1.54 110 22:30 11.07.2022
1088 Clear 27 1016 70 10000 3.09 110 20:33 11.07.2022
1089 Clear 28 1015 66 10000 4.63 110 19:36 11.07.2022
1090 Clear 29 1015 63 10000 5.66 110 18:32 11.07.2022
1091 Clear 29 1015 57 10000 5.66 120 17:39 11.07.2022
1092 Clear 29 1016 53 10000 6.69 130 16:19 11.07.2022
1093 Clear 30 1016 48 10000 6.69 130 14:37 11.07.2022
1094 Clear 29 1016 47 10000 6.17 70 11:49 11.07.2022
1095 Clear 28 1016 52 10000 5.14 70 10:29 11.07.2022
1096 Clear 28 1016 55 10000 2.57 80 09:42 11.07.2022
1097 Clear 27 1015 55 10000 3.09 320 08:34 11.07.2022
1098 Clear 24 1014 60 10000 4.63 320 05:52 11.07.2022
1099 Clear 25 1016 72 10000 3.09 240 00:22 11.07.2022
1100 Clear 26 1016 75 10000 2.06 220 22:58 10.07.2022
1101 Clear 26 1016 73 10000 2.06 130 21:51 10.07.2022
1102 Clear 27 1016 70 10000 3.6 140 20:54 10.07.2022
1103 Clouds 28 1016 67 10000 4.63 150 19:50 10.07.2022
1104 Clouds 28 1016 67 10000 4.63 150 19:50 10.07.2022
1105 Clouds 28 1016 67 10000 4.63 150 19:50 10.07.2022
1106 Clear 29 1016 64 10000 5.66 160 18:50 10.07.2022
1107 Clear 30 1016 59 10000 5.66 210 17:40 10.07.2022
1108 Clear 30 1016 57 10000 6.69 170 16:57 10.07.2022
1109 Clear 31 1016 55 10000 6.17 210 16:19 10.07.2022
1110 Clear 31 1017 56 10000 6.17 210 14:33 10.07.2022
1111 Clear 31 1017 45 10000 4.63 100 12:30 10.07.2022
1112 Clear 31 1018 41 10000 3.09 100 11:34 10.07.2022
1113 Clear 27 1018 57 10000 3.09 340 08:46 10.07.2022
1114 Clear 26 1018 60 10000 4.63 320 08:24 10.07.2022
1115 Clear 24 1018 62 10000 1.34 262 03:38 10.07.2022
1116 Clear 25 1020 71 10000 3.09 220 23:30 09.07.2022
1117 Clear 26 1019 73 10000 2.57 210 22:25 09.07.2022
1118 Clear 26 1019 72 10000 3.09 210 21:29 09.07.2022
1119 Clear 28 1019 68 10000 5.14 110 18:59 09.07.2022
1120 Clear 28 1020 64 10000 6.17 120 17:59 09.07.2022
1121 Clear 29 1020 66 10000 6.69 110 16:59 09.07.2022
1122 Clouds 29 1020 64 10000 7.2 120 15:54 09.07.2022
1123 Clouds 29 1020 63 10000 6.69 120 15:35 09.07.2022
1124 Clouds 29 1021 63 10000 6.69 150 13:54 09.07.2022
1125 Clouds 29 1021 65 10000 7.2 140 13:28 09.07.2022
1126 Clear 29 1022 54 10000 4.12 140 11:34 09.07.2022
1127 Clear 28 1021 55 10000 1.34 153 10:24 09.07.2022
1128 Clear 24 1021 58 10000 4.12 310 08:27 09.07.2022
1129 Clear 23 1021 61 10000 3.09 340 06:59 09.07.2022
1130 Clear 24 1021 59 10000 2.06 290 04:35 09.07.2022
1131 Clear 25 1022 67 10000 4.63 250 23:27 08.07.2022
1132 Clear 26 1021 60 10000 4.63 240 21:59 08.07.2022
1133 Clear 27 1021 58 10000 5.14 240 21:20 08.07.2022
1134 Clouds 27 1021 57 10000 5.14 220 20:33 08.07.2022
1135 Clouds 28 1021 62 10000 5.14 180 18:36 08.07.2022
1136 Clouds 28 1021 62 10000 6.17 130 17:45 08.07.2022
1137 Clouds 29 1021 60 10000 6.69 130 15:53 08.07.2022
1138 Clouds 29 1021 57 10000 6.17 130 14:50 08.07.2022
1139 Clouds 28 1021 63 10000 4.63 120 12:30 08.07.2022
1140 Clouds 27 1021 64 10000 5.66 70 10:46 08.07.2022
1141 Clouds 26 1021 68 10000 4.63 50 09:42 08.07.2022
1142 Clear 22 1020 73 10000 4.63 330 06:55 08.07.2022
1143 Clear 23 1020 76 10000 3.09 310 04:32 08.07.2022
1144 Clear 25 1020 68 10000 5.14 230 00:23 08.07.2022
1145 Clear 26 1020 71 10000 5.14 220 22:47 07.07.2022
1146 Clouds 27 1019 67 10000 5.14 220 21:41 07.07.2022
1147 Clouds 29 1019 58 10000 6.17 220 19:34 07.07.2022
1148 Clouds 30 1019 54 10000 6.69 220 17:43 07.07.2022
1149 Clouds 29 1020 59 10000 7.2 200 15:58 07.07.2022
1150 Clouds 29 1020 58 10000 4.63 160 13:40 07.07.2022
1151 Clouds 29 1021 56 10000 5.14 180 12:41 07.07.2022
1152 Clouds 28 1020 58 10000 5.14 200 12:22 07.07.2022
1153 Clear 28 1020 57 10000 5.66 340 11:32 07.07.2022
1154 Clouds 26 1020 62 10000 6.17 320 10:45 07.07.2022
1155 Clouds 26 1020 62 10000 6.17 320 10:27 07.07.2022
1156 Fog 23 1020 73 10000 5.66 320 08:40 07.07.2022
1157 Clear 22 1019 76 10000 6.69 320 05:45 07.07.2022
1158 Clouds 24 1020 71 10000 3.13 118 00:18 07.07.2022
1159 Clouds 24 1019 68 10000 3.58 260 23:36 06.07.2022
1160 Clouds 24 1019 66 10000 5.66 310 23:18 06.07.2022
1161 Clouds 24 1019 66 10000 5.66 310 22:47 06.07.2022
1162 Clouds 24 1018 66 10000 5.14 310 22:47 06.07.2022
1163 Clouds 24 1018 67 10000 5.14 310 22:28 06.07.2022
1164 Clouds 26 1019 73 10000 9.26 250 20:19 06.07.2022
1165 Rain 28 1018 67 10000 8.23 230 18:48 06.07.2022
1166 Clouds 29 1018 65 10000 7.72 220 17:21 06.07.2022
1167 Rain 28 1019 66 10000 4.63 220 15:50 06.07.2022
1168 Rain 27 1019 64 10000 4.12 150 12:44 06.07.2022
1169 Clouds 26 1018 70 10000 4.12 90 11:52 06.07.2022
1170 Clouds 26 1019 69 10000 2.57 110 10:49 06.07.2022
1171 Thunderstorm 25 1019 75 9000 2.57 320 09:21 06.07.2022
1172 Rain 23 1019 82 10000 3.6 0 07:43 06.07.2022
1173 Rain 24 1021 78 10000 2.24 152 06:43 06.07.2022
1174 Clouds 25 1017 71 10000 3.6 120 23:42 05.07.2022
1175 Rain 26 1021 70 10000 6.17 230 22:42 05.07.2022
1176 Rain 27 1018 64 10000 4.63 120 20:48 05.07.2022
1177 Rain 27 1018 61 10000 3.6 150 19:55 05.07.2022
1178 Clouds 28 1018 61 10000 4.63 120 19:36 05.07.2022
1179 Clear 29 1018 60 10000 5.14 130 17:50 05.07.2022
1180 Clear 29 1018 59 10000 5.66 130 17:18 05.07.2022
1181 Clear 30 1019 56 10000 6.69 130 16:18 05.07.2022
1182 Clear 30 1018 56 10000 6.69 130 14:54 05.07.2022
1183 Clear 30 1018 56 10000 5.14 140 12:59 05.07.2022
1184 Clear 30 1018 54 10000 3.09 140 12:22 05.07.2022
1185 Clear 30 1018 54 10000 2.06 150 10:45 05.07.2022
1186 Clouds 28 1018 57 10000 2.06 330 09:44 05.07.2022
1187 Clouds 24 1018 73 10000 3.6 320 08:21 05.07.2022
1188 Rain 24 1018 70 10000 3.6 320 06:48 05.07.2022
1189 Clear 23 1018 74 10000 2.06 330 04:30 05.07.2022
1190 Clear 25 1017 72 10000 1.54 290 00:47 05.07.2022
1191 Clear 25 1016 74 10000 3.09 50 23:37 04.07.2022
1192 Clear 25 1016 76 10000 2.06 50 22:54 04.07.2022
1193 Clear 25 1015 77 10000 3.09 120 21:56 04.07.2022
1194 Clear 27 1015 72 10000 3.6 130 20:55 04.07.2022
1195 Clear 27 1015 72 10000 3.6 110 20:35 04.07.2022
1196 Clear 27 1015 68 10000 4.12 120 19:56 04.07.2022
1197 Clear 28 1015 65 10000 4.12 120 19:37 04.07.2022
1198 Clear 28 1015 58 10000 4.63 130 18:34 04.07.2022
1199 Clear 29 1016 50 10000 6.17 130 16:42 04.07.2022
1200 Clear 29 1016 55 10000 7.2 130 15:34 04.07.2022
1201 Clear 30 1017 44 10000 7.2 130 13:44 04.07.2022
1202 Clear 31 1017 39 10000 5.14 120 12:38 04.07.2022
1203 Clear 30 1015 40 10000 1.79 165 10:39 04.07.2022
1204 Clear 29 1015 43 10000 3.09 330 10:20 04.07.2022
1205 Clear 26 1015 41 10000 3.6 330 08:31 04.07.2022
1206 Clear 24 1017 53 10000 3.6 330 05:57 04.07.2022
1207 Clouds 26 1017 55 10000 1.54 90 00:44 04.07.2022
1208 Clouds 26 1017 54 10000 1.54 90 00:44 04.07.2022
1209 Rain 27 1018 46 10000 3.13 36 23:38 03.07.2022
1210 Clear 26 1017 59 10000 1.54 280 22:27 03.07.2022
1211 Clear 27 1015 58 10000 3.6 90 20:45 03.07.2022
1212 Rain 28 1015 57 10000 3.09 190 19:42 03.07.2022
1213 Clear 28 1016 56 10000 3.09 170 19:23 03.07.2022
1214 Clear 29 1017 50 10000 4.63 120 17:46 03.07.2022
1215 Clear 29 1017 51 10000 5.66 120 17:18 03.07.2022
1216 Clear 29 1018 44 10000 5.14 120 15:26 03.07.2022
1217 Clear 29 1018 44 10000 6.17 120 14:49 03.07.2022
1218 Clear 29 1018 51 10000 5.14 130 13:49 03.07.2022
1219 Clear 29 1018 60 10000 4.63 110 12:42 03.07.2022
1220 Clear 28 1018 62 10000 3.6 90 11:47 03.07.2022
1221 Clear 27 1017 65 10000 4.63 60 10:51 03.07.2022
1222 Clear 26 1017 67 10000 4.63 60 10:33 03.07.2022
1223 Clear 23 1017 65 10000 3.6 320 07:38 03.07.2022
1224 Clear 22 1017 67 10000 2.57 300 05:34 03.07.2022
1225 Clear 24 1019 69 10000 1.54 180 00:26 03.07.2022
1226 Clear 24 1018 65 10000 1.03 0 22:37 02.07.2022
1227 Clear 24 1018 65 10000 1.03 0 22:18 02.07.2022
1228 Clear 26 1018 55 10000 2.57 100 20:26 02.07.2022
1229 Clear 26 1018 54 10000 4.12 120 19:49 02.07.2022
1230 Clear 27 1019 52 10000 4.12 120 18:20 02.07.2022
1231 Clear 27 1019 54 10000 5.14 130 17:37 02.07.2022
1232 Clouds 27 1019 58 10000 5.14 120 15:46 02.07.2022
1233 Clear 27 1019 61 10000 5.14 110 12:56 02.07.2022
1234 Clear 27 1019 62 10000 4.12 100 11:48 02.07.2022
1235 Clear 26 1019 63 10000 3.6 70 10:50 02.07.2022
1236 Clear 25 1019 66 10000 1.54 30 09:49 02.07.2022
1237 Clear 23 1019 70 10000 4.12 330 08:37 02.07.2022
1238 Clear 22 1018 72 10000 4.63 330 08:19 02.07.2022
1239 Clear 21 1019 77 10000 2.06 300 02:53 02.07.2022
1240 Clear 21 1019 73 10000 1.03 290 00:28 02.07.2022
1241 Clear 22 1019 71 10000 1.54 120 23:21 01.07.2022
1242 Clear 22 1018 70 10000 2.57 110 22:29 01.07.2022
1243 Clear 23 1018 69 10000 3.6 120 21:37 01.07.2022
1244 Clouds 23 1018 68 10000 3.6 110 20:58 01.07.2022
1245 Clouds 23 1018 67 10000 4.12 130 20:32 01.07.2022
1246 Clouds 24 1018 66 10000 5.66 120 19:36 01.07.2022
1247 Clouds 25 1018 64 10000 6.69 130 16:42 01.07.2022
1248 Clouds 26 1018 64 10000 7.2 120 14:32 01.07.2022
1249 Clouds 25 1018 64 10000 6.17 120 13:39 01.07.2022
1250 Clouds 24 1017 62 10000 3.6 120 11:22 01.07.2022
1251 Clouds 24 1017 61 10000 2.24 307 10:19 01.07.2022
1252 Clouds 22 1016 66 10000 4.63 330 07:32 01.07.2022
1253 Clouds 23 1015 77 10000 1.54 110 02:43 01.07.2022
1254 Clouds 23 1015 78 10000 6.17 80 23:52 30.06.2022
1255 Clouds 23 1014 81 10000 7.2 70 22:51 30.06.2022
1256 Clouds 23 1014 81 10000 7.72 70 22:32 30.06.2022
1257 Clouds 23 1014 81 10000 7.72 70 22:32 30.06.2022
1258 Clouds 23 1014 81 10000 7.72 70 22:32 30.06.2022
1259 Clouds 23 1013 82 10000 7.72 70 22:32 30.06.2022
1260 Clouds 24 1013 82 10000 5.81 116 21:54 30.06.2022
1261 Clear 25 1012 78 10000 4.92 104 20:53 30.06.2022
1262 Clear 26 1011 73 10000 5.14 130 20:21 30.06.2022
1263 Clear 27 1011 67 10000 5.14 130 19:48 30.06.2022
1264 Clear 27 1011 61 10000 4.63 120 18:56 30.06.2022
1265 Clear 28 1011 58 10000 4.63 120 18:34 30.06.2022
1266 Clear 28 1011 57 10000 4.63 220 17:37 30.06.2022
1267 Clear 28 1011 59 10000 5.66 200 16:22 30.06.2022
1268 Clear 28 1012 61 10000 5.66 200 14:31 30.06.2022
1269 Clear 28 1012 66 10000 6.69 190 13:29 30.06.2022
1270 Clear 28 1012 65 10000 6.17 210 12:34 30.06.2022
1271 Clear 27 1011 67 10000 4.63 210 11:28 30.06.2022
1272 Clear 25 1011 70 10000 2.57 200 09:53 30.06.2022
1273 Clear 25 1011 71 10000 1.03 0 09:31 30.06.2022
1274 Clouds 22 1011 76 10000 2.06 320 07:41 30.06.2022
1275 Clouds 22 1011 81 10000 1.54 250 05:47 30.06.2022
1276 Clouds 23 1012 84 10000 2.06 240 00:31 30.06.2022
1277 Clouds 23 1012 85 10000 1.54 200 23:19 29.06.2022
1278 Clouds 24 1011 83 10000 3.09 170 22:38 29.06.2022
1279 Clouds 25 1011 77 10000 3.6 210 21:34 29.06.2022
1280 Clouds 26 1011 72 10000 4.63 210 20:33 29.06.2022
1281 Clouds 27 1011 68 10000 4.63 220 19:37 29.06.2022
1282 Clouds 28 1012 67 10000 5.66 200 17:43 29.06.2022
1283 Clouds 28 1012 67 10000 5.66 210 16:36 29.06.2022
1284 Clouds 28 1013 69 10000 5.66 220 14:56 29.06.2022
1285 Clouds 27 1015 73 10000 5.14 190 12:40 29.06.2022
1286 Clear 27 1015 67 10000 1.34 161 10:56 29.06.2022
1287 Clouds 25 1015 68 10000 2.06 320 09:32 29.06.2022
1288 Clouds 22 1015 76 10000 2.06 320 07:39 29.06.2022
1289 Clear 21 1015 75 10000 2.06 330 04:51 29.06.2022
1290 Clear 23 1016 70 10000 4.12 240 00:57 29.06.2022
1291 Clear 23 1016 70 10000 4.63 240 00:35 29.06.2022
1292 Clear 25 1015 63 10000 6.69 230 22:54 28.06.2022
1293 Clear 25 1015 63 10000 2.57 240 22:30 28.06.2022
1294 Clear 26 1014 61 10000 3.6 220 21:54 28.06.2022
1295 Clear 26 1014 63 10000 9.77 230 21:32 28.06.2022
1296 Clear 28 1013 54 10000 5.14 210 20:35 28.06.2022
1297 Clear 29 1013 51 10000 9.26 230 19:34 28.06.2022
1298 Clear 29 1013 52 10000 9.77 230 18:46 28.06.2022
1299 Clouds 29 1013 56 10000 10.29 220 17:40 28.06.2022
1300 Clouds 28 1014 58 10000 7.2 200 15:59 28.06.2022
1301 Clouds 28 1015 58 10000 7.72 210 15:38 28.06.2022
1302 Clouds 27 1015 59 10000 5.66 200 14:21 28.06.2022
1303 Clouds 27 1016 57 10000 5.66 190 13:52 28.06.2022
1304 Clouds 27 1016 58 10000 4.63 170 12:57 28.06.2022
1305 Clouds 26 1016 59 10000 3.58 164 11:18 28.06.2022
1306 Clear 23 1017 68 10000 5.66 340 09:29 28.06.2022
1307 Clouds 22 1016 68 10000 5.66 340 08:43 28.06.2022
1308 Clouds 21 1016 75 10000 4.63 340 07:42 28.06.2022
1309 Clouds 21 1016 75 10000 4.63 350 06:56 28.06.2022
1310 Clouds 22 1017 67 10000 7.2 320 00:58 28.06.2022
1311 Clouds 23 1017 69 10000 5.14 310 23:37 27.06.2022
1312 Clouds 24 1017 71 10000 3.6 330 22:52 27.06.2022
1313 Clouds 24 1016 72 10000 4.12 280 21:38 27.06.2022
1314 Clouds 24 1016 72 10000 4.12 260 20:52 27.06.2022
1315 Clouds 26 1015 65 10000 6.17 230 19:33 27.06.2022
1316 Clouds 27 1014 58 10000 4.12 200 18:25 27.06.2022
1317 Clouds 27 1015 60 10000 4.63 140 16:27 27.06.2022
1318 Clouds 27 1014 65 10000 5.66 120 15:23 27.06.2022
1319 Clouds 26 1015 72 10000 3.6 140 13:37 27.06.2022
1320 Clouds 26 1015 73 10000 3.6 150 12:56 27.06.2022
1321 Clouds 25 1014 75 10000 3.09 160 10:35 27.06.2022
1322 Clouds 25 1013 79 10000 2.24 313 09:21 27.06.2022
1323 Clouds 24 1012 82 10000 1.03 0 08:30 27.06.2022
1324 Clouds 22 1011 87 10000 2.57 100 06:39 27.06.2022
1325 Clouds 23 1011 88 10000 1.79 253 03:58 27.06.2022
1326 Clouds 23 1012 89 10000 2.57 90 01:18 27.06.2022
1327 Clouds 24 1010 87 10000 3.09 130 22:22 26.06.2022
1328 Clouds 25 1009 83 10000 3.6 130 20:48 26.06.2022
1329 Clouds 26 1009 80 10000 4.12 120 19:44 26.06.2022
1330 Clouds 26 1009 77 10000 4.63 120 18:32 26.06.2022
1331 Clouds 27 1009 74 10000 4.63 120 17:22 26.06.2022
1332 Clouds 26 1010 75 10000 5.66 100 15:27 26.06.2022
1333 Clouds 27 1011 75 10000 7.2 100 13:53 26.06.2022
1334 Clouds 26 1011 76 10000 7.2 90 13:20 26.06.2022
1335 Clouds 26 1011 77 10000 7.2 80 11:27 26.06.2022
1336 Clouds 25 1011 79 10000 6.69 90 10:28 26.06.2022
1337 Clouds 25 1010 80 10000 7.72 60 09:39 26.06.2022
1338 Clouds 22 1010 83 10000 4.12 50 07:45 26.06.2022
1339 Clouds 23 1010 86 10000 2.06 30 02:52 26.06.2022
1340 Clouds 23 1011 86 10000 0.51 150 00:36 26.06.2022
1341 Clouds 23 1011 86 10000 0.51 150 00:18 26.06.2022
1342 Clouds 24 1011 85 10000 1.54 170 23:24 25.06.2022
1343 Clouds 24 1010 84 10000 3.09 130 22:27 25.06.2022
1344 Clear 25 1010 78 10000 2.57 120 21:50 25.06.2022
1345 Clear 26 1009 75 10000 3.09 130 21:20 25.06.2022
1346 Clear 26 1009 74 10000 3.09 120 20:30 25.06.2022
1347 Clear 27 1010 71 10000 3.6 130 19:55 25.06.2022
1348 Clouds 27 1010 73 10000 6.17 120 18:21 25.06.2022
1349 Clouds 28 1010 70 10000 5.66 110 17:25 25.06.2022
1350 Clouds 28 1010 66 10000 6.69 120 16:24 25.06.2022
1351 Clouds 27 1012 66 10000 6.17 100 13:51 25.06.2022
1352 Clouds 27 1012 66 10000 4.12 100 12:39 25.06.2022
1353 Clouds 26 1012 71 10000 3.6 90 11:34 25.06.2022
1354 Clouds 24 1012 73 10000 2.57 320 09:22 25.06.2022
1355 Clouds 23 1012 75 10000 2.57 320 08:46 25.06.2022
1356 Clouds 23 1012 77 10000 3.09 330 08:19 25.06.2022
1357 Clouds 21 1013 85 10000 2.06 60 05:26 25.06.2022
1358 Clouds 22 1014 82 10000 5.14 50 00:44 25.06.2022
1359 Clouds 22 1014 82 10000 5.14 50 00:44 25.06.2022
1360 Clouds 23 1014 84 10000 5.66 60 23:18 24.06.2022
1361 Clouds 23 1013 83 10000 5.66 60 21:59 24.06.2022
1362 Clouds 24 1013 80 10000 7.2 60 21:21 24.06.2022
1363 Clouds 25 1012 71 10000 7.72 80 20:22 24.06.2022
1364 Clouds 27 1012 58 10000 5.14 90 19:23 24.06.2022
1365 Clouds 27 1012 64 10000 6.17 100 18:50 24.06.2022
1366 Clouds 28 1012 63 10000 6.69 200 18:30 24.06.2022
1367 Clouds 30 1011 44 10000 8.23 220 17:46 24.06.2022
1368 Clouds 30 1012 44 10000 9.26 220 16:32 24.06.2022
1369 Clouds 30 1012 44 10000 8.75 210 14:29 24.06.2022
1370 Clouds 30 1012 45 10000 7.72 210 13:55 24.06.2022
1371 Clouds 30 1011 40 10000 5.66 200 12:26 24.06.2022
1372 Clouds 29 1012 42 10000 4.12 280 11:40 24.06.2022
1373 Clouds 27 1012 53 10000 3.09 330 10:22 24.06.2022
1374 Clouds 25 1012 59 10000 4.63 310 09:41 24.06.2022
1375 Clouds 24 1012 66 10000 3.09 320 08:52 24.06.2022
1376 Clouds 21 1012 79 10000 3.09 320 07:20 24.06.2022
1377 Clouds 21 1012 81 10000 2.57 320 06:42 24.06.2022
1378 Clouds 21 1011 79 10000 2.06 280 06:18 24.06.2022
1379 Clear 23 1011 78 10000 2.06 310 02:44 24.06.2022
1380 Clouds 25 1011 62 10000 4.12 220 22:58 23.06.2022
1381 Clear 26 1011 59 10000 6.17 220 22:40 23.06.2022
1382 Clear 27 1011 59 10000 6.69 230 20:57 23.06.2022
1383 Clear 27 1011 58 10000 7.2 230 20:32 23.06.2022
1384 Clouds 28 1010 64 10000 8.23 220 19:25 23.06.2022
1385 Clouds 28 1011 66 10000 7.72 220 17:52 23.06.2022
1386 Clouds 28 1011 64 10000 6.17 210 16:58 23.06.2022
1387 Clouds 28 1011 65 10000 5.66 120 15:50 23.06.2022
1388 Clouds 28 1011 64 10000 5.14 190 15:24 23.06.2022
1389 Clouds 28 1012 67 10000 5.14 200 13:33 23.06.2022
1390 Clouds 26 1011 71 10000 6.17 200 11:27 23.06.2022
1391 Clouds 26 1011 73 10000 4.47 2 10:35 23.06.2022
1392 Clouds 24 1011 80 10000 4.63 220 08:53 23.06.2022
1393 Clouds 23 1011 89 9000 3.09 200 03:35 23.06.2022
1394 Clear 24 1011 86 10000 2.57 210 00:26 23.06.2022
1395 Clouds 24 1011 87 10000 3.09 210 23:30 22.06.2022
1396 Clouds 25 1010 86 10000 3.09 200 22:39 22.06.2022
1397 Clouds 26 1009 81 10000 4.12 210 21:22 22.06.2022
1398 Clouds 27 1009 76 10000 4.63 220 20:42 22.06.2022
1399 Clouds 27 1009 77 10000 5.66 180 19:56 22.06.2022
1400 Clouds 28 1009 76 10000 6.17 210 18:47 22.06.2022
1401 Clouds 27 1009 80 10000 3.6 170 17:28 22.06.2022
1402 Clouds 27 1010 79 10000 5.14 100 16:29 22.06.2022
1403 Clouds 26 1010 78 10000 5.66 90 15:26 22.06.2022
1404 Clouds 27 1010 77 9000 6.69 70 14:20 22.06.2022
1405 Clouds 27 1010 76 9000 6.17 70 13:39 22.06.2022
1406 Clouds 26 1010 77 9000 6.17 70 13:21 22.06.2022
1407 Clouds 25 1010 82 9000 4.12 70 11:49 22.06.2022
1408 Clouds 24 1010 83 9000 2.06 20 10:55 22.06.2022
1409 Clouds 23 1010 85 9000 1.54 330 10:19 22.06.2022
1410 Clear 23 1010 82 10000 3.6 340 08:28 22.06.2022
1411 Clouds 21 1008 88 10000 4.63 330 04:50 22.06.2022
1412 Rain 22 1013 88 8000 8.75 320 01:23 22.06.2022
1413 Rain 24 1011 78 10000 7.72 320 00:29 22.06.2022
1414 Rain 26 1010 80 10000 1.03 0 22:19 21.06.2022
1415 Clouds 27 1010 75 10000 1.54 240 19:56 21.06.2022
1416 Clouds 27 1010 75 10000 5.14 170 18:36 21.06.2022
1417 Clouds 28 1010 73 10000 4.02 3 17:39 21.06.2022
1418 Clouds 29 1009 67 10000 4.12 60 14:22 21.06.2022
1419 Rain 26 1011 77 10000 3.13 246 11:49 21.06.2022
1420 Rain 26 1011 77 10000 1.54 160 10:19 21.06.2022
1421 Clouds 26 1010 73 10000 3.09 220 08:48 21.06.2022
1422 Clouds 24 1010 78 10000 1.03 280 07:23 21.06.2022
1423 Clouds 24 1011 83 10000 2.57 270 02:27 21.06.2022
1424 Clouds 25 1011 84 10000 0.51 30 23:26 20.06.2022
1425 Clouds 26 1010 81 10000 2.57 110 21:58 20.06.2022
1426 Clouds 26 1010 81 10000 2.57 110 21:30 20.06.2022
1427 Clouds 27 1011 79 10000 4.12 120 19:49 20.06.2022
1428 Clouds 27 1011 78 10000 4.63 130 18:53 20.06.2022
1429 Clouds 28 1011 78 10000 4.63 130 18:23 20.06.2022
1430 Clouds 28 1011 75 10000 4.63 120 17:40 20.06.2022
1431 Clouds 28 1011 73 10000 5.14 130 16:20 20.06.2022
1432 Clouds 28 1011 76 10000 5.14 140 14:18 20.06.2022
1433 Clouds 28 1011 69 10000 3.6 120 11:30 20.06.2022
1434 Clear 26 1011 70 10000 2.57 50 09:48 20.06.2022
1435 Clouds 25 1010 75 10000 1.54 350 08:45 20.06.2022
1436 Clouds 23 1010 83 10000 2.06 330 06:59 20.06.2022
1437 Clear 24 1010 82 10000 3.09 10 03:29 20.06.2022
1438 Clear 25 1011 80 10000 5.14 40 00:52 20.06.2022
1439 Clear 25 1011 78 10000 5.14 50 23:29 19.06.2022
1440 Clear 25 1010 78 10000 7.2 50 22:19 19.06.2022
1441 Clouds 26 1010 77 10000 7.2 50 21:42 19.06.2022
1442 Clouds 26 1010 76 10000 7.2 60 20:48 19.06.2022
1443 Clear 27 1010 75 10000 7.72 60 19:49 19.06.2022
1444 Clear 27 1010 74 10000 7.2 70 19:24 19.06.2022
1445 Clouds 28 1011 74 10000 7.2 60 18:31 19.06.2022
1446 Clouds 28 1011 75 10000 7.2 70 17:39 19.06.2022
1447 Clouds 28 1011 75 10000 7.2 70 16:47 19.06.2022
1448 Clouds 28 1012 77 10000 6.69 130 16:23 19.06.2022
1449 Clouds 28 1012 75 10000 6.17 100 15:29 19.06.2022
1450 Clouds 28 1012 75 10000 6.69 140 14:41 19.06.2022
1451 Clouds 28 1012 78 10000 7.2 130 13:44 19.06.2022
1452 Clear 29 1012 71 10000 6.17 70 12:19 19.06.2022
1453 Clear 28 1012 71 10000 6.69 70 10:52 19.06.2022
1454 Clouds 25 1012 79 10000 5.14 50 08:55 19.06.2022
1455 Clouds 25 1012 83 10000 3.09 30 08:32 19.06.2022
1456 Clouds 23 1012 86 10000 5.14 50 07:26 19.06.2022
1457 Clouds 23 1012 86 10000 3.09 40 03:57 19.06.2022
1458 Clouds 24 1014 89 10000 4.12 50 00:51 19.06.2022
1459 Clouds 24 1014 89 10000 3.6 70 00:22 19.06.2022
1460 Clouds 24 1014 88 10000 4.12 60 23:35 18.06.2022
1461 Clouds 24 1014 87 10000 4.63 70 22:30 18.06.2022
1462 Clouds 26 1014 80 10000 4.12 70 20:51 18.06.2022
1463 Clouds 27 1014 75 10000 5.14 70 20:18 18.06.2022
1464 Clouds 29 1014 69 10000 5.14 120 18:57 18.06.2022
1465 Clouds 29 1014 69 10000 5.14 120 18:57 18.06.2022
1466 Clouds 29 1015 69 10000 4.63 120 18:38 18.06.2022
1467 Clouds 30 1015 63 10000 5.66 100 17:29 18.06.2022
1468 Clear 30 1016 60 10000 5.66 140 16:18 18.06.2022
1469 Clear 31 1016 51 10000 5.66 130 14:58 18.06.2022
1470 Clear 31 1016 49 10000 6.69 120 14:37 18.06.2022
1471 Clear 31 1017 50 10000 4.12 70 12:31 18.06.2022
1472 Clear 31 1017 53 10000 3.09 80 11:29 18.06.2022
1473 Clear 29 1017 54 10000 3.6 70 10:23 18.06.2022
1474 Clear 28 1017 60 10000 4.12 60 09:19 18.06.2022
1475 Clear 27 1017 58 10000 5.14 320 07:58 18.06.2022
1476 Clear 26 1016 55 10000 4.12 330 06:24 18.06.2022
1477 Clear 28 1017 43 10000 4.63 320 02:53 18.06.2022
1478 Clear 28 1018 44 10000 2.57 310 01:23 18.06.2022
1479 Clear 28 1018 44 10000 2.06 300 00:39 18.06.2022
1480 Clear 28 1018 45 10000 2.57 290 23:42 17.06.2022
1481 Clear 29 1018 44 10000 1.54 280 22:49 17.06.2022
1482 Clear 31 1017 39 10000 3.09 240 20:33 17.06.2022
1483 Clear 32 1017 40 10000 3.6 110 19:24 17.06.2022
1484 Clear 32 1018 41 10000 4.63 120 18:19 17.06.2022
1485 Clear 32 1018 41 10000 5.14 120 17:21 17.06.2022
1486 Clear 33 1018 40 10000 5.66 140 16:37 17.06.2022
1487 Clear 33 1019 41 10000 6.17 130 15:41 17.06.2022
1488 Clear 33 1018 39 10000 6.17 130 14:37 17.06.2022
1489 Clear 33 1019 39 10000 6.17 130 14:18 17.06.2022
1490 Clear 33 1019 38 10000 6.17 120 13:41 17.06.2022
1491 Clear 33 1019 39 10000 3.09 170 12:42 17.06.2022
1492 Clear 33 1018 40 10000 3.09 160 11:56 17.06.2022
1493 Clear 33 1019 40 10000 1.54 140 11:34 17.06.2022
1494 Clear 31 1018 42 10000 0.89 53 09:49 17.06.2022
1495 Clear 28 1018 46 10000 2.57 330 08:27 17.06.2022
1496 Clear 27 1017 39 10000 6.17 330 06:51 17.06.2022
1497 Clear 27 1017 37 10000 3.6 290 04:49 17.06.2022
1498 Clear 28 1018 37 10000 3.58 121 01:57 17.06.2022
1499 Clear 29 1018 38 10000 2.24 249 00:26 17.06.2022
1500 Clear 28 1018 52 10000 1.54 300 22:43 16.06.2022
1501 Clear 31 1019 47 10000 1.03 0 21:23 16.06.2022
1502 Clear 31 1019 45 10000 1.54 120 20:56 16.06.2022
1503 Clear 32 1019 47 10000 2.57 200 20:36 16.06.2022
1504 Clear 31 1018 50 10000 2.57 200 20:36 16.06.2022
1505 Clear 32 1019 43 10000 2.57 120 19:53 16.06.2022
1506 Clear 33 1019 41 10000 4.12 100 18:27 16.06.2022
1507 Clear 33 1018 43 10000 4.63 100 17:43 16.06.2022
1508 Clear 33 1019 43 10000 4.63 140 16:39 16.06.2022
1509 Clear 33 1019 45 10000 4.63 120 15:24 16.06.2022
1510 Clear 33 1019 44 10000 4.63 130 14:46 16.06.2022
1511 Clear 33 1017 41 10000 5.66 120 13:32 16.06.2022
1512 Clear 34 1017 35 10000 2.06 170 12:36 16.06.2022
1513 Clear 32 1017 43 10000 5.14 220 11:52 16.06.2022
1514 Clear 31 1017 45 10000 2.57 230 10:56 16.06.2022
1515 Clear 30 1017 48 10000 2.57 240 10:27 16.06.2022
1516 Clear 27 1018 54 10000 3.09 300 09:21 16.06.2022
1517 Clear 26 1017 59 10000 4.12 310 08:30 16.06.2022
1518 Clear 25 1017 61 10000 3.09 300 07:26 16.06.2022
1519 Clouds 24 1017 69 10000 5.36 120 05:29 16.06.2022
1520 Clouds 24 1017 77 10000 1.79 308 02:50 16.06.2022
1521 Clouds 24 1017 79 10000 0.51 0 01:50 16.06.2022
1522 Clouds 25 1018 75 10000 1.03 260 01:21 16.06.2022
1523 Clear 25 1018 76 10000 2.06 330 23:47 15.06.2022
1524 Clouds 26 1016 73 10000 2.57 120 22:42 15.06.2022
1525 Clear 27 1017 71 10000 1.54 130 21:23 15.06.2022
1526 Clear 27 1017 70 10000 3.09 70 20:45 15.06.2022
1527 Clear 28 1018 69 10000 3.09 70 20:27 15.06.2022
1528 Clear 28 1016 68 10000 4.12 80 19:30 15.06.2022
1529 Clear 30 1017 62 10000 5.66 130 17:58 15.06.2022
1530 Clear 30 1016 59 10000 4.12 100 17:33 15.06.2022
1531 Clear 30 1016 57 10000 5.14 110 15:46 15.06.2022
1532 Clear 31 1017 55 10000 5.66 100 14:26 15.06.2022
1533 Clear 32 1016 55 10000 5.66 190 12:54 15.06.2022
1534 Clear 31 1016 56 10000 5.66 200 12:32 15.06.2022
1535 Clear 30 1015 41 10000 3.09 200 10:28 15.06.2022
1536 Clouds 30 1015 41 10000 3.09 240 09:53 15.06.2022
1537 Clouds 27 1014 46 10000 4.63 270 08:50 15.06.2022
1538 Clear 26 1014 48 10000 4.02 125 06:42 15.06.2022
1539 Clear 27 1015 41 10000 2.06 340 04:51 15.06.2022
1540 Clear 27 1016 40 10000 3.6 290 02:28 15.06.2022
1541 Rain 27 1016 41 10000 2.06 260 00:54 15.06.2022
1542 Clouds 27 1015 40 10000 2.57 300 23:55 14.06.2022
1543 Clear 27 1015 37 10000 3.13 298 23:37 14.06.2022
1544 Clouds 26 1015 46 10000 1.03 0 22:28 14.06.2022
1545 Clouds 27 1015 48 10000 2.06 210 21:41 14.06.2022
1546 Clouds 28 1014 43 10000 2.06 250 20:57 14.06.2022
1547 Clouds 28 1014 42 10000 1.54 210 20:32 14.06.2022
1548 Clouds 28 1015 47 10000 2.06 100 19:25 14.06.2022
1549 Rain 28 1015 53 10000 3.6 160 18:25 14.06.2022
1550 Clear 29 1015 44 10000 4.63 120 16:49 14.06.2022
1551 Clouds 29 1016 48 10000 5.66 130 15:50 14.06.2022
1552 Clouds 29 1015 46 10000 5.14 130 15:31 14.06.2022
1553 Clear 30 1015 41 10000 5.66 130 14:46 14.06.2022
1554 Clear 29 1016 44 10000 5.14 90 13:46 14.06.2022
1555 Clear 29 1016 47 10000 5.14 110 12:55 14.06.2022
1556 Clear 28 1016 51 10000 4.63 80 11:52 14.06.2022
1557 Clear 28 1016 49 10000 4.12 70 10:49 14.06.2022
1558 Clear 28 1016 48 10000 3.6 100 10:25 14.06.2022
1559 Clear 26 1016 48 10000 0 0 08:52 14.06.2022
1560 Clear 25 1015 51 10000 4.12 320 07:58 14.06.2022
1561 Clear 23 1015 49 10000 3.6 310 06:19 14.06.2022
1562 Clear 24 1016 52 10000 2.57 310 03:36 14.06.2022
1563 Clear 24 1016 51 10000 3.09 290 01:36 14.06.2022
1564 Clear 25 1016 50 10000 1.54 160 23:53 13.06.2022
1565 Clear 27 1016 42 10000 2.06 250 22:27 13.06.2022
1566 Clear 28 1016 39 10000 2.06 200 21:59 13.06.2022
1567 Clear 29 1016 38 10000 3.6 180 21:24 13.06.2022
1568 Clear 30 1016 36 10000 3.6 170 19:48 13.06.2022
1569 Clear 31 1016 36 10000 4.12 210 18:52 13.06.2022
1570 Clear 31 1016 38 10000 5.66 230 17:52 13.06.2022
1571 Clear 31 1016 37 10000 6.69 230 17:21 13.06.2022
1572 Clear 32 1018 40 10000 7.72 210 16:30 13.06.2022
1573 Clear 31 1017 38 10000 4.63 110 14:48 13.06.2022
1574 Clear 31 1018 39 10000 4.63 130 14:23 13.06.2022
1575 Clouds 30 1018 47 10000 5.14 160 13:28 13.06.2022
1576 Clear 30 1019 45 10000 3.6 160 12:22 13.06.2022
1577 Clouds 28 1019 49 10000 3.6 80 10:36 13.06.2022
1578 Clear 27 1019 53 10000 1.54 330 09:43 13.06.2022
1579 Clouds 25 1018 58 10000 0 0 08:34 13.06.2022
1580 Clouds 23 1017 67 10000 1.54 280 06:36 13.06.2022
1581 Clouds 24 1017 62 10000 1.54 240 04:43 13.06.2022
1582 Clouds 25 1018 55 10000 3.6 220 01:45 13.06.2022
1583 Clear 26 1018 50 10000 0.45 323 01:18 13.06.2022
1584 Clear 26 1018 50 10000 3.09 270 23:43 12.06.2022
1585 Clear 27 1019 56 10000 3.6 250 22:36 12.06.2022
1586 Clear 27 1019 57 10000 2.06 270 21:46 12.06.2022
1587 Clear 28 1018 58 10000 2.57 140 20:53 12.06.2022
1588 Clear 29 1018 52 10000 3.09 260 19:58 12.06.2022
1589 Clear 30 1019 46 10000 3.09 180 18:54 12.06.2022
1590 Clear 30 1020 54 10000 6.17 210 17:36 12.06.2022
1591 Clear 31 1020 52 10000 5.66 210 15:52 12.06.2022
1592 Clear 32 1021 51 10000 6.17 130 14:50 12.06.2022
1593 Clear 32 1021 48 10000 6.69 120 14:18 12.06.2022
1594 Clear 31 1020 53 10000 6.17 120 13:45 12.06.2022
1595 Clear 31 1021 50 10000 5.66 220 12:31 12.06.2022
1596 Clear 29 1020 53 10000 2.68 336 11:19 12.06.2022
1597 Clear 29 1020 51 10000 3.6 220 10:20 12.06.2022
1598 Clear 27 1019 56 10000 4.63 320 08:51 12.06.2022
1599 Clear 25 1020 59 10000 5.14 310 08:29 12.06.2022
1600 Clear 23 1019 61 10000 2.57 340 06:49 12.06.2022
1601 Clear 23 1019 61 10000 2.57 340 06:49 12.06.2022
1602 Clear 24 1019 61 10000 3.09 310 04:26 12.06.2022
1603 Clear 24 1019 67 10000 4.63 240 02:32 12.06.2022
1604 Clear 24 1020 66 10000 1.54 210 01:36 12.06.2022
1605 Clear 25 1020 64 10000 2.57 210 00:57 12.06.2022
1606 Clear 25 1021 63 10000 3.09 250 00:19 12.06.2022
1607 Clear 25 1020 65 10000 2.57 210 00:19 12.06.2022
1608 Clouds 24 1021 72 10000 3.6 220 23:21 11.06.2022
1609 Clouds 25 1021 71 10000 4.63 230 22:37 11.06.2022
1610 Clear 25 1020 73 10000 4.12 210 21:31 11.06.2022
1611 Clear 26 1020 72 10000 5.66 210 20:27 11.06.2022
1612 Clear 27 1020 68 10000 6.69 210 19:36 11.06.2022
1613 Clear 28 1019 60 10000 6.17 210 18:45 11.06.2022
1614 Clear 28 1019 58 10000 5.66 210 18:27 11.06.2022
1615 Clear 29 1019 55 10000 6.17 110 17:48 11.06.2022
1616 Clear 29 1019 52 10000 6.17 110 17:26 11.06.2022
1617 Clear 29 1019 52 10000 7.2 110 16:44 11.06.2022
1618 Clear 30 1019 47 10000 6.17 120 16:25 11.06.2022
1619 Clear 30 1019 48 10000 6.17 210 15:18 11.06.2022
1620 Clear 29 1020 51 10000 5.66 110 13:52 11.06.2022
1621 Clear 29 1021 47 10000 4.63 120 12:19 11.06.2022
1622 Clear 27 1020 54 10000 1.54 130 10:32 11.06.2022
1623 Clouds 26 1020 60 10000 2.57 300 09:41 11.06.2022
1624 Clouds 25 1020 62 10000 3.6 310 08:45 11.06.2022
1625 Clouds 21 1019 74 10000 3.6 330 06:34 11.06.2022
1626 Clouds 22 1019 74 10000 3.09 330 05:53 11.06.2022
1627 Clear 22 1019 76 10000 1.54 270 03:31 11.06.2022
1628 Clear 23 1019 78 10000 2.24 302 01:51 11.06.2022
1629 Clear 23 1019 77 10000 2.06 300 01:25 11.06.2022
1630 Clouds 24 1019 76 10000 6.69 250 23:27 10.06.2022
1631 Clouds 24 1018 75 10000 7.72 230 22:27 10.06.2022
1632 Clouds 25 1018 74 10000 7.72 220 21:46 10.06.2022
1633 Clouds 26 1018 74 10000 8.23 220 20:39 10.06.2022
1634 Clouds 26 1018 73 10000 8.23 220 20:20 10.06.2022
1635 Clouds 27 1017 72 10000 9.26 220 19:19 10.06.2022
1636 Clouds 27 1017 72 10000 8.75 220 18:44 10.06.2022
1637 Clouds 27 1018 69 10000 8.23 210 17:54 10.06.2022
1638 Clouds 27 1018 70 10000 7.72 210 17:22 10.06.2022
1639 Clouds 27 1018 71 10000 7.72 210 16:28 10.06.2022
1640 Clouds 27 1018 71 10000 6.17 190 15:40 10.06.2022
1641 Clouds 27 1019 72 10000 5.14 100 14:28 10.06.2022
1642 Clouds 26 1020 73 10000 4.12 180 13:19 10.06.2022
1643 Clouds 25 1020 73 10000 3.09 130 11:59 10.06.2022
1644 Clouds 24 1020 73 10000 3.09 120 10:51 10.06.2022
1645 Clouds 24 1020 74 10000 3.6 120 10:24 10.06.2022
1646 Clouds 22 1019 80 10000 2.57 330 08:58 10.06.2022
1647 Clouds 20 1019 86 10000 1.34 264 07:50 10.06.2022
1648 Clouds 19 1019 88 10000 1.03 0 06:47 10.06.2022
1649 Clouds 19 1019 87 10000 1.03 0 06:28 10.06.2022
1650 Clouds 19 1018 85 10000 1.54 290 04:53 10.06.2022
1651 Clouds 20 1019 83 10000 3.6 260 01:59 10.06.2022
1652 Clouds 20 1019 83 10000 5.14 260 01:36 10.06.2022
1653 Clouds 20 1019 83 10000 5.14 260 01:36 10.06.2022
1654 Clouds 21 1019 82 10000 2.57 220 23:58 09.06.2022
1655 Clouds 21 1018 79 10000 2.57 190 22:30 09.06.2022
1656 Clouds 22 1018 78 10000 2.57 180 21:43 09.06.2022
1657 Clouds 22 1018 77 10000 3.09 150 21:24 09.06.2022
1658 Clouds 23 1017 75 10000 4.12 140 20:38 09.06.2022
1659 Clouds 23 1017 74 10000 4.12 160 19:43 09.06.2022
1660 Clouds 23 1017 72 10000 4.63 120 18:37 09.06.2022
1661 Clouds 24 1017 72 10000 5.14 130 17:31 09.06.2022
1662 Clouds 23 1017 72 10000 5.66 130 16:28 09.06.2022
1663 Clouds 24 1017 73 10000 6.17 130 14:52 09.06.2022
1664 Clouds 24 1017 73 10000 6.17 130 14:27 09.06.2022
1665 Clouds 23 1017 74 10000 6.69 120 13:30 09.06.2022
1666 Clouds 23 1017 74 10000 6.69 120 13:30 09.06.2022
1667 Clouds 24 1017 74 10000 7.72 120 12:55 09.06.2022
1668 Clouds 24 1016 71 10000 5.14 90 11:33 09.06.2022
1669 Clouds 24 1016 64 10000 3.58 263 09:55 09.06.2022
1670 Clouds 24 1016 64 10000 3.58 263 09:55 09.06.2022
1671 Clouds 24 1016 64 10000 4.12 330 09:37 09.06.2022
1672 Clouds 22 1016 71 10000 2.06 330 08:38 09.06.2022
1673 Clouds 20 1015 82 10000 1.54 340 07:29 09.06.2022
1674 Clouds 21 1015 79 10000 1.54 310 03:31 09.06.2022
1675 Clouds 21 1015 77 10000 2.06 280 00:34 09.06.2022
1676 Clouds 22 1015 74 10000 2.06 50 23:18 08.06.2022
1677 Clouds 22 1015 73 10000 2.06 50 22:43 08.06.2022
1678 Clouds 22 1015 72 10000 2.57 60 22:23 08.06.2022
1679 Clouds 22 1014 69 10000 5.14 60 21:33 08.06.2022
1680 Clouds 23 1014 65 10000 5.14 70 20:25 08.06.2022
1681 Clouds 23 1013 67 10000 4.63 100 19:42 08.06.2022
1682 Clouds 24 1013 73 10000 4.63 120 18:48 08.06.2022
1683 Clouds 24 1012 76 10000 4.63 120 17:41 08.06.2022
1684 Clouds 26 1012 75 10000 5.66 110 15:56 08.06.2022
1685 Clouds 26 1012 72 10000 6.17 200 14:44 08.06.2022
1686 Clouds 26 1011 69 10000 5.66 190 12:55 08.06.2022
1687 Clouds 26 1011 69 10000 5.66 190 12:55 08.06.2022
1688 Clouds 26 1011 69 10000 5.66 190 12:55 08.06.2022
1689 Clouds 26 1011 69 10000 5.66 190 12:55 08.06.2022
1690 Clouds 25 1012 72 10000 4.12 190 11:41 08.06.2022
1691 Clouds 25 1012 72 10000 4.12 190 11:19 08.06.2022
1692 Clear 23 1013 74 10000 0.51 280 09:30 08.06.2022
1693 Clouds 23 1013 76 10000 2.06 330 08:55 08.06.2022
1694 Clouds 21 1013 79 10000 3.09 330 07:21 08.06.2022
1695 Clouds 21 1013 80 10000 2.06 330 07:21 08.06.2022
1696 Clouds 21 1014 81 10000 1.54 320 04:49 08.06.2022
1697 Clouds 21 1015 81 10000 1.03 270 01:27 08.06.2022
1698 Clouds 22 1016 80 10000 2.57 100 23:33 07.06.2022
1699 Clouds 22 1016 81 10000 2.57 90 22:58 07.06.2022
1700 Clouds 22 1016 80 10000 3.09 110 22:37 07.06.2022
1701 Clouds 23 1016 78 10000 4.63 140 21:41 07.06.2022
1702 Clouds 23 1016 77 10000 4.63 140 21:20 07.06.2022
1703 Clouds 23 1016 76 10000 4.63 190 20:42 07.06.2022
1704 Clouds 24 1016 74 10000 5.14 170 19:57 07.06.2022
1705 Clouds 25 1016 71 10000 6.17 180 18:38 07.06.2022
1706 Clouds 26 1016 70 10000 6.17 160 17:36 07.06.2022
1707 Clouds 27 1016 70 10000 7.2 160 16:47 07.06.2022
1708 Clouds 26 1016 69 10000 7.2 160 16:28 07.06.2022
1709 Clouds 27 1017 66 10000 6.69 160 15:37 07.06.2022
1710 Clouds 27 1017 66 10000 7.2 160 15:18 07.06.2022
1711 Clouds 27 1017 64 10000 7.2 160 14:43 07.06.2022
1712 Clouds 27 1018 62 10000 6.17 150 13:38 07.06.2022
1713 Clouds 27 1017 63 10000 4.12 200 13:20 07.06.2022
1714 Clouds 28 1018 57 10000 3.58 43 11:56 07.06.2022
1715 Clouds 26 1018 65 10000 2.57 210 10:53 07.06.2022
1716 Clear 24 1018 71 10000 1.03 300 09:26 07.06.2022
1717 Clear 23 1017 71 10000 2.57 320 08:22 07.06.2022
1718 Clouds 21 1017 77 10000 1.03 290 06:42 07.06.2022
1719 Clouds 21 1017 75 10000 0.89 360 04:52 07.06.2022
1720 Clouds 23 1017 70 10000 1.03 0 01:28 07.06.2022
1721 Clouds 23 1017 69 10000 5.14 230 23:59 06.06.2022
1722 Clouds 24 1016 66 10000 7.2 230 22:56 06.06.2022
1723 Clouds 24 1016 66 10000 6.69 240 22:30 06.06.2022
1724 Clear 25 1015 68 10000 6.69 230 21:28 06.06.2022
1725 Clear 26 1016 68 10000 5.14 210 19:29 06.06.2022
1726 Clear 26 1016 67 10000 5.66 200 18:59 06.06.2022
1727 Clear 26 1016 65 10000 5.14 210 18:32 06.06.2022
1728 Clear 26 1017 62 10000 6.17 220 17:27 06.06.2022
1729 Clouds 27 1017 66 10000 6.17 210 16:21 06.06.2022
1730 Clouds 27 1018 63 10000 6.17 160 15:33 06.06.2022
1731 Clouds 27 1018 60 10000 4.63 150 14:36 06.06.2022
1732 Clouds 27 1019 61 10000 3.6 200 13:26 06.06.2022
1733 Clouds 27 1019 61 10000 2.57 190 12:36 06.06.2022
1734 Clouds 26 1019 63 10000 2.57 120 11:53 06.06.2022
1735 Clouds 25 1020 68 10000 2.06 130 10:46 06.06.2022
1736 Clear 24 1019 72 10000 1.54 350 09:40 06.06.2022
1737 Clear 23 1019 77 10000 2.57 330 08:33 06.06.2022
1738 Clouds 20 1019 89 10000 2.06 320 07:28 06.06.2022
1739 Clouds 21 1018 86 10000 1.54 300 05:28 06.06.2022
1740 Clouds 21 1019 87 10000 1.54 50 03:39 06.06.2022
1741 Clouds 22 1020 87 10000 3.09 70 01:23 06.06.2022
1742 Clouds 22 1019 85 10000 2.06 100 00:39 06.06.2022
1743 Clouds 22 1019 84 10000 1.54 90 23:40 05.06.2022
1744 Clouds 23 1019 83 10000 3.09 120 22:47 05.06.2022
1745 Clear 24 1018 76 10000 4.63 130 20:57 05.06.2022
1746 Clear 25 1017 69 10000 4.63 130 19:44 05.06.2022
1747 Clouds 26 1017 66 10000 4.63 120 18:30 05.06.2022
1748 Clouds 26 1017 66 10000 4.63 120 18:30 05.06.2022
1749 Clear 27 1017 65 10000 5.66 120 17:55 05.06.2022
1750 Clear 27 1018 67 10000 4.63 130 17:26 05.06.2022
1751 Clear 26 1018 67 10000 5.66 130 16:52 05.06.2022
1752 Clear 26 1018 68 10000 5.66 130 16:34 05.06.2022
1753 Clouds 27 1018 66 10000 6.69 120 14:27 05.06.2022
1754 Clear 27 1018 63 10000 4.12 130 12:57 05.06.2022
1755 Clear 27 1018 64 10000 3.09 70 11:47 05.06.2022
1756 Clouds 25 1017 68 10000 4.12 30 10:39 05.06.2022
1757 Clouds 25 1017 70 10000 4.63 10 10:20 05.06.2022
1758 Clouds 22 1016 77 10000 2.06 350 08:34 05.06.2022
1759 Clouds 21 1016 76 10000 2.57 320 07:48 05.06.2022
1760 Clouds 20 1014 83 10000 1.03 0 05:22 05.06.2022
1761 Clouds 20 1014 83 10000 1.03 220 04:30 05.06.2022
1762 Clouds 21 1015 85 10000 3.09 210 01:32 05.06.2022
1763 Clouds 21 1015 83 10000 3.6 210 00:39 05.06.2022
1764 Clear 22 1013 82 10000 1.54 220 22:43 04.06.2022
1765 Clear 25 1013 68 10000 3.09 190 20:42 04.06.2022
1766 Clouds 25 1013 73 10000 3.6 230 18:51 04.06.2022
1767 Clouds 25 1013 72 10000 5.14 120 16:47 04.06.2022
1768 Clouds 26 1014 72 10000 8.75 120 16:18 04.06.2022
1769 Clear 27 1012 66 10000 4.12 120 14:54 04.06.2022
1770 Clouds 27 1013 64 10000 4.63 130 13:37 04.06.2022
1771 Clear 25 1015 73 10000 4.12 120 11:22 04.06.2022
1772 Clear 25 1015 73 10000 3.6 120 10:49 04.06.2022
1773 Clouds 23 1014 77 9000 1.54 310 09:45 04.06.2022
1774 Clouds 22 1014 85 9000 1.03 0 08:43 04.06.2022
1775 Clouds 20 1014 86 7000 1.54 120 07:42 04.06.2022
1776 Clouds 20 1013 84 7000 1.03 150 05:38 04.06.2022
1777 Mist 20 1013 87 8000 2.68 247 02:20 04.06.2022
1778 Clouds 21 1014 83 7000 2.06 200 00:19 04.06.2022
1779 Fog 21 1013 84 900 1.54 130 22:41 03.06.2022
1780 Clouds 22 1013 84 8000 3.09 110 21:39 03.06.2022
1781 Clouds 23 1013 83 9000 3.6 120 20:38 03.06.2022
1782 Clouds 25 1013 77 10000 4.12 130 18:54 03.06.2022
1783 Clouds 26 1013 72 10000 5.66 130 16:52 03.06.2022
1784 Clouds 26 1013 71 10000 6.17 130 15:40 03.06.2022
1785 Clear 26 1013 70 10000 5.14 140 13:49 03.06.2022
1786 Clear 27 1013 55 10000 3.13 349 11:51 03.06.2022
1787 Clouds 24 1012 67 10000 6.17 60 09:54 03.06.2022
1788 Clouds 23 1012 74 10000 4.63 60 09:29 03.06.2022
1789 Clouds 21 1012 78 10000 2.57 40 07:42 03.06.2022
1790 Clouds 20 1012 81 10000 2.57 100 06:45 03.06.2022
1791 Clouds 21 1012 77 10000 1.54 110 06:27 03.06.2022
1792 Clouds 20 1012 86 8000 3.6 60 02:50 03.06.2022
1793 Clear 21 1013 80 10000 3.09 60 23:36 02.06.2022
1794 Clear 21 1013 77 10000 4.63 70 21:58 02.06.2022
1795 Clear 23 1012 73 10000 4.63 70 20:34 02.06.2022
1796 Clear 23 1012 71 10000 4.63 70 19:54 02.06.2022
1797 Clear 23 1012 72 10000 5.14 70 19:36 02.06.2022
1798 Clear 25 1013 65 10000 6.17 80 18:34 02.06.2022
1799 Clear 26 1013 64 10000 4.63 80 16:28 02.06.2022
1800 Clouds 26 1013 63 10000 6.17 80 15:30 02.06.2022
1801 Clouds 25 1015 67 10000 6.17 70 13:30 02.06.2022
1802 Clouds 24 1015 72 10000 6.17 60 12:46 02.06.2022
1803 Clouds 23 1014 73 10000 6.69 130 10:34 02.06.2022
1804 Clear 23 1013 69 10000 3.13 62 09:29 02.06.2022
1805 Clear 22 1013 75 10000 4.12 340 08:39 02.06.2022
1806 Clear 22 1012 74 10000 4.12 340 08:19 02.06.2022
1807 Clear 20 1012 77 10000 4.63 330 06:20 02.06.2022
1808 Clear 19 1013 83 10000 2.06 260 03:49 02.06.2022
1809 Clear 21 1013 81 10000 4.12 230 00:39 02.06.2022
1810 Clear 21 1014 79 10000 3.09 210 22:57 01.06.2022
1811 Clear 22 1013 76 10000 4.12 210 21:52 01.06.2022
1812 Clear 23 1013 75 10000 3.6 220 21:24 01.06.2022
1813 Clear 23 1013 76 10000 4.12 210 20:38 01.06.2022
1814 Clear 24 1013 73 10000 5.66 220 19:50 01.06.2022
1815 Clouds 26 1013 68 10000 5.66 130 18:28 01.06.2022
1816 Clear 26 1014 67 10000 6.17 210 16:56 01.06.2022
1817 Clear 26 1014 65 10000 5.66 200 15:42 01.06.2022
1818 Clear 26 1014 65 10000 6.17 120 14:46 01.06.2022
1819 Clear 27 1015 63 10000 5.66 200 13:23 01.06.2022
1820 Clear 25 1015 66 10000 2.68 5 10:44 01.06.2022
1821 Clear 23 1015 73 10000 2.57 310 09:29 01.06.2022
1822 Clouds 20 1014 82 10000 2.06 330 08:18 01.06.2022
1823 Clouds 18 1014 84 10000 2.06 310 07:20 01.06.2022
1824 Clear 19 1014 86 10000 0.45 317 03:55 01.06.2022
1825 Clouds 20 1015 87 10000 2.06 90 23:50 31.05.2022
1826 Clouds 21 1015 85 10000 2.57 130 22:41 31.05.2022
1827 Clouds 21 1014 85 10000 3.6 130 22:22 31.05.2022
1828 Clouds 21 1014 83 10000 4.12 120 21:39 31.05.2022
1829 Clouds 22 1013 80 10000 4.63 120 20:44 31.05.2022
1830 Clear 23 1013 74 10000 4.63 120 19:31 31.05.2022
1831 Clear 24 1013 68 10000 5.66 110 18:32 31.05.2022
1832 Clear 25 1012 62 10000 5.66 110 17:38 31.05.2022
1833 Clear 25 1013 50 10000 5.14 130 15:55 31.05.2022
1834 Clear 25 1013 47 10000 3.6 130 15:34 31.05.2022
1835 Clear 25 1014 40 10000 3.09 110 12:56 31.05.2022
1836 Clear 24 1013 46 10000 3.09 110 12:18 31.05.2022
1837 Clear 23 1014 52 10000 2.57 120 10:34 31.05.2022
1838 Clear 20 1013 59 10000 2.06 330 08:26 31.05.2022
1839 Clear 18 1011 56 10000 2.57 330 06:21 31.05.2022
1840 Clear 19 1011 52 10000 4.12 340 04:31 31.05.2022
1841 Clear 20 1011 55 10000 2.06 40 23:46 30.05.2022
1842 Clear 20 1011 55 10000 2.06 40 23:24 30.05.2022
1843 Clear 20 1011 55 10000 2.06 50 22:42 30.05.2022
1844 Clear 20 1010 57 10000 2.57 160 21:40 30.05.2022
1845 Clear 21 1009 59 10000 3.09 60 20:52 30.05.2022
1846 Clear 21 1009 58 10000 4.12 80 19:45 30.05.2022
1847 Clear 22 1009 57 10000 5.66 140 18:21 30.05.2022
1848 Clear 23 1008 59 10000 5.66 130 17:23 30.05.2022
1849 Clear 23 1008 60 10000 6.69 130 16:30 30.05.2022
1850 Clear 24 1008 58 10000 4.63 140 13:38 30.05.2022
1851 Clear 24 1007 59 10000 7.2 100 11:54 30.05.2022
1852 Clear 23 1007 58 10000 5.14 70 10:20 30.05.2022
1853 Clouds 22 1006 53 10000 2.06 350 09:18 30.05.2022
1854 Clouds 18 1005 65 10000 3.09 330 06:28 30.05.2022
1855 Clear 19 1005 66 10000 3.09 330 05:38 30.05.2022
1856 Clouds 19 1006 72 10000 1.54 50 01:30 30.05.2022
1857 Clouds 20 1007 72 10000 1.03 0 22:49 29.05.2022
1858 Clouds 20 1007 72 10000 2.06 100 22:29 29.05.2022
1859 Clear 21 1006 65 10000 3.09 110 20:38 29.05.2022
1860 Clouds 22 1006 62 10000 4.63 110 19:30 29.05.2022
1861 Clouds 23 1006 60 10000 5.14 110 18:35 29.05.2022
1862 Clouds 23 1006 59 10000 5.66 130 16:51 29.05.2022
1863 Clouds 24 1007 59 10000 6.17 110 15:47 29.05.2022
1864 Clouds 23 1007 61 10000 7.2 110 14:56 29.05.2022
1865 Clouds 23 1008 66 10000 5.66 120 13:46 29.05.2022
1866 Clouds 24 1008 67 10000 3.6 170 11:34 29.05.2022
1867 Clouds 23 1008 71 10000 3.09 130 10:38 29.05.2022
1868 Clouds 21 1007 80 10000 4.12 60 08:39 29.05.2022
1869 Clear 19 1007 86 10000 2.68 92 05:22 29.05.2022
1870 Clear 20 1007 85 10000 2.57 10 04:43 29.05.2022
1871 Clear 20 1008 83 10000 4.12 80 02:50 29.05.2022
1872 Clear 22 1008 74 10000 2.57 90 23:49 28.05.2022
1873 Clouds 22 1008 73 10000 1.03 0 23:26 28.05.2022
1874 Clouds 23 1008 69 10000 4.63 220 22:33 28.05.2022
1875 Clouds 24 1008 69 10000 6.69 220 21:34 28.05.2022
1876 Clouds 25 1008 71 10000 8.75 230 19:24 28.05.2022
1877 Clouds 25 1009 70 10000 8.23 230 18:46 28.05.2022
1878 Clouds 26 1009 61 10000 5.14 110 17:36 28.05.2022
1879 Clouds 28 1010 56 10000 5.66 100 16:37 28.05.2022
1880 Clouds 29 1010 51 10000 5.66 130 15:39 28.05.2022
1881 Clouds 30 1011 44 10000 4.63 200 14:18 28.05.2022
1882 Clear 29 1012 41 10000 5.14 210 12:44 28.05.2022
1883 Clear 29 1012 43 10000 2.57 320 12:18 28.05.2022
1884 Clear 26 1013 50 10000 4.63 350 10:51 28.05.2022
1885 Clear 25 1013 57 10000 4.63 340 09:57 28.05.2022
1886 Clear 23 1013 60 10000 5.66 330 08:45 28.05.2022
1887 Clear 21 1013 68 10000 5.14 320 07:23 28.05.2022
1888 Clear 21 1014 69 10000 3.09 330 05:28 28.05.2022
1889 Clear 21 1016 68 10000 3.09 300 02:44 28.05.2022
1890 Clear 22 1016 64 10000 3.09 230 00:32 28.05.2022
1891 Clear 23 1016 63 10000 3.09 210 22:53 27.05.2022
1892 Clear 24 1016 62 10000 5.14 240 21:44 27.05.2022
1893 Clear 25 1016 59 10000 5.14 240 20:50 27.05.2022
1894 Clouds 26 1016 57 10000 5.14 230 20:24 27.05.2022
1895 Clouds 27 1016 57 10000 5.66 230 19:42 27.05.2022
1896 Clouds 27 1015 57 10000 5.66 230 19:21 27.05.2022
1897 Clouds 25 1016 65 10000 5.14 190 17:54 27.05.2022
1898 Clouds 26 1017 60 10000 6.69 210 16:38 27.05.2022
1899 Clouds 27 1017 56 10000 6.17 210 15:22 27.05.2022
1900 Clouds 27 1017 52 10000 4.12 200 14:25 27.05.2022
1901 Clouds 25 1018 50 10000 3.6 170 12:43 27.05.2022
1902 Clear 24 1018 52 10000 4.63 340 11:34 27.05.2022
1903 Clear 23 1018 57 10000 5.14 340 10:55 27.05.2022
1904 Clear 22 1018 59 10000 5.66 330 10:31 27.05.2022
1905 Clear 21 1018 61 10000 6.17 350 09:35 27.05.2022
1906 Clear 19 1018 65 10000 5.14 330 07:52 27.05.2022
1907 Clear 19 1017 65 10000 2.68 261 05:39 27.05.2022
1908 Clear 20 1019 62 10000 5.14 320 02:26 27.05.2022
1909 Clear 21 1020 62 10000 3.09 300 00:29 27.05.2022
1910 Clear 22 1020 57 10000 4.63 250 22:39 26.05.2022
1911 Clear 22 1019 60 10000 5.66 230 21:39 26.05.2022
1912 Clear 23 1019 60 10000 4.12 220 20:53 26.05.2022
1913 Clouds 23 1019 57 10000 4.63 190 19:19 26.05.2022
1914 Clear 24 1019 53 10000 5.14 200 18:18 26.05.2022
1915 Clear 24 1019 48 10000 5.14 210 16:42 26.05.2022
1916 Clear 25 1020 43 10000 5.14 130 15:46 26.05.2022
1917 Clear 24 1020 46 10000 6.17 180 14:43 26.05.2022
1918 Clear 25 1021 41 10000 3.13 165 12:37 26.05.2022
1919 Clear 23 1021 44 10000 4.63 330 11:29 26.05.2022
1920 Clear 21 1021 49 10000 5.66 330 10:19 26.05.2022
1921 Clear 20 1021 52 10000 6.17 340 09:33 26.05.2022
1922 Clear 19 1020 55 10000 5.66 330 08:35 26.05.2022
1923 Clear 19 1019 57 10000 4.63 340 04:41 26.05.2022
1924 Clear 20 1019 62 10000 2.57 290 00:48 26.05.2022
1925 Clear 20 1019 59 10000 2.68 122 23:40 25.05.2022
1926 Clear 20 1019 63 10000 2.06 260 22:22 25.05.2022
1927 Clear 20 1018 59 10000 2.06 330 21:33 25.05.2022
1928 Clear 21 1017 56 10000 3.09 260 20:37 25.05.2022
1929 Clear 21 1017 53 10000 3.6 330 19:29 25.05.2022
1930 Clear 21 1016 57 10000 6.17 270 17:43 25.05.2022
1931 Clear 20 1016 60 10000 6.69 280 16:38 25.05.2022
1932 Clear 20 1016 61 10000 6.69 290 15:57 25.05.2022
1933 Clear 19 1016 66 10000 4.63 310 14:55 25.05.2022
1934 Clear 19 1016 68 10000 5.14 320 14:33 25.05.2022
1935 Clear 19 1016 71 10000 4.63 310 13:56 25.05.2022
1936 Clear 17 1016 76 10000 3.6 310 12:45 25.05.2022
1937 Clouds 16 1015 80 10000 3.6 320 10:54 25.05.2022
1938 Clouds 16 1015 80 10000 4.12 310 10:19 25.05.2022
1939 Clouds 15 1013 86 10000 1.34 257 08:41 25.05.2022
1940 Rain 14 1012 84 10000 1.34 278 07:23 25.05.2022
1941 Rain 14 1012 84 10000 1.34 278 07:23 25.05.2022
1942 Rain 14 1012 85 9000 1.34 130 05:18 25.05.2022
1943 Rain 16 1011 82 10000 2.06 80 00:28 25.05.2022
1944 Clouds 16 1011 82 10000 4.12 70 23:47 24.05.2022
1945 Clouds 16 1011 86 10000 6.17 50 22:39 24.05.2022
1946 Rain 16 1010 85 6000 5.66 90 21:43 24.05.2022
1947 Rain 16 1010 84 2400 3.13 144 21:21 24.05.2022
1948 Thunderstorm 17 1010 82 4000 3.09 320 20:30 24.05.2022
1949 Rain 19 1009 78 10000 5.66 70 18:57 24.05.2022
1950 Rain 18 1009 81 8000 6.17 90 16:58 24.05.2022
1951 Rain 18 1010 79 7000 3.09 120 16:28 24.05.2022
1952 Rain 19 1010 74 10000 3.6 90 15:20 24.05.2022
1953 Clouds 20 1010 74 10000 4.63 70 14:34 24.05.2022
1954 Thunderstorm 19 1010 78 10000 4.63 80 13:27 24.05.2022
1955 Clouds 19 1010 80 10000 5.66 110 11:53 24.05.2022
1956 Clouds 21 1010 79 10000 4.12 260 09:49 24.05.2022
1957 Clouds 21 1010 82 10000 3.09 220 08:51 24.05.2022
1958 Clouds 21 1009 83 10000 2.06 220 07:30 24.05.2022
1959 Clouds 21 1009 81 10000 1.54 120 05:59 24.05.2022
1960 Clear 20 1009 82 10000 2.06 280 02:54 24.05.2022
1961 Clouds 21 1009 80 10000 1.03 270 01:44 24.05.2022
1962 Clouds 21 1009 78 10000 1.03 0 23:59 23.05.2022
1963 Clouds 21 1009 76 10000 2.06 170 22:22 23.05.2022
1964 Clouds 22 1008 75 10000 2.57 150 21:42 23.05.2022
1965 Clouds 23 1008 74 10000 3.6 140 20:45 23.05.2022
1966 Clouds 23 1007 73 10000 5.14 120 19:44 23.05.2022
1967 Clouds 24 1008 72 10000 4.63 120 19:18 23.05.2022
1968 Clouds 24 1007 73 10000 5.66 130 18:40 23.05.2022
1969 Clouds 24 1007 72 10000 5.66 120 17:56 23.05.2022
1970 Clouds 24 1007 73 10000 5.66 130 15:55 23.05.2022
1971 Clouds 24 1007 75 10000 6.69 130 13:56 23.05.2022
1972 Clouds 25 1007 71 10000 5.66 90 11:41 23.05.2022
1973 Clear 24 1007 69 10000 6.17 80 10:47 23.05.2022
1974 Clear 23 1007 67 10000 7.2 60 09:47 23.05.2022
1975 Clear 22 1006 68 10000 7.2 50 08:46 23.05.2022
1976 Clear 22 1006 68 10000 7.2 50 08:46 23.05.2022
1977 Clouds 21 1006 67 10000 2.68 245 07:24 23.05.2022
1978 Clouds 21 1005 69 10000 2.06 300 06:39 23.05.2022
1979 Clear 22 1007 61 10000 0.51 0 03:27 23.05.2022
1980 Clear 22 1008 69 10000 1.54 300 01:52 23.05.2022
1981 Clear 22 1008 70 10000 1.54 280 01:29 23.05.2022
1982 Clear 23 1009 75 10000 0 0 23:18 22.05.2022
1983 Clear 23 1009 70 10000 3.6 240 22:27 22.05.2022
1984 Clear 24 1009 66 10000 2.57 110 21:51 22.05.2022
1985 Clear 27 1009 51 10000 3.09 130 20:46 22.05.2022
1986 Clear 28 1009 47 10000 3.09 190 20:22 22.05.2022
1987 Clear 29 1009 43 10000 4.63 210 19:34 22.05.2022
1988 Clear 30 1009 42 10000 4.63 210 18:50 22.05.2022
1989 Clear 31 1009 41 10000 5.14 200 18:21 22.05.2022
1990 Clear 31 1012 45 10000 6.17 210 17:26 22.05.2022
1991 Clear 33 1013 33 10000 5.14 220 15:57 22.05.2022
1992 Clear 33 1014 34 10000 4.63 0 14:47 22.05.2022
1993 Clear 33 1014 35 10000 4.63 0 14:47 22.05.2022
1994 Clear 34 1012 25 10000 4.12 220 13:21 22.05.2022
1995 Clear 31 1012 38 10000 3.09 210 12:45 22.05.2022
1996 Clear 29 1012 49 10000 7.72 210 11:29 22.05.2022
1997 Clear 25 1013 46 10000 5.14 240 09:40 22.05.2022
1998 Clear 22 1013 46 10000 2.06 290 07:54 22.05.2022
1999 Clear 21 1013 45 10000 2.06 290 07:21 22.05.2022
2000 Clear 22 1014 44 10000 1.03 260 04:59 22.05.2022
2001 Clear 23 1016 44 10000 2.06 250 01:21 22.05.2022
2002 Clear 24 1016 42 10000 1.54 280 00:39 22.05.2022
2003 Clear 24 1016 46 10000 4.12 220 23:50 21.05.2022
2004 Clear 25 1016 43 10000 4.12 210 22:26 21.05.2022
2005 Clear 26 1016 38 10000 1.79 226 21:41 21.05.2022
2006 Clear 28 1016 35 10000 2.24 272 20:48 21.05.2022
2007 Clear 29 1016 36 10000 7.72 230 20:21 21.05.2022
2008 Clear 30 1016 31 10000 8.23 230 19:25 21.05.2022
2009 Clear 31 1017 29 10000 8.23 220 17:47 21.05.2022
2010 Clear 32 1018 33 10000 9.77 230 15:44 21.05.2022
2011 Clear 31 1019 41 10000 8.75 220 14:37 21.05.2022
2012 Clear 30 1020 44 10000 3.6 210 13:42 21.05.2022
2013 Clear 30 1020 50 10000 3.09 210 12:49 21.05.2022
2014 Clear 28 1020 59 10000 3.09 210 11:58 21.05.2022
2015 Clear 26 1021 59 10000 1.54 110 10:23 21.05.2022
2016 Clear 24 1021 64 10000 1.54 120 09:41 21.05.2022
2017 Clear 22 1022 74 10000 1.54 330 08:52 21.05.2022
2018 Clear 21 1021 73 10000 3.09 330 07:53 21.05.2022
2019 Clear 21 1022 74 10000 3.09 330 03:48 21.05.2022
2020 Clear 22 1023 77 10000 1.54 110 23:53 20.05.2022
2021 Clear 23 1023 77 10000 0.51 0 22:57 20.05.2022
2022 Clear 23 1023 76 10000 1.03 0 22:23 20.05.2022
2023 Clear 24 1023 74 10000 2.57 120 21:41 20.05.2022
2024 Clear 24 1023 71 10000 2.57 130 20:54 20.05.2022
2025 Clear 26 1022 64 10000 4.63 130 19:58 20.05.2022
2026 Clear 28 1022 58 10000 3.6 160 19:26 20.05.2022
2027 Clear 27 1023 61 10000 4.12 140 18:36 20.05.2022
2028 Clear 28 1023 59 10000 5.14 100 16:54 20.05.2022
2029 Clear 28 1023 61 10000 6.17 120 16:19 20.05.2022
2030 Clear 28 1024 59 10000 6.17 120 15:44 20.05.2022
2031 Clear 27 1024 65 10000 4.63 120 14:30 20.05.2022
2032 Clear 27 1024 62 10000 4.63 120 13:55 20.05.2022
2033 Clear 26 1025 57 10000 4.12 100 11:33 20.05.2022
2034 Clear 24 1025 57 10000 2.57 350 09:51 20.05.2022
2035 Clear 23 1025 58 10000 0.45 47 08:44 20.05.2022
2036 Clear 20 1023 68 10000 3.09 340 06:50 20.05.2022
2037 Clouds 20 1023 67 10000 2.06 330 06:31 20.05.2022
2038 Clear 20 1024 66 10000 4.63 330 04:31 20.05.2022
2039 Clear 21 1024 70 10000 1.03 30 00:43 20.05.2022
2040 Clear 21 1023 78 10000 1.54 50 22:46 19.05.2022
2041 Clear 22 1023 76 10000 2.57 70 21:59 19.05.2022
2042 Clear 22 1023 76 10000 2.57 70 21:40 19.05.2022
2043 Clear 22 1023 74 10000 3.09 70 21:22 19.05.2022
2044 Clear 23 1022 72 10000 3.09 90 20:32 19.05.2022
2045 Clear 24 1022 70 10000 3.09 110 19:40 19.05.2022
2046 Clear 25 1022 70 10000 4.63 120 18:19 19.05.2022
2047 Clear 25 1022 71 10000 5.66 130 16:32 19.05.2022
2048 Clear 25 1030 72 10000 6.17 120 14:52 19.05.2022
2049 Clear 26 1017 71 10000 6.17 100 14:24 19.05.2022
2050 Clear 26 1023 64 10000 5.14 80 13:20 19.05.2022
2051 Clouds 25 1023 73 7000 5.66 70 11:25 19.05.2022
2052 Clouds 22 1022 84 7000 3.09 70 09:19 19.05.2022
2053 Mist 20 1021 87 4000 3.6 50 07:49 19.05.2022
2054 Clouds 20 1020 89 9000 2.06 330 05:32 19.05.2022
2055 Clouds 21 1019 87 9000 0 0 02:23 19.05.2022
2056 Clouds 21 1019 85 9000 1.03 0 23:57 18.05.2022
2057 Clouds 22 1019 85 8000 1.54 120 22:47 18.05.2022
2058 Clouds 23 1018 80 9000 2.06 150 21:51 18.05.2022
2059 Clouds 23 1018 79 9000 2.06 150 21:29 18.05.2022
2060 Clear 24 1018 73 10000 2.57 130 20:47 18.05.2022
2061 Clear 25 1018 71 10000 3.09 100 20:18 18.05.2022
2062 Clear 27 1018 60 10000 5.14 110 18:33 18.05.2022
2063 Clear 27 1018 64 10000 4.63 200 17:41 18.05.2022
2064 Clear 27 1018 62 10000 4.63 200 17:23 18.05.2022
2065 Clear 28 1018 57 10000 5.14 130 16:34 18.05.2022
2066 Clear 28 1018 58 10000 5.14 130 15:42 18.05.2022
2067 Clear 28 1018 57 10000 5.14 130 14:35 18.05.2022
2068 Clouds 28 1018 57 10000 4.12 120 13:41 18.05.2022
2069 Clear 28 1019 58 10000 2.57 180 12:43 18.05.2022
2070 Clear 28 1019 56 9000 3.09 190 11:36 18.05.2022
2071 Clear 28 1019 55 10000 0.89 43 11:18 18.05.2022
2072 Clear 26 1019 66 9000 2.57 240 09:50 18.05.2022
2073 Clouds 21 1018 84 9000 3.6 340 07:51 18.05.2022
2074 Clouds 19 1018 81 10000 3.09 330 06:41 18.05.2022
2075 Clouds 19 1018 86 10000 1.54 210 01:53 18.05.2022
2076 Clouds 20 1018 88 10000 1.03 120 00:23 18.05.2022
2077 Clouds 21 1018 84 10000 1.54 110 21:57 17.05.2022
2078 Clouds 22 1017 81 10000 4.12 200 21:20 17.05.2022
2079 Clouds 22 1017 81 10000 4.12 200 21:20 17.05.2022
2080 Clouds 23 1017 79 10000 4.12 200 20:19 17.05.2022
2081 Clear 24 1016 73 10000 5.14 200 19:28 17.05.2022
2082 Clouds 25 1017 68 10000 4.63 130 17:52 17.05.2022
2083 Clouds 25 1017 66 10000 5.14 130 16:59 17.05.2022
2084 Clouds 26 1017 65 10000 5.14 120 16:30 17.05.2022
2085 Clouds 26 1017 64 10000 4.63 120 15:32 17.05.2022
2086 Clouds 26 1018 63 10000 5.14 120 14:30 17.05.2022
2087 Clouds 25 1018 63 10000 4.63 120 13:37 17.05.2022
2088 Clear 25 1018 58 10000 4.12 210 11:46 17.05.2022
2089 Clear 22 1019 70 10000 2.06 270 09:38 17.05.2022
2090 Clouds 21 1018 76 10000 3.09 320 08:36 17.05.2022
2091 Clear 18 1018 80 10000 3.6 320 06:50 17.05.2022
2092 Clouds 19 1018 78 10000 2.57 310 04:24 17.05.2022
2093 Clouds 19 1019 86 9000 2.57 60 00:46 17.05.2022
2094 Clouds 20 1019 85 10000 2.06 60 22:44 16.05.2022
2095 Clouds 20 1019 84 10000 2.06 120 21:52 16.05.2022
2096 Clear 22 1019 80 10000 3.09 100 20:49 16.05.2022
2097 Clear 23 1018 75 10000 3.09 110 19:49 16.05.2022
2098 Clear 24 1018 68 10000 4.12 130 18:21 16.05.2022
2099 Clear 25 1019 65 10000 5.14 130 16:24 16.05.2022
2100 Mist 25 1019 59 10000 5.14 130 14:38 16.05.2022
2101 Clear 25 1019 54 10000 6.69 110 13:23 16.05.2022
2102 Clear 26 1018 42 10000 3.6 230 11:33 16.05.2022
2103 Clear 24 1018 45 10000 2.06 270 09:58 16.05.2022
2104 Clear 19 1017 53 10000 4.12 320 07:21 16.05.2022
2105 Clear 19 1017 51 10000 3.6 330 04:41 16.05.2022
2106 Clouds 20 1018 64 10000 1.54 180 23:56 15.05.2022
2107 Clear 21 1017 59 10000 2.57 210 22:34 15.05.2022
2108 Clear 21 1016 56 10000 2.06 210 21:48 15.05.2022
2109 Clear 22 1016 51 10000 3.09 210 21:19 15.05.2022
2110 Clear 23 1016 58 10000 4.12 170 19:56 15.05.2022
2111 Clear 25 1016 50 10000 5.66 180 17:52 15.05.2022
2112 Clear 26 1016 55 10000 6.17 140 16:35 15.05.2022
2113 Clouds 26 1017 53 10000 5.14 180 14:18 15.05.2022
2114 Clouds 26 1017 53 10000 4.63 170 13:27 15.05.2022
2115 Clouds 25 1017 51 10000 2.57 170 11:55 15.05.2022
2116 Clear 24 1017 47 10000 1.34 30 10:35 15.05.2022
2117 Clear 21 1016 57 10000 3.09 330 08:52 15.05.2022
2118 Clear 18 1016 62 10000 2.57 290 06:59 15.05.2022
2119 Clouds 18 1016 61 10000 2.06 290 06:38 15.05.2022
2120 Clear 19 1017 58 10000 1.54 250 01:43 15.05.2022
2121 Clear 19 1018 62 10000 3.09 250 23:52 14.05.2022
2122 Clear 20 1018 63 10000 2.57 230 23:33 14.05.2022
2123 Clear 21 1017 61 10000 2.57 110 21:45 14.05.2022
2124 Clear 21 1017 58 10000 2.57 110 21:19 14.05.2022
2125 Clear 23 1017 55 10000 4.63 210 19:40 14.05.2022
2126 Clear 23 1017 55 10000 4.63 210 19:40 14.05.2022
2127 Clear 23 1017 56 10000 4.63 210 19:20 14.05.2022
2128 Clear 24 1017 54 10000 4.12 210 18:47 14.05.2022
2129 Clouds 24 1017 56 10000 5.14 200 17:36 14.05.2022
2130 Clouds 25 1018 49 10000 5.14 100 15:47 14.05.2022
2131 Clear 25 1019 50 10000 5.14 130 14:37 14.05.2022
2132 Clear 25 1019 48 10000 4.63 200 12:51 14.05.2022
2133 Clear 24 1019 48 10000 1.79 339 11:37 14.05.2022
2134 Clear 23 1019 50 10000 3.6 290 10:24 14.05.2022
2135 Clear 23 1019 50 10000 3.6 290 09:56 14.05.2022
2136 Clear 21 1019 58 10000 4.12 320 09:19 14.05.2022
2137 Clouds 17 1019 68 10000 3.6 310 07:23 14.05.2022
2138 Clouds 18 1019 68 10000 4.12 300 03:45 14.05.2022
2139 Clouds 18 1021 77 9000 2.57 290 00:21 14.05.2022
2140 Clouds 18 1021 79 10000 2.57 280 23:24 13.05.2022
2141 Clouds 18 1021 78 10000 1.54 290 22:54 13.05.2022
2142 Clouds 19 1021 76 10000 1.03 140 22:20 13.05.2022
2143 Clear 20 1020 70 10000 3.09 110 20:57 13.05.2022
2144 Clear 21 1020 68 10000 3.6 120 20:30 13.05.2022
2145 Clear 21 1020 66 10000 3.6 120 19:44 13.05.2022
2146 Clear 21 1020 66 10000 4.12 110 18:47 13.05.2022
2147 Clear 23 1020 61 10000 5.14 130 17:29 13.05.2022
2148 Clouds 22 1021 65 10000 5.66 120 16:29 13.05.2022
2149 Clouds 22 1021 65 10000 5.66 120 15:45 13.05.2022
2150 Clear 22 1021 63 10000 5.66 130 14:29 13.05.2022
2151 Clear 23 1022 59 10000 4.63 80 12:47 13.05.2022
2152 Clear 22 1022 58 10000 4.63 80 11:36 13.05.2022
2153 Clear 19 1021 60 10000 3.09 340 09:43 13.05.2022
2154 Clear 18 1021 62 10000 3.09 330 08:51 13.05.2022
2155 Clear 17 1021 67 10000 3.09 330 07:49 13.05.2022
2156 Clear 16 1020 70 10000 4.12 330 06:48 13.05.2022
2157 Clear 16 1020 71 10000 3.09 330 04:54 13.05.2022
2158 Clear 17 1021 79 10000 2.06 290 00:42 13.05.2022
2159 Clear 18 1021 80 10000 1.54 130 22:47 12.05.2022
2160 Clear 18 1021 80 10000 1.54 130 22:29 12.05.2022
2161 Clear 20 1021 74 10000 3.6 110 20:41 12.05.2022
2162 Clear 21 1021 68 10000 5.14 120 19:26 12.05.2022
2163 Clear 22 1021 63 10000 6.69 130 18:19 12.05.2022
2164 Clear 23 1021 55 10000 6.69 110 16:34 12.05.2022
2165 Clear 24 1021 52 10000 4.63 190 14:52 12.05.2022
2166 Clear 23 1022 54 10000 4.63 190 13:48 12.05.2022
2167 Clear 22 1022 57 10000 2.57 200 11:31 12.05.2022
2168 Clouds 21 1022 61 10000 1.79 317 10:22 12.05.2022
2169 Clouds 19 1022 65 10000 3.09 310 08:52 12.05.2022
2170 Clouds 18 1022 65 10000 3.09 310 08:52 12.05.2022
2171 Clouds 19 1022 65 10000 3.09 310 08:52 12.05.2022
2172 Clouds 18 1022 65 10000 3.09 310 08:52 12.05.2022
2173 Clear 17 1022 71 10000 4.63 320 07:58 12.05.2022
2174 Clouds 16 1021 74 10000 4.12 320 06:58 12.05.2022
2175 Clouds 17 1021 72 10000 2.57 320 03:46 12.05.2022
2176 Clear 17 1021 73 10000 1.54 250 01:29 12.05.2022
2177 Clear 18 1022 72 10000 2.57 200 22:59 11.05.2022
2178 Clear 19 1021 68 10000 3.6 210 22:18 11.05.2022
2179 Clear 20 1021 63 10000 4.12 210 21:24 11.05.2022
2180 Clear 20 1021 63 10000 4.12 210 21:24 11.05.2022
2181 Clear 22 1020 57 10000 5.66 220 19:57 11.05.2022
2182 Clear 23 1020 59 10000 6.69 210 17:33 11.05.2022
2183 Clear 23 1020 59 10000 6.69 210 16:19 11.05.2022
2184 Clear 24 1020 57 10000 8.23 220 14:47 11.05.2022
2185 Clear 24 1020 55 10000 8.23 220 14:24 11.05.2022
2186 Clear 24 1021 56 10000 6.69 210 12:39 11.05.2022
2187 Clear 23 1021 58 10000 4.02 16 11:47 11.05.2022
2188 Clouds 20 1020 68 10000 4.12 220 09:29 11.05.2022
2189 Clouds 16 1020 71 10000 2.06 300 06:30 11.05.2022
2190 Clear 18 1021 67 10000 2.57 220 01:53 11.05.2022
2191 Clear 19 1022 60 10000 3.09 220 22:58 10.05.2022
2192 Clear 20 1022 58 10000 3.09 220 22:24 10.05.2022
2193 Clouds 21 1021 55 10000 4.63 220 21:26 10.05.2022
2194 Clouds 22 1021 49 10000 5.14 220 20:26 10.05.2022
2195 Clouds 24 1021 45 10000 7.72 220 18:49 10.05.2022
2196 Clouds 24 1021 45 10000 8.23 220 17:38 10.05.2022
2197 Clouds 24 1021 48 10000 8.75 220 16:24 10.05.2022
2198 Clear 23 1023 51 10000 7.2 210 13:19 10.05.2022
2199 Clear 23 1023 52 10000 5.66 210 11:53 10.05.2022
2200 Clear 23 1023 53 10000 4.12 200 11:30 10.05.2022
2201 Clear 22 1022 54 10000 2.57 210 10:56 10.05.2022
2202 Clear 19 1022 62 10000 2.57 300 09:36 10.05.2022
2203 Clear 17 1022 67 10000 3.6 320 07:58 10.05.2022
2204 Clear 16 1021 69 10000 2.57 310 06:20 10.05.2022
2205 Clear 17 1022 74 10000 2.06 290 01:54 10.05.2022
2206 Clear 17 1023 76 10000 2.57 290 23:45 09.05.2022
2207 Clear 18 1023 74 10000 1.54 90 22:35 09.05.2022
2208 Clear 19 1022 71 10000 2.57 110 21:39 09.05.2022
2209 Clear 20 1022 64 10000 1.54 110 20:20 09.05.2022
2210 Clouds 21 1022 60 10000 4.12 140 18:26 09.05.2022
2211 Clouds 22 1022 58 10000 5.66 120 17:26 09.05.2022
2212 Clouds 22 1022 58 10000 5.14 120 16:19 09.05.2022
2213 Clouds 22 1022 59 10000 5.14 120 15:47 09.05.2022
2214 Clouds 22 1022 57 10000 6.69 120 14:37 09.05.2022
2215 Clouds 22 1022 56 10000 7.2 120 13:59 09.05.2022
2216 Clouds 22 1022 55 10000 5.66 130 13:22 09.05.2022
2217 Clouds 23 1022 50 10000 3.09 110 11:53 09.05.2022
2218 Clear 22 1022 50 10000 1.34 57 10:48 09.05.2022
2219 Clear 21 1022 54 10000 3.09 340 10:26 09.05.2022
2220 Clouds 17 1021 64 10000 5.14 320 07:57 09.05.2022
2221 Clouds 17 1020 64 10000 3.09 360 05:53 09.05.2022
2222 Clouds 18 1021 63 10000 3.6 300 01:59 09.05.2022
2223 Clouds 17 1021 66 10000 0 0 23:29 08.05.2022
2224 Clouds 18 1021 61 10000 2.06 280 22:32 08.05.2022
2225 Clouds 19 1020 60 10000 3.09 170 21:24 08.05.2022
2226 Clouds 21 1019 57 10000 3.6 180 20:25 08.05.2022
2227 Clouds 21 1019 57 10000 4.12 140 19:35 08.05.2022
2228 Clouds 22 1019 55 10000 4.63 130 18:40 08.05.2022
2229 Clouds 22 1019 53 10000 3.6 130 17:40 08.05.2022
2230 Clouds 21 1018 59 10000 6.17 130 16:22 08.05.2022
2231 Clouds 22 1019 56 10000 4.63 120 15:24 08.05.2022
2232 Clouds 22 1018 54 10000 4.12 130 13:44 08.05.2022
2233 Clouds 22 1019 52 10000 2.57 170 11:50 08.05.2022
2234 Clouds 20 1019 54 10000 3.09 310 10:26 08.05.2022
2235 Clouds 19 1019 58 10000 4.12 310 09:53 08.05.2022
2236 Clouds 17 1018 61 10000 5.14 320 07:57 08.05.2022
2237 Clouds 16 1017 65 10000 4.12 310 06:21 08.05.2022
2238 Clouds 17 1018 65 10000 3.09 330 03:22 08.05.2022
2239 Clouds 17 1019 70 10000 3.13 136 01:19 08.05.2022
2240 Clouds 17 1019 70 10000 3.09 250 23:57 07.05.2022
2241 Clear 17 1019 70 10000 2.57 240 23:34 07.05.2022
2242 Clouds 17 1019 73 10000 3.6 220 22:46 07.05.2022
2243 Clear 18 1019 74 10000 3.6 210 21:56 07.05.2022
2244 Clouds 18 1019 73 10000 3.09 200 21:31 07.05.2022
2245 Clouds 19 1018 68 10000 3.09 120 20:25 07.05.2022
2246 Clouds 20 1018 67 10000 5.66 130 18:52 07.05.2022
2247 Clouds 22 1018 59 10000 5.14 130 16:51 07.05.2022
2248 Clouds 22 1018 52 10000 6.17 120 15:18 07.05.2022
2249 Clear 22 1018 48 10000 3.13 352 11:51 07.05.2022
2250 Clear 19 1019 53 10000 4.63 310 09:55 07.05.2022
2251 Clear 16 1019 60 10000 5.14 300 08:33 07.05.2022
2252 Clouds 15 1018 61 10000 4.63 320 07:25 07.05.2022
2253 Clouds 15 1018 61 10000 4.02 128 06:42 07.05.2022
2254 Clouds 15 1019 64 10000 4.63 310 04:19 07.05.2022
2255 Clouds 16 1020 63 10000 1.54 310 00:45 07.05.2022
2256 Clear 17 1019 64 10000 3.6 260 22:40 06.05.2022
2257 Clear 17 1019 63 10000 4.12 240 21:54 06.05.2022
2258 Clouds 18 1019 62 10000 1.54 270 21:30 06.05.2022
2259 Clouds 20 1018 56 10000 4.63 120 19:49 06.05.2022
2260 Clouds 20 1018 56 10000 4.63 120 19:25 06.05.2022
2261 Clouds 20 1018 56 10000 5.14 130 18:43 06.05.2022
2262 Clouds 21 1017 56 10000 5.66 110 17:37 06.05.2022
2263 Clouds 22 1017 50 10000 6.17 130 15:54 06.05.2022
2264 Clouds 22 1017 50 10000 6.17 130 15:30 06.05.2022
2265 Clouds 22 1018 49 10000 5.14 180 13:50 06.05.2022
2266 Clouds 21 1018 49 10000 4.63 180 12:51 06.05.2022
2267 Clear 21 1018 49 10000 5.66 260 11:58 06.05.2022
2268 Clear 20 1018 51 10000 5.14 270 11:27 06.05.2022
2269 Clear 18 1018 57 10000 2.57 310 09:48 06.05.2022
2270 Clear 17 1018 62 10000 2.57 330 09:18 06.05.2022
2271 Clear 15 1018 70 10000 4.63 310 07:55 06.05.2022
2272 Clouds 14 1018 72 10000 4.12 350 06:27 06.05.2022
2273 Clear 14 1019 79 10000 1.54 340 03:44 06.05.2022
2274 Clouds 15 1019 78 10000 3.13 110 02:38 06.05.2022
2275 Clouds 17 1020 73 10000 4.63 290 23:24 05.05.2022
2276 Clouds 17 1019 74 10000 4.63 240 21:51 05.05.2022
2277 Clouds 18 1018 71 10000 2.57 240 20:37 05.05.2022
2278 Clouds 18 1018 71 10000 4.12 240 19:19 05.05.2022
2279 Clouds 19 1018 75 9000 3.6 130 16:42 05.05.2022
2280 Rain 18 1018 75 10000 4.12 150 15:46 05.05.2022
2281 Clouds 21 1018 58 10000 4.12 200 13:41 05.05.2022
2282 Clouds 21 1018 58 10000 4.12 200 13:18 05.05.2022
2283 Clouds 20 1018 62 10000 5.66 280 11:42 05.05.2022
2284 Clouds 18 1018 72 10000 4.63 320 09:46 05.05.2022
2285 Clouds 17 1018 72 10000 5.66 310 09:26 05.05.2022
2286 Clouds 14 1017 79 10000 4.12 320 06:33 05.05.2022
2287 Clouds 16 1018 79 10000 3.6 330 02:28 05.05.2022
2288 Clouds 16 1018 80 10000 2.06 300 01:45 05.05.2022
2289 Clouds 16 1018 79 10000 2.57 330 00:57 05.05.2022
2290 Clouds 16 1018 78 10000 2.06 280 23:22 04.05.2022
2291 Clouds 16 1018 79 10000 2.57 10 22:18 04.05.2022
2292 Clouds 16 1018 79 10000 2.06 20 21:45 04.05.2022
2293 Rain 16 1018 80 10000 2.06 20 21:18 04.05.2022
2294 Rain 17 1017 80 10000 2.57 70 20:20 04.05.2022
2295 Rain 17 1017 79 10000 3.6 130 19:35 04.05.2022
2296 Rain 17 1017 76 10000 5.14 130 18:44 04.05.2022
2297 Rain 18 1017 74 10000 6.17 140 18:20 04.05.2022
2298 Clouds 18 1017 72 10000 5.14 140 17:22 04.05.2022
2299 Clouds 19 1016 70 10000 5.14 100 15:34 04.05.2022
2300 Clouds 19 1016 67 10000 4.63 70 14:46 04.05.2022
2301 Clouds 20 1016 61 10000 4.63 70 14:20 04.05.2022
2302 Clear 19 1016 66 10000 3.6 80 12:58 04.05.2022
2303 Clear 18 996 71 10000 3.6 50 12:24 04.05.2022
2304 Clouds 17 1017 76 10000 6.17 40 10:30 04.05.2022
2305 Clouds 16 1016 78 10000 3.09 340 09:23 04.05.2022
2306 Clouds 14 1017 82 10000 3.6 340 08:26 04.05.2022
2307 Clouds 13 1016 85 10000 2.57 350 05:42 04.05.2022
2308 Clouds 14 1016 83 10000 0.51 350 02:43 04.05.2022
2309 Clouds 15 1016 83 10000 3.09 50 23:31 03.05.2022
2310 Clouds 16 1015 84 10000 3.09 40 22:00 03.05.2022
2311 Clouds 16 1015 82 10000 3.09 70 21:32 03.05.2022
2312 Clouds 16 1015 81 10000 4.12 60 20:52 03.05.2022
2313 Clouds 17 1014 77 10000 4.63 60 19:39 03.05.2022
2314 Clouds 18 1014 74 10000 5.66 60 18:48 03.05.2022
2315 Clouds 18 1014 73 10000 6.17 60 17:34 03.05.2022
2316 Clouds 18 1014 73 10000 6.17 70 16:20 03.05.2022
2317 Rain 17 1015 80 10000 5.66 70 14:34 03.05.2022
2318 Rain 17 1015 80 10000 5.66 80 12:46 03.05.2022
2319 Rain 17 1015 81 10000 6.17 70 12:22 03.05.2022
2320 Clouds 17 1014 76 10000 5.66 70 10:52 03.05.2022
2321 Clouds 15 1013 78 10000 3.09 40 08:38 03.05.2022
2322 Clouds 15 1012 77 10000 3.6 50 06:46 03.05.2022
2323 Clear 15 1013 72 10000 2.57 50 03:34 03.05.2022
2324 Clouds 16 1013 68 10000 2.57 60 23:32 02.05.2022
2325 Clouds 16 1013 69 10000 3.6 50 22:34 02.05.2022
2326 Clouds 17 1013 67 10000 4.12 70 21:48 02.05.2022
2327 Clouds 17 1013 62 10000 3.6 70 20:50 02.05.2022
2328 Clouds 19 1012 59 10000 5.66 80 18:35 02.05.2022
2329 Clouds 19 1013 60 10000 5.14 90 17:44 02.05.2022
2330 Clouds 19 1013 61 10000 5.14 100 16:50 02.05.2022
2331 Rain 19 1013 63 10000 3.6 100 15:56 02.05.2022
2332 Clouds 19 1014 62 10000 3.6 120 14:57 02.05.2022
2333 Clouds 19 1014 62 10000 3.6 150 13:48 02.05.2022
2334 Clouds 20 1014 62 10000 3.6 90 12:18 02.05.2022
2335 Clouds 18 1014 70 10000 3.09 40 10:20 02.05.2022
2336 Clouds 16 1014 78 10000 1.54 350 08:46 02.05.2022
2337 Clear 16 1014 80 10000 2.57 10 07:30 02.05.2022
2338 Clear 16 1016 75 10000 1.03 310 01:58 02.05.2022
2339 Clear 17 1016 75 10000 1.03 0 00:23 02.05.2022
2340 Rain 17 1016 74 10000 1.03 0 23:46 01.05.2022
2341 Clear 17 1016 71 10000 1.54 70 21:56 01.05.2022
2342 Clouds 18 1016 69 10000 2.57 120 20:58 01.05.2022
2343 Clouds 19 1016 68 10000 4.12 130 19:49 01.05.2022
2344 Clear 20 1016 67 10000 5.66 160 18:55 01.05.2022
2345 Clouds 20 1016 66 10000 5.14 170 18:18 01.05.2022
2346 Clouds 21 1016 64 10000 5.66 160 16:55 01.05.2022
2347 Clouds 21 1016 62 10000 5.66 190 16:23 01.05.2022
2348 Clouds 21 1017 64 10000 4.63 160 15:23 01.05.2022
2349 Clouds 20 1018 66 10000 3.6 130 13:42 01.05.2022
2350 Clouds 19 1018 72 10000 4.12 80 10:50 01.05.2022
2351 Clear 16 1018 81 10000 5.66 320 08:51 01.05.2022
2352 Clouds 15 1018 83 10000 5.14 330 07:42 01.05.2022
2353 Clouds 16 1018 82 10000 2.06 330 03:26 01.05.2022
2354 Clouds 17 1020 78 10000 1.54 210 23:23 30.04.2022
2355 Clouds 17 1019 77 10000 1.54 280 21:35 30.04.2022
2356 Clouds 18 1019 77 10000 2.06 220 20:36 30.04.2022
2357 Clear 18 1019 76 10000 2.06 200 19:41 30.04.2022
2358 Rain 19 1019 69 10000 5.14 130 17:44 30.04.2022
2359 Clouds 21 1019 64 10000 6.69 150 16:37 30.04.2022
2360 Clouds 21 1019 62 10000 6.17 150 15:24 30.04.2022
2361 Clouds 21 1020 64 10000 5.66 150 14:34 30.04.2022
2362 Clear 22 1021 60 10000 2.57 140 12:40 30.04.2022
2363 Clear 21 1021 60 10000 1.79 60 11:33 30.04.2022
2364 Clear 20 1021 63 10000 1.03 130 10:43 30.04.2022
2365 Clear 18 1021 71 10000 3.09 340 08:59 30.04.2022
2366 Clear 16 1020 74 10000 3.6 320 05:51 30.04.2022
2367 Clear 17 1022 69 10000 2.24 128 01:53 30.04.2022
2368 Clouds 18 1022 71 10000 3.09 230 23:37 29.04.2022
2369 Clouds 18 1022 70 10000 2.06 280 22:31 29.04.2022
2370 Clear 18 1021 70 10000 2.06 200 21:34 29.04.2022
2371 Clear 19 1021 66 10000 2.57 140 20:40 29.04.2022
2372 Clear 20 1021 64 10000 3.09 110 19:43 29.04.2022
2373 Clear 22 1022 58 10000 4.63 130 17:54 29.04.2022
2374 Clouds 22 1022 57 10000 5.14 140 17:21 29.04.2022
2375 Clouds 24 1022 47 10000 5.66 210 14:57 29.04.2022
2376 Clouds 24 1023 48 10000 5.66 220 14:20 29.04.2022
2377 Clear 23 1023 51 10000 2.24 7 12:48 29.04.2022
2378 Clouds 21 1024 54 10000 4.63 320 10:59 29.04.2022
2379 Clear 18 1023 67 10000 5.66 330 08:46 29.04.2022
2380 Clear 15 1022 73 10000 6.17 320 07:27 29.04.2022
2381 Clear 16 1022 68 10000 5.66 320 06:38 29.04.2022
2382 Clear 16 1022 68 10000 4.63 330 04:43 29.04.2022
2383 Clear 17 1023 66 10000 2.57 300 00:19 29.04.2022
2384 Clear 17 1022 66 10000 1.03 0 23:27 28.04.2022
2385 Clear 18 1022 65 10000 2.06 40 22:41 28.04.2022
2386 Clear 18 1021 65 10000 2.57 60 21:47 28.04.2022
2387 Clear 19 1021 61 10000 3.09 60 20:57 28.04.2022
2388 Clear 20 1021 60 10000 2.06 60 20:24 28.04.2022
2389 Clear 20 1020 59 10000 3.09 70 19:41 28.04.2022
2390 Clear 20 1020 56 10000 3.09 70 19:21 28.04.2022
2391 Clear 20 1020 56 10000 5.14 70 18:35 28.04.2022
2392 Clear 21 1020 55 10000 5.66 80 17:20 28.04.2022
2393 Clear 21 1020 53 10000 5.66 70 16:40 28.04.2022
2394 Clouds 21 1020 54 10000 5.14 70 16:18 28.04.2022
2395 Clouds 21 1020 57 10000 5.66 70 15:27 28.04.2022
2396 Clouds 20 1020 58 10000 4.63 100 13:44 28.04.2022
2397 Clouds 21 1020 53 10000 3.6 90 12:44 28.04.2022
2398 Clouds 20 1020 53 10000 4.63 80 11:58 28.04.2022
2399 Clouds 19 1020 57 10000 5.14 70 10:46 28.04.2022
2400 Clear 17 1020 59 10000 1.03 0 09:54 28.04.2022
2401 Clouds 16 1019 64 10000 2.06 350 08:31 28.04.2022
2402 Clouds 15 1018 65 10000 3.09 330 06:59 28.04.2022
2403 Clouds 14 1017 66 10000 3.09 330 05:55 28.04.2022
2404 Clouds 14 1017 65 10000 2.57 330 05:37 28.04.2022
2405 Clouds 15 1017 65 10000 2.06 340 04:38 28.04.2022
2406 Clouds 16 1018 68 10000 0.51 0 00:30 28.04.2022
2407 Clear 16 1018 66 10000 1.03 180 22:39 27.04.2022
2408 Clear 17 1017 65 10000 1.54 200 21:54 27.04.2022
2409 Clear 17 1017 61 10000 2.06 220 20:59 27.04.2022
2410 Clear 18 1017 60 10000 3.09 240 20:37 27.04.2022
2411 Clear 18 1016 59 10000 3.09 210 19:38 27.04.2022
2412 Clear 19 1016 56 10000 3.09 210 19:18 27.04.2022
2413 Clouds 19 1016 53 10000 4.12 130 18:22 27.04.2022
2414 Clouds 20 1016 52 10000 4.12 130 16:58 27.04.2022
2415 Clear 21 1017 49 10000 2.57 170 14:33 27.04.2022
2416 Clear 21 1017 50 10000 4.12 200 12:25 27.04.2022
2417 Clear 20 1017 54 10000 1.34 309 11:20 27.04.2022
2418 Clear 18 1016 60 10000 4.12 330 09:43 27.04.2022
2419 Clear 14 1015 64 10000 4.12 320 07:18 27.04.2022
2420 Clouds 14 1014 67 10000 4.12 320 04:45 27.04.2022
2421 Clouds 15 1015 68 10000 2.57 300 01:34 27.04.2022
2422 Clouds 15 1015 68 10000 1.54 240 00:38 27.04.2022
2423 Clouds 15 1015 68 10000 1.54 240 00:38 27.04.2022
2424 Clouds 15 1015 69 10000 2.57 230 23:40 26.04.2022
2425 Clouds 16 1015 68 10000 3.09 220 23:22 26.04.2022
2426 Clouds 16 1015 67 10000 2.57 220 22:41 26.04.2022
2427 Clear 17 1014 63 10000 3.09 220 21:37 26.04.2022
2428 Clear 18 1014 57 10000 3.09 210 20:53 26.04.2022
2429 Clear 19 1014 57 10000 4.63 220 20:33 26.04.2022
2430 Clouds 20 1013 52 10000 5.66 220 19:32 26.04.2022
2431 Clouds 21 1013 51 10000 6.17 210 18:45 26.04.2022
2432 Clouds 21 1013 50 10000 6.17 210 18:18 26.04.2022
2433 Clouds 21 1013 47 10000 6.17 200 17:22 26.04.2022
2434 Clouds 21 1014 50 10000 5.66 210 14:28 26.04.2022
2435 Clouds 21 1015 56 10000 4.63 210 13:34 26.04.2022
2436 Clouds 20 1015 59 10000 3.6 190 12:22 26.04.2022
2437 Clear 19 1014 58 10000 0.89 148 10:44 26.04.2022
2438 Clouds 17 1014 64 10000 2.06 310 09:36 26.04.2022
2439 Clouds 13 1014 73 10000 5.14 300 07:54 26.04.2022
2440 Clouds 13 1013 74 10000 2.06 320 04:33 26.04.2022
2441 Clear 13 1014 75 10000 1.54 290 01:54 26.04.2022
2442 Clear 15 1014 74 10000 2.06 230 00:26 26.04.2022
2443 Clear 16 1013 70 10000 4.63 220 22:49 25.04.2022
2444 Clear 17 1012 69 10000 3.09 210 21:43 25.04.2022
2445 Clear 18 1012 67 10000 5.66 230 20:45 25.04.2022
2446 Clear 18 1012 67 10000 5.66 230 20:45 25.04.2022
2447 Clouds 19 1012 68 10000 6.69 220 19:34 25.04.2022
2448 Clouds 20 1012 64 10000 6.17 220 18:23 25.04.2022
2449 Clouds 20 1012 61 10000 5.66 220 17:32 25.04.2022
2450 Clouds 19 1013 67 10000 6.17 130 15:30 25.04.2022
2451 Clouds 19 1013 68 10000 5.66 150 14:54 25.04.2022
2452 Clouds 19 1014 67 10000 4.63 100 13:41 25.04.2022
2453 Clouds 19 1013 59 10000 1.34 60 11:49 25.04.2022
2454 Clear 17 1013 65 10000 1.03 0 10:27 25.04.2022
2455 Clouds 15 1013 75 10000 2.57 330 08:47 25.04.2022
2456 Clouds 12 1012 82 10000 3.6 330 06:46 25.04.2022
2457 Clouds 12 1012 81 10000 2.57 330 05:23 25.04.2022
2458 Clouds 14 1012 79 10000 2.57 50 00:58 25.04.2022
2459 Clouds 15 1012 77 10000 2.57 80 23:52 24.04.2022
2460 Clouds 15 1011 76 10000 1.34 0 22:52 24.04.2022
2461 Clouds 15 1011 75 10000 4.63 250 22:31 24.04.2022
2462 Clouds 16 1010 72 10000 6.69 220 21:42 24.04.2022
2463 Clouds 17 1010 71 10000 7.2 220 21:18 24.04.2022
2464 Clouds 18 1009 65 10000 8.75 230 20:37 24.04.2022
2465 Clouds 18 1008 60 10000 7.72 220 19:48 24.04.2022
2466 Clouds 20 1007 54 10000 10.8 230 18:20 24.04.2022
2467 Clouds 20 1008 54 10000 10.8 220 17:37 24.04.2022
2468 Clouds 20 1008 59 10000 10.8 220 17:19 24.04.2022
2469 Clouds 20 1008 62 10000 8.75 230 16:35 24.04.2022
2470 Clouds 21 1008 56 10000 4.47 345 15:56 24.04.2022
2471 Clouds 20 1008 57 10000 4.12 180 15:31 24.04.2022
2472 Clouds 20 1008 55 10000 5.14 200 13:58 24.04.2022
2473 Clouds 19 1008 55 10000 3.09 270 13:25 24.04.2022
2474 Clouds 18 1007 58 10000 4.12 280 12:32 24.04.2022
2475 Clouds 17 1007 62 10000 6.17 310 11:33 24.04.2022
2476 Clouds 15 1006 65 10000 8.23 280 10:27 24.04.2022
2477 Clouds 14 1005 68 10000 5.14 290 09:26 24.04.2022
2478 Clouds 12 1004 70 10000 6.17 230 06:46 24.04.2022
2479 Clouds 12 1003 69 10000 8.75 240 03:57 24.04.2022
2480 Clouds 12 1003 72 10000 6.17 250 01:38 24.04.2022
2481 Clouds 12 1003 72 10000 6.17 250 01:38 24.04.2022
2482 Clouds 12 1003 72 10000 8.23 250 00:29 24.04.2022
2483 Clouds 12 1003 75 10000 5.14 270 23:44 23.04.2022
2484 Clouds 12 1003 75 10000 5.14 270 23:21 23.04.2022
2485 Drizzle 12 1002 77 10000 7.2 250 21:53 23.04.2022
2486 Drizzle 12 1002 78 10000 8.75 260 21:34 23.04.2022
2487 Clouds 12 1001 76 10000 6.17 230 20:51 23.04.2022
2488 Thunderstorm 14 1000 66 10000 5.14 210 19:47 23.04.2022
2489 Clouds 15 999 63 10000 7.72 230 19:19 23.04.2022
2490 Rain 15 999 65 10000 10.29 230 18:52 23.04.2022
2491 Rain 14 999 69 10000 7.2 230 17:51 23.04.2022
2492 Rain 14 999 68 10000 6.69 240 17:26 23.04.2022
2493 Clouds 13 999 69 10000 8.23 220 16:41 23.04.2022
2494 Rain 14 998 67 10000 9.77 260 15:28 23.04.2022
2495 Clouds 15 997 67 10000 9.77 220 12:44 23.04.2022
2496 Drizzle 15 997 80 9000 7.72 210 10:44 23.04.2022
2497 Drizzle 14 996 82 7000 1.79 1 09:33 23.04.2022
2498 Clouds 14 997 83 10000 1.54 140 06:32 23.04.2022
2499 Clouds 13 998 82 9000 1.54 170 03:54 23.04.2022
2500 Clouds 13 1000 82 10000 2.06 300 01:20 23.04.2022
2501 Clouds 14 1000 79 10000 1.54 160 23:30 22.04.2022
2502 Clouds 15 1000 75 10000 1.34 340 22:20 22.04.2022
2503 Clear 15 1000 72 10000 2.06 210 21:43 22.04.2022
2504 Clouds 16 1000 66 10000 3.13 62 20:47 22.04.2022
2505 Clouds 16 1000 64 10000 3.58 68 20:27 22.04.2022
2506 Clouds 17 1000 65 10000 6.17 240 19:20 22.04.2022
2507 Clouds 17 1000 65 10000 7.2 220 18:41 22.04.2022
2508 Clouds 18 1000 63 10000 6.69 230 17:41 22.04.2022
2509 Clouds 18 1000 61 10000 7.72 210 16:46 22.04.2022
2510 Clouds 20 1000 56 10000 7.72 220 15:42 22.04.2022
2511 Clouds 20 1000 57 10000 7.72 210 14:46 22.04.2022
2512 Clouds 20 1001 53 10000 4.12 260 13:50 22.04.2022
2513 Clear 20 1001 55 10000 3.09 230 12:58 22.04.2022
2514 Clear 18 1001 60 10000 7.2 220 11:50 22.04.2022
2515 Clear 18 1001 60 10000 4.12 260 11:21 22.04.2022
2516 Clear 17 1001 61 10000 4.12 270 10:50 22.04.2022
2517 Clear 16 1001 64 10000 4.12 250 10:30 22.04.2022
2518 Clear 15 1001 69 10000 4.63 250 09:50 22.04.2022
2519 Clear 13 1001 75 10000 4.63 320 08:50 22.04.2022
2520 Clear 12 1001 80 10000 3.6 270 06:58 22.04.2022
2521 Clouds 13 1001 81 10000 1.03 0 03:30 22.04.2022
2522 Clouds 13 1003 79 10000 2.06 300 00:51 22.04.2022
2523 Clouds 14 1003 79 10000 1.03 0 23:24 21.04.2022
2524 Clouds 14 1003 81 10000 1.54 290 22:27 21.04.2022
2525 Clouds 14 1002 81 10000 4.02 121 20:37 21.04.2022
2526 Clouds 14 1002 81 10000 2.24 114 20:18 21.04.2022
2527 Rain 14 1002 79 9000 3.09 280 18:42 21.04.2022
2528 Rain 13 1002 80 8000 3.09 270 17:57 21.04.2022
2529 Rain 14 1002 77 10000 2.68 325 16:35 21.04.2022
2530 Rain 13 1002 79 10000 4.63 280 15:21 21.04.2022
2531 Rain 13 1002 79 10000 4.12 300 14:49 21.04.2022
2532 Rain 11 1003 80 10000 5.14 290 13:23 21.04.2022
2533 Rain 12 1003 79 10000 4.47 135 12:57 21.04.2022
2534 Rain 12 1004 83 10000 4.63 330 10:49 21.04.2022
2535 Rain 12 1004 82 10000 2.06 320 08:57 21.04.2022
2536 Rain 11 1003 81 6000 0.51 350 07:32 21.04.2022
2537 Rain 12 1004 81 10000 6.69 60 05:42 21.04.2022
2538 Clouds 13 1004 78 10000 9.77 50 03:32 21.04.2022
2539 Clouds 13 1004 80 10000 9.26 60 02:47 21.04.2022
2540 Clouds 14 1004 80 10000 6.69 50 00:47 21.04.2022
2541 Thunderstorm 14 1004 80 10000 4.47 53 23:51 20.04.2022
2542 Clouds 14 1004 81 10000 5.14 130 23:22 20.04.2022
2543 Clouds 14 1004 82 10000 6.69 80 22:50 20.04.2022
2544 Clouds 14 1004 83 10000 7.72 60 22:31 20.04.2022
2545 Rain 15 1004 81 10000 10.29 50 21:29 20.04.2022
2546 Rain 15 1003 80 10000 10.29 60 20:37 20.04.2022
2547 Rain 15 1003 79 10000 10.29 50 19:52 20.04.2022
2548 Rain 15 1003 78 10000 9.77 50 19:21 20.04.2022
2549 Thunderstorm 16 1003 76 10000 13.38 60 18:23 20.04.2022
2550 Clouds 16 1003 75 10000 12.35 60 16:56 20.04.2022
2551 Clouds 16 1003 72 10000 12.86 60 16:37 20.04.2022
2552 Clouds 16 1003 70 6000 12.35 60 14:21 20.04.2022
2553 Clouds 16 1004 70 10000 11.32 60 11:52 20.04.2022
2554 Clouds 15 1004 71 10000 10.29 60 11:25 20.04.2022
2555 Clouds 15 1004 70 10000 9.77 60 10:24 20.04.2022
2556 Clouds 15 1003 70 10000 10.29 60 09:25 20.04.2022
2557 Clouds 14 1004 75 10000 8.23 60 08:22 20.04.2022
2558 Clouds 14 1004 74 10000 8.23 60 08:22 20.04.2022
2559 Clouds 14 1004 78 10000 8.23 60 07:42 20.04.2022
2560 Clouds 14 1005 76 10000 4.12 30 03:54 20.04.2022
2561 Clouds 14 1008 79 10000 2.06 320 00:24 20.04.2022
2562 Clouds 14 1008 78 10000 2.06 320 23:59 19.04.2022
2563 Clouds 15 1008 77 10000 3.09 50 22:28 19.04.2022
2564 Clouds 15 1009 75 10000 2.57 50 21:57 19.04.2022
2565 Rain 16 1008 73 10000 3.09 40 21:34 19.04.2022
2566 Rain 16 1009 66 10000 1.03 10 20:50 19.04.2022
2567 Clouds 17 1009 66 10000 2.57 40 20:32 19.04.2022
2568 Clouds 17 1009 62 10000 2.57 30 19:24 19.04.2022
2569 Clouds 18 1009 59 10000 3.6 100 17:59 19.04.2022
2570 Clouds 18 1010 58 10000 3.09 80 16:44 19.04.2022
2571 Clouds 18 1010 57 10000 4.12 150 16:24 19.04.2022
2572 Clouds 17 1011 70 10000 3.6 130 14:51 19.04.2022
2573 Clouds 17 1011 71 10000 2.57 110 14:31 19.04.2022
2574 Clouds 17 1012 74 9000 2.06 110 12:52 19.04.2022
2575 Clouds 17 1013 75 9000 2.06 150 12:26 19.04.2022
2576 Clouds 16 1013 76 9000 1.54 190 11:22 19.04.2022
2577 Clouds 14 1012 78 9000 2.06 330 09:25 19.04.2022
2578 Clouds 12 1012 78 10000 3.09 320 06:34 19.04.2022
2579 Clouds 13 1013 78 10000 2.57 320 04:19 19.04.2022
2580 Clouds 14 1014 82 10000 1.54 290 00:56 19.04.2022
2581 Clouds 14 1014 82 10000 1.54 50 23:38 18.04.2022
2582 Clouds 15 1014 81 10000 2.06 90 21:48 18.04.2022
2583 Clouds 15 1014 81 10000 3.09 120 21:24 18.04.2022
2584 Clouds 16 1014 78 10000 4.12 130 20:38 18.04.2022
2585 Clouds 17 1013 79 10000 4.12 130 19:59 18.04.2022
2586 Clouds 17 1013 77 10000 3.6 110 19:27 18.04.2022
2587 Clouds 18 1013 76 10000 3.6 120 18:33 18.04.2022
2588 Clouds 18 1014 74 10000 4.12 120 17:39 18.04.2022
2589 Clouds 18 1014 73 10000 4.12 120 17:19 18.04.2022
2590 Clouds 18 1015 70 10000 4.63 120 16:35 18.04.2022
2591 Clouds 18 1015 71 10000 5.14 130 15:28 18.04.2022
2592 Clouds 18 1016 70 10000 5.66 130 13:44 18.04.2022
2593 Clear 18 1016 69 10000 4.12 140 12:40 18.04.2022
2594 Clear 18 1016 64 10000 4.12 200 11:43 18.04.2022
2595 Clear 17 1015 63 10000 3.09 310 10:43 18.04.2022
2596 Clear 16 1015 66 10000 3.13 249 09:31 18.04.2022
2597 Clear 16 1015 67 10000 3.13 249 09:31 18.04.2022
2598 Clear 15 1015 69 10000 4.12 320 08:37 18.04.2022
2599 Clear 13 1015 73 10000 2.06 320 06:25 18.04.2022
2600 Clouds 15 1016 66 10000 2.57 320 02:22 18.04.2022
2601 Clear 15 1017 72 10000 1.54 80 22:53 17.04.2022
2602 Clear 15 1017 72 10000 1.54 70 22:31 17.04.2022
2603 Clouds 16 1016 70 10000 3.09 70 21:32 17.04.2022
2604 Clouds 16 1016 69 10000 3.09 70 20:51 17.04.2022
2605 Clear 17 1016 67 10000 3.6 70 19:55 17.04.2022
2606 Clear 18 1016 66 10000 4.12 120 18:34 17.04.2022
2607 Clear 18 1016 66 10000 5.66 140 17:20 17.04.2022
2608 Clouds 19 1017 61 10000 6.69 90 15:34 17.04.2022
2609 Clouds 21 1017 54 10000 6.17 80 14:38 17.04.2022
2610 Clouds 21 1017 58 10000 6.17 80 13:28 17.04.2022
2611 Clouds 21 1017 57 10000 5.14 90 12:31 17.04.2022
2612 Clouds 21 1017 55 10000 3.09 90 10:48 17.04.2022
2613 Clouds 20 1017 57 10000 1.54 10 10:29 17.04.2022
2614 Clouds 19 1017 62 10000 3.6 340 09:51 17.04.2022
2615 Clouds 18 1017 67 10000 4.63 330 09:18 17.04.2022
2616 Clouds 17 1017 71 10000 3.6 340 08:31 17.04.2022
2617 Clear 16 1015 75 10000 2.57 350 05:33 17.04.2022
2618 Clear 16 1016 78 10000 2.06 250 01:52 17.04.2022
2619 Clouds 16 1016 77 10000 1.54 300 00:37 17.04.2022
2620 Clear 17 1016 76 10000 1.03 130 23:30 16.04.2022
2621 Clouds 18 1016 75 10000 3.09 110 21:47 16.04.2022
2622 Clouds 19 1015 71 10000 4.12 130 20:54 16.04.2022
2623 Clouds 21 1015 71 10000 9.77 230 19:24 16.04.2022
2624 Clouds 22 1015 69 10000 8.23 220 18:43 16.04.2022
2625 Clouds 24 1014 53 10000 5.66 150 17:20 16.04.2022
2626 Clouds 25 1015 48 10000 5.14 210 15:51 16.04.2022
2627 Clouds 25 1015 44 10000 5.66 210 14:58 16.04.2022
2628 Clouds 25 1016 45 10000 5.66 200 14:40 16.04.2022
2629 Clear 25 1016 46 10000 3.6 240 13:49 16.04.2022
2630 Clear 24 1017 51 10000 5.14 190 13:18 16.04.2022
2631 Clear 24 1017 49 10000 3.6 300 11:43 16.04.2022
2632 Clear 21 1017 57 10000 4.12 320 10:33 16.04.2022
2633 Clear 18 1018 69 10000 5.14 320 09:37 16.04.2022
2634 Clear 18 1018 69 10000 6.17 320 08:51 16.04.2022
2635 Clear 16 1017 75 10000 6.69 310 07:22 16.04.2022
2636 Clear 17 1017 71 10000 5.14 310 05:38 16.04.2022
2637 Clear 18 1020 64 10000 3.09 320 01:47 16.04.2022
2638 Clear 18 1020 64 10000 2.06 290 23:52 15.04.2022
2639 Clear 19 1020 61 10000 2.06 270 22:51 15.04.2022
2640 Clear 19 1020 61 10000 2.57 280 22:29 15.04.2022
2641 Clear 20 1020 58 10000 2.06 250 21:25 15.04.2022
2642 Clear 21 1019 56 10000 3.09 230 20:38 15.04.2022
2643 Clear 22 1018 52 10000 3.6 180 19:46 15.04.2022
2644 Clear 22 1019 51 10000 3.6 180 19:23 15.04.2022
2645 Clear 23 1018 49 10000 3.6 180 18:42 15.04.2022
2646 Clouds 23 1019 48 10000 3.09 180 18:22 15.04.2022
2647 Clouds 24 1019 48 10000 4.12 130 17:27 15.04.2022
2648 Clouds 24 1019 47 10000 5.14 130 16:25 15.04.2022
2649 Clouds 24 1019 46 10000 5.66 130 15:46 15.04.2022
2650 Clear 24 1020 44 10000 4.12 200 14:18 15.04.2022
2651 Clear 24 1019 41 10000 3.09 160 12:52 15.04.2022
2652 Clear 23 1019 42 10000 2.57 150 12:26 15.04.2022
2653 Clear 23 1019 43 10000 3.6 320 11:51 15.04.2022
2654 Clear 21 1019 47 10000 0.89 276 10:48 15.04.2022
2655 Clear 19 1019 51 10000 3.09 340 10:21 15.04.2022
2656 Clear 17 1019 57 10000 5.66 330 09:23 15.04.2022
2657 Clear 16 1019 59 10000 6.17 330 08:49 15.04.2022
2658 Clouds 15 1019 60 10000 3.6 340 06:51 15.04.2022
2659 Clouds 15 1018 64 10000 2.06 320 04:49 15.04.2022
2660 Clouds 16 1019 62 10000 3.09 290 00:51 15.04.2022
2661 Clouds 17 1019 58 10000 3.6 30 23:28 14.04.2022
2662 Clouds 17 1019 59 10000 3.09 20 22:46 14.04.2022
2663 Clouds 17 1019 59 10000 3.09 20 22:27 14.04.2022
2664 Clouds 17 1018 58 10000 3.6 50 21:50 14.04.2022
2665 Clouds 19 1017 50 10000 7.72 70 19:53 14.04.2022
2666 Clouds 19 1017 50 10000 9.26 70 19:22 14.04.2022
2667 Clouds 20 1016 48 10000 9.77 80 17:48 14.04.2022
2668 Clear 20 1015 48 10000 11.32 70 17:18 14.04.2022
2669 Clear 21 1015 49 10000 9.77 70 16:32 14.04.2022
2670 Clouds 21 1016 45 10000 10.29 80 13:55 14.04.2022
2671 Clouds 21 1016 48 10000 9.77 80 13:26 14.04.2022
2672 Clouds 22 1016 42 10000 8.75 70 12:33 14.04.2022
2673 Clouds 21 1015 42 10000 6.17 70 11:47 14.04.2022
2674 Clouds 20 1015 43 10000 6.17 30 11:21 14.04.2022
2675 Clouds 19 1015 48 10000 3.6 330 10:36 14.04.2022
2676 Clouds 18 1015 48 10000 4.12 330 09:52 14.04.2022
2677 Clouds 14 1015 68 10000 4.12 330 08:39 14.04.2022
2678 Clouds 13 1015 76 10000 2.06 290 06:24 14.04.2022
2679 Clouds 14 1015 72 10000 3.6 30 01:49 14.04.2022
2680 Clouds 14 1015 71 10000 8.23 60 22:45 13.04.2022
2681 Drizzle 14 1015 76 10000 10.8 60 21:44 13.04.2022
2682 Rain 14 1014 77 10000 8.23 70 20:48 13.04.2022
2683 Clouds 14 1014 80 10000 8.75 70 20:22 13.04.2022
2684 Rain 15 1012 81 10000 7.72 50 19:23 13.04.2022
2685 Mist 14 1013 82 5000 8.23 60 17:54 13.04.2022
2686 Mist 14 1013 84 5000 8.75 70 17:23 13.04.2022
2687 Mist 14 1013 84 5000 8.23 70 16:33 13.04.2022
2688 Rain 14 1013 85 7000 7.72 70 15:32 13.04.2022
2689 Rain 14 1013 85 6000 8.23 60 14:50 13.04.2022
2690 Mist 14 1013 86 2000 9.26 60 13:58 13.04.2022
2691 Mist 14 1013 88 1200 9.77 60 13:19 13.04.2022
2692 Mist 14 1013 88 1200 9.77 60 12:20 13.04.2022
2693 Mist 14 1012 88 3000 8.75 60 10:47 13.04.2022
2694 Clouds 14 1011 86 3100 7.2 50 08:57 13.04.2022
2695 Drizzle 14 1011 85 6000 7.2 60 08:33 13.04.2022
2696 Clouds 14 1010 86 6000 7.72 50 06:51 13.04.2022
2697 Clouds 14 1011 86 4000 7.72 50 06:25 13.04.2022
2698 Clouds 14 1011 81 7000 5.66 70 04:55 13.04.2022
2699 Mist 14 1012 91 5000 7.72 50 00:20 13.04.2022
2700 Clouds 14 1012 82 8000 8.75 60 23:21 12.04.2022
2701 Clouds 14 1011 80 10000 8.75 60 21:57 12.04.2022
2702 Clouds 15 1011 78 10000 7.2 60 20:57 12.04.2022
2703 Clouds 15 1011 80 10000 8.23 60 20:38 12.04.2022
2704 Clouds 15 1011 78 10000 7.72 60 19:48 12.04.2022
2705 Clouds 15 1011 78 10000 7.72 60 19:29 12.04.2022
2706 Clouds 15 1011 78 10000 7.72 60 19:29 12.04.2022
2707 Clouds 15 1011 77 10000 8.23 60 17:59 12.04.2022
2708 Clouds 15 1011 77 10000 8.75 60 17:23 12.04.2022
2709 Clouds 15 1011 76 10000 8.75 60 16:22 12.04.2022
2710 Clouds 15 1011 76 10000 10.8 50 15:29 12.04.2022
2711 Clouds 15 1012 75 10000 11.32 60 14:21 12.04.2022
2712 Clouds 15 1012 76 10000 10.29 50 13:29 12.04.2022
2713 Drizzle 14 1012 78 7000 10.29 50 12:49 12.04.2022
2714 Drizzle 14 1013 77 5000 9.77 50 11:46 12.04.2022
2715 Clouds 14 1012 76 9000 8.75 60 10:35 12.04.2022
2716 Clouds 14 1012 75 10000 8.23 60 09:18 12.04.2022
2717 Clouds 14 1011 74 10000 10.29 50 07:55 12.04.2022
2718 Clouds 14 1011 75 10000 9.26 60 05:50 12.04.2022
2719 Clouds 14 1012 75 9000 9.26 60 05:31 12.04.2022
2720 Clouds 14 1014 76 9000 8.23 60 23:59 11.04.2022
2721 Clouds 14 1015 76 9000 7.72 60 22:44 11.04.2022
2722 Clouds 14 1014 75 10000 9.26 50 21:37 11.04.2022
2723 Clouds 14 1014 75 10000 8.75 60 20:57 11.04.2022
2724 Clouds 14 1014 74 10000 7.72 60 20:29 11.04.2022
2725 Clouds 14 1014 73 10000 8.75 60 19:54 11.04.2022
2726 Clouds 15 1014 72 10000 7.72 60 19:18 11.04.2022
2727 Clouds 15 1014 72 10000 8.23 60 18:47 11.04.2022
2728 Clouds 16 1014 71 10000 8.23 60 17:56 11.04.2022
2729 Clouds 16 1015 71 10000 7.72 70 16:54 11.04.2022
2730 Clouds 16 1015 68 10000 7.2 70 15:54 11.04.2022
2731 Clouds 17 1016 70 10000 5.66 90 14:24 11.04.2022
2732 Clouds 16 1017 73 10000 5.66 90 12:52 11.04.2022
2733 Clouds 16 1017 73 10000 5.14 70 12:31 11.04.2022
2734 Clouds 16 1016 73 10000 4.12 80 11:31 11.04.2022
2735 Clouds 15 1016 73 10000 1.54 340 10:28 11.04.2022
2736 Clear 13 1016 77 10000 3.09 330 09:20 11.04.2022
2737 Clear 11 1015 78 10000 2.57 330 06:24 11.04.2022
2738 Clear 12 1017 77 10000 1.54 180 01:53 11.04.2022
2739 Clear 14 1017 70 10000 4.12 240 22:37 10.04.2022
2740 Clear 14 1017 69 10000 3.6 240 21:55 10.04.2022
2741 Clear 14 1017 70 10000 4.12 240 21:29 10.04.2022
2742 Clear 15 1017 67 10000 5.66 240 20:31 10.04.2022
2743 Clear 16 1017 66 10000 6.17 230 19:44 10.04.2022
2744 Clouds 17 1017 66 10000 6.17 230 19:20 10.04.2022
2745 Clouds 17 1017 66 10000 6.17 230 18:42 10.04.2022
2746 Clouds 17 1017 68 10000 7.2 210 17:52 10.04.2022
2747 Clouds 17 1018 68 10000 6.17 200 17:33 10.04.2022
2748 Clouds 17 1019 64 10000 5.14 200 16:22 10.04.2022
2749 Clouds 16 1019 62 10000 4.12 200 15:19 10.04.2022
2750 Clouds 16 1020 62 10000 3.6 180 14:22 10.04.2022
2751 Clouds 15 1021 68 10000 3.09 160 12:34 10.04.2022
2752 Clouds 14 1021 73 10000 3.6 140 11:46 10.04.2022
2753 Clouds 14 1021 74 10000 3.6 140 11:28 10.04.2022
2754 Clouds 14 1020 73 10000 1.54 300 10:48 10.04.2022
2755 Clouds 13 1020 76 10000 1.54 310 09:56 10.04.2022
2756 Clouds 13 1020 76 10000 2.06 320 09:28 10.04.2022
2757 Clouds 12 1020 78 10000 3.6 320 08:22 10.04.2022
2758 Clouds 12 1020 77 10000 2.57 320 07:21 10.04.2022
2759 Clouds 12 1019 75 10000 2.06 330 05:46 10.04.2022
2760 Clouds 13 1020 74 10000 1.03 0 02:21 10.04.2022
2761 Clouds 13 1020 73 10000 2.06 150 00:25 10.04.2022
2762 Clouds 13 1019 75 10000 2.57 120 23:43 09.04.2022
2763 Clouds 13 1019 73 10000 3.09 110 22:45 09.04.2022
2764 Clouds 13 1018 74 10000 3.6 100 21:35 09.04.2022
2765 Clouds 13 1017 74 10000 4.12 110 20:48 09.04.2022
2766 Clouds 14 1017 74 10000 4.12 100 20:25 09.04.2022
2767 Clouds 14 1016 73 10000 5.14 110 19:41 09.04.2022
2768 Clouds 14 1016 74 10000 6.17 110 18:55 09.04.2022
2769 Clouds 14 1016 73 10000 6.17 120 18:19 09.04.2022
2770 Clouds 14 1015 72 10000 6.69 130 17:39 09.04.2022
2771 Clouds 15 1015 71 10000 6.69 130 16:50 09.04.2022
2772 Clouds 15 1015 72 10000 6.69 130 15:55 09.04.2022
2773 Clouds 15 1015 72 10000 6.69 140 15:29 09.04.2022
2774 Clouds 15 1015 71 10000 6.69 130 14:27 09.04.2022
2775 Clouds 15 1015 75 10000 6.69 130 13:54 09.04.2022
2776 Clouds 15 1015 69 10000 5.14 110 13:18 09.04.2022
2777 Clouds 15 1015 71 10000 6.69 120 12:41 09.04.2022
2778 Clouds 15 1014 68 10000 4.63 100 11:22 09.04.2022
2779 Clouds 15 1013 71 10000 5.36 318 10:21 09.04.2022
2780 Clouds 14 1013 68 10000 3.6 340 09:37 09.04.2022
2781 Clouds 14 1012 66 10000 3.09 320 08:51 09.04.2022
2782 Clouds 15 1011 60 10000 6.69 320 06:56 09.04.2022
2783 Clear 19 1010 46 10000 5.14 260 01:32 09.04.2022
2784 Clear 20 1010 42 10000 4.12 250 23:30 08.04.2022
2785 Clear 21 1010 39 10000 7.2 250 21:58 08.04.2022
2786 Clear 21 1009 37 10000 5.66 250 21:29 08.04.2022
2787 Clear 21 1009 34 10000 4.12 280 20:38 08.04.2022
2788 Clear 23 1009 32 10000 7.72 260 19:20 08.04.2022
2789 Clouds 23 1009 33 10000 8.75 270 18:30 08.04.2022
2790 Clear 23 1009 31 10000 7.2 250 17:49 08.04.2022
2791 Clear 24 1008 29 10000 8.23 260 17:25 08.04.2022
2792 Clear 24 1009 29 10000 8.75 270 16:47 08.04.2022
2793 Clear 24 1009 33 10000 6.17 260 15:57 08.04.2022
2794 Clear 24 1009 33 10000 10.29 290 15:26 08.04.2022
2795 Clear 23 1010 35 10000 8.75 270 14:33 08.04.2022
2796 Clear 22 1011 41 10000 8.23 240 13:46 08.04.2022
2797 Clear 22 1011 42 10000 8.23 240 13:27 08.04.2022
2798 Clear 20 1012 44 10000 5.66 250 11:56 08.04.2022
2799 Clear 17 1013 54 10000 2.57 270 10:37 08.04.2022
2800 Clear 16 1013 57 10000 4.02 107 09:38 08.04.2022
2801 Clouds 15 1013 59 10000 2.24 297 08:51 08.04.2022
2802 Clouds 13 1013 65 10000 3.09 350 06:55 08.04.2022
2803 Clouds 14 1013 62 10000 1.54 260 05:23 08.04.2022
2804 Clear 16 1014 60 10000 4.63 240 01:29 08.04.2022
2805 Clear 17 1014 61 10000 5.66 230 00:25 08.04.2022
2806 Clear 18 1014 53 10000 5.14 260 22:59 07.04.2022
2807 Clear 18 1014 50 10000 2.06 280 22:39 07.04.2022
2808 Clear 18 1014 48 10000 2.06 280 22:21 07.04.2022
2809 Clear 19 1013 45 10000 3.6 270 21:53 07.04.2022
2810 Clear 19 1013 46 10000 3.6 260 21:19 07.04.2022
2811 Clear 19 1012 42 10000 3.09 230 20:38 07.04.2022
2812 Clear 21 1012 39 10000 9.77 230 18:48 07.04.2022
2813 Clear 22 1011 37 10000 8.75 270 17:27 07.04.2022
2814 Clear 23 1011 36 10000 8.23 260 16:45 07.04.2022
2815 Clear 23 1011 34 10000 9.26 250 16:23 07.04.2022
2816 Clear 23 1012 32 10000 7.2 260 15:19 07.04.2022
2817 Clear 20 1014 49 10000 7.72 260 13:45 07.04.2022
2818 Clear 19 1014 49 10000 6.69 270 12:58 07.04.2022
2819 Clear 17 1015 51 10000 4.63 280 11:40 07.04.2022
2820 Clear 15 1015 58 10000 3.09 330 10:27 07.04.2022
2821 Clouds 11 1014 69 10000 3.6 300 08:39 07.04.2022
2822 Clear 10 1013 69 10000 4.12 330 06:58 07.04.2022
2823 Clear 10 1013 71 10000 3.6 320 03:59 07.04.2022
2824 Clear 11 1013 72 10000 2.06 340 02:28 07.04.2022
2825 Clear 12 1013 67 10000 2.57 180 00:42 07.04.2022
2826 Clear 13 1013 63 10000 3.6 210 22:58 06.04.2022
2827 Clear 13 1013 61 10000 3.6 210 22:39 06.04.2022
2828 Clouds 14 1013 60 10000 3.6 220 21:47 06.04.2022
2829 Clear 14 1011 65 10000 5.66 210 20:41 06.04.2022
2830 Clear 15 1011 61 10000 4.12 220 19:59 06.04.2022
2831 Clouds 16 1011 60 10000 5.14 190 19:19 06.04.2022
2832 Clouds 16 1010 57 10000 5.14 190 18:47 06.04.2022
2833 Clear 17 1010 54 10000 6.69 230 17:35 06.04.2022
2834 Clear 17 1010 45 10000 6.69 230 16:39 06.04.2022
2835 Clouds 17 1010 44 10000 6.17 220 15:57 06.04.2022
2836 Clouds 17 1010 43 10000 6.17 220 15:39 06.04.2022
2837 Clouds 17 1011 45 10000 4.63 220 13:31 06.04.2022
2838 Clouds 16 1011 50 10000 0.51 220 12:28 06.04.2022
2839 Clouds 14 1011 55 10000 2.06 300 10:57 06.04.2022
2840 Clouds 13 1011 57 10000 3.09 300 10:33 06.04.2022
2841 Clouds 12 1010 62 10000 5.14 310 09:46 06.04.2022
2842 Clouds 11 1010 64 10000 3.6 320 08:39 06.04.2022
2843 Clouds 10 1010 66 10000 4.63 310 07:57 06.04.2022
2844 Clouds 10 1010 64 10000 4.12 320 05:23 06.04.2022
2845 Clouds 10 1013 67 10000 1.54 320 00:20 06.04.2022
2846 Clear 11 1013 67 10000 2.06 0 23:47 05.04.2022
2847 Clear 11 1013 66 10000 1.54 150 21:48 05.04.2022
2848 Clear 12 1013 63 10000 2.57 160 20:58 05.04.2022
2849 Clear 12 1013 60 10000 3.09 130 20:23 05.04.2022
2850 Clear 14 1013 52 10000 4.12 120 18:31 05.04.2022
2851 Clear 14 1013 49 10000 5.14 140 17:21 05.04.2022
2852 Clear 15 1013 47 10000 5.14 150 16:42 05.04.2022
2853 Clear 15 1014 47 10000 5.14 130 15:51 05.04.2022
2854 Clear 15 1014 45 10000 3.6 120 15:30 05.04.2022
2855 Clear 15 1015 41 10000 3.09 110 13:49 05.04.2022
2856 Clear 14 1016 42 10000 1.54 100 12:33 05.04.2022
2857 Clear 13 1016 43 10000 1.34 49 11:43 05.04.2022
2858 Clear 13 1016 45 10000 2.57 340 11:24 05.04.2022
2859 Clear 8 1016 59 10000 6.17 330 09:31 05.04.2022
2860 Clear 7 1016 61 10000 6.17 330 08:33 05.04.2022
2861 Clear 8 1017 60 10000 4.63 320 04:19 05.04.2022
2862 Clear 9 1017 60 10000 3.09 20 23:45 04.04.2022
2863 Clear 10 1017 56 10000 6.17 70 22:38 04.04.2022
2864 Clear 10 1017 57 10000 7.72 80 21:51 04.04.2022
2865 Clear 11 1016 58 10000 7.72 80 21:20 04.04.2022
2866 Clear 11 1016 60 10000 7.2 80 20:47 04.04.2022
2867 Clear 12 1016 57 10000 6.71 265 19:30 04.04.2022
2868 Clear 12 1016 55 10000 5.36 265 18:46 04.04.2022
2869 Clouds 12 1016 51 10000 3.09 100 17:33 04.04.2022
2870 Clouds 12 1016 47 10000 5.14 100 16:36 04.04.2022
2871 Clear 12 1017 45 10000 5.66 100 15:34 04.04.2022
2872 Clouds 12 1017 50 10000 5.14 100 14:49 04.04.2022
2873 Clouds 12 1017 52 10000 5.66 100 14:31 04.04.2022
2874 Clouds 11 1018 53 10000 4.12 100 13:18 04.04.2022
2875 Clouds 9 1019 63 10000 2.57 350 11:29 04.04.2022
2876 Clouds 8 1019 69 10000 3.6 320 10:49 04.04.2022
2877 Clouds 5 1018 75 10000 3.6 340 07:36 04.04.2022
2878 Clouds 6 1019 76 10000 2.57 330 03:19 04.04.2022
2879 Clouds 6 1019 73 10000 2.06 360 00:25 04.04.2022
2880 Clouds 7 1019 73 10000 4.63 80 22:31 03.04.2022
2881 Clouds 7 1018 73 10000 4.12 80 21:37 03.04.2022
2882 Clouds 7 1017 72 10000 3.6 60 20:41 03.04.2022
2883 Clouds 8 1017 69 10000 3.6 100 19:45 03.04.2022
2884 Clouds 8 1016 69 10000 3.6 110 18:31 03.04.2022
2885 Clouds 8 1016 70 10000 3.09 120 17:46 03.04.2022
2886 Drizzle 8 1016 73 10000 3.09 110 16:50 03.04.2022
2887 Drizzle 7 1016 73 10000 2.57 110 16:31 03.04.2022
2888 Rain 7 1017 70 10000 4.63 150 14:38 03.04.2022
2889 Rain 8 1017 63 10000 3.6 160 13:46 03.04.2022
2890 Clouds 8 1016 51 10000 2.57 290 12:38 03.04.2022
2891 Clouds 6 1016 49 10000 3.09 10 10:58 03.04.2022
2892 Clouds 6 1016 47 10000 5.14 320 09:36 03.04.2022
2893 Clouds 6 1015 47 10000 4.63 320 08:27 03.04.2022
2894 Clouds 7 1014 54 10000 3.13 245 04:37 03.04.2022
2895 Clouds 8 1014 61 10000 2.57 50 00:41 03.04.2022
2896 Clouds 9 1014 58 10000 9.26 80 23:21 02.04.2022
2897 Clouds 10 1013 60 10000 9.26 50 21:58 02.04.2022
2898 Clouds 10 1013 61 10000 9.26 50 21:36 02.04.2022
2899 Clouds 10 1013 61 10000 8.75 50 21:18 02.04.2022
2900 Clouds 11 1011 58 10000 9.77 50 19:53 02.04.2022
2901 Clouds 14 1010 36 10000 7.6 75 18:23 02.04.2022
2902 Clouds 15 1009 32 10000 10.29 270 17:53 02.04.2022
2903 Clouds 16 1009 26 10000 5.66 270 16:27 02.04.2022
2904 Clouds 15 1010 28 10000 9.26 270 15:22 02.04.2022
2905 Clouds 14 1010 30 10000 7.72 300 14:49 02.04.2022
2906 Clear 12 1010 35 10000 9.77 290 13:36 02.04.2022
2907 Clear 11 1010 36 10000 9.26 290 12:47 02.04.2022
2908 Clear 10 1010 40 10000 9.77 310 11:31 02.04.2022
2909 Clear 6 1010 55 10000 5.14 310 09:30 02.04.2022
2910 Clear 5 1009 63 10000 6.69 320 06:51 02.04.2022
2911 Clear 5 1009 63 10000 6.69 320 06:51 02.04.2022
2912 Clear 5 1009 59 10000 5.14 240 03:53 02.04.2022
2913 Clear 8 1010 35 10000 7.2 270 00:19 02.04.2022
2914 Clear 9 1010 29 10000 6.17 280 23:40 01.04.2022
2915 Clouds 10 1009 25 10000 4.63 280 21:52 01.04.2022
2916 Clouds 11 1008 22 10000 6.17 320 20:52 01.04.2022
2917 Clouds 11 1008 21 10000 9.77 310 20:30 01.04.2022
2918 Clouds 12 1007 17 10000 9.26 300 19:37 01.04.2022
2919 Clouds 13 1006 16 10000 10.8 300 18:51 01.04.2022
2920 Clouds 14 1006 15 10000 11.83 310 17:54 01.04.2022
2921 Clouds 14 1005 15 10000 9.77 300 17:34 01.04.2022
2922 Clouds 14 1005 19 10000 10.29 300 15:42 01.04.2022
2923 Clouds 14 1005 20 10000 10.29 310 14:26 01.04.2022
2924 Clouds 13 1005 22 10000 8.23 300 13:34 01.04.2022
2925 Clouds 12 1005 25 10000 7.72 300 12:33 01.04.2022
2926 Clouds 12 1005 25 10000 7.72 300 12:33 01.04.2022
2927 Clouds 12 1004 27 10000 5.66 320 11:44 01.04.2022
2928 Clouds 10 1003 40 10000 7.2 310 10:19 01.04.2022
2929 Clouds 9 1002 50 10000 5.66 320 09:29 01.04.2022
2930 Clouds 9 1000 71 10000 5.66 300 06:55 01.04.2022
2931 Clouds 9 1000 77 10000 4.12 250 04:53 01.04.2022
2932 Clear 9 1001 77 10000 4.12 330 04:34 01.04.2022
2933 Clouds 10 1001 81 10000 2.57 320 01:58 01.04.2022
2934 Clouds 10 1001 80 10000 1.54 360 00:44 01.04.2022
2935 Clouds 11 1001 78 10000 3.09 20 21:55 31.03.2022
2936 Clouds 11 1000 78 10000 4.12 40 21:33 31.03.2022
2937 Clouds 11 999 78 10000 5.14 50 20:30 31.03.2022
2938 Clouds 12 999 76 10000 6.69 70 19:50 31.03.2022
2939 Rain 13 999 75 10000 5.36 31 18:52 31.03.2022
2940 Clouds 14 998 75 10000 3.6 170 17:54 31.03.2022
2941 Clouds 14 998 76 10000 5.66 120 16:40 31.03.2022
2942 Clouds 15 999 73 10000 4.63 140 15:48 31.03.2022
2943 Clouds 15 999 70 10000 4.63 140 15:20 31.03.2022
2944 Clouds 15 999 72 10000 4.63 120 14:40 31.03.2022
2945 Clouds 14 1000 72 10000 5.14 340 12:30 31.03.2022
2946 Clouds 14 1000 72 10000 5.14 340 12:30 31.03.2022
2947 Clouds 13 999 73 10000 5.66 320 11:28 31.03.2022
2948 Clouds 12 999 77 10000 3.6 330 09:50 31.03.2022
2949 Clouds 11 998 80 10000 3.6 280 08:23 31.03.2022
2950 Clouds 12 999 81 10000 2.57 320 06:21 31.03.2022
2951 Clouds 12 1001 92 10000 1.54 190 00:46 31.03.2022
2952 Rain 12 1001 92 10000 2.06 210 23:23 30.03.2022
2953 Clouds 12 1001 82 10000 1.54 190 21:41 30.03.2022
2954 Clouds 12 1001 80 10000 2.06 170 20:55 30.03.2022
2955 Drizzle 12 1000 78 10000 2.57 190 20:20 30.03.2022
2956 Clouds 13 1000 77 10000 3.6 120 19:36 30.03.2022
2957 Clouds 14 1000 74 10000 4.63 130 18:34 30.03.2022
2958 Clouds 14 1000 74 10000 4.63 130 17:48 30.03.2022
2959 Clouds 14 1000 74 10000 2.24 335 16:57 30.03.2022
2960 Clouds 14 1000 74 10000 2.24 326 16:38 30.03.2022
2961 Clouds 14 1001 75 10000 2.06 130 15:24 30.03.2022
2962 Clouds 13 1002 79 10000 2.06 150 13:44 30.03.2022
2963 Clouds 12 1003 81 10000 1.54 40 12:58 30.03.2022
2964 Clouds 11 1003 83 10000 2.06 310 11:36 30.03.2022
2965 Clouds 11 1003 83 9000 2.06 60 10:31 30.03.2022
2966 Clouds 11 1002 82 6000 3.09 340 09:25 30.03.2022
2967 Rain 12 1002 77 10000 4.12 320 07:33 30.03.2022
2968 Clouds 13 1001 66 10000 6.17 10 05:41 30.03.2022
2969 Clouds 14 1002 64 10000 7.2 30 04:19 30.03.2022
2970 Clouds 14 1005 68 10000 7.2 50 00:42 30.03.2022
2971 Clouds 15 1006 70 10000 8.23 50 22:34 29.03.2022
2972 Clouds 15 1006 69 10000 7.2 50 21:45 29.03.2022
2973 Clouds 15 1006 71 10000 8.23 60 20:54 29.03.2022
2974 Clouds 15 1006 69 10000 7.72 60 20:20 29.03.2022
2975 Clouds 15 1006 68 10000 9.26 50 18:56 29.03.2022
2976 Rain 15 1006 70 10000 7.72 60 18:31 29.03.2022
2977 Clouds 16 1007 70 10000 6.69 50 17:36 29.03.2022
2978 Clouds 16 1007 71 10000 8.23 50 16:58 29.03.2022
2979 Clouds 15 1009 72 10000 6.69 60 15:58 29.03.2022
2980 Clouds 15 1010 77 10000 6.17 70 14:53 29.03.2022
2981 Clouds 15 1011 77 10000 6.17 70 14:18 29.03.2022
2982 Clouds 15 1012 74 10000 6.17 70 12:53 29.03.2022
2983 Clear 15 1012 64 10000 4.12 90 11:43 29.03.2022
2984 Clear 14 1012 61 10000 2.06 330 10:51 29.03.2022
2985 Clear 13 1012 62 10000 3.6 330 09:49 29.03.2022
2986 Clear 13 1012 62 10000 3.6 330 09:49 29.03.2022
2987 Clouds 12 1013 69 10000 3.6 330 07:57 29.03.2022
2988 Clouds 12 1015 66 10000 1.54 310 04:47 29.03.2022
2989 Clear 13 1018 74 10000 0.51 0 00:36 29.03.2022
2990 Clear 13 1018 73 10000 1.03 80 23:24 28.03.2022
2991 Clear 13 1018 71 10000 1.54 70 22:53 28.03.2022
2992 Clear 13 1019 70 10000 1.03 0 22:26 28.03.2022
2993 Clear 14 1019 68 10000 2.06 70 20:58 28.03.2022
2994 Clear 15 1019 65 10000 3.09 140 20:23 28.03.2022
2995 Clear 16 1019 60 10000 3.6 120 19:44 28.03.2022
2996 Clear 16 1019 58 10000 3.6 120 19:25 28.03.2022
2997 Clear 17 1020 55 10000 3.6 140 18:40 28.03.2022
2998 Clear 18 1020 49 10000 3.6 110 17:39 28.03.2022
2999 Clear 19 1020 43 10000 3.09 80 16:21 28.03.2022
3000 Clear 19 1022 39 10000 3.09 100 14:47 28.03.2022
3001 Clear 19 1023 39 10000 3.09 130 14:21 28.03.2022
3002 Clear 18 1025 43 10000 2.57 70 12:20 28.03.2022
3003 Clear 17 1025 48 10000 1.54 350 11:24 28.03.2022
3004 Clear 14 1025 58 10000 4.63 330 09:43 28.03.2022
3005 Clear 13 1024 61 10000 5.14 330 09:19 28.03.2022
3006 Clouds 11 1024 62 10000 4.63 330 08:22 28.03.2022
3007 Clouds 11 1024 64 10000 5.14 320 07:28 28.03.2022
3008 Clouds 12 1025 66 10000 3.09 330 03:52 28.03.2022
3009 Clouds 13 1026 70 10000 1.54 30 23:30 27.03.2022
3010 Clouds 14 1026 68 10000 2.57 70 22:24 27.03.2022
3011 Clear 14 1025 67 10000 3.6 60 21:42 27.03.2022
3012 Clear 15 1025 66 10000 7.2 70 20:57 27.03.2022
3013 Clear 16 1024 58 10000 5.66 80 19:48 27.03.2022
3014 Clear 17 1024 56 10000 5.14 70 19:24 27.03.2022
3015 Clear 18 1024 48 10000 7.2 70 18:27 27.03.2022
3016 Clear 18 1023 46 10000 5.66 70 17:39 27.03.2022
3017 Clear 19 1023 50 10000 5.66 70 16:31 27.03.2022
3018 Clouds 19 1023 47 10000 6.69 70 15:25 27.03.2022
3019 Clouds 19 1024 42 10000 6.69 70 13:56 27.03.2022
3020 Clouds 18 1024 52 10000 6.69 50 12:31 27.03.2022
3021 Clouds 16 1024 55 10000 5.66 40 11:20 27.03.2022
3022 Clouds 13 1023 68 10000 4.12 10 08:53 27.03.2022
3023 Clouds 12 1022 72 10000 5.14 20 05:54 27.03.2022
3024 Clouds 12 1022 74 10000 2.57 360 00:48 27.03.2022
3025 Clouds 12 1022 75 10000 3.09 10 23:46 26.03.2022
3026 Clouds 12 1022 73 10000 6.17 50 22:38 26.03.2022
3027 Clouds 12 1022 73 10000 6.17 30 21:38 26.03.2022
3028 Clouds 12 1022 73 10000 6.17 30 21:38 26.03.2022
3029 Clouds 12 1022 72 10000 6.17 30 20:57 26.03.2022
3030 Clouds 13 1021 67 10000 5.14 60 19:29 26.03.2022
3031 Clouds 14 1020 67 10000 7.72 50 17:54 26.03.2022
3032 Clouds 14 1020 67 10000 7.72 50 17:54 26.03.2022
3033 Clouds 14 1020 68 10000 7.72 60 17:33 26.03.2022
3034 Clouds 14 1020 66 10000 7.72 60 16:27 26.03.2022
3035 Rain 13 1020 68 10000 6.17 60 15:20 26.03.2022
3036 Rain 13 1021 72 10000 6.69 40 13:53 26.03.2022
3037 Rain 13 1021 68 10000 7.72 60 12:59 26.03.2022
3038 Rain 14 1021 62 10000 7.2 50 11:41 26.03.2022
3039 Rain 14 1021 62 10000 7.2 50 11:41 26.03.2022
3040 Rain 14 1021 62 10000 7.2 50 11:41 26.03.2022
3041 Rain 13 1021 62 10000 6.69 40 10:28 26.03.2022
3042 Clouds 12 1020 67 10000 7.72 50 08:35 26.03.2022
3043 Drizzle 12 1020 66 10000 6.69 50 06:25 26.03.2022
3044 Clear 12 1020 65 10000 7.72 50 05:22 26.03.2022
3045 Clouds 12 1021 72 10000 5.66 50 00:28 26.03.2022
3046 Clear 12 1021 72 10000 7.72 60 21:49 25.03.2022
3047 Clouds 13 1021 71 10000 7.72 60 20:46 25.03.2022
3048 Clouds 13 1020 71 10000 7.72 70 19:38 25.03.2022
3049 Clouds 14 1020 68 10000 7.72 70 18:47 25.03.2022
3050 Clouds 14 1020 66 10000 8.23 80 17:47 25.03.2022
3051 Clear 15 1020 62 10000 8.75 80 17:27 25.03.2022
3052 Clear 16 1020 56 10000 8.75 80 16:18 25.03.2022
3053 Clouds 16 1021 44 10000 10.8 80 14:26 25.03.2022
3054 Clear 16 1022 57 10000 8.75 60 12:57 25.03.2022
3055 Clear 15 1023 50 10000 6.69 60 10:22 25.03.2022
3056 Clear 14 1023 59 10000 4.63 50 09:28 25.03.2022
3057 Clear 12 1023 66 10000 4.63 50 08:24 25.03.2022
3058 Clear 11 1023 70 10000 6.17 60 07:28 25.03.2022
3059 Clouds 11 1022 69 10000 5.66 70 06:24 25.03.2022
3060 Clear 12 1024 70 10000 5.14 50 01:18 25.03.2022
3061 Clouds 12 1025 68 10000 5.14 60 22:51 24.03.2022
3062 Clouds 13 1025 70 10000 4.63 60 21:45 24.03.2022
3063 Drizzle 13 1025 69 10000 4.63 60 20:37 24.03.2022
3064 Clouds 13 1025 68 10000 5.14 60 19:47 24.03.2022
3065 Clouds 13 1024 68 10000 3.58 114 17:48 24.03.2022
3066 Clouds 13 1024 66 10000 3.13 266 17:19 24.03.2022
3067 Clouds 13 1025 62 10000 6.17 50 15:45 24.03.2022
3068 Clouds 13 1025 59 10000 8.23 40 14:50 24.03.2022
3069 Clouds 13 1025 59 10000 8.23 50 14:19 24.03.2022
3070 Clouds 13 1026 61 10000 7.2 50 13:23 24.03.2022
3071 Clouds 13 1026 63 10000 7.2 50 11:52 24.03.2022
3072 Clouds 12 1026 69 10000 7.2 60 10:18 24.03.2022
3073 Clouds 11 1025 70 10000 5.14 50 08:49 24.03.2022
3074 Drizzle 10 1025 72 10000 3.6 30 06:55 24.03.2022
3075 Clouds 10 1025 73 10000 2.57 340 03:59 24.03.2022
3076 Clouds 11 1026 73 10000 7.2 70 23:20 23.03.2022
3077 Clouds 12 1027 73 10000 6.69 80 21:45 23.03.2022
3078 Clouds 12 1026 74 10000 6.69 80 21:20 23.03.2022
3079 Clouds 12 1026 72 10000 6.17 80 19:46 23.03.2022
3080 Clouds 12 1026 69 10000 6.69 80 18:59 23.03.2022
3081 Clouds 13 1026 67 10000 7.2 70 17:38 23.03.2022
3082 Clouds 14 1026 65 10000 7.72 80 16:50 23.03.2022
3083 Clouds 14 1026 67 10000 7.72 60 14:52 23.03.2022
3084 Drizzle 13 1026 65 10000 6.69 60 14:32 23.03.2022
3085 Clouds 12 1028 67 10000 7.2 50 13:21 23.03.2022
3086 Clouds 12 1028 71 10000 7.2 50 10:20 23.03.2022
3087 Clouds 10 1027 74 10000 3.6 320 07:44 23.03.2022
3088 Clouds 9 1027 72 10000 4.12 340 05:27 23.03.2022
3089 Clouds 10 1029 73 10000 3.6 30 01:18 23.03.2022
3090 Clouds 10 1029 71 10000 4.63 50 00:23 23.03.2022
3091 Clouds 11 1029 70 10000 7.72 70 21:31 22.03.2022
3092 Clouds 11 1029 70 10000 6.69 70 20:55 22.03.2022
3093 Clouds 12 1029 68 10000 7.2 80 19:56 22.03.2022
3094 Clouds 12 1029 68 10000 6.69 80 19:25 22.03.2022
3095 Clouds 13 1029 65 10000 8.23 80 18:45 22.03.2022
3096 Clouds 13 1028 63 10000 7.72 80 17:42 22.03.2022
3097 Clouds 14 1028 61 10000 7.72 90 16:35 22.03.2022
3098 Clouds 13 1029 61 10000 7.72 90 15:37 22.03.2022
3099 Clouds 14 1029 60 10000 5.66 100 15:18 22.03.2022
3100 Clouds 14 1029 59 10000 8.75 80 14:41 22.03.2022
3101 Clouds 13 1030 60 10000 8.23 80 13:37 22.03.2022
3102 Clouds 13 1030 66 10000 7.72 100 11:52 22.03.2022
3103 Clouds 12 1029 72 10000 7.2 100 10:51 22.03.2022
3104 Rain 10 1028 79 10000 6.17 50 08:40 22.03.2022
3105 Clouds 10 1028 76 10000 7.2 40 07:21 22.03.2022
3106 Clouds 11 1028 76 10000 5.66 60 03:54 22.03.2022
3107 Clouds 11 1028 75 10000 7.2 60 00:46 22.03.2022
3108 Clouds 11 1029 75 10000 9.26 60 22:46 21.03.2022
3109 Clouds 12 1028 75 10000 8.75 70 21:20 21.03.2022
3110 Clouds 12 1028 75 10000 8.23 70 20:43 21.03.2022
3111 Clouds 12 1028 75 10000 8.23 70 20:21 21.03.2022
3112 Clouds 12 1028 76 10000 7.72 80 19:35 21.03.2022
3113 Clouds 13 1027 74 10000 8.23 80 18:47 21.03.2022
3114 Clouds 13 1027 72 10000 7.72 80 17:35 21.03.2022
3115 Clouds 13 1028 72 10000 8.23 80 16:58 21.03.2022
3116 Clouds 14 1028 72 10000 8.23 90 16:24 21.03.2022
3117 Clouds 14 1028 72 10000 8.75 80 15:21 21.03.2022
3118 Clouds 14 1028 72 10000 6.17 90 14:29 21.03.2022
3119 Clouds 14 1029 74 10000 8.75 80 12:58 21.03.2022
3120 Clouds 14 1029 77 10000 8.75 80 11:57 21.03.2022
3121 Clouds 13 1029 77 10000 7.72 80 10:59 21.03.2022
3122 Clouds 13 1028 80 10000 5.66 80 09:42 21.03.2022
3123 Clouds 13 1027 81 10000 5.14 80 07:22 21.03.2022
3124 Clouds 12 1027 81 10000 6.17 80 05:42 21.03.2022
3125 Clouds 13 1027 81 9000 4.63 80 00:46 21.03.2022
3126 Clouds 13 1027 81 8000 5.14 80 22:56 20.03.2022
3127 Clouds 13 1027 81 8000 5.14 80 22:23 20.03.2022
3128 Clouds 13 1027 81 10000 4.63 80 21:31 20.03.2022
3129 Clouds 13 1027 81 10000 4.63 80 20:54 20.03.2022
3130 Clouds 13 1027 81 10000 5.14 80 20:27 20.03.2022
3131 Clouds 13 1026 81 10000 4.63 80 19:48 20.03.2022
3132 Clouds 13 1026 81 10000 4.63 80 19:19 20.03.2022
3133 Clouds 14 1026 81 10000 4.12 70 17:43 20.03.2022
3134 Clouds 14 1026 81 10000 4.12 70 17:24 20.03.2022
3135 Clouds 14 1026 80 10000 4.63 60 15:57 20.03.2022
3136 Clouds 14 1026 78 10000 5.14 60 14:38 20.03.2022
3137 Clouds 15 1027 74 10000 6.69 70 13:38 20.03.2022
3138 Clouds 15 1027 76 10000 6.69 70 11:58 20.03.2022
3139 Clouds 13 1026 76 10000 8.23 60 09:59 20.03.2022
3140 Clouds 12 1026 76 10000 5.14 50 08:19 20.03.2022
3141 Clouds 11 1025 77 10000 2.57 330 05:49 20.03.2022
3142 Clouds 11 1026 78 10000 3.09 320 03:18 20.03.2022
3143 Clouds 11 1026 76 10000 2.06 10 00:53 20.03.2022
3144 Clouds 11 1027 75 10000 2.06 360 00:28 20.03.2022
3145 Clouds 12 1027 73 10000 1.54 350 22:25 19.03.2022
3146 Clouds 12 1027 74 10000 5.14 40 21:26 19.03.2022
3147 Clouds 13 1026 74 9000 7.72 50 19:22 19.03.2022
3148 Clouds 13 1026 74 9000 6.69 50 18:38 19.03.2022
3149 Clouds 13 1026 74 9000 7.72 60 17:48 19.03.2022
3150 Clouds 13 1026 74 10000 6.17 50 16:46 19.03.2022
3151 Clouds 13 1026 74 8000 8.23 50 15:26 19.03.2022
3152 Clouds 13 1026 75 8000 10.29 50 13:45 19.03.2022
3153 Clouds 13 1027 75 8000 8.75 50 12:43 19.03.2022
3154 Clouds 13 1027 76 8000 9.77 60 12:20 19.03.2022
3155 Clouds 13 1027 78 8000 10.8 50 11:45 19.03.2022
3156 Clouds 12 1026 79 10000 8.75 50 09:22 19.03.2022
3157 Clouds 12 1026 75 10000 10.29 50 04:53 19.03.2022
3158 Clouds 14 1026 65 10000 7.72 60 02:33 19.03.2022
3159 Clouds 14 1026 63 10000 10.29 50 23:52 18.03.2022
3160 Clouds 14 1026 58 10000 10.29 50 22:58 18.03.2022
3161 Clouds 14 1026 55 10000 9.77 60 22:21 18.03.2022
3162 Clouds 14 1025 56 10000 6.69 50 20:26 18.03.2022
3163 Clouds 14 1025 59 10000 7.2 60 19:24 18.03.2022
3164 Clouds 14 1025 61 10000 8.75 60 18:58 18.03.2022
3165 Clouds 15 1024 66 10000 9.26 60 16:56 18.03.2022
3166 Clouds 15 1024 67 10000 8.23 60 16:24 18.03.2022
3167 Clouds 15 1025 65 10000 10.29 60 14:27 18.03.2022
3168 Clouds 15 1025 64 10000 11.32 50 13:40 18.03.2022
3169 Clouds 16 1025 65 10000 10.8 50 11:37 18.03.2022
3170 Clouds 16 1024 64 10000 10.8 50 10:27 18.03.2022
3171 Clouds 15 1023 67 10000 9.77 50 08:46 18.03.2022
3172 Clouds 15 1023 70 10000 7.72 50 07:26 18.03.2022
3173 Clouds 14 1022 72 10000 7.2 30 05:20 18.03.2022
3174 Clouds 15 1022 68 10000 5.66 40 01:51 18.03.2022
3175 Clouds 15 1022 67 10000 5.14 60 00:20 18.03.2022
3176 Clouds 15 1022 64 10000 3.09 30 22:50 17.03.2022
3177 Clouds 15 1022 65 10000 5.14 40 22:19 17.03.2022
3178 Clouds 14 1022 67 10000 7.2 40 21:31 17.03.2022
3179 Clouds 14 1022 68 10000 7.2 50 20:54 17.03.2022
3180 Clouds 14 1022 69 10000 7.72 60 20:28 17.03.2022
3181 Clouds 15 1021 70 10000 8.75 70 19:39 17.03.2022
3182 Clouds 15 1021 71 10000 9.26 70 18:55 17.03.2022
3183 Clouds 15 1020 72 10000 10.29 70 17:47 17.03.2022
3184 Clouds 16 1020 71 10000 10.29 70 16:29 17.03.2022
3185 Clouds 17 1019 67 10000 7.72 70 15:43 17.03.2022
3186 Clouds 17 1019 67 10000 11.32 60 15:18 17.03.2022
3187 Clouds 16 1020 70 10000 7.72 70 13:47 17.03.2022
3188 Clouds 16 1020 71 10000 8.75 70 12:47 17.03.2022
3189 Clouds 16 1020 73 10000 9.26 70 11:40 17.03.2022
3190 Clouds 15 1020 75 10000 8.75 60 10:58 17.03.2022
3191 Rain 14 1019 76 10000 6.69 70 09:40 17.03.2022
3192 Rain 14 1019 77 10000 7.72 60 08:21 17.03.2022
3193 Rain 14 1018 78 10000 7.72 70 06:18 17.03.2022
3194 Clouds 14 1018 77 10000 8.23 60 05:25 17.03.2022
3195 Clouds 15 1018 66 10000 8.75 50 00:33 17.03.2022
3196 Clouds 15 1018 70 10000 8.23 60 22:58 16.03.2022
3197 Clouds 15 1018 71 10000 8.23 60 22:37 16.03.2022
3198 Clouds 15 1018 74 10000 8.23 60 21:58 16.03.2022
3199 Clouds 14 1017 75 10000 8.75 60 21:18 16.03.2022
3200 Clouds 15 1017 75 10000 9.77 60 19:25 16.03.2022
3201 Clouds 15 1016 76 10000 9.77 60 18:43 16.03.2022
3202 Clouds 15 1016 77 10000 9.77 70 18:18 16.03.2022
3203 Clouds 15 1016 75 10000 10.8 70 17:36 16.03.2022
3204 Clouds 15 1016 76 10000 12.86 60 16:36 16.03.2022
3205 Clouds 15 1017 76 10000 11.32 60 15:35 16.03.2022
3206 Clouds 15 1019 76 10000 11.32 50 13:41 16.03.2022
3207 Clouds 15 1019 77 10000 10.8 60 12:57 16.03.2022
3208 Clouds 14 1020 78 10000 10.8 60 11:26 16.03.2022
3209 Clouds 14 1020 79 10000 10.8 60 10:43 16.03.2022
3210 Clouds 14 1020 79 9000 10.29 50 09:58 16.03.2022
3211 Clouds 14 1020 80 9000 9.77 60 08:37 16.03.2022
3212 Clouds 13 1021 80 9000 8.75 60 03:30 16.03.2022
3213 Clouds 14 1023 81 9000 8.75 50 23:37 15.03.2022
3214 Clouds 14 1023 81 9000 9.26 50 22:37 15.03.2022
3215 Clouds 14 1023 81 9000 9.26 60 21:27 15.03.2022
3216 Clouds 14 1023 80 6000 9.77 60 19:47 15.03.2022
3217 Clouds 14 1023 80 7000 9.77 60 18:38 15.03.2022
3218 Clouds 15 1023 79 7000 10.8 60 16:45 15.03.2022
3219 Clouds 15 1023 78 7000 10.8 60 16:18 15.03.2022
3220 Clouds 15 1024 79 8000 11.83 60 14:55 15.03.2022
3221 Clouds 15 1024 79 7000 10.8 50 14:30 15.03.2022
3222 Clouds 15 1024 80 7000 12.35 50 13:24 15.03.2022
3223 Clouds 15 1025 81 7000 11.32 50 11:48 15.03.2022
3224 Clouds 15 1025 81 6000 11.83 50 11:19 15.03.2022
3225 Drizzle 14 1025 83 7000 11.32 50 09:31 15.03.2022
3226 Drizzle 14 1024 83 9000 11.32 50 08:32 15.03.2022
3227 Clouds 14 1023 83 8000 11.32 50 07:44 15.03.2022
3228 Clouds 14 1023 82 6000 11.32 50 06:32 15.03.2022
3229 Clouds 14 1023 81 8000 9.77 50 01:59 15.03.2022
3230 Clouds 14 1023 81 9000 11.32 60 23:36 14.03.2022
3231 Clouds 14 1023 81 9000 10.8 60 23:18 14.03.2022
3232 Clouds 14 1022 81 10000 11.32 60 21:57 14.03.2022
3233 Clouds 14 1022 81 10000 12.86 60 21:20 14.03.2022
3234 Clouds 14 1022 80 10000 11.83 50 20:31 14.03.2022
3235 Clouds 14 1021 80 10000 12.86 50 19:47 14.03.2022
3236 Drizzle 14 1021 81 10000 12.86 60 18:23 14.03.2022
3237 Clouds 14 1020 79 10000 12.35 60 17:43 14.03.2022
3238 Clouds 14 1020 78 10000 11.83 50 16:54 14.03.2022
3239 Clouds 14 1020 77 10000 12.86 60 15:29 14.03.2022
3240 Clouds 14 1020 77 10000 11.32 60 14:24 14.03.2022
3241 Rain 13 1021 80 10000 10.29 60 11:36 14.03.2022
3242 Rain 13 1021 80 10000 10.29 60 10:23 14.03.2022
3243 Clouds 13 1021 81 10000 10.29 60 09:38 14.03.2022
3244 Clouds 13 1021 81 10000 10.29 60 09:19 14.03.2022
3245 Clouds 12 1021 80 10000 9.26 60 08:46 14.03.2022
3246 Clouds 12 1020 76 10000 9.26 60 07:21 14.03.2022
3247 Clouds 12 1019 67 10000 9.77 60 04:27 14.03.2022
3248 Clouds 12 1020 75 10000 5.66 60 01:52 14.03.2022
3249 Clouds 12 1020 76 10000 5.66 70 00:38 14.03.2022
3250 Clouds 12 1019 79 10000 6.69 70 21:56 13.03.2022
3251 Clouds 12 1019 81 10000 7.72 70 21:28 13.03.2022
3252 Clouds 12 1018 81 10000 5.81 253 20:53 13.03.2022
3253 Clear 13 1017 81 10000 7.15 243 20:28 13.03.2022
3254 Clear 13 1017 80 10000 1.03 0 19:43 13.03.2022
3255 Clear 13 1016 80 10000 2.06 140 19:25 13.03.2022
3256 Clear 14 1016 75 10000 3.09 200 18:50 13.03.2022
3257 Clouds 15 1015 71 10000 3.6 190 18:27 13.03.2022
3258 Clouds 16 1014 66 10000 3.09 310 17:40 13.03.2022
3259 Clouds 16 1014 65 10000 4.12 280 16:48 13.03.2022
3260 Clouds 15 1014 70 10000 4.63 300 16:27 13.03.2022
3261 Clouds 15 1014 75 10000 6.69 290 15:44 13.03.2022
3262 Clouds 15 1013 77 10000 1.34 311 14:49 13.03.2022
3263 Clouds 14 1013 82 10000 2.57 350 13:30 13.03.2022
3264 Clouds 13 1013 82 10000 2.06 340 12:37 13.03.2022
3265 Clouds 13 1014 82 10000 1.03 320 11:51 13.03.2022
3266 Rain 13 1014 81 10000 0.51 0 11:25 13.03.2022
3267 Rain 13 1013 80 10000 0.51 0 10:44 13.03.2022
3268 Clouds 12 1013 82 10000 1.54 340 09:43 13.03.2022
3269 Clouds 12 1013 83 10000 2.57 320 09:20 13.03.2022
3270 Clear 10 1013 83 10000 3.6 340 08:39 13.03.2022
3271 Clouds 9 1013 82 10000 3.09 310 07:37 13.03.2022
3272 Clouds 10 1012 82 10000 2.57 330 05:39 13.03.2022
3273 Clear 10 1013 83 10000 4.12 310 01:48 13.03.2022
3274 Clouds 11 1014 84 10000 3.09 330 23:31 12.03.2022
3275 Clouds 12 1014 84 10000 1.54 340 21:49 12.03.2022
3276 Clouds 12 1014 82 10000 2.57 20 20:29 12.03.2022
3277 Clouds 12 1013 81 10000 2.57 20 19:47 12.03.2022
3278 Clouds 12 1012 81 10000 5.14 30 18:55 12.03.2022
3279 Clouds 13 1012 81 10000 7.2 30 18:21 12.03.2022
3280 Clouds 13 1012 81 10000 5.14 330 17:23 12.03.2022
3281 Clouds 13 1011 81 10000 5.14 330 16:23 12.03.2022
3282 Clouds 13 1011 83 10000 6.17 320 15:22 12.03.2022
3283 Rain 12 1011 83 10000 5.66 320 14:27 12.03.2022
3284 Rain 12 1012 85 5000 4.12 320 12:35 12.03.2022
3285 Rain 12 1012 85 5000 4.12 320 11:56 12.03.2022
3286 Rain 12 1012 85 5000 3.09 360 11:34 12.03.2022
3287 Rain 12 1012 85 5000 2.68 247 10:52 12.03.2022
3288 Rain 11 1012 84 6000 2.57 340 09:44 12.03.2022
3289 Rain 11 1012 83 8000 1.54 40 08:53 12.03.2022
3290 Rain 12 1011 82 10000 3.09 120 06:53 12.03.2022
3291 Rain 12 1014 83 10000 2.06 90 01:44 12.03.2022
3292 Drizzle 12 1015 84 10000 2.57 40 23:52 11.03.2022
3293 Clouds 12 1016 83 10000 2.06 60 22:52 11.03.2022
3294 Clouds 12 1016 83 10000 1.54 90 21:35 11.03.2022
3295 Rain 12 1016 81 10000 1.54 110 20:54 11.03.2022
3296 Rain 12 1016 83 10000 2.06 110 20:28 11.03.2022
3297 Clouds 12 1016 85 10000 1.03 0 19:42 11.03.2022
3298 Clouds 12 1016 84 10000 1.03 0 19:20 11.03.2022
3299 Clouds 13 1015 84 8000 2.57 150 17:29 11.03.2022
3300 Clouds 13 1015 82 9000 3.09 170 16:27 11.03.2022
3301 Clouds 13 1016 81 10000 3.6 120 15:53 11.03.2022
3302 Clouds 14 1016 80 10000 4.12 130 14:19 11.03.2022
3303 Clouds 14 1018 79 10000 4.12 120 12:44 11.03.2022
3304 Clouds 14 1017 79 10000 3.09 170 12:20 11.03.2022
3305 Clouds 14 1018 80 10000 3.09 170 11:43 11.03.2022
3306 Mist 12 1018 86 9000 1.54 20 09:39 11.03.2022
3307 Clouds 11 1017 85 9000 0.51 40 08:40 11.03.2022
3308 Mist 11 1017 85 9000 0 0 07:49 11.03.2022
3309 Mist 11 1018 84 10000 0.51 360 07:28 11.03.2022
3310 Clouds 11 1017 84 10000 1.54 300 05:42 11.03.2022
3311 Clouds 11 1019 84 10000 1.03 280 02:56 11.03.2022
3312 Clouds 12 1020 84 10000 1.03 0 22:56 10.03.2022
3313 Clouds 12 1020 85 10000 1.03 180 22:28 10.03.2022
3314 Clouds 12 1021 85 10000 2.06 190 21:27 10.03.2022
3315 Clouds 12 1021 85 10000 2.06 180 20:45 10.03.2022
3316 Clouds 13 1021 83 10000 2.57 190 19:23 10.03.2022
3317 Clouds 13 1020 80 10000 4.63 180 18:39 10.03.2022
3318 Clouds 14 1020 77 10000 5.66 180 16:54 10.03.2022
3319 Clouds 15 1021 76 10000 5.36 348 15:49 10.03.2022
3320 Clouds 15 1021 77 10000 6.69 200 14:24 10.03.2022
3321 Clouds 14 1022 80 10000 5.66 210 12:50 10.03.2022
3322 Mist 13 1022 83 10000 5.66 210 11:39 10.03.2022
3323 Mist 12 1023 86 10000 1.03 0 10:24 10.03.2022
3324 Mist 11 1022 84 10000 2.57 310 08:49 10.03.2022
3325 Clouds 10 1022 89 10000 2.06 330 06:36 10.03.2022
3326 Clouds 10 1023 87 10000 2.06 320 03:42 10.03.2022
3327 Clouds 10 1023 86 10000 1.54 290 00:23 10.03.2022
3328 Clouds 10 1024 85 10000 2.57 290 22:46 09.03.2022
3329 Clouds 11 1022 85 10000 1.54 260 21:48 09.03.2022
3330 Clouds 11 1023 84 10000 1.54 240 21:23 09.03.2022
3331 Clouds 12 1022 81 10000 4.12 230 19:40 09.03.2022
3332 Clouds 13 1021 75 10000 4.12 210 18:25 09.03.2022
3333 Clouds 14 1022 73 10000 4.63 210 17:26 09.03.2022
3334 Clouds 14 1022 71 10000 3.6 190 16:24 09.03.2022
3335 Clouds 14 1022 75 10000 2.06 110 14:32 09.03.2022
3336 Clouds 14 1023 76 10000 2.57 100 13:52 09.03.2022
3337 Clouds 12 1024 83 10000 3.6 40 12:36 09.03.2022
3338 Clouds 12 1023 85 10000 4.12 40 11:52 09.03.2022
3339 Clouds 12 1024 84 10000 3.09 40 11:32 09.03.2022
3340 Clouds 10 1023 84 10000 3.6 330 09:45 09.03.2022
3341 Clouds 9 1022 88 10000 3.6 330 08:47 09.03.2022
3342 Clouds 8 1020 90 9000 3.6 330 06:51 09.03.2022
3343 Clouds 9 1020 85 10000 3.09 320 01:54 09.03.2022
3344 Clouds 9 1020 87 10000 2.06 330 00:27 09.03.2022
3345 Clouds 9 1020 89 10000 1.54 300 22:47 08.03.2022
3346 Clouds 10 1019 89 10000 2.06 300 21:52 08.03.2022
3347 Clouds 10 1019 87 10000 2.06 280 21:22 08.03.2022
3348 Clouds 10 1019 87 10000 2.06 250 20:24 08.03.2022
3349 Clouds 11 1018 85 10000 3.6 250 19:24 08.03.2022
3350 Clouds 11 1018 86 10000 4.12 220 18:23 08.03.2022
3351 Clouds 11 1018 86 10000 2.06 190 16:56 08.03.2022
3352 Mist 11 1018 88 10000 1.54 140 14:58 08.03.2022
3353 Rain 11 1017 86 10000 1.79 14 13:54 08.03.2022
3354 Clouds 11 1018 85 10000 2.06 320 12:28 08.03.2022
3355 Clouds 11 1018 79 10000 2.57 320 11:43 08.03.2022
3356 Clouds 11 1018 79 10000 3.6 320 10:29 08.03.2022
3357 Clouds 10 1018 80 10000 3.09 330 08:58 08.03.2022
3358 Clouds 8 1017 84 10000 3.09 320 06:31 08.03.2022
3359 Clear 8 1017 82 10000 3.09 320 03:48 08.03.2022
3360 Clouds 10 1016 76 10000 1.54 180 22:57 07.03.2022
3361 Clouds 11 1017 74 10000 1.54 160 21:46 07.03.2022
3362 Clouds 11 1017 73 10000 1.34 14 21:27 07.03.2022
3363 Clouds 11 1017 71 10000 1.54 150 20:38 07.03.2022
3364 Clouds 12 1017 70 10000 2.06 140 19:50 07.03.2022
3365 Clouds 12 1017 70 10000 1.34 194 19:29 07.03.2022
3366 Clouds 12 1016 70 10000 3.6 140 18:38 07.03.2022
3367 Clouds 13 1016 68 10000 3.6 140 17:33 07.03.2022
3368 Clouds 13 1015 68 10000 3.6 120 16:55 07.03.2022
3369 Clouds 13 1016 66 10000 5.14 80 14:57 07.03.2022
3370 Clouds 12 1017 63 10000 4.63 80 12:48 07.03.2022
3371 Clouds 11 1017 63 10000 4.63 70 12:20 07.03.2022
3372 Clouds 11 1017 69 10000 5.66 80 10:35 07.03.2022
3373 Clouds 10 1016 82 10000 2.06 340 08:35 07.03.2022
3374 Clouds 9 1016 82 10000 2.06 330 02:58 07.03.2022
3375 Clouds 10 1016 82 10000 1.03 340 00:21 07.03.2022
3376 Clouds 10 1017 81 10000 0.51 0 23:29 06.03.2022
3377 Clouds 10 1017 82 10000 2.06 290 22:32 06.03.2022
3378 Clouds 10 1016 80 10000 1.03 0 21:45 06.03.2022
3379 Clouds 10 1016 80 10000 1.34 241 20:30 06.03.2022
3380 Clouds 10 1016 79 10000 1.54 160 19:50 06.03.2022
3381 Clouds 11 1015 75 10000 3.09 70 18:51 06.03.2022
3382 Clouds 11 1015 72 10000 3.09 110 17:53 06.03.2022
3383 Clouds 11 1015 71 10000 3.6 90 17:20 06.03.2022
3384 Clouds 12 1015 69 10000 3.6 90 16:40 06.03.2022
3385 Clouds 12 1015 69 10000 3.6 90 16:40 06.03.2022
3386 Clouds 12 1015 67 10000 2.57 110 15:37 06.03.2022
3387 Clouds 12 1015 69 10000 2.57 80 14:49 06.03.2022
3388 Clouds 12 959 70 10000 3.09 90 14:28 06.03.2022
3389 Drizzle 11 1016 79 10000 2.57 90 12:43 06.03.2022
3390 Drizzle 11 1016 84 10000 2.57 90 11:56 06.03.2022
3391 Drizzle 10 1015 87 10000 1.03 0 10:45 06.03.2022
3392 Drizzle 9 1016 88 10000 1.54 270 09:34 06.03.2022
3393 Drizzle 9 1015 88 10000 2.06 60 08:28 06.03.2022
3394 Rain 9 1015 89 10000 2.57 30 07:33 06.03.2022
3395 Rain 10 1014 85 5000 0.51 0 04:45 06.03.2022
3396 Clouds 11 1015 72 10000 2.06 260 00:42 06.03.2022
3397 Clouds 11 1015 71 10000 2.06 260 00:23 06.03.2022
3398 Clouds 11 1015 70 10000 2.06 240 23:19 05.03.2022
3399 Clouds 11 1015 69 10000 2.57 240 22:42 05.03.2022
3400 Clouds 12 1015 68 10000 2.57 250 21:44 05.03.2022
3401 Clouds 12 1015 66 10000 3.09 200 21:19 05.03.2022
3402 Clouds 13 1014 62 10000 3.09 180 19:24 05.03.2022
3403 Clouds 13 1014 61 10000 4.12 220 18:50 05.03.2022
3404 Clouds 14 1014 61 10000 4.12 210 17:41 05.03.2022
3405 Clouds 14 1014 59 10000 5.14 210 16:20 05.03.2022
3406 Clouds 14 1014 57 10000 4.63 210 15:30 05.03.2022
3407 Clouds 15 1015 57 10000 4.63 190 14:44 05.03.2022
3408 Clouds 15 1015 57 10000 4.63 190 14:24 05.03.2022
3409 Clouds 15 1015 55 10000 4.63 190 12:59 05.03.2022
3410 Clouds 15 1016 53 10000 2.06 290 11:43 05.03.2022
3411 Clouds 14 1016 53 10000 4.12 330 11:18 05.03.2022
3412 Clouds 12 1016 60 10000 5.66 320 09:58 05.03.2022
3413 Clouds 10 1016 66 10000 5.66 330 08:57 05.03.2022
3414 Clouds 10 1015 67 10000 5.66 330 07:37 05.03.2022
3415 Clouds 11 1015 64 10000 5.66 310 05:42 05.03.2022
3416 Clouds 10 1015 65 10000 6.17 320 05:42 05.03.2022
3417 Clouds 12 1014 60 10000 4.63 330 01:30 05.03.2022
3418 Clouds 12 1015 76 10000 3.6 320 23:36 04.03.2022
3419 Clouds 13 1015 79 10000 1.54 340 22:42 04.03.2022
3420 Clouds 13 1015 79 10000 2.06 360 21:47 04.03.2022
3421 Clouds 13 1014 81 10000 2.57 20 20:51 04.03.2022
3422 Clouds 13 1014 80 10000 2.57 20 20:21 04.03.2022
3423 Clouds 14 1014 79 10000 3.6 190 19:35 04.03.2022
3424 Clouds 15 1013 76 10000 3.6 210 18:37 04.03.2022
3425 Clouds 16 1012 73 10000 5.14 190 17:30 04.03.2022
3426 Clouds 16 1013 69 10000 5.14 190 16:43 04.03.2022
3427 Clouds 16 1014 67 10000 4.63 190 15:28 04.03.2022
3428 Clouds 16 1014 62 10000 4.12 200 14:19 04.03.2022
3429 Clouds 16 1013 63 10000 4.12 240 13:24 04.03.2022
3430 Clouds 14 1014 71 10000 4.12 330 11:41 04.03.2022
3431 Clouds 13 1014 74 10000 3.6 320 10:42 04.03.2022
3432 Clouds 12 1014 79 10000 4.12 320 09:40 04.03.2022
3433 Clouds 11 1013 82 10000 4.12 320 08:36 04.03.2022
3434 Clouds 10 1013 84 10000 4.63 330 07:23 04.03.2022
3435 Clouds 10 1011 87 10000 3.6 330 03:50 04.03.2022
3436 Clouds 11 1013 84 10000 1.54 330 00:24 04.03.2022
3437 Clouds 11 1013 82 10000 1.54 310 22:26 03.03.2022
3438 Clouds 12 1013 81 10000 3.09 250 21:41 03.03.2022
3439 Clouds 12 1013 81 10000 3.09 250 21:21 03.03.2022
3440 Clouds 13 1013 79 10000 4.63 240 19:51 03.03.2022
3441 Clouds 13 1012 75 10000 0.89 233 18:53 03.03.2022
3442 Clouds 14 1012 71 10000 5.66 220 18:23 03.03.2022
3443 Clouds 15 1013 67 10000 6.69 220 17:30 03.03.2022
3444 Clouds 16 1012 59 10000 6.69 220 16:24 03.03.2022
3445 Clouds 17 1013 57 10000 5.66 220 15:21 03.03.2022
3446 Clouds 17 1014 57 10000 7.2 220 14:42 03.03.2022
3447 Clouds 17 1015 61 10000 0.45 119 13:24 03.03.2022
3448 Clouds 15 1017 67 10000 4.12 260 11:54 03.03.2022
3449 Clouds 14 1016 72 10000 3.13 122 10:47 03.03.2022
3450 Clear 11 1016 79 10000 5.14 320 09:38 03.03.2022
3451 Clouds 9 1017 85 10000 4.63 340 07:48 03.03.2022
3452 Clouds 10 1017 87 10000 2.57 320 06:36 03.03.2022
3453 Clouds 11 1018 87 10000 2.57 60 02:42 03.03.2022
3454 Clouds 12 1019 89 10000 1.03 350 23:34 02.03.2022
3455 Clouds 11 1019 89 10000 2.06 290 22:52 02.03.2022
3456 Clouds 12 1019 88 10000 5.14 230 21:35 02.03.2022
3457 Clouds 12 1018 89 10000 4.12 220 20:55 02.03.2022
3458 Clouds 13 1018 88 10000 3.09 220 20:24 02.03.2022
3459 Clouds 13 1018 88 10000 3.09 220 20:24 02.03.2022
3460 Clouds 13 1018 87 10000 4.12 230 19:37 02.03.2022
3461 Clouds 14 1018 86 10000 5.66 220 18:54 02.03.2022
3462 Clouds 14 1017 85 10000 5.66 220 18:26 02.03.2022
3463 Clouds 14 1019 85 10000 5.14 220 17:36 02.03.2022
3464 Clouds 14 1019 82 10000 4.63 200 16:51 02.03.2022
3465 Clouds 14 1020 79 10000 5.66 190 14:59 02.03.2022
3466 Clouds 14 1021 82 10000 3.09 210 13:30 02.03.2022
3467 Clouds 13 1022 82 10000 1.54 280 12:45 02.03.2022
3468 Clouds 12 1022 82 10000 0.51 0 12:21 02.03.2022
3469 Clouds 12 1022 83 10000 1.54 340 11:26 02.03.2022
3470 Clouds 12 1022 83 10000 2.06 330 10:30 02.03.2022
3471 Clouds 12 1022 83 10000 2.06 330 10:30 02.03.2022
3472 Clouds 11 1023 84 10000 2.57 320 09:31 02.03.2022
3473 Clouds 10 1023 86 9000 3.09 0 08:28 02.03.2022
3474 Clouds 9 1023 86 9000 2.57 330 07:23 02.03.2022
3475 Clouds 9 1023 88 9000 4.12 330 04:46 02.03.2022
3476 Clouds 10 1025 86 10000 2.06 330 00:40 02.03.2022
3477 Clouds 11 1025 85 10000 2.06 310 23:24 01.03.2022
3478 Clouds 11 1026 84 10000 2.06 290 22:37 01.03.2022
3479 Clouds 11 1026 83 10000 1.03 0 21:37 01.03.2022
3480 Clouds 12 1026 82 10000 3.09 120 20:38 01.03.2022
3481 Clouds 12 1026 82 10000 3.09 120 20:19 01.03.2022
3482 Clouds 13 1026 79 10000 1.34 136 18:53 01.03.2022
3483 Clear 14 1025 74 10000 5.14 130 18:22 01.03.2022
3484 Clear 14 974 74 10000 5.14 130 17:42 01.03.2022
3485 Clear 15 1025 62 10000 4.63 120 16:36 01.03.2022
3486 Clouds 16 1025 62 10000 4.63 120 15:47 01.03.2022
3487 Clouds 16 1026 62 10000 5.66 110 14:54 01.03.2022
3488 Clouds 16 1026 62 10000 6.69 100 14:31 01.03.2022
3489 Clouds 16 1027 65 10000 6.17 90 13:26 01.03.2022
3490 Clear 15 1027 66 10000 3.6 110 12:36 01.03.2022
3491 Clear 14 1027 66 10000 2.24 57 11:35 01.03.2022
3492 Clear 12 1025 73 10000 6.17 320 09:52 01.03.2022
3493 Clouds 8 1025 81 10000 5.66 320 08:25 01.03.2022
3494 Clear 9 1024 83 10000 4.12 320 06:47 01.03.2022
3495 Clouds 10 1024 83 10000 2.68 127 03:26 01.03.2022
3496 Clouds 11 1025 80 10000 2.57 250 00:48 01.03.2022
3497 Clouds 11 1025 79 10000 5.14 230 23:46 28.02.2022
3498 Clouds 11 1026 79 10000 4.12 250 22:43 28.02.2022
3499 Clouds 12 1026 78 10000 3.6 250 21:48 28.02.2022
3500 Clouds 12 1026 79 10000 4.12 230 20:54 28.02.2022
3501 Clouds 12 1026 77 10000 5.14 220 19:51 28.02.2022
3502 Clouds 13 1025 76 10000 4.63 210 18:56 28.02.2022
3503 Clouds 14 1025 72 10000 5.66 210 17:43 28.02.2022
3504 Clouds 14 1025 70 10000 5.14 210 17:23 28.02.2022
3505 Clouds 15 1025 68 10000 5.14 200 16:25 28.02.2022
3506 Clouds 14 1027 67 10000 3.6 180 14:33 28.02.2022
3507 Clouds 14 1027 69 10000 3.6 170 13:56 28.02.2022
3508 Clouds 14 1028 68 10000 4.12 160 13:24 28.02.2022
3509 Clouds 14 1028 69 10000 4.63 140 12:29 28.02.2022
3510 Clouds 13 1028 71 10000 4.63 110 11:20 28.02.2022
3511 Clouds 12 1028 71 10000 1.79 69 10:23 28.02.2022
3512 Clouds 12 1027 72 10000 3.09 320 09:53 28.02.2022
3513 Clouds 11 1027 73 10000 3.09 320 09:24 28.02.2022
3514 Clouds 11 1027 73 10000 3.09 320 09:24 28.02.2022
3515 Clouds 10 1027 72 10000 2.57 340 08:22 28.02.2022
3516 Clouds 10 1027 72 10000 2.57 340 08:22 28.02.2022
3517 Clouds 10 1026 69 10000 3.6 320 06:44 28.02.2022
3518 Clouds 10 1026 70 10000 3.6 330 04:31 28.02.2022
3519 Clouds 11 1026 70 10000 3.09 320 01:42 28.02.2022
3520 Clouds 11 1025 70 10000 2.57 330 23:18 27.02.2022
3521 Clouds 11 1025 72 10000 1.54 360 22:33 27.02.2022
3522 Clouds 10 1024 72 10000 2.57 290 21:46 27.02.2022
3523 Clouds 11 1024 70 10000 1.03 160 20:54 27.02.2022
3524 Clouds 11 1024 70 10000 1.03 160 20:25 27.02.2022
3525 Clouds 12 1023 66 10000 1.03 0 19:50 27.02.2022
3526 Clear 12 1023 67 10000 2.57 140 19:26 27.02.2022
3527 Clear 12 1023 64 10000 3.09 210 18:39 27.02.2022
3528 Clear 14 1023 61 10000 4.12 200 17:53 27.02.2022
3529 Clouds 15 1022 58 10000 5.14 190 16:36 27.02.2022
3530 Clouds 15 1022 56 10000 5.14 200 15:42 27.02.2022
3531 Clouds 14 1024 56 10000 3.13 14 12:53 27.02.2022
3532 Clouds 14 1024 58 10000 2.68 335 12:29 27.02.2022
3533 Clouds 13 1023 65 10000 1.54 300 10:50 27.02.2022
3534 Clouds 11 1024 70 10000 3.09 320 09:58 27.02.2022
3535 Clouds 10 1024 73 10000 3.6 320 09:29 27.02.2022
3536 Clear 9 1024 77 10000 4.12 320 08:59 27.02.2022
3537 Clear 8 1023 88 10000 3.09 330 06:43 27.02.2022
3538 Clear 8 1021 82 10000 3.6 340 05:35 27.02.2022
3539 Clouds 9 1025 77 10000 2.06 340 00:37 27.02.2022
3540 Clouds 10 1025 72 10000 1.54 290 22:56 26.02.2022
3541 Clouds 11 1025 71 10000 1.03 0 21:39 26.02.2022
3542 Clouds 11 1024 71 10000 1.03 0 20:48 26.02.2022
3543 Clouds 11 1024 70 10000 2.06 150 20:19 26.02.2022
3544 Clouds 11 1024 68 10000 2.57 150 19:37 26.02.2022
3545 Clouds 12 1024 65 10000 3.09 130 18:49 26.02.2022
3546 Clouds 12 1024 62 10000 2.57 120 17:42 26.02.2022
3547 Clouds 12 1024 58 10000 3.09 130 16:49 26.02.2022
3548 Clouds 12 1024 56 10000 3.09 150 15:49 26.02.2022
3549 Clouds 12 1025 53 10000 4.12 170 15:22 26.02.2022
3550 Clouds 12 1025 51 10000 4.63 100 14:53 26.02.2022
3551 Clouds 12 1025 51 10000 5.66 90 14:33 26.02.2022
3552 Clouds 12 1025 47 10000 5.66 90 13:19 26.02.2022
3553 Clouds 11 1026 50 10000 6.17 80 12:20 26.02.2022
3554 Clouds 11 1026 54 10000 6.17 70 11:28 26.02.2022
3555 Clouds 10 1026 56 10000 5.14 80 10:39 26.02.2022
3556 Clouds 10 1025 68 10000 4.63 70 08:53 26.02.2022
3557 Clouds 10 1025 82 10000 2.24 75 06:51 26.02.2022
3558 Clouds 11 1025 85 10000 3.09 170 00:56 26.02.2022
3559 Clouds 12 1025 84 10000 2.06 180 22:49 25.02.2022
3560 Clouds 12 1025 83 10000 2.06 180 21:43 25.02.2022
3561 Clouds 12 1025 83 10000 2.06 160 21:23 25.02.2022
3562 Clouds 12 1024 83 10000 1.54 140 20:32 25.02.2022
3563 Clouds 13 1024 82 10000 3.6 180 19:18 25.02.2022
3564 Clouds 14 1023 78 10000 4.12 150 17:29 25.02.2022
3565 Clouds 14 1023 76 10000 4.12 140 16:32 25.02.2022
3566 Clouds 15 1024 74 10000 4.63 140 15:47 25.02.2022
3567 Clouds 15 1024 72 10000 4.12 150 15:21 25.02.2022
3568 Clouds 15 1024 72 10000 4.12 160 14:42 25.02.2022
3569 Clouds 15 1024 72 10000 4.12 160 14:42 25.02.2022
3570 Clouds 15 1024 70 10000 3.6 170 13:51 25.02.2022
3571 Clouds 15 1025 70 10000 0.45 3 13:18 25.02.2022
3572 Clouds 13 1026 70 10000 3.09 330 11:28 25.02.2022
3573 Clouds 12 1026 75 10000 3.09 330 10:43 25.02.2022
3574 Clouds 12 1025 76 10000 2.68 144 10:22 25.02.2022
3575 Clouds 11 1025 78 10000 3.6 320 09:30 25.02.2022
3576 Clouds 11 1024 82 10000 2.24 248 07:42 25.02.2022
3577 Clouds 11 1023 85 10000 3.6 330 05:51 25.02.2022
3578 Clouds 11 1023 85 10000 4.63 320 05:31 25.02.2022
3579 Clouds 11 1023 88 10000 2.06 330 00:27 25.02.2022
3580 Clear 12 1023 86 10000 1.54 280 22:00 24.02.2022
3581 Clear 12 1023 86 10000 2.06 290 21:40 24.02.2022
3582 Clear 12 1022 86 10000 2.06 290 21:20 24.02.2022
3583 Clear 13 1022 84 10000 2.06 210 19:53 24.02.2022
3584 Clear 14 1021 78 10000 2.57 210 18:52 24.02.2022
3585 Clear 15 1021 77 10000 3.6 210 18:19 24.02.2022
3586 Clear 15 1020 74 10000 4.63 220 17:42 24.02.2022
3587 Clear 16 1020 70 10000 4.12 210 16:56 24.02.2022
3588 Clear 16 1019 66 10000 4.63 160 16:25 24.02.2022
3589 Clear 17 1020 60 10000 4.63 200 15:30 24.02.2022
3590 Clouds 17 1020 57 10000 5.66 230 14:37 24.02.2022
3591 Clouds 17 1021 60 10000 4.63 200 13:42 24.02.2022
3592 Clouds 17 1021 58 10000 3.13 7 13:24 24.02.2022
3593 Clouds 14 1022 78 10000 1.03 0 10:43 24.02.2022
3594 Clouds 12 1022 83 10000 2.57 330 09:41 24.02.2022
3595 Clouds 11 1021 89 8000 1.54 350 08:42 24.02.2022
3596 Clouds 11 1021 88 8000 1.03 320 06:25 24.02.2022
3597 Clouds 11 1021 88 8000 1.03 330 05:36 24.02.2022
3598 Clouds 11 1023 84 10000 2.57 260 00:30 24.02.2022
3599 Clouds 12 1023 83 10000 3.09 250 21:56 23.02.2022
3600 Clouds 12 1023 82 10000 4.12 230 20:33 23.02.2022
3601 Clouds 13 1023 81 10000 4.12 240 19:56 23.02.2022
3602 Clouds 13 1023 81 10000 5.66 240 19:23 23.02.2022
3603 Clouds 15 1023 76 10000 6.69 230 17:56 23.02.2022
3604 Clouds 16 1023 71 10000 5.14 170 16:18 23.02.2022
3605 Clouds 17 1025 60 10000 4.47 8 13:36 23.02.2022
3606 Clouds 16 1026 62 10000 3.09 230 12:31 23.02.2022
3607 Clouds 14 1026 65 10000 3.6 0 10:55 23.02.2022
3608 Clouds 11 1027 76 10000 6.69 330 09:38 23.02.2022
3609 Clouds 10 1027 80 10000 6.69 320 08:54 23.02.2022
3610 Clouds 9 1025 82 10000 6.17 320 07:47 23.02.2022
3611 Clouds 10 1026 83 10000 2.57 320 02:31 23.02.2022
3612 Clear 10 1026 76 10000 3.6 340 23:50 22.02.2022
3613 Clear 10 1027 75 10000 2.57 320 23:31 22.02.2022
3614 Clear 11 1026 77 10000 1.54 340 22:28 22.02.2022
3615 Clear 11 1026 79 10000 2.57 290 21:44 22.02.2022
3616 Clear 11 1026 77 10000 2.57 210 21:21 22.02.2022
3617 Clear 12 1025 77 10000 3.09 210 20:41 22.02.2022
3618 Clear 12 1025 76 10000 3.09 210 20:22 22.02.2022
3619 Clear 13 1024 72 10000 3.6 210 19:34 22.02.2022
3620 Clouds 14 1025 68 10000 1.79 286 18:35 22.02.2022
3621 Clouds 16 1024 64 10000 4.12 130 17:34 22.02.2022
3622 Clouds 16 1025 61 10000 5.14 120 16:57 22.02.2022
3623 Clear 16 1025 59 10000 5.14 130 16:22 22.02.2022
3624 Clear 16 1025 58 10000 4.63 130 15:31 22.02.2022
3625 Clear 17 1025 56 10000 5.14 210 14:33 22.02.2022
3626 Clear 14 1027 48 10000 4.63 340 11:39 22.02.2022
3627 Clouds 11 1027 58 10000 7.72 340 09:48 22.02.2022
3628 Clouds 9 1026 62 10000 6.17 330 07:41 22.02.2022
3629 Clouds 9 1026 61 10000 6.17 330 07:23 22.02.2022
3630 Clouds 10 1025 80 10000 3.09 310 02:51 22.02.2022
3631 Clouds 12 1024 78 10000 3.6 40 23:48 21.02.2022
3632 Clouds 13 1023 78 10000 5.66 40 22:37 21.02.2022
3633 Clear 13 1022 77 10000 5.14 30 21:24 21.02.2022
3634 Clear 15 1020 72 10000 5.14 30 19:36 21.02.2022
3635 Clear 17 1019 61 10000 4.12 280 18:39 21.02.2022
3636 Clear 19 1018 53 10000 5.14 260 16:40 21.02.2022
3637 Clear 18 1020 51 10000 4.12 260 14:24 21.02.2022
3638 Clear 18 1020 47 10000 3.6 290 13:55 21.02.2022
3639 Clear 17 1021 49 10000 1.79 271 12:57 21.02.2022
3640 Clear 16 1022 52 10000 5.66 260 12:22 21.02.2022
3641 Clear 12 1023 64 10000 5.14 320 10:32 21.02.2022
3642 Clear 9 1022 78 10000 4.12 310 08:31 21.02.2022
3643 Clear 10 1025 65 10000 2.57 320 00:56 21.02.2022
3644 Clear 11 1026 58 10000 2.57 300 22:40 20.02.2022
3645 Clear 11 1025 56 10000 1.54 260 21:54 20.02.2022
3646 Clear 12 1025 56 10000 2.57 250 21:25 20.02.2022
3647 Clear 12 1025 53 10000 3.09 240 20:50 20.02.2022
3648 Clear 12 1025 62 10000 6.69 230 19:59 20.02.2022
3649 Clear 13 1025 62 10000 7.2 230 19:21 20.02.2022
3650 Clear 14 1024 61 10000 6.69 230 18:42 20.02.2022
3651 Clear 14 1024 60 10000 6.69 230 18:23 20.02.2022
3652 Clear 15 1024 57 10000 6.69 220 17:30 20.02.2022
3653 Clear 16 1025 56 10000 6.17 210 15:29 20.02.2022
3654 Clear 15 1026 55 10000 4.12 300 14:33 20.02.2022
3655 Clear 14 1026 54 10000 3.6 270 12:51 20.02.2022
3656 Clear 12 1027 59 10000 4.12 340 11:56 20.02.2022
3657 Clear 10 1028 67 10000 5.66 320 10:21 20.02.2022
3658 Clear 9 1027 70 10000 4.63 320 09:52 20.02.2022
3659 Clear 8 1026 78 10000 4.63 320 06:44 20.02.2022
3660 Clouds 9 1025 84 10000 2.57 320 00:33 20.02.2022
3661 Clouds 9 1024 84 10000 2.06 330 23:42 19.02.2022
3662 Clouds 10 1024 82 10000 3.09 320 22:25 19.02.2022
3663 Clouds 10 1024 80 10000 3.09 310 21:54 19.02.2022
3664 Clouds 10 1023 80 10000 3.09 340 20:48 19.02.2022
3665 Clouds 11 1022 78 10000 2.06 260 19:41 19.02.2022
3666 Clouds 11 1022 78 10000 3.09 320 18:41 19.02.2022
3667 Clouds 11 1021 78 10000 3.6 310 18:19 19.02.2022
3668 Drizzle 11 1021 78 10000 4.12 320 17:33 19.02.2022
3669 Drizzle 11 1021 77 10000 3.09 340 16:21 19.02.2022
3670 Clouds 12 1021 70 10000 4.63 280 14:56 19.02.2022
3671 Clouds 12 1020 68 10000 4.63 330 13:59 19.02.2022
3672 Clouds 13 1020 72 10000 4.12 340 11:59 19.02.2022
3673 Clouds 13 1020 73 10000 4.63 340 11:36 19.02.2022
3674 Clouds 12 1019 83 10000 1.79 132 09:34 19.02.2022
3675 Mist 12 1017 86 5000 2.06 350 06:53 19.02.2022
3676 Mist 12 1017 87 9000 2.57 300 02:38 19.02.2022
3677 Clouds 13 1017 89 10000 3.6 70 23:28 18.02.2022
3678 Clouds 14 1015 84 6000 4.02 60 21:30 18.02.2022
3679 Clouds 14 1014 78 10000 5.14 220 20:39 18.02.2022
3680 Clouds 15 1014 78 10000 5.14 210 19:51 18.02.2022
3681 Clear 16 1015 73 10000 6.69 220 18:50 18.02.2022
3682 Clear 17 1014 69 10000 7.72 220 18:20 18.02.2022
3683 Clear 19 1013 59 10000 8.23 210 17:25 18.02.2022
3684 Clouds 19 1014 70 10000 9.77 220 14:48 18.02.2022
3685 Clouds 19 1016 68 10000 8.75 220 13:54 18.02.2022
3686 Clear 19 1016 67 10000 0.89 124 12:51 18.02.2022
3687 Clear 18 1017 65 10000 4.12 240 11:58 18.02.2022
3688 Clear 18 1017 65 10000 4.12 240 11:58 18.02.2022
3689 Clear 18 1017 65 10000 4.12 240 11:58 18.02.2022
3690 Clouds 17 1017 71 10000 7.72 220 11:21 18.02.2022
3691 Clouds 13 1018 79 10000 3.09 320 09:33 18.02.2022
3692 Clear 11 1018 82 10000 3.09 310 06:52 18.02.2022
3693 Clear 12 1018 80 10000 4.12 320 05:38 18.02.2022
3694 Clear 13 1022 81 10000 2.57 290 22:47 17.02.2022
3695 Clear 14 1021 77 10000 1.54 250 21:43 17.02.2022
3696 Clouds 14 1021 76 10000 4.12 240 20:59 17.02.2022
3697 Clouds 15 1021 75 10000 4.63 240 20:34 17.02.2022
3698 Clouds 16 1021 72 10000 4.12 230 19:48 17.02.2022
3699 Clear 17 1021 71 10000 4.63 210 18:38 17.02.2022
3700 Clear 18 1021 66 10000 4.12 210 17:48 17.02.2022
3701 Clear 19 1020 56 10000 5.66 220 16:20 17.02.2022
3702 Clear 20 1020 55 10000 5.14 260 15:26 17.02.2022
3703 Clear 19 1022 54 10000 5.66 220 14:20 17.02.2022
3704 Clear 17 1023 59 10000 6.17 280 12:24 17.02.2022
3705 Clear 16 1023 64 10000 6.17 320 11:21 17.02.2022
3706 Clear 12 1022 74 10000 4.63 290 08:43 17.02.2022
3707 Clear 12 1021 71 10000 2.57 320 00:29 17.02.2022
3708 Clear 12 1021 75 10000 2.06 350 22:41 16.02.2022
3709 Clouds 12 1021 77 10000 2.57 290 21:25 16.02.2022
3710 Clouds 13 1021 74 10000 4.12 240 19:43 16.02.2022
3711 Clouds 15 1020 68 10000 4.12 210 18:36 16.02.2022
3712 Clear 16 1020 62 10000 5.66 230 17:41 16.02.2022
3713 Clear 16 1020 63 10000 5.66 230 17:37 16.02.2022
3714 Clouds 16 1019 51 10000 5.66 270 15:30 16.02.2022
3715 Clouds 15 1021 52 10000 6.69 270 14:57 16.02.2022
3716 Clouds 13 1022 53 10000 5.14 280 12:35 16.02.2022
3717 Clouds 13 1023 53 10000 5.66 280 11:53 16.02.2022
3718 Clouds 13 1023 54 10000 6.69 270 11:23 16.02.2022
3719 Clouds 12 1023 59 10000 3.6 330 10:29 16.02.2022
3720 Rain 9 1022 66 10000 4.12 340 06:57 16.02.2022
3721 Clear 9 1022 69 10000 3.09 330 04:42 16.02.2022
3722 Clear 10 1023 76 10000 2.57 70 23:44 15.02.2022
3723 Clear 12 1022 71 10000 3.09 80 22:19 15.02.2022
3724 Clear 12 1023 70 10000 3.09 70 21:45 15.02.2022
3725 Clear 12 1023 68 10000 3.6 50 21:27 15.02.2022
3726 Clear 13 1023 64 10000 3.09 70 20:55 15.02.2022
3727 Clear 14 1022 57 10000 2.68 111 19:55 15.02.2022
3728 Clear 15 1021 48 10000 4.02 246 18:52 15.02.2022
3729 Clear 15 1021 42 10000 4.63 290 18:19 15.02.2022
3730 Clear 16 1021 39 10000 4.63 290 17:48 15.02.2022
3731 Clouds 17 1020 34 10000 5.14 290 16:32 15.02.2022
3732 Clouds 17 1021 36 10000 5.14 230 15:22 15.02.2022
3733 Clear 15 1022 47 10000 5.14 260 13:26 15.02.2022
3734 Clear 13 1022 53 10000 4.12 340 11:57 15.02.2022
3735 Clear 11 1022 58 10000 6.17 320 10:58 15.02.2022
3736 Clear 8 1022 70 10000 6.17 330 09:28 15.02.2022
3737 Clouds 7 1020 72 10000 3.6 330 06:50 15.02.2022
3738 Clouds 8 1017 72 10000 3.09 320 02:36 15.02.2022
3739 Clouds 10 1015 77 10000 2.06 120 22:36 14.02.2022
3740 Clouds 11 1016 74 10000 3.09 80 21:35 14.02.2022
3741 Clouds 12 1014 73 10000 4.63 90 20:30 14.02.2022
3742 Clouds 13 1014 66 10000 4.12 300 19:32 14.02.2022
3743 Clouds 14 1013 51 10000 4.12 290 18:30 14.02.2022
3744 Clouds 15 1012 46 10000 7.2 280 17:58 14.02.2022
3745 Clouds 16 1012 43 10000 7.2 290 17:25 14.02.2022
3746 Clouds 17 1011 38 10000 6.69 260 16:19 14.02.2022
3747 Clouds 15 1012 47 10000 6.69 320 13:54 14.02.2022
3748 Clouds 15 1012 46 10000 6.69 300 13:26 14.02.2022
3749 Clouds 16 1012 49 10000 6.17 240 12:33 14.02.2022
3750 Clouds 16 1012 57 10000 4.63 230 11:54 14.02.2022
3751 Clouds 15 1012 64 10000 4.12 230 10:43 14.02.2022
3752 Clouds 12 1011 81 8000 3.6 250 08:45 14.02.2022
3753 Clouds 12 1011 83 6000 2.57 250 07:31 14.02.2022
3754 Clouds 13 1015 84 10000 6.69 210 01:18 14.02.2022
3755 Clouds 13 1017 84 10000 6.17 210 22:42 13.02.2022
3756 Clouds 13 1017 84 10000 6.17 210 22:24 13.02.2022
3757 Clouds 13 1017 84 10000 6.69 210 21:32 13.02.2022
3758 Clouds 13 1017 85 10000 6.17 200 20:36 13.02.2022
3759 Clouds 13 1017 84 10000 6.17 200 19:45 13.02.2022
3760 Clouds 13 1018 81 10000 5.66 210 18:49 13.02.2022
3761 Clouds 13 1018 80 10000 5.66 210 18:28 13.02.2022
3762 Clouds 15 1018 70 10000 8.23 220 15:54 13.02.2022
3763 Clouds 15 1019 72 10000 8.23 220 15:24 13.02.2022
3764 Clouds 15 1020 72 10000 7.2 220 14:31 13.02.2022
3765 Clouds 14 1021 80 10000 5.66 210 12:51 13.02.2022
3766 Clouds 13 1022 84 10000 5.66 220 11:44 13.02.2022
3767 Clouds 12 1023 86 10000 4.63 210 10:34 13.02.2022
3768 Clouds 12 1022 87 10000 5.14 210 09:47 13.02.2022
3769 Clouds 11 1022 89 10000 1.54 330 07:51 13.02.2022
3770 Clouds 10 1025 87 10000 1.54 290 00:36 13.02.2022
3771 Clouds 11 1025 86 10000 1.03 320 23:53 12.02.2022
3772 Clouds 11 1025 83 10000 1.54 10 22:33 12.02.2022
3773 Clouds 11 1025 81 10000 1.03 0 21:36 12.02.2022
3774 Clouds 11 1024 81 10000 1.03 40 20:52 12.02.2022
3775 Clouds 11 1025 80 10000 2.06 70 19:47 12.02.2022
3776 Clouds 11 1025 78 10000 2.06 70 18:53 12.02.2022
3777 Clouds 11 1025 77 10000 2.57 130 18:35 12.02.2022
3778 Clouds 12 1024 77 10000 2.57 90 17:37 12.02.2022
3779 Clouds 12 1025 76 10000 2.57 100 16:43 12.02.2022
3780 Clouds 12 1024 77 10000 2.57 80 15:52 12.02.2022
3781 Clouds 12 1024 78 10000 3.6 120 14:55 12.02.2022
3782 Clouds 12 1026 78 10000 3.6 130 14:25 12.02.2022
3783 Clouds 12 1027 81 10000 1.79 271 11:20 12.02.2022
3784 Clouds 12 1026 82 10000 2.68 275 10:28 12.02.2022
3785 Clouds 11 1025 84 9000 1.03 340 09:33 12.02.2022
3786 Clouds 10 1025 85 9000 1.03 0 08:46 12.02.2022
3787 Clouds 10 1024 85 10000 2.57 320 06:46 12.02.2022
3788 Clouds 10 1025 86 10000 1.54 310 04:44 12.02.2022
3789 Clouds 10 1026 83 10000 2.57 300 02:19 12.02.2022
3790 Clouds 11 1026 82 10000 2.06 320 23:20 11.02.2022
3791 Clouds 11 1026 83 10000 1.54 310 22:21 11.02.2022
3792 Clear 11 1026 81 10000 1.54 280 21:18 11.02.2022
3793 Clear 12 1026 80 10000 1.03 0 20:26 11.02.2022
3794 Clear 13 1026 77 10000 2.57 170 19:28 11.02.2022
3795 Clear 14 1024 74 10000 3.09 220 18:29 11.02.2022
3796 Clear 15 1025 69 10000 3.09 190 17:27 11.02.2022
3797 Clear 15 1024 65 10000 5.66 130 16:40 11.02.2022
3798 Clear 17 1024 61 10000 3.09 190 15:19 11.02.2022
3799 Clear 17 1025 59 10000 2.57 180 14:37 11.02.2022
3800 Clear 16 1025 60 10000 2.57 180 14:19 11.02.2022
3801 Clear 16 1025 59 10000 2.57 180 13:44 11.02.2022
3802 Clear 16 1025 58 10000 2.57 150 13:25 11.02.2022
3803 Clouds 13 1027 65 9000 0.51 0 10:59 11.02.2022
3804 Clouds 11 1026 74 10000 4.12 330 09:32 11.02.2022
3805 Clouds 9 1026 74 10000 4.12 330 08:35 11.02.2022
3806 Clouds 9 1024 75 10000 4.12 330 07:46 11.02.2022
3807 Clouds 9 1024 75 10000 4.12 330 07:46 11.02.2022
3808 Clouds 9 1025 75 10000 5.14 320 06:24 11.02.2022
3809 Clear 9 1025 79 10000 0.45 268 02:22 11.02.2022
3810 Clear 9 1025 86 10000 2.24 246 23:48 10.02.2022
3811 Clear 10 1026 84 10000 2.06 300 22:33 10.02.2022
3812 Clear 10 1026 84 10000 1.54 300 21:42 10.02.2022
3813 Clear 10 1026 83 10000 2.57 260 20:50 10.02.2022
3814 Clear 11 1026 84 10000 3.6 230 19:56 10.02.2022
3815 Clear 12 1026 81 10000 3.6 230 19:23 10.02.2022
3816 Clear 13 1026 77 10000 4.12 220 18:33 10.02.2022
3817 Clouds 14 1026 73 10000 5.14 210 17:23 10.02.2022
3818 Clouds 15 1026 72 10000 5.14 200 16:43 10.02.2022
3819 Clouds 15 1026 70 10000 4.12 190 15:41 10.02.2022
3820 Clouds 15 1026 69 10000 3.6 190 15:21 10.02.2022
3821 Clouds 15 1026 69 10000 3.09 190 14:35 10.02.2022
3822 Clouds 15 1027 70 10000 3.09 180 13:59 10.02.2022
3823 Clouds 14 1027 71 10000 0.45 169 13:19 10.02.2022
3824 Clouds 13 1029 70 10000 3.09 320 11:57 10.02.2022
3825 Clouds 12 1029 72 10000 4.12 320 11:32 10.02.2022
3826 Clouds 10 1029 78 10000 5.66 330 10:25 10.02.2022
3827 Clouds 9 1029 80 10000 5.14 320 09:46 10.02.2022
3828 Clouds 9 1029 80 10000 5.14 320 09:46 10.02.2022
3829 Clouds 8 1028 86 10000 4.63 320 08:42 10.02.2022
3830 Clouds 8 1028 85 10000 4.12 320 06:34 10.02.2022
3831 Clouds 8 1029 86 10000 4.12 320 03:33 10.02.2022
3832 Clear 9 1030 83 10000 2.57 320 00:57 10.02.2022
3833 Clear 9 1030 83 10000 1.03 0 00:38 10.02.2022
3834 Clear 9 1030 82 10000 1.03 0 00:20 10.02.2022
3835 Clear 9 1030 80 10000 1.79 122 22:57 09.02.2022
3836 Clear 10 1029 80 10000 1.54 290 22:33 09.02.2022
3837 Clear 10 1030 80 10000 2.57 250 21:48 09.02.2022
3838 Clear 10 1030 78 10000 3.09 240 21:27 09.02.2022
3839 Clear 11 1030 77 10000 3.09 250 20:45 09.02.2022
3840 Clear 11 1030 79 10000 3.09 250 20:23 09.02.2022
3841 Clear 12 1029 77 10000 3.6 230 19:42 09.02.2022
3842 Clear 12 1030 76 10000 4.12 220 18:50 09.02.2022
3843 Clear 15 1029 69 10000 6.69 210 17:24 09.02.2022
3844 Clear 16 1032 70 10000 6.69 220 16:25 09.02.2022
3845 Clear 16 1031 69 10000 7.2 210 15:26 09.02.2022
3846 Clouds 15 1031 70 10000 5.36 2 13:32 09.02.2022
3847 Clouds 13 1032 74 10000 3.6 240 11:52 09.02.2022
3848 Clouds 11 1032 81 9000 3.6 330 10:35 09.02.2022
3849 Clouds 10 1032 82 8000 4.12 330 09:56 09.02.2022
3850 Clouds 9 1032 85 9000 5.14 330 09:22 09.02.2022
3851 Clouds 8 1032 87 7000 4.63 320 08:51 09.02.2022
3852 Clouds 8 1032 86 7000 3.09 320 06:56 09.02.2022
3853 Mist 9 1032 88 7000 3.09 320 04:36 09.02.2022
3854 Clouds 9 1032 88 8000 1.54 310 03:49 09.02.2022
3855 Clouds 10 1031 87 10000 1.54 320 23:45 08.02.2022
3856 Clouds 11 1032 88 10000 1.54 290 23:19 08.02.2022
3857 Clouds 11 1032 88 10000 2.06 290 23:19 08.02.2022
3858 Clouds 11 1032 88 10000 3.09 220 22:38 08.02.2022
3859 Clouds 11 1032 88 10000 3.09 220 22:20 08.02.2022
3860 Clouds 12 1033 88 10000 3.09 210 21:22 08.02.2022
3861 Clouds 12 1032 88 10000 3.6 220 20:59 08.02.2022
3862 Clouds 12 1032 88 10000 3.09 210 20:38 08.02.2022
3863 Clouds 13 1032 86 10000 3.6 200 19:31 08.02.2022
3864 Clouds 13 1032 84 10000 3.6 200 18:24 08.02.2022
3865 Clouds 14 1031 81 10000 4.12 190 17:30 08.02.2022
3866 Clouds 16 1031 76 10000 4.63 200 15:52 08.02.2022
3867 Clouds 16 1031 75 10000 4.63 200 15:28 08.02.2022
3868 Clouds 15 1032 74 10000 3.13 1 13:50 08.02.2022
3869 Clouds 14 1033 71 10000 1.54 130 12:25 08.02.2022
3870 Clouds 13 1032 72 10000 2.24 305 10:55 08.02.2022
3871 Clouds 11 1032 76 10000 4.63 330 09:50 08.02.2022
3872 Clouds 10 1032 77 10000 5.14 330 08:53 08.02.2022
3873 Clouds 9 1031 78 10000 4.63 330 06:50 08.02.2022
3874 Clouds 9 1030 76 10000 3.6 330 04:40 08.02.2022
3875 Clouds 9 1030 75 10000 3.6 330 04:22 08.02.2022
3876 Clouds 9 1030 75 10000 2.06 330 03:36 08.02.2022
3877 Clouds 9 1030 73 10000 2.06 20 03:18 08.02.2022
3878 Clouds 9 1030 74 10000 2.06 20 02:59 08.02.2022
3879 Clouds 9 1030 74 10000 2.57 340 02:36 08.02.2022
3880 Clouds 10 1030 72 10000 2.57 340 02:18 08.02.2022
3881 Clouds 10 1029 69 10000 3.6 330 01:45 08.02.2022
3882 Clouds 10 1029 69 10000 3.6 330 01:45 08.02.2022
3883 Clouds 10 1028 70 10000 2.57 340 01:25 08.02.2022
3884 Clouds 10 1029 68 10000 4.12 330 00:55 08.02.2022
3885 Clouds 10 1028 67 10000 4.12 330 00:32 08.02.2022
3886 Clouds 11 1028 65 10000 3.6 320 23:45 07.02.2022
3887 Clear 11 1027 65 10000 2.06 280 23:18 07.02.2022
3888 Clear 11 1029 66 10000 2.06 280 22:59 07.02.2022
3889 Clear 11 1029 65 10000 2.06 300 22:19 07.02.2022
3890 Clear 11 1028 64 10000 1.54 300 21:51 07.02.2022
3891 Clear 11 1028 64 10000 3.09 290 21:28 07.02.2022
3892 Clear 12 1027 65 10000 1.54 320 20:47 07.02.2022
3893 Clear 12 1027 65 10000 2.57 300 20:29 07.02.2022
3894 Clear 12 1027 65 10000 1.54 300 19:47 07.02.2022
3895 Clear 14 1026 59 10000 3.6 130 18:40 07.02.2022
3896 Clear 15 1026 54 10000 4.63 130 17:33 07.02.2022
3897 Clear 16 1026 51 10000 3.09 220 16:52 07.02.2022
3898 Clear 16 1025 51 10000 4.12 230 15:48 07.02.2022
3899 Clear 16 1024 49 10000 4.12 270 14:19 07.02.2022
3900 Clear 15 1025 48 10000 5.66 330 13:27 07.02.2022
3901 Clear 14 1026 52 10000 0.45 275 12:36 07.02.2022
3902 Clear 13 1026 55 10000 0.89 28 11:50 07.02.2022
3903 Clear 12 1026 57 10000 0.89 234 11:24 07.02.2022
3904 Clear 11 1025 61 10000 1.34 179 10:42 07.02.2022
3905 Clear 10 1025 63 10000 1.79 301 10:24 07.02.2022
3906 Clear 9 1025 64 10000 0.89 84 09:52 07.02.2022
3907 Clear 8 1025 68 10000 0.45 302 09:18 07.02.2022
3908 Clouds 7 1026 70 10000 0.45 137 07:58 07.02.2022
3909 Clouds 7 1025 70 10000 1.79 168 06:34 07.02.2022
3910 Clouds 8 1025 70 10000 1.34 342 05:18 07.02.2022
3911 Clouds 8 1026 66 10000 1.34 244 02:38 07.02.2022
3912 Clouds 9 1028 68 10000 1.79 304 00:29 07.02.2022
3913 Clouds 9 1028 61 10000 1.34 271 23:33 06.02.2022
3914 Clouds 10 1028 59 10000 2.24 296 22:45 06.02.2022
3915 Clouds 10 1028 56 10000 1.34 257 21:47 06.02.2022
3916 Clouds 10 1028 54 10000 1.79 285 21:21 06.02.2022
3917 Clouds 11 1028 54 10000 3.13 296 21:21 06.02.2022
3918 Clouds 11 1028 54 10000 3.13 296 21:21 06.02.2022
3919 Clouds 11 1027 53 10000 0.45 348 20:48 06.02.2022
3920 Clouds 11 1027 54 10000 0.89 284 20:24 06.02.2022
3921 Clouds 12 1027 59 10000 0.45 0 19:30 06.02.2022
3922 Clouds 13 1026 61 10000 2.24 231 18:34 06.02.2022
3923 Clouds 13 1026 60 10000 2.24 220 17:54 06.02.2022
3924 Clouds 14 1026 58 10000 2.24 271 16:52 06.02.2022
3925 Clouds 15 1026 59 10000 0.45 0 16:30 06.02.2022
3926 Clouds 15 1026 61 10000 0.45 74 15:47 06.02.2022
3927 Clouds 15 1026 61 10000 0.89 111 15:25 06.02.2022
3928 Clouds 15 1027 50 10000 0.45 119 14:25 06.02.2022
3929 Clouds 14 1027 49 10000 1.34 321 13:24 06.02.2022
3930 Clouds 12 1027 52 10000 0.89 303 12:34 06.02.2022
3931 Clouds 10 1028 60 10000 3.58 267 10:43 06.02.2022
3932 Clouds 9 1028 64 10000 3.58 255 09:48 06.02.2022
3933 Clouds 8 1027 67 10000 4.92 300 08:46 06.02.2022
3934 Clouds 8 1027 68 10000 4.47 321 07:36 06.02.2022
3935 Clouds 9 1026 82 10000 0.45 272 05:29 06.02.2022
3936 Clouds 10 1027 83 10000 2.57 330 02:26 06.02.2022
3937 Clouds 10 1027 86 9000 0.45 285 01:20 06.02.2022
3938 Clouds 10 1026 86 9000 2.57 320 00:24 06.02.2022
3939 Clouds 11 1026 86 8000 0.51 0 22:18 05.02.2022
3940 Clouds 11 1025 85 10000 1.03 240 20:48 05.02.2022
3941 Clouds 11 1025 86 10000 2.06 220 20:23 05.02.2022
3942 Clouds 12 1025 86 10000 2.57 220 19:44 05.02.2022
3943 Clouds 13 1024 85 7000 0.45 273 18:49 05.02.2022
3944 Clouds 14 1023 81 8000 2.57 180 17:37 05.02.2022
3945 Clouds 14 1023 78 8000 0.45 81 16:36 05.02.2022
3946 Clouds 15 1023 75 8000 1.34 264 15:33 05.02.2022
3947 Clouds 14 1024 77 7000 0.45 99 14:40 05.02.2022
3948 Clouds 13 1025 78 7000 0.89 80 12:46 05.02.2022
3949 Clouds 13 1024 80 8000 0.45 102 11:49 05.02.2022
3950 Clouds 12 1023 82 10000 0.45 250 10:46 05.02.2022
3951 Clouds 11 1024 82 8000 0.45 239 09:52 05.02.2022
3952 Mist 11 1023 85 8000 0.89 247 09:25 05.02.2022
3953 Mist 10 1022 88 8000 0.45 242 07:36 05.02.2022
3954 Mist 10 1022 87 7000 3.6 330 06:56 05.02.2022
3955 Mist 11 1021 87 6000 0.45 266 03:55 05.02.2022
3956 Clouds 11 1022 85 8000 0.51 0 01:19 05.02.2022
3957 Clouds 11 1022 85 8000 0.51 0 00:42 05.02.2022
3958 Mist 12 1022 85 9000 1.03 0 23:38 04.02.2022
3959 Mist 12 1022 85 9000 1.03 0 23:20 04.02.2022
3960 Clouds 12 1021 87 10000 2.06 180 21:36 04.02.2022
3961 Clouds 12 1021 88 10000 2.06 180 21:18 04.02.2022
3962 Clouds 12 1021 88 10000 1.54 160 20:50 04.02.2022
3963 Clouds 13 1021 88 10000 1.03 140 19:33 04.02.2022
3964 Clouds 14 1019 84 10000 2.57 210 17:27 04.02.2022
3965 Clouds 15 1018 79 10000 0.89 34 15:39 04.02.2022
3966 Clouds 15 1018 76 10000 0.45 168 14:52 04.02.2022
3967 Clouds 15 1020 67 10000 0.89 122 12:43 04.02.2022
3968 Clouds 14 1020 70 10000 0.45 128 11:47 04.02.2022
3969 Clouds 13 1020 68 10000 0.45 121 11:22 04.02.2022
3970 Clouds 13 1020 70 10000 1.41 262 10:32 04.02.2022
3971 Clouds 10 1020 77 10000 0.45 296 08:34 04.02.2022
3972 Clear 10 1019 76 10000 0.45 305 05:19 04.02.2022
3973 Clear 11 1019 79 10000 0.45 334 02:39 04.02.2022
3974 Clouds 11 1020 81 10000 0.45 269 00:31 04.02.2022
3975 Mist 12 1020 83 4500 0.45 340 23:21 03.02.2022
3976 Mist 12 1020 86 1100 0.89 322 22:26 03.02.2022
3977 Fog 12 1019 86 1200 1.34 343 21:47 03.02.2022
3978 Clear 13 1019 83 10000 0.89 9 20:27 03.02.2022
3979 Fog 14 1019 81 1500 1.34 328 19:59 03.02.2022
3980 Fog 14 1018 78 8000 2.24 327 19:26 03.02.2022
3981 Fog 16 1017 74 800 3.6 230 18:26 03.02.2022
3982 Clouds 17 1018 70 10000 0.45 219 17:32 03.02.2022
3983 Clear 18 1017 63 10000 1.79 263 15:53 03.02.2022
3984 Clear 17 1018 62 10000 0.45 107 14:26 03.02.2022
3985 Clear 16 1019 56 10000 0.89 116 12:40 03.02.2022
3986 Clear 13 1021 71 10000 3.6 330 10:35 03.02.2022
3987 Clear 9 1021 75 10000 3.6 330 08:23 03.02.2022
3988 Clear 11 1021 68 10000 2.24 245 03:28 03.02.2022
3989 Clear 12 1022 66 10000 2.24 248 00:30 03.02.2022
3990 Clear 12 1022 66 10000 3.13 247 22:47 02.02.2022
3991 Clear 12 1022 69 10000 1.34 267 21:53 02.02.2022
3992 Clear 13 1022 70 10000 2.24 263 21:30 02.02.2022
3993 Clear 12 1022 75 10000 0 0 20:33 02.02.2022
3994 Clear 13 1023 78 10000 0.45 280 19:51 02.02.2022
3995 Clear 13 1023 78 10000 2.57 230 19:20 02.02.2022
3996 Clear 14 1023 75 10000 0.45 318 18:27 02.02.2022
3997 Clear 16 1023 69 10000 2.06 180 17:37 02.02.2022
3998 Clear 16 1023 69 10000 2.06 180 17:18 02.02.2022
3999 Clear 16 1023 69 10000 2.06 180 17:18 02.02.2022
4000 Clear 17 1023 63 10000 0.89 133 16:30 02.02.2022
4001 Clear 16 1024 58 10000 0.45 254 12:54 02.02.2022
4002 Clear 15 1025 57 10000 0.45 150 11:51 02.02.2022
4003 Clear 14 1024 59 10000 3.09 330 11:31 02.02.2022
4004 Clear 11 1025 65 10000 0.45 62 09:46 02.02.2022
4005 Clear 10 1022 70 10000 4.02 236 06:18 02.02.2022
4006 Clear 12 1025 53 10000 4.02 288 22:44 01.02.2022
4007 Clear 13 1024 55 10000 2.68 245 21:30 01.02.2022
4008 Clouds 13 1025 59 10000 1.34 86 19:57 01.02.2022
4009 Clouds 15 1023 52 10000 0.45 244 17:38 01.02.2022
4010 Clouds 16 1023 48 10000 0.89 244 16:33 01.02.2022
4011 Clear 14 1023 48 10000 0.45 312 13:28 01.02.2022
4012 Clear 13 1024 47 10000 0.45 232 12:28 01.02.2022
4013 Clear 10 1023 58 10000 1.34 290 10:44 01.02.2022
4014 Clouds 9 1020 86 7000 3.6 330 02:30 01.02.2022
4015 Clear 9 1019 85 10000 0.51 0 23:40 31.01.2022
4016 Clear 10 1019 84 10000 0.51 0 22:43 31.01.2022
4017 Clouds 10 1018 82 10000 0.45 283 21:38 31.01.2022
4018 Clouds 10 1019 83 10000 1.03 0 20:45 31.01.2022
4019 Clouds 11 1018 82 10000 0 0 20:26 31.01.2022
4020 Clouds 12 1018 78 10000 2.06 220 18:54 31.01.2022
4021 Clouds 13 1018 75 9000 1.03 0 18:20 31.01.2022
4022 Clear 14 1018 69 9000 0.45 153 17:25 31.01.2022
4023 Clear 15 1018 66 10000 0.45 140 16:25 31.01.2022
4024 Clouds 15 1019 61 10000 0.89 266 14:54 31.01.2022
4025 Clouds 14 1020 63 10000 0.89 65 13:43 31.01.2022
4026 Clouds 14 1021 59 10000 0.89 55 12:38 31.01.2022
4027 Clouds 13 1022 54 10000 0.45 302 11:42 31.01.2022
4028 Clouds 11 1021 56 10000 1.79 304 10:49 31.01.2022
4029 Clear 10 1021 60 10000 1.34 297 09:45 31.01.2022
4030 Clear 9 1021 61 10000 0.45 296 08:58 31.01.2022
4031 Clear 9 1021 61 10000 0.89 105 08:38 31.01.2022
4032 Clear 9 1021 60 10000 0.89 281 08:19 31.01.2022
4033 Clouds 10 1020 56 10000 5.36 286 06:18 31.01.2022
4034 Clear 11 1022 49 10000 4.92 300 00:44 31.01.2022
4035 Clear 12 1023 42 10000 3.58 259 22:34 30.01.2022
4036 Clear 12 1023 41 10000 0.89 0 21:56 30.01.2022
4037 Clear 13 1023 41 10000 0.45 0 21:37 30.01.2022
4038 Clear 13 1023 40 10000 1.34 91 21:18 30.01.2022
4039 Clear 13 1023 40 10000 1.79 40 20:43 30.01.2022
4040 Clear 13 1023 40 10000 0.45 0 20:25 30.01.2022
4041 Clear 14 1023 43 10000 0.89 218 19:23 30.01.2022
4042 Clear 15 1023 48 10000 0.89 298 18:35 30.01.2022
4043 Clear 16 1023 47 10000 3.6 220 17:53 30.01.2022
4044 Clear 17 1023 46 10000 5.14 220 17:20 30.01.2022
4045 Clear 17 1024 51 10000 6.17 220 16:37 30.01.2022
4046 Clear 18 1024 45 10000 0.45 203 16:19 30.01.2022
4047 Clear 18 1024 46 10000 0.45 64 15:48 30.01.2022
4048 Clear 18 1024 45 10000 0.45 298 15:30 30.01.2022
4049 Clear 18 1024 44 10000 0.89 196 14:45 30.01.2022
4050 Clear 15 1027 43 10000 3.13 249 12:46 30.01.2022
4051 Clear 14 1028 47 10000 3.13 248 11:53 30.01.2022
4052 Clear 10 1027 55 10000 3.58 253 10:27 30.01.2022
4053 Clear 10 1028 57 10000 3.13 245 09:48 30.01.2022
4054 Clear 9 1028 57 10000 3.58 253 08:52 30.01.2022
4055 Clear 8 1027 60 10000 2.68 259 06:55 30.01.2022
4056 Clear 9 1029 57 10000 1.34 227 01:55 30.01.2022
4057 Haze 10 1030 55 10000 0.45 257 00:22 30.01.2022
4058 Clear 10 1030 59 10000 3.58 238 22:58 29.01.2022
4059 Clear 10 1030 61 10000 1.34 271 21:47 29.01.2022
4060 Clear 11 1030 62 10000 0.89 278 21:23 29.01.2022
4061 Clear 11 1030 63 10000 0.45 295 20:22 29.01.2022
4062 Clear 12 1030 63 10000 1.54 210 19:33 29.01.2022
4063 Clear 12 1030 62 10000 2.06 220 18:51 29.01.2022
4064 Clear 13 1030 59 10000 3.09 200 18:18 29.01.2022
4065 Clear 15 1030 54 10000 3.09 230 17:28 29.01.2022
4066 Clear 16 1031 50 10000 0.89 136 15:50 29.01.2022
4067 Clear 16 1032 48 10000 0.45 95 13:59 29.01.2022
4068 Clear 16 1032 46 10000 0.89 176 13:41 29.01.2022
4069 Clear 16 1032 45 10000 1.34 237 13:22 29.01.2022
4070 Clear 13 1032 47 10000 1.34 246 11:40 29.01.2022
4071 Clear 12 1033 46 10000 1.79 304 10:54 29.01.2022
4072 Clear 9 1032 53 10000 4.47 186 08:42 29.01.2022
4073 Clear 9 1031 51 10000 6.26 285 06:37 29.01.2022
4074 Clear 10 1030 47 10000 3.13 246 00:34 29.01.2022
4075 Clear 10 1030 50 10000 2.68 249 23:44 28.01.2022
4076 Clear 10 1030 46 10000 3.58 247 22:50 28.01.2022
4077 Clear 11 1030 46 10000 3.13 246 22:21 28.01.2022
4078 Clear 11 1030 45 10000 3.13 240 21:35 28.01.2022
4079 Clear 12 1029 44 10000 2.68 257 20:29 28.01.2022
4080 Clear 13 1029 42 10000 4.02 260 19:28 28.01.2022
4081 Clear 14 1028 46 10000 4.02 308 18:42 28.01.2022
4082 Clear 17 1027 37 10000 0.89 313 16:45 28.01.2022
4083 Clear 17 1027 37 10000 0.89 277 15:18 28.01.2022
4084 Clear 16 1028 36 10000 2.68 314 13:37 28.01.2022
4085 Clear 14 1030 45 10000 3.58 240 12:27 28.01.2022
4086 Clear 11 1029 52 10000 4.92 250 10:49 28.01.2022
4087 Clear 9 1029 57 10000 4.92 303 09:49 28.01.2022
4088 Clear 7 1029 60 10000 3.58 252 07:43 28.01.2022
4089 Clear 8 1029 60 10000 1.79 297 06:44 28.01.2022
4090 Clear 8 1029 60 10000 2.24 289 03:56 28.01.2022
4091 Clear 8 1029 60 10000 4.47 329 02:31 28.01.2022
4092 Clear 9 1029 61 10000 2.24 269 01:59 28.01.2022
4093 Clear 9 1028 61 10000 1.79 321 01:30 28.01.2022
4094 Clear 9 1029 73 9000 2.24 262 22:48 27.01.2022
4095 Clear 9 1029 81 9000 0.89 267 21:46 27.01.2022
4096 Clear 9 1028 79 9000 1.79 269 21:28 27.01.2022
4097 Clear 10 1027 84 10000 1.03 280 20:24 27.01.2022
4098 Clear 12 1028 82 10000 0.51 110 18:26 27.01.2022
4099 Clear 14 1028 77 10000 1.54 110 17:34 27.01.2022
4100 Clear 15 1029 64 10000 0.45 80 14:34 27.01.2022
4101 Clear 15 1029 54 10000 0.45 0 13:24 27.01.2022
4102 Clear 14 1030 50 10000 0.89 62 12:39 27.01.2022
4103 Clear 9 1030 58 10000 2.24 241 09:56 27.01.2022
4104 Clear 8 1029 59 10000 3.13 240 08:48 27.01.2022
4105 Clear 8 1029 58 10000 2.24 298 08:28 27.01.2022
4106 Clear 9 1029 51 10000 1.79 258 03:47 27.01.2022
4107 Clear 10 1028 48 10000 1.79 268 01:45 27.01.2022
4108 Clear 11 1029 54 10000 3.13 228 22:39 26.01.2022
4109 Clear 11 1028 58 10000 1.79 288 21:45 26.01.2022
4110 Clear 11 1028 61 10000 1.79 288 21:26 26.01.2022
4111 Clear 11 1028 68 10000 1.79 267 20:35 26.01.2022
4112 Clear 11 1028 72 10000 0.45 292 19:54 26.01.2022
4113 Clear 11 1028 72 10000 0.89 276 19:19 26.01.2022
4114 Clear 13 1027 67 10000 0.89 252 18:26 26.01.2022
4115 Clear 13 1027 66 10000 0.45 305 17:49 26.01.2022
4116 Clear 15 1028 62 10000 0.89 210 17:19 26.01.2022
4117 Clear 15 1028 61 10000 0.45 0 16:26 26.01.2022
4118 Clear 15 1028 59 10000 0.45 265 15:45 26.01.2022
4119 Clear 13 1030 54 10000 0.45 71 12:54 26.01.2022
4120 Clear 12 1031 59 9000 0.89 243 11:34 26.01.2022
4121 Clear 9 1031 66 10000 1.34 248 10:19 26.01.2022
4122 Clear 9 1031 66 10000 1.79 240 09:42 26.01.2022
4123 Clouds 7 1030 69 10000 0.45 344 07:32 26.01.2022
4124 Mist 7 1032 83 10000 0.89 247 00:48 26.01.2022
4125 Mist 7 1032 83 10000 0.89 247 00:48 26.01.2022
4126 Clouds 8 1032 82 10000 0.45 252 23:48 25.01.2022
4127 Clouds 8 1032 84 10000 0.89 310 22:50 25.01.2022
4128 Clouds 8 1032 83 10000 2.06 320 22:50 25.01.2022
4129 Clouds 8 1032 84 10000 0.89 310 22:50 25.01.2022
4130 Clouds 8 1031 85 10000 2.06 310 22:21 25.01.2022
4131 Clouds 8 1032 85 10000 1.03 280 21:41 25.01.2022
4132 Clouds 9 1032 85 10000 0.51 0 20:46 25.01.2022
4133 Clouds 9 1032 83 10000 0 0 20:21 25.01.2022
4134 Clouds 10 1032 83 10000 0.45 289 19:44 25.01.2022
4135 Clear 11 1032 80 10000 2.06 200 18:22 25.01.2022
4136 Clear 12 1031 76 10000 2.06 180 17:42 25.01.2022
4137 Clear 13 1031 71 10000 3.09 200 16:35 25.01.2022
4138 Clouds 14 1031 66 10000 0.45 177 15:44 25.01.2022
4139 Clouds 14 1031 66 10000 0.45 0 15:26 25.01.2022
4140 Clouds 14 1031 64 10000 0.45 176 14:57 25.01.2022
4141 Clouds 14 1031 65 10000 0.45 177 14:57 25.01.2022
4142 Clear 13 1032 62 10000 0.89 350 13:18 25.01.2022
4143 Clear 8 1033 76 10000 3.13 248 10:00 25.01.2022
4144 Clouds 6 1032 78 10000 2.24 245 08:32 25.01.2022
4145 Clouds 6 1032 77 10000 1.34 251 07:28 25.01.2022
4146 Clouds 6 1032 78 10000 0.45 303 06:22 25.01.2022
4147 Clouds 7 1032 83 10000 5.14 330 01:34 25.01.2022
4148 Clouds 7 1031 85 10000 3.6 320 23:36 24.01.2022
4149 Clouds 7 1031 85 10000 3.6 320 23:18 24.01.2022
4150 Clouds 7 1031 84 10000 1.54 320 22:59 24.01.2022
4151 Clouds 8 1031 84 10000 2.57 320 22:41 24.01.2022
4152 Clouds 8 1031 82 10000 1.03 0 21:45 24.01.2022
4153 Clouds 8 1031 82 10000 1.03 0 21:27 24.01.2022
4154 Clouds 9 1030 81 10000 1.54 280 20:29 24.01.2022
4155 Clouds 9 1030 79 10000 2.06 220 19:39 24.01.2022
4156 Clouds 10 1030 78 10000 1.54 200 18:55 24.01.2022
4157 Clouds 12 1029 70 10000 0.45 157 17:44 24.01.2022
4158 Clouds 13 1029 68 10000 0.89 221 17:23 24.01.2022
4159 Clouds 13 1028 65 10000 0.45 61 16:32 24.01.2022
4160 Clouds 13 1028 64 10000 0.45 210 15:52 24.01.2022
4161 Clouds 13 1029 64 10000 0.51 90 14:27 24.01.2022
4162 Clouds 11 1030 67 10000 0.89 265 12:36 24.01.2022
4163 Clouds 10 1030 71 10000 5.14 330 11:53 24.01.2022
4164 Clouds 7 1030 80 10000 0.89 267 10:25 24.01.2022
4165 Clouds 7 1030 82 10000 0.45 297 09:47 24.01.2022
4166 Clouds 5 1029 81 10000 1.34 335 08:19 24.01.2022
4167 Clouds 6 1028 85 10000 0.45 267 02:51 24.01.2022
4168 Clouds 7 1028 85 10000 0.45 303 01:28 24.01.2022
4169 Clouds 7 1028 84 10000 0.45 282 00:34 24.01.2022
4170 Clouds 7 1029 84 10000 0.45 295 23:47 23.01.2022
4171 Clouds 7 1028 83 10000 0.45 289 22:21 23.01.2022
4172 Clouds 7 1028 82 10000 0.45 287 21:42 23.01.2022
4173 Clouds 7 1027 82 10000 0.89 284 21:24 23.01.2022
4174 Clouds 8 1028 81 10000 2.06 310 20:29 23.01.2022
4175 Clouds 9 1028 79 10000 1.54 310 19:21 23.01.2022
4176 Clouds 10 1027 77 10000 1.54 230 18:44 23.01.2022
4177 Clouds 11 1027 71 10000 0.89 176 17:28 23.01.2022
4178 Clouds 12 1027 67 10000 0.45 317 16:38 23.01.2022
4179 Clouds 12 1027 64 10000 0.89 188 14:56 23.01.2022
4180 Clouds 12 1027 62 10000 1.34 180 14:19 23.01.2022
4181 Clear 11 1029 60 10000 0.89 113 12:49 23.01.2022
4182 Clear 10 1028 60 10000 0.45 117 12:21 23.01.2022
4183 Clear 9 1030 60 10000 0.45 182 11:51 23.01.2022
4184 Clear 8 1030 63 10000 0.45 280 11:18 23.01.2022
4185 Clear 7 1030 67 10000 0.89 252 10:26 23.01.2022
4186 Clouds 7 1029 69 10000 0.45 257 09:39 23.01.2022
4187 Clouds 5 1029 72 10000 6.69 330 08:51 23.01.2022
4188 Clear 5 1028 73 10000 0.45 285 05:55 23.01.2022
4189 Clear 5 1029 67 10000 0.89 313 01:49 23.01.2022
4190 Clear 5 1029 67 10000 0.89 360 01:25 23.01.2022
4191 Clear 6 1030 64 10000 0.45 250 00:23 23.01.2022
4192 Clear 6 1029 62 10000 0.45 307 23:35 22.01.2022
4193 Clear 6 1029 61 10000 0.89 263 22:34 22.01.2022
4194 Clear 7 1029 60 10000 0.45 261 21:28 22.01.2022
4195 Clear 7 1029 60 10000 0.89 311 19:51 22.01.2022
4196 Clear 9 1028 55 10000 0.45 294 18:49 22.01.2022
4197 Clear 10 1028 51 10000 0.45 292 17:59 22.01.2022
4198 Clear 11 1028 50 10000 5.14 240 17:35 22.01.2022
4199 Clear 11 1028 48 10000 0.45 210 16:55 22.01.2022
4200 Clear 11 1028 49 10000 1.34 291 15:49 22.01.2022
4201 Clear 11 1028 49 10000 0.89 68 14:58 22.01.2022
4202 Clear 10 1029 52 10000 0.45 84 13:42 22.01.2022
4203 Clouds 9 1030 55 10000 1.34 308 12:50 22.01.2022
4204 Clouds 8 1030 58 10000 0.45 0 12:28 22.01.2022
4205 Clouds 6 1031 63 10000 3.58 243 10:56 22.01.2022
4206 Clouds 5 1030 66 10000 1.79 298 10:29 22.01.2022
4207 Clouds 5 1030 68 10000 0.89 298 09:59 22.01.2022
4208 Clouds 3 1030 70 10000 1.79 296 08:52 22.01.2022
4209 Clouds 4 1030 69 10000 0.89 344 07:38 22.01.2022
4210 Clouds 4 1029 68 10000 2.24 256 04:52 22.01.2022
4211 Clouds 6 1029 73 10000 1.79 279 01:35 22.01.2022
4212 Clouds 6 1028 72 10000 1.34 304 23:38 21.01.2022
4213 Clouds 7 1028 70 10000 0.89 311 22:28 21.01.2022
4214 Clouds 7 1027 68 10000 0.89 294 20:28 21.01.2022
4215 Clouds 8 1026 64 10000 0.89 244 18:40 21.01.2022
4216 Clouds 9 1025 63 10000 2.24 284 17:31 21.01.2022
4217 Clouds 10 1024 62 10000 1.34 304 15:42 21.01.2022
4218 Clouds 10 1025 65 10000 1.34 346 13:51 21.01.2022
4219 Fog 9 1025 69 10000 0.89 360 12:38 21.01.2022
4220 Clouds 8 1025 76 10000 0.89 272 11:28 21.01.2022
4221 Clouds 7 1025 79 10000 0.89 342 10:19 21.01.2022
4222 Clouds 5 1024 81 10000 1.79 284 08:25 21.01.2022
4223 Clouds 6 1023 80 9000 1.34 101 06:57 21.01.2022
4224 Clear 7 1024 72 10000 0.89 289 23:40 20.01.2022
4225 Clear 8 1024 71 10000 3.13 225 22:41 20.01.2022
4226 Clear 8 1024 69 10000 3.13 286 21:43 20.01.2022
4227 Clear 9 1024 69 10000 3.58 277 20:56 20.01.2022
4228 Clear 9 1024 72 10000 0.45 288 19:21 20.01.2022
4229 Clear 10 1024 71 10000 2.57 240 18:51 20.01.2022
4230 Clouds 12 1024 65 10000 0.45 233 17:30 20.01.2022
4231 Clouds 13 1025 63 10000 0.45 74 15:45 20.01.2022
4232 Clouds 13 1025 62 10000 0.45 149 15:24 20.01.2022
4233 Clear 13 1026 60 10000 1.79 250 13:42 20.01.2022
4234 Clouds 11 1027 65 9000 0.89 268 12:38 20.01.2022
4235 Clouds 11 1027 65 8000 1.79 249 11:57 20.01.2022
4236 Clouds 9 1028 71 8000 0.45 305 10:47 20.01.2022
4237 Clouds 7 1027 77 9000 1.79 284 09:42 20.01.2022
4238 Mist 6 1027 80 10000 1.79 298 08:35 20.01.2022
4239 Mist 6 1027 81 10000 2.24 124 05:38 20.01.2022
4240 Mist 7 1029 84 10000 4.63 330 23:42 19.01.2022
4241 Clouds 8 1029 83 10000 3.09 330 22:37 19.01.2022
4242 Clouds 8 1029 84 10000 2.06 320 21:24 19.01.2022
4243 Clouds 8 1029 84 10000 1.03 310 20:51 19.01.2022
4244 Clouds 8 1029 82 9000 0.45 306 19:58 19.01.2022
4245 Clouds 9 1029 81 10000 0 0 18:48 19.01.2022
4246 Clouds 10 1029 76 10000 0.45 217 17:50 19.01.2022
4247 Clouds 12 1029 70 10000 0.45 134 16:59 19.01.2022
4248 Clouds 12 1029 64 10000 0.45 142 14:42 19.01.2022
4249 Clouds 11 1030 69 9000 0.89 288 12:53 19.01.2022
4250 Clouds 10 1031 73 10000 1.34 231 11:43 19.01.2022
4251 Clouds 8 1032 78 9000 0.89 0 10:38 19.01.2022
4252 Clouds 7 1032 79 10000 1.34 0 09:34 19.01.2022
4253 Mist 5 1031 84 10000 0.89 254 07:34 19.01.2022
4254 Clouds 6 1030 85 10000 1.79 278 05:19 19.01.2022
4255 Clouds 7 1032 87 10000 1.34 299 23:53 18.01.2022
4256 Clouds 8 1032 87 10000 1.34 289 23:18 18.01.2022
4257 Clouds 8 1032 86 10000 0.45 275 21:43 18.01.2022
4258 Clouds 9 1031 83 10000 0.45 54 19:57 18.01.2022
4259 Clouds 9 1031 82 10000 0.89 37 19:38 18.01.2022
4260 Clouds 9 1031 82 10000 0.45 291 19:18 18.01.2022
4261 Clouds 11 1030 80 10000 1.34 130 18:18 18.01.2022
4262 Clouds 12 1030 76 10000 2.24 117 17:29 18.01.2022
4263 Clouds 13 1030 72 10000 0.89 134 15:56 18.01.2022
4264 Clouds 13 1030 70 10000 0.89 52 15:24 18.01.2022
4265 Clear 13 1030 65 10000 0.89 0 14:18 18.01.2022
4266 Clear 9 1031 55 10000 2.24 280 11:20 18.01.2022
4267 Clear 8 1030 59 10000 3.13 286 09:58 18.01.2022
4268 Clear 6 1029 64 10000 2.24 263 08:19 18.01.2022
4269 Clear 6 1028 64 10000 0.45 65 07:31 18.01.2022
4270 Clear 7 1029 56 10000 3.58 259 00:22 18.01.2022
4271 Clear 8 1030 52 10000 3.13 254 22:31 17.01.2022
4272 Clear 8 1029 51 10000 0.45 151 21:36 17.01.2022
4273 Clear 9 1030 51 10000 0.89 128 20:39 17.01.2022
4274 Clear 11 1029 57 10000 0.89 261 18:46 17.01.2022
4275 Clear 11 1029 56 10000 3.09 250 18:23 17.01.2022
4276 Clear 14 1030 48 10000 1.34 172 16:53 17.01.2022
4277 Clear 15 1030 38 10000 1.34 0 15:47 17.01.2022
4278 Clear 15 1030 39 10000 0.89 259 14:58 17.01.2022
4279 Clear 14 1030 38 10000 0.45 131 14:22 17.01.2022
4280 Clear 12 1032 42 10000 1.34 317 12:58 17.01.2022
4281 Clear 11 1032 45 10000 2.68 244 11:51 17.01.2022
4282 Clear 10 1031 49 10000 3.58 227 10:47 17.01.2022
4283 Clouds 8 1031 53 10000 4.47 298 09:35 17.01.2022
4284 Clouds 7 1031 52 10000 2.24 248 08:43 17.01.2022
4285 Clouds 7 1031 51 10000 4.92 292 07:19 17.01.2022
4286 Clear 7 1031 48 10000 4.47 279 00:58 17.01.2022
4287 Clear 7 1030 50 10000 1.79 297 23:27 16.01.2022
4288 Clear 8 1030 53 10000 2.24 279 20:41 16.01.2022
4289 Clear 8 1030 57 10000 1.79 269 19:55 16.01.2022
4290 Clear 10 1028 54 10000 1.54 220 18:45 16.01.2022
4291 Clear 12 1028 49 10000 2.06 220 17:46 16.01.2022
4292 Clear 13 1028 42 10000 3.09 210 16:52 16.01.2022
4293 Clear 13 1027 41 10000 0.45 127 15:39 16.01.2022
4294 Clear 13 1028 39 10000 0.45 89 14:29 16.01.2022
4295 Clear 13 1028 39 10000 0.45 89 14:29 16.01.2022
4296 Clear 12 1028 44 10000 0.45 67 12:57 16.01.2022
4297 Clear 10 1029 48 10000 0.45 315 11:49 16.01.2022
4298 Clear 8 1029 53 10000 1.34 261 10:58 16.01.2022
4299 Clear 6 1028 57 10000 1.79 296 10:27 16.01.2022
4300 Clear 7 1028 56 10000 1.34 199 09:57 16.01.2022
4301 Clear 6 1027 57 10000 2.24 296 09:23 16.01.2022
4302 Clear 5 1028 59 10000 0.45 157 08:52 16.01.2022
4303 Clear 5 1026 61 10000 0.45 279 05:35 16.01.2022
4304 Clear 6 1026 56 10000 4.47 291 23:51 15.01.2022
4305 Clear 7 1026 52 10000 4.92 259 22:37 15.01.2022
4306 Clear 8 1027 49 10000 3.58 246 21:21 15.01.2022
4307 Clear 8 1026 49 10000 4.02 250 20:43 15.01.2022
4308 Clear 9 1025 48 10000 2.68 244 19:52 15.01.2022
4309 Clear 9 1025 49 10000 2.24 291 19:19 15.01.2022
4310 Clear 12 1025 49 10000 0.45 218 17:49 15.01.2022
4311 Clear 13 1025 46 10000 0.45 0 16:38 15.01.2022
4312 Clear 13 1025 40 10000 0.45 91 13:57 15.01.2022
4313 Clear 10 1026 45 10000 0.45 96 12:33 15.01.2022
4314 Clear 9 1027 50 10000 0.89 63 11:19 15.01.2022
4315 Clear 6 1027 60 10000 4.02 235 09:21 15.01.2022
4316 Clouds 7 1029 78 10000 2.24 258 00:52 15.01.2022
4317 Clear 8 1031 80 10000 0.45 323 21:57 14.01.2022
4318 Clear 8 1030 79 10000 2.06 320 20:51 14.01.2022
4319 Clear 8 1031 79 10000 1.54 300 20:23 14.01.2022
4320 Clear 9 1031 79 10000 1.03 0 19:48 14.01.2022
4321 Clear 10 1031 74 10000 0 0 18:28 14.01.2022
4322 Clouds 13 1031 61 10000 2.57 130 16:50 14.01.2022
4323 Clouds 13 1031 59 10000 3.09 120 15:48 14.01.2022
4324 Clouds 13 1032 57 10000 0.89 67 14:47 14.01.2022
4325 Clouds 13 1032 55 10000 0.89 343 13:47 14.01.2022
4326 Clouds 11 1033 52 10000 1.79 296 12:31 14.01.2022
4327 Clear 9 1034 51 10000 0.89 294 11:27 14.01.2022
4328 Clouds 8 1034 61 10000 1.34 294 09:51 14.01.2022
4329 Clouds 6 1034 64 10000 2.68 285 08:52 14.01.2022
4330 Clouds 6 1033 63 10000 2.24 321 07:21 14.01.2022
4331 Clear 7 1034 61 10000 1.34 275 01:37 14.01.2022
4332 Clear 7 1035 67 10000 4.12 330 23:32 13.01.2022
4333 Clear 7 1034 74 10000 2.68 292 21:41 13.01.2022
4334 Clear 8 1034 73 10000 1.79 271 21:23 13.01.2022
4335 Clear 8 1034 75 10000 1.03 30 19:41 13.01.2022
4336 Clear 8 1034 74 10000 1.03 30 19:22 13.01.2022
4337 Clear 11 1034 65 10000 1.03 140 17:56 13.01.2022
4338 Clear 12 1032 58 10000 1.54 160 16:22 13.01.2022
4339 Clear 12 1033 57 10000 2.57 140 15:37 13.01.2022
4340 Clear 12 1033 55 10000 0.45 201 14:49 13.01.2022
4341 Clear 11 1034 59 10000 0.89 240 12:46 13.01.2022
4342 Clear 7 1034 74 10000 0.89 0 10:25 13.01.2022
4343 Clear 6 1033 77 10000 0.89 300 09:20 13.01.2022
4344 Clear 5 1033 78 10000 0.89 320 08:27 13.01.2022
4345 Clear 5 1033 77 10000 0.45 297 07:24 13.01.2022
4346 Clear 5 1032 79 10000 0.45 312 06:41 13.01.2022
4347 Clear 5 1033 80 10000 0.89 312 05:20 13.01.2022
4348 Clear 6 1032 82 10000 1.34 307 03:24 13.01.2022
4349 Clouds 7 1032 79 10000 3.6 320 00:56 13.01.2022
4350 Clouds 7 1032 77 10000 3.6 330 23:50 12.01.2022
4351 Clouds 7 1032 76 10000 3.6 330 23:30 12.01.2022
4352 Clouds 8 1032 74 10000 2.57 310 21:58 12.01.2022
4353 Clouds 8 1032 73 10000 1.54 330 21:23 12.01.2022
4354 Clouds 8 1031 75 10000 0.45 26 20:57 12.01.2022
4355 Clouds 9 1031 74 10000 0.45 322 20:19 12.01.2022
4356 Clouds 10 1030 71 10000 0.45 90 18:48 12.01.2022
4357 Clouds 10 1030 69 10000 0.45 142 17:51 12.01.2022
4358 Clouds 12 1029 67 10000 0.45 116 16:42 12.01.2022
4359 Clouds 12 1029 68 10000 0.45 65 14:49 12.01.2022
4360 Clouds 12 1029 71 10000 0.89 58 13:37 12.01.2022
4361 Clouds 12 1029 69 10000 0.45 61 12:56 12.01.2022
4362 Clouds 8 1028 80 10000 0.89 294 08:55 12.01.2022
4363 Clouds 8 1027 81 10000 0.89 253 07:55 12.01.2022
4364 Clouds 8 1027 82 10000 0.45 252 07:32 12.01.2022
4365 Clouds 10 1026 78 10000 2.68 123 02:20 12.01.2022
4366 Clouds 10 1025 79 10000 4.92 164 23:26 11.01.2022
4367 Clouds 9 1025 81 10000 1.54 320 22:25 11.01.2022
4368 Clouds 10 1024 80 10000 2.06 310 21:28 11.01.2022
4369 Clouds 10 1023 80 10000 0.45 337 20:36 11.01.2022
4370 Clouds 11 1023 80 10000 0.45 290 19:23 11.01.2022
4371 Clouds 13 1022 75 10000 6.17 240 17:53 11.01.2022
4372 Clouds 15 1022 67 10000 0.45 129 16:39 11.01.2022
4373 Clouds 15 1022 65 10000 0.45 129 16:18 11.01.2022
4374 Clouds 14 1022 61 10000 0.45 305 14:50 11.01.2022
4375 Clouds 14 1022 61 10000 0.89 260 14:32 11.01.2022
4376 Clouds 14 1022 65 10000 0.45 203 13:48 11.01.2022
4377 Clouds 13 1023 73 10000 0.45 75 13:25 11.01.2022
4378 Clouds 12 1022 80 10000 0.45 264 12:25 11.01.2022
4379 Clouds 9 1023 86 10000 1.34 73 10:31 11.01.2022
4380 Clouds 8 1022 81 7000 0.45 269 07:50 11.01.2022
4381 Clouds 9 1021 84 10000 0.89 309 03:51 11.01.2022
4382 Clouds 10 1020 84 10000 1.79 251 00:27 11.01.2022
4383 Clouds 10 1019 84 10000 2.24 277 23:39 10.01.2022
4384 Clouds 10 1019 85 10000 2.68 261 22:39 10.01.2022
4385 Clouds 10 1019 84 10000 1.34 265 22:18 10.01.2022
4386 Clouds 10 1018 84 10000 1.79 259 21:33 10.01.2022
4387 Clouds 10 1018 84 10000 1.34 241 20:59 10.01.2022
4388 Clouds 10 1018 83 10000 0.45 321 20:41 10.01.2022
4389 Clouds 10 1018 83 10000 1.34 242 20:19 10.01.2022
4390 Clouds 10 1017 84 10000 0.45 307 19:38 10.01.2022
4391 Clouds 10 1017 84 10000 1.34 285 19:19 10.01.2022
4392 Clouds 10 1016 83 10000 0.45 0 18:46 10.01.2022
4393 Drizzle 10 1016 84 10000 0.89 319 16:49 10.01.2022
4394 Drizzle 10 1015 85 10000 1.54 20 16:27 10.01.2022
4395 Drizzle 10 1015 85 6000 1.79 123 14:44 10.01.2022
4396 Drizzle 10 1015 86 4000 2.24 116 13:35 10.01.2022
4397 Clouds 10 1014 86 10000 0.89 126 11:57 10.01.2022
4398 Drizzle 10 1013 86 10000 5.66 70 10:50 10.01.2022
4399 Drizzle 11 1012 85 8000 3.13 113 09:40 10.01.2022
4400 Clouds 10 1010 83 10000 3.09 60 05:52 10.01.2022
4401 Clouds 10 1010 82 10000 1.34 0 02:38 10.01.2022
4402 Clouds 10 1010 80 10000 0.89 305 01:21 10.01.2022
4403 Clouds 11 1011 77 10000 0.51 0 00:21 10.01.2022
4404 Clouds 11 1011 73 10000 2.57 40 22:47 09.01.2022
4405 Clouds 11 1011 73 10000 0.89 68 22:21 09.01.2022
4406 Clouds 12 1011 72 10000 0.45 0 21:42 09.01.2022
4407 Clouds 12 1011 71 10000 0.45 0 21:22 09.01.2022
4408 Clouds 12 1011 70 10000 1.34 269 20:47 09.01.2022
4409 Clouds 12 1011 70 10000 1.79 293 20:29 09.01.2022
4410 Clouds 13 1012 68 10000 0.89 255 19:42 09.01.2022
4411 Clouds 13 1012 67 10000 0.89 333 19:21 09.01.2022
4412 Clouds 13 1011 65 10000 1.34 288 18:47 09.01.2022
4413 Clouds 13 1011 63 10000 1.34 0 18:28 09.01.2022
4414 Clouds 14 1011 60 10000 0.45 0 17:30 09.01.2022
4415 Clouds 15 1011 57 10000 1.79 265 16:50 09.01.2022
4416 Clouds 15 1011 56 10000 2.24 293 15:52 09.01.2022
4417 Clouds 15 1011 57 10000 1.79 283 15:33 09.01.2022
4418 Clouds 14 1012 59 10000 3.58 281 14:39 09.01.2022
4419 Clouds 14 1012 60 10000 1.34 282 13:50 09.01.2022
4420 Clouds 13 1013 64 10000 4.02 316 12:31 09.01.2022
4421 Clouds 13 1014 66 10000 1.34 350 11:47 09.01.2022
4422 Clouds 11 1014 71 10000 2.24 60 09:56 09.01.2022
4423 Clouds 10 1014 71 10000 1.79 17 09:29 09.01.2022
4424 Clouds 10 1014 70 10000 0.89 292 08:25 09.01.2022
4425 Clouds 10 1014 58 10000 3.13 318 02:31 09.01.2022
4426 Clouds 10 1014 54 10000 4.02 0 01:20 09.01.2022
4427 Clouds 10 1016 57 10000 0.89 282 23:38 08.01.2022
4428 Clouds 10 1016 57 10000 1.34 299 22:59 08.01.2022
4429 Clouds 11 1017 60 10000 0.45 80 21:33 08.01.2022
4430 Clouds 11 1017 63 10000 1.34 278 20:45 08.01.2022
4431 Clouds 11 1017 63 10000 1.34 277 20:23 08.01.2022
4432 Clouds 11 1018 65 10000 1.34 26 19:58 08.01.2022
4433 Clouds 12 1019 65 10000 0.45 325 17:51 08.01.2022
4434 Clear 12 1019 65 10000 0.89 279 17:21 08.01.2022
4435 Clear 13 1020 61 10000 0.89 338 15:47 08.01.2022
4436 Clouds 12 1021 63 10000 0.89 254 14:41 08.01.2022
4437 Clear 10 1022 67 10000 0.45 186 12:44 08.01.2022
4438 Clouds 8 1023 71 10000 2.24 226 10:59 08.01.2022
4439 Clouds 8 1023 70 10000 0.89 283 10:25 08.01.2022
4440 Clouds 7 1023 72 10000 3.58 296 09:44 08.01.2022
4441 Clouds 7 1022 70 10000 4.02 280 07:19 08.01.2022
4442 Clouds 8 1023 63 10000 1.34 287 02:39 08.01.2022
4443 Clear 7 1023 64 10000 2.24 223 00:41 08.01.2022
4444 Clear 7 1024 62 10000 1.34 269 22:40 07.01.2022
4445 Clouds 7 1024 65 10000 0.89 284 20:56 07.01.2022
4446 Clouds 7 1024 66 10000 3.09 290 19:56 07.01.2022
4447 Clouds 8 1023 66 10000 3.09 290 19:56 07.01.2022
4448 Clouds 8 1023 64 10000 0.51 70 18:58 07.01.2022
4449 Clouds 9 1023 62 10000 1.54 100 18:38 07.01.2022
4450 Clear 11 1023 53 10000 1.03 220 17:25 07.01.2022
4451 Clear 12 1022 49 10000 0.45 256 16:23 07.01.2022
4452 Clear 11 1021 46 10000 0.45 43 13:53 07.01.2022
4453 Clear 10 1022 48 10000 0.45 172 13:22 07.01.2022
4454 Clear 10 1023 49 10000 0.45 335 12:49 07.01.2022
4455 Clear 5 1022 62 10000 3.13 245 09:37 07.01.2022
4456 Clear 5 1021 60 10000 4.02 300 02:55 07.01.2022
4457 Clear 6 1020 59 10000 0.45 0 01:54 07.01.2022
4458 Clear 5 1020 60 10000 0.45 300 01:27 07.01.2022
4459 Clear 6 1020 59 10000 2.24 284 00:58 07.01.2022
4460 Clear 6 1020 58 10000 2.24 284 00:58 07.01.2022
4461 Clear 6 1019 56 10000 0.89 325 22:54 06.01.2022
4462 Clear 7 1019 54 10000 0.45 0 21:28 06.01.2022
4463 Clear 7 1019 53 10000 0.45 262 20:22 06.01.2022
4464 Clear 7 1018 53 10000 0.89 311 19:45 06.01.2022
4465 Clear 8 1018 50 10000 3.58 275 18:29 06.01.2022
4466 Clear 10 1016 44 10000 2.24 344 17:40 06.01.2022
4467 Clear 11 1016 38 10000 1.79 316 16:44 06.01.2022
4468 Clear 11 1016 36 10000 2.24 271 15:47 06.01.2022
4469 Clear 11 1016 37 10000 1.79 284 15:26 06.01.2022
4470 Clear 11 1016 37 10000 2.24 330 14:51 06.01.2022
4471 Clear 11 1016 40 10000 0.45 307 14:18 06.01.2022
4472 Clear 9 1017 48 10000 1.34 273 12:50 06.01.2022
4473 Clear 8 1016 50 10000 1.34 166 11:43 06.01.2022
4474 Clear 7 1017 53 10000 3.58 288 11:23 06.01.2022
4475 Clear 4 1015 62 10000 5.36 340 08:59 06.01.2022
4476 Clouds 6 1012 66 10000 0.89 312 01:37 06.01.2022
4477 Clear 8 1013 73 10000 1.34 297 23:38 05.01.2022
4478 Clear 8 1013 72 10000 1.79 282 22:59 05.01.2022
4479 Clouds 8 1012 72 10000 1.34 316 22:33 05.01.2022
4480 Clouds 8 1012 75 10000 1.79 303 21:52 05.01.2022
4481 Clouds 8 1012 76 10000 0.89 322 21:21 05.01.2022
4482 Clouds 9 1012 76 10000 0.45 295 20:19 05.01.2022
4483 Clouds 10 1012 77 10000 0.45 277 18:54 05.01.2022
4484 Clear 11 1011 74 10000 1.34 152 17:45 05.01.2022
4485 Clear 12 1010 70 10000 0.89 143 16:56 05.01.2022
4486 Clouds 13 1010 62 10000 0.45 63 15:46 05.01.2022
4487 Clouds 13 1010 58 10000 0.45 191 14:28 05.01.2022
4488 Clouds 12 1010 63 10000 0.89 245 13:32 05.01.2022
4489 Clouds 10 1010 73 10000 1.34 17 11:45 05.01.2022
4490 Rain 10 1008 81 10000 0.89 298 08:20 05.01.2022
4491 Rain 10 1005 82 9000 0.89 193 06:36 05.01.2022
4492 Clouds 12 1003 75 10000 0.89 347 00:59 05.01.2022
4493 Clouds 12 1004 74 8000 0.51 0 23:38 04.01.2022
4494 Clouds 13 1004 74 8000 0.45 293 23:18 04.01.2022
4495 Clouds 14 1005 72 6000 0.45 298 21:31 04.01.2022
4496 Clear 15 1006 66 9000 1.79 323 19:55 04.01.2022
4497 Clear 16 1006 64 9000 0.45 221 18:19 04.01.2022
4498 Clear 17 1007 61 9000 0.89 222 17:18 04.01.2022
4499 Clear 19 1007 58 10000 0.89 272 16:31 04.01.2022
4500 Clear 20 1008 59 9000 0.45 194 14:58 04.01.2022
4501 Clear 20 1008 60 10000 0.45 194 14:36 04.01.2022
4502 Clear 20 1009 60 10000 1.34 265 13:48 04.01.2022
4503 Clear 16 1012 64 10000 0.45 102 10:59 04.01.2022
4504 Clear 14 1013 73 10000 1.79 250 09:58 04.01.2022
4505 Clear 12 1012 72 9000 0.45 300 08:36 04.01.2022
4506 Clear 12 1014 75 7000 0.45 277 04:24 04.01.2022
4507 Clouds 13 1017 75 6000 0.89 30 00:42 04.01.2022
4508 Clouds 12 1018 75 7000 0.45 330 23:44 03.01.2022
4509 Clouds 13 1019 75 8000 0.89 276 22:21 03.01.2022
4510 Clouds 13 1019 77 7000 0.45 238 21:38 03.01.2022
4511 Clouds 13 1019 78 6000 0.89 290 20:34 03.01.2022
4512 Clouds 13 1020 78 9000 0.45 5 18:55 03.01.2022
4513 Clouds 14 1020 77 9000 0.89 346 18:30 03.01.2022
4514 Clear 15 1020 74 8000 2.24 221 17:20 03.01.2022
4515 Clear 16 1020 73 9000 0.45 214 16:31 03.01.2022
4516 Clouds 16 1022 72 8000 0.45 66 14:31 03.01.2022
4517 Clear 15 1024 73 10000 1.34 220 12:52 03.01.2022
4518 Clouds 14 1025 72 8000 0.45 71 11:50 03.01.2022
4519 Clouds 12 1025 80 6000 2.57 290 10:37 03.01.2022
4520 Clouds 11 1025 78 6000 2.57 310 09:27 03.01.2022
4521 Clouds 12 1025 73 6000 0.89 252 07:52 03.01.2022
4522 Mist 10 1027 80 2500 0.89 117 02:56 03.01.2022
4523 Mist 11 1028 83 7000 1.79 301 23:23 02.01.2022
4524 Mist 12 1028 83 8000 0.45 257 22:56 02.01.2022
4525 Mist 12 1028 84 10000 1.03 0 21:52 02.01.2022
4526 Mist 12 1028 83 10000 1.54 60 20:50 02.01.2022
4527 Mist 12 1027 83 10000 0 0 20:29 02.01.2022
4528 Clouds 13 1028 81 10000 0.51 0 19:31 02.01.2022
4529 Clouds 13 1028 79 10000 0.45 135 18:56 02.01.2022
4530 Clouds 13 1027 79 10000 1.54 210 17:57 02.01.2022
4531 Clouds 14 1027 79 10000 0.45 41 17:39 02.01.2022
4532 Clouds 14 1027 74 10000 2.57 200 17:20 02.01.2022
4533 Clouds 16 1026 73 10000 3.6 220 16:28 02.01.2022
4534 Clouds 17 1027 72 10000 3.6 210 14:41 02.01.2022
4535 Clouds 15 1026 75 10000 0.89 153 13:25 02.01.2022
4536 Clouds 14 1028 76 10000 0.89 59 12:32 02.01.2022
4537 Fog 14 1028 73 10000 1.54 320 11:49 02.01.2022
4538 Fog 12 1028 84 10000 2.06 320 10:53 02.01.2022
4539 Fog 10 1028 86 10000 3.6 330 09:56 02.01.2022
4540 Clouds 11 1027 87 10000 3.09 320 07:34 02.01.2022
4541 Clouds 11 1027 70 10000 3.09 330 02:56 02.01.2022
4542 Clouds 11 1027 75 10000 2.57 340 23:42 01.01.2022
4543 Clear 11 1027 74 10000 1.54 330 23:24 01.01.2022
4544 Clouds 11 1027 75 9000 2.57 310 22:25 01.01.2022
4545 Clear 12 1026 79 10000 1.54 300 21:45 01.01.2022
4546 Clear 12 1026 80 10000 1.54 300 21:21 01.01.2022
4547 Clear 12 1026 82 10000 3.09 30 20:20 01.01.2022
4548 Clouds 13 1026 84 10000 1.03 0 19:34 01.01.2022
4549 Clouds 13 1026 84 10000 1.03 0 18:51 01.01.2022
4550 Clouds 15 1025 80 10000 0.89 87 17:38 01.01.2022
4551 Clouds 17 1025 76 10000 5.14 220 16:34 01.01.2022
4552 Clouds 17 1025 76 10000 5.14 220 16:34 01.01.2022
4553 Clear 18 1025 68 10000 0.45 165 15:37 01.01.2022
4554 Clouds 18 1024 69 10000 5.14 220 14:25 01.01.2022
4555 Clear 17 1026 68 10000 0.45 131 13:36 01.01.2022
4556 Clouds 16 1027 64 10000 0.45 117 12:18 01.01.2022
4557 Fog 14 1027 69 7000 0.45 263 11:25 01.01.2022
4558 Fog 15 1027 67 7000 1.79 256 10:56 01.01.2022
4559 Fog 12 1026 72 150 3.13 256 09:48 01.01.2022
4560 Fog 13 1026 61 8000 3.58 254 08:35 01.01.2022
4561 Fog 12 1025 64 10000 3.13 254 07:56 01.01.2022
4562 Fog 14 1025 61 8000 1.79 270 07:37 01.01.2022
4563 Mist 14 1025 61 5000 2.68 251 06:43 01.01.2022
4564 Fog 13 1026 69 600 1.79 264 04:39 01.01.2022
4565 Clouds 13 1026 69 6000 1.34 228 03:50 01.01.2022
4566 Clouds 12 1027 76 9000 1.34 129 23:55 31.12.2021
4567 Clear 12 1028 84 8000 2.57 320 22:24 31.12.2021
4568 Clouds 12 1028 84 6000 1.54 330 21:39 31.12.2021
4569 Clouds 13 1026 89 10000 1.03 70 19:43 31.12.2021
4570 Clear 13 1027 94 10000 1.54 80 18:50 31.12.2021
4571 Clouds 16 1026 81 10000 1.03 120 17:56 31.12.2021
4572 Clear 16 1026 81 10000 1.54 180 17:26 31.12.2021
4573 Clear 16 1026 77 10000 2.57 210 16:52 31.12.2021
4574 Clear 17 1026 73 10000 4.12 210 16:18 31.12.2021
4575 Clear 18 1025 68 10000 4.12 210 15:45 31.12.2021
4576 Clear 18 1025 68 10000 0.45 107 15:26 31.12.2021
4577 Clear 18 1025 68 10000 0.45 107 15:26 31.12.2021
4578 Clear 18 1025 63 10000 2.57 220 14:39 31.12.2021
4579 Clouds 18 1025 63 10000 3.09 220 13:51 31.12.2021
4580 Clear 17 1025 62 10000 1.34 235 12:51 31.12.2021
4581 Clear 17 1026 63 10000 1.34 249 12:21 31.12.2021
4582 Clear 16 1027 64 10000 2.68 244 11:42 31.12.2021
4583 Clouds 15 1026 66 10000 2.68 245 10:55 31.12.2021
4584 Clouds 14 1026 70 10000 3.13 242 10:28 31.12.2021
4585 Clouds 13 1026 76 10000 0.89 254 09:34 31.12.2021
4586 Clouds 13 1025 77 10000 6.69 320 08:52 31.12.2021
4587 Clear 12 1025 78 10000 0.45 298 07:55 31.12.2021
4588 Clear 13 1023 77 10000 1.79 250 04:55 31.12.2021
4589 Clear 14 1023 73 10000 0.45 288 23:18 30.12.2021
4590 Clear 14 1023 75 10000 2.24 256 22:32 30.12.2021
4591 Clear 15 1023 74 10000 1.79 251 21:39 30.12.2021
4592 Clear 15 1022 74 10000 0.89 247 21:19 30.12.2021
4593 Clear 15 1022 73 10000 0.45 179 20:40 30.12.2021
4594 Clear 16 1022 71 10000 3.58 271 19:56 30.12.2021
4595 Clear 16 1022 71 10000 3.13 302 19:31 30.12.2021
4596 Clouds 17 1022 67 10000 2.68 243 18:28 30.12.2021
4597 Clear 19 1021 61 10000 0.89 244 16:53 30.12.2021
4598 Clear 20 1021 58 10000 0.45 142 15:54 30.12.2021
4599 Clear 20 1021 58 10000 1.79 254 15:21 30.12.2021
4600 Clear 19 1022 60 10000 2.24 246 14:36 30.12.2021
4601 Clear 18 1022 63 10000 0.45 267 13:26 30.12.2021
4602 Clear 16 1023 69 10000 1.79 245 11:58 30.12.2021
4603 Clouds 15 1023 75 10000 2.68 279 10:40 30.12.2021
4604 Clouds 14 1022 77 10000 0.89 278 09:50 30.12.2021
4605 Clouds 14 1021 78 10000 1.79 288 07:25 30.12.2021
4606 Clouds 13 1022 80 10000 2.68 255 06:32 30.12.2021
4607 Clouds 14 1021 77 10000 3.13 289 03:41 30.12.2021
4608 Clouds 14 1021 78 10000 3.13 265 02:32 30.12.2021
4609 Clear 15 1022 75 10000 1.79 232 23:40 29.12.2021
4610 Clear 15 1021 73 10000 1.79 241 22:59 29.12.2021
4611 Clear 15 1021 71 10000 1.79 249 22:18 29.12.2021
4612 Clear 16 1021 67 10000 2.68 275 21:19 29.12.2021
4613 Clear 16 1021 66 10000 0.45 269 20:30 29.12.2021
4614 Clear 16 1021 65 10000 0.45 269 20:30 29.12.2021
4615 Clear 16 1021 66 10000 0.45 269 20:30 29.12.2021
4616 Clear 16 1021 66 10000 0.45 269 20:30 29.12.2021
4617 Clear 17 1021 65 10000 2.68 294 19:43 29.12.2021
4618 Clear 17 1020 64 10000 0.45 198 18:44 29.12.2021
4619 Clear 18 1019 63 10000 1.34 270 17:52 29.12.2021
4620 Clear 18 1019 61 10000 1.34 270 17:27 29.12.2021
4621 Clear 19 1018 57 10000 1.34 339 16:22 29.12.2021
4622 Clear 19 1018 56 10000 0.89 304 15:42 29.12.2021
4623 Clear 18 1018 59 10000 1.79 281 13:53 29.12.2021
4624 Clear 17 1019 62 10000 1.79 292 12:36 29.12.2021
4625 Clear 16 1019 66 10000 1.34 269 11:27 29.12.2021
4626 Clear 14 1019 74 10000 2.24 236 09:56 29.12.2021
4627 Clear 13 1018 76 10000 0.89 112 07:51 29.12.2021
4628 Clear 14 1018 75 10000 2.68 246 06:38 29.12.2021
4629 Clear 14 1018 73 10000 1.34 198 05:59 29.12.2021
4630 Clear 14 1017 74 10000 0.89 228 05:36 29.12.2021
4631 Clear 15 1016 69 10000 0.45 0 02:40 29.12.2021
4632 Clouds 16 1016 67 10000 1.79 290 00:22 29.12.2021
4633 Clouds 16 1016 68 10000 1.79 287 23:34 28.12.2021
4634 Clouds 16 1016 65 10000 1.79 196 22:42 28.12.2021
4635 Clear 16 1016 66 10000 1.34 300 22:24 28.12.2021
4636 Clouds 17 1016 65 10000 3.13 274 21:37 28.12.2021
4637 Clouds 17 1015 65 10000 2.68 322 20:39 28.12.2021
4638 Clouds 17 1016 63 10000 1.79 261 19:24 28.12.2021
4639 Clouds 17 1015 62 10000 0.45 86 18:37 28.12.2021
4640 Clouds 18 1015 60 10000 0.45 139 17:59 28.12.2021
4641 Clouds 19 1013 56 10000 0.45 28 16:34 28.12.2021
4642 Clear 19 1013 55 10000 0.89 20 15:50 28.12.2021
4643 Clear 19 1013 54 10000 0.89 344 15:20 28.12.2021
4644 Clouds 19 1013 53 10000 0.45 345 14:47 28.12.2021
4645 Clouds 19 1012 53 10000 5.81 305 14:21 28.12.2021
4646 Clouds 19 1013 53 10000 1.34 282 13:42 28.12.2021
4647 Clouds 19 1013 53 10000 1.34 282 13:42 28.12.2021
4648 Clouds 19 1013 54 10000 1.34 320 13:24 28.12.2021
4649 Clouds 18 1014 54 10000 2.24 281 12:49 28.12.2021
4650 Clear 16 1014 60 10000 5.36 302 11:36 28.12.2021
4651 Clear 13 1012 67 10000 1.79 303 08:30 28.12.2021
4652 Clear 15 1011 66 10000 2.24 258 06:42 28.12.2021
4653 Clear 16 1012 61 10000 0.89 320 23:44 27.12.2021
4654 Clear 16 1012 62 10000 2.24 289 23:23 27.12.2021
4655 Clear 16 1011 60 10000 0.45 272 21:42 27.12.2021
4656 Clear 16 1011 60 10000 2.24 293 21:21 27.12.2021
4657 Clear 17 1011 58 10000 0.89 76 20:23 27.12.2021
4658 Clear 17 1011 57 10000 1.79 297 19:41 27.12.2021
4659 Clouds 17 1010 58 10000 0.89 265 18:52 27.12.2021
4660 Rain 17 1010 61 10000 1.79 194 17:49 27.12.2021
4661 Clouds 18 1009 60 10000 1.34 259 16:55 27.12.2021
4662 Clouds 18 1008 56 10000 0.89 72 15:52 27.12.2021
4663 Clouds 19 1008 56 10000 0.89 305 14:33 27.12.2021
4664 Clouds 19 1008 55 10000 3.13 128 13:40 27.12.2021
4665 Clouds 19 1008 57 10000 0.89 5 12:40 27.12.2021
4666 Clear 16 1006 72 10000 0.45 89 10:32 27.12.2021
4667 Clear 15 1006 75 10000 3.13 313 09:57 27.12.2021
4668 Clouds 13 1006 79 10000 0.45 32 08:39 27.12.2021
4669 Clouds 13 1005 79 10000 1.79 293 07:32 27.12.2021
4670 Clouds 13 1007 75 10000 0.45 311 02:24 27.12.2021
4671 Clouds 12 1009 75 10000 0.45 296 23:58 26.12.2021
4672 Clouds 12 1009 75 10000 0.45 134 23:40 26.12.2021
4673 Clouds 12 1010 75 10000 0.89 280 22:36 26.12.2021
4674 Clouds 13 1009 75 10000 0.45 275 20:59 26.12.2021
4675 Clear 13 1009 73 10000 0.45 306 19:49 26.12.2021
4676 Clear 14 1008 72 10000 0.45 253 18:25 26.12.2021
4677 Clear 14 1009 72 10000 0.45 222 17:30 26.12.2021
4678 Clouds 17 1008 64 10000 0.89 306 14:38 26.12.2021
4679 Clouds 16 1009 63 10000 0.45 355 13:43 26.12.2021
4680 Clouds 16 1009 63 10000 0.45 345 13:21 26.12.2021
4681 Clouds 15 1009 70 10000 1.79 248 12:34 26.12.2021
4682 Clear 13 1009 76 10000 0.89 260 10:48 26.12.2021
4683 Clouds 11 1008 80 10000 1.79 249 09:30 26.12.2021
4684 Clouds 11 1008 80 10000 0.45 344 08:44 26.12.2021
4685 Clouds 11 1008 81 10000 0.89 326 08:23 26.12.2021
4686 Clouds 12 1006 76 10000 0.45 288 01:37 26.12.2021
4687 Clouds 13 1006 75 10000 0.45 232 00:20 26.12.2021
4688 Clouds 13 1006 74 10000 0.45 301 23:35 25.12.2021
4689 Clouds 14 1006 73 10000 0.45 240 22:29 25.12.2021
4690 Clouds 14 1006 71 10000 0.89 238 21:29 25.12.2021
4691 Clouds 15 1005 70 8000 0.89 288 19:46 25.12.2021
4692 Clouds 15 1005 69 6000 1.34 223 19:18 25.12.2021
4693 Clouds 15 1005 67 7000 0.89 265 18:29 25.12.2021
4694 Clouds 17 1004 59 10000 0.89 0 16:49 25.12.2021
4695 Clouds 18 1004 59 10000 0.45 314 15:30 25.12.2021
4696 Clouds 18 1005 66 10000 1.34 256 14:23 25.12.2021
4697 Clouds 16 1006 75 10000 0.89 169 12:21 25.12.2021
4698 Clouds 14 1006 80 10000 0.45 304 10:46 25.12.2021
4699 Clouds 13 1006 84 7000 0.45 332 09:49 25.12.2021
4700 Clouds 11 1006 81 8000 0.45 287 07:27 25.12.2021
4701 Drizzle 13 1006 83 10000 1.34 275 01:40 25.12.2021
4702 Drizzle 13 1007 84 9000 3.6 230 00:22 25.12.2021
4703 Clouds 13 1008 84 8000 1.03 0 21:59 24.12.2021
4704 Clouds 13 1009 83 8000 3.09 220 19:27 24.12.2021
4705 Drizzle 14 1009 83 9000 3.09 210 18:56 24.12.2021
4706 Clouds 15 1010 81 10000 4.63 230 16:49 24.12.2021
4707 Clouds 15 1010 82 10000 6.69 240 15:50 24.12.2021
4708 Clouds 15 1010 81 10000 0.89 243 15:25 24.12.2021
4709 Clouds 15 1011 81 10000 1.34 238 14:35 24.12.2021
4710 Clouds 15 1012 80 9000 0.45 245 13:59 24.12.2021
4711 Clouds 15 1012 82 9000 0.45 275 13:32 24.12.2021
4712 Mist 15 1013 81 8000 0.45 311 12:47 24.12.2021
4713 Mist 14 1014 83 7000 0.89 61 11:46 24.12.2021
4714 Drizzle 13 1014 83 6000 0.45 236 11:24 24.12.2021
4715 Drizzle 13 1014 83 6000 0.45 161 10:36 24.12.2021
4716 Drizzle 13 1014 84 8000 1.54 310 09:25 24.12.2021
4717 Mist 12 1014 85 10000 1.03 0 08:19 24.12.2021
4718 Mist 12 1015 85 10000 1.34 129 07:44 24.12.2021
4719 Mist 12 1017 85 9000 4.12 240 00:48 24.12.2021
4720 Clouds 12 1017 85 10000 3.6 240 23:54 23.12.2021
4721 Clouds 12 1018 84 10000 0.89 155 22:54 23.12.2021
4722 Clouds 12 1018 84 10000 0.45 307 22:27 23.12.2021
4723 Clouds 12 1018 83 10000 0.45 179 21:59 23.12.2021
4724 Clouds 12 1018 84 10000 0.45 235 20:54 23.12.2021
4725 Clouds 13 1018 83 10000 4.12 240 19:39 23.12.2021
4726 Clouds 12 1018 82 10000 0.45 0 18:32 23.12.2021
4727 Clouds 13 1018 82 10000 0.45 269 17:55 23.12.2021
4728 Clouds 14 1017 82 10000 0.45 133 16:43 23.12.2021
4729 Clouds 15 1018 82 10000 0.45 259 16:23 23.12.2021
4730 Clouds 14 1018 82 10000 0.89 115 15:31 23.12.2021
4731 Clouds 14 1018 82 10000 0.89 115 15:31 23.12.2021
4732 Clouds 14 1019 83 10000 0.45 333 14:43 23.12.2021
4733 Clouds 14 1019 83 10000 0.89 315 14:19 23.12.2021
4734 Clouds 14 1020 84 9000 0.45 130 12:53 23.12.2021
4735 Mist 12 1021 87 5000 0.45 124 10:43 23.12.2021
4736 Mist 11 1021 87 5000 1.54 310 09:35 23.12.2021
4737 Mist 11 1021 86 5000 1.54 310 08:59 23.12.2021
4738 Mist 11 1020 87 2700 1.79 241 06:51 23.12.2021
4739 Mist 11 1021 87 3100 2.06 330 04:30 23.12.2021
4740 Mist 11 1022 86 2600 1.54 350 22:57 22.12.2021
4741 Mist 11 1022 87 2400 1.54 20 22:39 22.12.2021
4742 Mist 11 1022 86 2200 1.54 10 21:54 22.12.2021
4743 Mist 11 1022 86 2500 2.57 30 21:29 22.12.2021
4744 Mist 11 1022 86 2400 2.57 30 20:47 22.12.2021
4745 Mist 11 1022 86 2500 3.09 50 20:26 22.12.2021
4746 Mist 11 1021 86 2200 2.06 40 19:21 22.12.2021
4747 Mist 11 1021 84 5000 0.45 91 17:42 22.12.2021
4748 Mist 11 1021 82 8000 0.45 78 16:39 22.12.2021
4749 Mist 11 1021 82 7000 0.89 58 15:39 22.12.2021
4750 Clouds 11 1021 82 7000 2.57 340 13:33 22.12.2021
4751 Clouds 11 1021 81 8000 3.09 320 12:40 22.12.2021
4752 Clouds 10 1021 82 7000 3.6 340 10:19 22.12.2021
4753 Clouds 10 1021 82 7000 0.45 289 09:38 22.12.2021
4754 Clouds 9 1020 83 7000 0.45 275 07:30 22.12.2021
4755 Clouds 10 1019 82 8000 0.89 297 05:50 22.12.2021
4756 Clouds 10 1019 83 8000 2.57 330 05:26 22.12.2021
4757 Clouds 10 1019 82 8000 3.09 330 04:50 22.12.2021
4758 Clouds 10 1020 82 8000 2.57 340 04:26 22.12.2021
4759 Clouds 10 1020 82 8000 2.57 340 03:32 22.12.2021
4760 Clouds 10 1020 84 8000 2.57 320 00:50 22.12.2021
4761 Clouds 10 1020 84 8000 2.57 310 23:25 21.12.2021
4762 Clouds 11 1020 84 8000 1.54 290 22:28 21.12.2021
4763 Clouds 11 1020 84 9000 2.06 10 21:44 21.12.2021
4764 Clouds 11 1020 83 10000 0 0 21:22 21.12.2021
4765 Clouds 11 1020 83 10000 1.54 60 20:21 21.12.2021
4766 Clouds 11 1020 84 10000 2.57 70 19:43 21.12.2021
4767 Clouds 12 1019 83 10000 0.45 23 18:48 21.12.2021
4768 Clouds 12 1019 82 10000 0.45 70 18:21 21.12.2021
4769 Clouds 12 1019 82 10000 0.45 88 17:42 21.12.2021
4770 Clouds 13 1019 81 10000 0.89 84 16:26 21.12.2021
4771 Clouds 13 1019 79 10000 0.45 0 15:25 21.12.2021
4772 Clouds 13 1019 76 10000 0.45 116 13:51 21.12.2021
4773 Clouds 13 1019 75 10000 1.79 126 13:31 21.12.2021
4774 Clouds 12 1020 72 10000 0.45 61 11:57 21.12.2021
4775 Clouds 10 1020 76 10000 1.34 292 10:25 21.12.2021
4776 Clouds 9 1020 77 10000 2.24 303 09:33 21.12.2021
4777 Clouds 8 1019 74 10000 1.34 334 08:28 21.12.2021
4778 Clouds 8 1019 73 10000 2.68 280 07:32 21.12.2021
4779 Clouds 8 1019 72 10000 0.45 299 06:50 21.12.2021
4780 Clouds 7 1018 74 10000 0.45 331 03:18 21.12.2021
4781 Clouds 8 1018 73 10000 1.34 69 00:46 21.12.2021
4782 Clouds 8 1019 69 10000 0.45 315 23:34 20.12.2021
4783 Clear 9 1019 68 10000 0.89 331 22:33 20.12.2021
4784 Clear 9 1019 68 10000 1.34 302 21:48 20.12.2021
4785 Clear 9 1018 67 10000 1.34 23 21:24 20.12.2021
4786 Clear 9 1019 69 10000 2.68 285 20:48 20.12.2021
4787 Clouds 9 1019 67 10000 0.89 22 19:55 20.12.2021
4788 Clouds 10 1019 68 10000 2.24 351 19:32 20.12.2021
4789 Clouds 10 1019 70 10000 1.79 313 18:55 20.12.2021
4790 Clouds 12 1018 65 10000 0.45 316 17:56 20.12.2021
4791 Clouds 12 1018 65 10000 0.45 309 17:37 20.12.2021
4792 Clear 14 1018 60 10000 0.89 306 16:43 20.12.2021
4793 Clear 14 1019 59 10000 0.45 279 15:52 20.12.2021
4794 Clear 14 1019 58 10000 0.45 15 14:56 20.12.2021
4795 Clear 13 1019 58 10000 1.34 315 13:18 20.12.2021
4796 Clouds 11 1020 62 10000 1.34 98 11:27 20.12.2021
4797 Clouds 9 1020 69 10000 2.68 286 09:51 20.12.2021
4798 Clear 8 1020 71 10000 1.34 0 09:31 20.12.2021
4799 Clear 7 1020 73 10000 3.58 313 08:42 20.12.2021
4800 Clear 6 1020 75 10000 2.24 229 07:55 20.12.2021
4801 Clouds 7 1020 73 10000 2.24 221 07:31 20.12.2021
4802 Clouds 8 1021 73 10000 0.89 0 04:36 20.12.2021
4803 Clouds 9 1022 72 10000 1.79 262 00:18 20.12.2021
4804 Clouds 8 1023 78 10000 0.45 257 22:53 19.12.2021
4805 Clouds 9 1023 80 10000 0.45 282 21:55 19.12.2021
4806 Clouds 9 1023 80 10000 0.45 280 21:31 19.12.2021
4807 Clouds 10 1023 81 10000 0.45 307 20:34 19.12.2021
4808 Clouds 10 1023 81 10000 0.45 300 19:52 19.12.2021
4809 Clouds 10 1023 81 10000 2.06 280 19:32 19.12.2021
4810 Clouds 11 1023 80 10000 4.12 240 18:30 19.12.2021
4811 Clouds 11 1023 79 10000 0.89 270 17:53 19.12.2021
4812 Clouds 12 1023 77 10000 0.89 306 17:21 19.12.2021
4813 Clouds 13 1023 76 10000 2.24 270 16:27 19.12.2021
4814 Clouds 13 1024 76 10000 2.24 311 15:43 19.12.2021
4815 Clouds 14 1024 75 10000 0.89 53 15:21 19.12.2021
4816 Clouds 14 1024 74 10000 1.79 285 14:42 19.12.2021
4817 Clouds 13 1025 74 10000 0.45 94 13:24 19.12.2021
4818 Clouds 13 1026 74 10000 0.89 242 12:47 19.12.2021
4819 Clouds 12 1026 77 10000 0.45 256 12:28 19.12.2021
4820 Clear 11 1027 79 7000 1.79 242 11:26 19.12.2021
4821 Clouds 9 1027 82 10000 2.24 239 10:28 19.12.2021
4822 Clouds 9 1028 79 10000 2.24 238 09:53 19.12.2021
4823 Clouds 8 1027 77 10000 1.79 248 08:45 19.12.2021
4824 Clouds 8 1028 78 10000 1.34 292 04:45 19.12.2021
4825 Clouds 9 1029 81 10000 0.45 290 01:39 19.12.2021
4826 Mist 9 1030 82 10000 0.45 301 00:53 19.12.2021
4827 Clouds 9 1030 83 10000 4.12 330 22:50 18.12.2021
4828 Clouds 10 1029 82 10000 3.6 320 22:20 18.12.2021
4829 Clouds 10 1030 83 9000 0.45 304 21:41 18.12.2021
4830 Clouds 10 1030 82 9000 2.57 320 21:22 18.12.2021
4831 Clouds 10 1030 84 8000 2.06 320 20:20 18.12.2021
4832 Clouds 10 1029 83 9000 1.03 0 19:27 18.12.2021
4833 Clouds 11 1029 81 10000 0.51 100 18:23 18.12.2021
4834 Clouds 12 1029 80 10000 0.51 100 17:49 18.12.2021
4835 Clear 14 1028 74 10000 1.54 130 16:27 18.12.2021
4836 Clear 14 1028 72 10000 0.45 126 15:48 18.12.2021
4837 Clear 14 1028 68 10000 0.89 94 14:51 18.12.2021
4838 Clear 13 1028 69 10000 0.45 236 13:42 18.12.2021
4839 Clear 12 1029 74 9000 0.89 249 11:47 18.12.2021
4840 Clear 9 1029 80 7000 1.34 318 09:53 18.12.2021
4841 Clear 9 1029 80 7000 1.34 302 09:30 18.12.2021
4842 Clear 7 1028 77 8000 1.34 290 08:35 18.12.2021
4843 Clouds 7 1027 78 7000 1.34 296 06:27 18.12.2021
4844 Mist 9 1029 82 9000 0.45 296 00:42 18.12.2021
4845 Clouds 9 1029 82 10000 2.06 330 23:46 17.12.2021
4846 Clouds 10 1029 82 10000 0.45 87 22:37 17.12.2021
4847 Clouds 10 1029 83 10000 1.54 320 21:28 17.12.2021
4848 Clouds 11 1029 82 10000 0.89 8 20:42 17.12.2021
4849 Clouds 11 1029 82 10000 0.45 137 19:51 17.12.2021
4850 Clouds 11 1029 80 10000 0.45 50 18:39 17.12.2021
4851 Clouds 11 1029 80 10000 0.45 60 17:47 17.12.2021
4852 Clouds 12 1029 78 10000 0.45 52 16:50 17.12.2021
4853 Clouds 13 1029 77 10000 2.57 110 16:27 17.12.2021
4854 Clouds 13 1028 74 10000 0.45 105 15:27 17.12.2021
4855 Clouds 13 1029 73 10000 0.89 96 14:42 17.12.2021
4856 Clouds 13 1029 74 10000 0.45 162 13:35 17.12.2021
4857 Clouds 12 1030 76 9000 0.45 78 12:36 17.12.2021
4858 Clear 11 1031 82 7000 0.45 299 10:41 17.12.2021
4859 Clouds 10 1030 83 10000 0.89 249 09:47 17.12.2021
4860 Clouds 9 1030 85 10000 0.45 269 08:31 17.12.2021
4861 Clouds 9 1029 85 10000 0.45 120 07:21 17.12.2021
4862 Clouds 9 1029 88 8000 0.45 297 04:40 17.12.2021
4863 Mist 9 1029 81 7000 1.54 330 00:22 17.12.2021
4864 Mist 9 1029 82 10000 1.54 310 22:24 16.12.2021
4865 Clouds 9 1029 82 10000 1.03 0 21:51 16.12.2021
4866 Clouds 10 1028 82 10000 1.54 320 21:33 16.12.2021
4867 Clouds 10 1028 83 10000 2.06 300 20:31 16.12.2021
4868 Clouds 10 1028 83 10000 1.03 0 19:51 16.12.2021
4869 Clouds 11 1028 82 10000 0 0 18:42 16.12.2021
4870 Clouds 11 1028 82 10000 0 0 18:22 16.12.2021
4871 Clouds 12 1028 79 10000 1.03 110 17:35 16.12.2021
4872 Clouds 14 1028 77 10000 2.06 100 16:23 16.12.2021
4873 Clouds 14 1028 73 10000 0.45 69 15:22 16.12.2021
4874 Clouds 14 1029 68 10000 1.54 300 13:44 16.12.2021
4875 Clouds 13 1030 70 10000 1.34 328 11:48 16.12.2021
4876 Clear 12 1030 73 10000 0.45 256 11:18 16.12.2021
4877 Clear 12 1030 74 10000 0.45 244 10:39 16.12.2021
4878 Clouds 10 1029 74 10000 0.89 0 09:39 16.12.2021
4879 Clouds 9 1028 75 10000 6.17 330 06:23 16.12.2021
4880 Clear 9 1028 79 10000 4.12 330 03:19 16.12.2021
4881 Clear 11 1028 79 10000 3.09 330 23:36 15.12.2021
4882 Clear 10 1028 80 10000 4.12 330 22:49 15.12.2021
4883 Clear 11 1027 78 10000 3.09 320 22:20 15.12.2021
4884 Clouds 11 1027 78 10000 2.06 320 21:31 15.12.2021
4885 Clouds 11 1027 79 10000 1.03 0 20:36 15.12.2021
4886 Clouds 11 1027 77 10000 0.51 310 19:53 15.12.2021
4887 Clouds 12 1026 76 10000 0.51 0 18:41 15.12.2021
4888 Clear 13 1026 75 10000 0 0 18:18 15.12.2021
4889 Clear 14 1026 69 10000 1.54 180 17:40 15.12.2021
4890 Clear 15 1025 64 10000 1.54 180 16:59 15.12.2021
4891 Clear 16 1025 59 10000 0.89 129 15:47 15.12.2021
4892 Clear 16 1025 58 10000 0.45 130 15:29 15.12.2021
4893 Clear 16 1025 55 10000 0.89 128 14:44 15.12.2021
4894 Clear 15 1025 55 10000 2.57 340 13:27 15.12.2021
4895 Clear 13 1026 65 10000 0.45 17 11:40 15.12.2021
4896 Clouds 11 1026 67 10000 1.79 238 09:38 15.12.2021
4897 Clouds 10 1025 69 10000 1.79 259 07:52 15.12.2021
4898 Clear 10 1025 68 10000 0.45 302 03:58 15.12.2021
4899 Clear 11 1026 72 10000 3.09 350 23:46 14.12.2021
4900 Clouds 10 1025 77 9000 2.57 310 22:52 14.12.2021
4901 Clouds 10 1025 77 8000 3.09 320 22:34 14.12.2021
4902 Clear 10 1025 79 7000 1.03 0 21:25 14.12.2021
4903 Clear 11 1025 79 6000 1.03 0 20:18 14.12.2021
4904 Clouds 11 1025 81 6000 1.03 260 19:21 14.12.2021
4905 Clouds 12 1025 81 7000 0 0 18:38 14.12.2021
4906 Clouds 13 1025 81 7000 0.51 90 17:51 14.12.2021
4907 Clear 14 1025 76 8000 0.45 241 16:43 14.12.2021
4908 Clouds 15 1025 75 9000 1.34 130 15:54 14.12.2021
4909 Clouds 15 1025 69 10000 0.45 135 13:35 14.12.2021
4910 Clouds 14 1026 70 10000 1.34 302 12:47 14.12.2021
4911 Clear 12 1026 75 10000 0.89 248 11:25 14.12.2021
4912 Clear 11 1027 81 10000 1.79 311 10:28 14.12.2021
4913 Clouds 11 1026 80 10000 2.24 238 09:53 14.12.2021
4914 Clouds 9 1026 81 10000 0.89 311 08:40 14.12.2021
4915 Clouds 9 1025 81 10000 1.34 254 08:20 14.12.2021
4916 Clouds 9 1025 80 10000 0.89 305 06:40 14.12.2021
4917 Clouds 10 1026 83 10000 1.34 257 23:42 13.12.2021
4918 Clouds 11 1026 84 10000 0.45 257 22:18 13.12.2021
4919 Clouds 11 1025 84 10000 0.45 309 21:34 13.12.2021
4920 Clouds 11 1025 85 10000 0.89 245 20:51 13.12.2021
4921 Clouds 12 1025 84 10000 0.45 262 20:20 13.12.2021
4922 Clouds 12 1025 83 10000 3.6 230 19:49 13.12.2021
4923 Clouds 14 1024 79 10000 1.34 233 17:27 13.12.2021
4924 Clouds 16 1024 76 10000 1.79 259 16:24 13.12.2021
4925 Clouds 16 1023 75 10000 2.68 273 15:43 13.12.2021
4926 Clouds 16 1024 73 10000 0.45 153 14:30 13.12.2021
4927 Clouds 15 1025 72 10000 1.34 140 13:36 13.12.2021
4928 Clouds 15 1026 73 10000 0.45 71 12:39 13.12.2021
4929 Clouds 14 1026 76 10000 0.45 343 11:50 13.12.2021
4930 Clouds 13 1026 77 10000 1.34 247 11:29 13.12.2021
4931 Clouds 11 1027 79 10000 1.79 244 10:21 13.12.2021
4932 Clouds 9 1026 82 10000 0.89 249 08:43 13.12.2021
4933 Clouds 9 1026 82 10000 0.45 290 08:43 13.12.2021
4934 Clouds 9 1025 83 10000 0.45 276 06:54 13.12.2021
4935 Clouds 9 1026 82 10000 5.14 320 04:52 13.12.2021
4936 Clouds 10 1026 79 10000 3.13 254 23:55 12.12.2021
4937 Clear 11 1026 78 10000 1.79 263 21:58 12.12.2021
4938 Clear 12 1025 75 10000 2.24 266 20:50 12.12.2021
4939 Clear 12 1025 75 10000 1.34 284 19:35 12.12.2021
4940 Clear 13 1025 74 10000 0.45 16 18:22 12.12.2021
4941 Clear 16 1025 64 10000 0.45 235 16:32 12.12.2021
4942 Clear 16 1024 64 10000 0.89 9 15:55 12.12.2021
4943 Clear 16 1024 64 10000 1.79 283 15:28 12.12.2021
4944 Clear 16 1024 64 10000 0.89 331 14:46 12.12.2021
4945 Clear 15 1025 65 10000 0.89 312 13:56 12.12.2021
4946 Clear 15 1025 67 10000 1.34 347 12:48 12.12.2021
4947 Clear 13 1026 71 10000 3.13 316 11:45 12.12.2021
4948 Clear 13 1026 73 10000 2.68 319 11:27 12.12.2021
4949 Clear 12 1026 75 10000 3.58 328 10:44 12.12.2021
4950 Clear 11 1026 79 10000 3.58 298 09:58 12.12.2021
4951 Clouds 9 1025 84 10000 2.24 309 08:44 12.12.2021
4952 Clouds 9 1024 84 10000 0.89 304 06:55 12.12.2021
4953 Clouds 9 1023 84 10000 1.34 292 05:28 12.12.2021
4954 Clouds 9 1023 84 10000 1.34 249 04:18 12.12.2021
4955 Clouds 10 1023 83 10000 0.89 311 00:54 12.12.2021
4956 Clouds 10 1022 83 10000 3.09 330 22:56 11.12.2021
4957 Clouds 10 1022 82 10000 3.09 330 22:20 11.12.2021
4958 Clouds 9 1022 83 10000 2.57 310 21:26 11.12.2021
4959 Clouds 10 1021 79 10000 1.03 40 19:50 11.12.2021
4960 Clouds 10 1020 79 10000 1.54 70 19:21 11.12.2021
4961 Clouds 11 1020 78 10000 1.54 90 18:42 11.12.2021
4962 Clouds 12 1019 76 10000 0.45 37 17:48 11.12.2021
4963 Clouds 13 1018 71 10000 0.89 142 15:58 11.12.2021
4964 Clouds 13 1018 70 10000 0.45 121 15:39 11.12.2021
4965 Clouds 14 1017 68 10000 0.89 87 14:33 11.12.2021
4966 Clouds 13 1017 65 10000 0.45 242 12:29 11.12.2021
4967 Clouds 11 1017 72 10000 0.45 317 10:49 11.12.2021
4968 Clouds 9 1016 78 10000 1.34 253 09:40 11.12.2021
4969 Clouds 9 1013 78 10000 0.89 297 03:57 11.12.2021
4970 Clouds 10 1012 71 10000 0.45 259 00:48 11.12.2021
4971 Clouds 11 1011 69 10000 0.45 0 23:44 10.12.2021
4972 Clouds 11 1010 65 10000 0.45 285 22:39 10.12.2021
4973 Clouds 12 1009 61 10000 1.34 0 21:40 10.12.2021
4974 Clouds 13 1008 57 10000 2.68 302 20:28 10.12.2021
4975 Clouds 14 1007 54 10000 3.58 61 19:19 10.12.2021
4976 Clouds 15 1006 54 10000 4.02 22 17:46 10.12.2021
4977 Clouds 16 1005 51 10000 3.13 319 16:37 10.12.2021
4978 Clouds 16 1005 51 10000 1.79 245 15:45 10.12.2021
4979 Clouds 16 1005 52 10000 3.58 40 15:26 10.12.2021
4980 Clouds 17 1005 53 10000 2.68 25 14:49 10.12.2021
4981 Clouds 17 1005 54 10000 2.24 161 13:50 10.12.2021
4982 Clouds 17 1005 59 10000 1.79 311 12:56 10.12.2021
4983 Clouds 15 1005 67 10000 4.02 286 11:43 10.12.2021
4984 Clouds 15 1005 71 10000 2.24 298 11:19 10.12.2021
4985 Clouds 14 1005 73 10000 4.47 29 09:49 10.12.2021
4986 Clouds 14 1005 72 10000 1.34 5 07:49 10.12.2021
4987 Clouds 11 1006 81 10000 1.79 70 04:58 10.12.2021
4988 Clouds 10 1008 79 10000 1.34 303 02:44 10.12.2021
4989 Clouds 8 1010 74 10000 0.89 288 23:43 09.12.2021
4990 Clouds 9 1011 72 10000 2.68 300 22:44 09.12.2021
4991 Clouds 9 1011 72 10000 2.68 300 22:23 09.12.2021
4992 Clouds 9 1012 71 10000 0.89 98 21:40 09.12.2021
4993 Clouds 9 1012 70 10000 0.89 5 20:38 09.12.2021
4994 Clouds 10 1012 68 10000 1.34 305 19:46 09.12.2021
4995 Clouds 10 1012 68 10000 0.45 315 19:46 09.12.2021
4996 Clouds 10 1012 67 10000 0.45 262 19:20 09.12.2021
4997 Clouds 10 1012 64 10000 2.68 292 18:24 09.12.2021
4998 Clouds 11 1012 61 10000 1.79 0 17:48 09.12.2021
4999 Clouds 11 1012 60 10000 1.79 348 17:24 09.12.2021
5000 Clouds 11 1012 58 10000 0.45 302 16:43 09.12.2021
5001 Clouds 12 1011 54 10000 1.34 317 15:31 09.12.2021
5002 Clouds 12 1012 52 10000 3.13 337 14:43 09.12.2021
5003 Clouds 10 1013 56 10000 0.89 250 12:49 09.12.2021
5004 Clouds 10 1013 56 10000 1.79 321 12:31 09.12.2021
5005 Clear 9 1014 61 10000 0.45 306 10:47 09.12.2021
5006 Clear 6 1012 69 10000 2.24 255 08:20 09.12.2021
5007 Clear 7 1010 64 10000 2.68 281 03:59 09.12.2021
5008 Clear 7 1009 63 10000 0.89 333 01:52 09.12.2021
5009 Clear 8 1008 57 10000 1.34 0 23:40 08.12.2021
5010 Clear 9 1008 56 10000 1.34 324 23:20 08.12.2021
5011 Clouds 9 1008 54 10000 2.24 234 22:43 08.12.2021
5012 Clouds 10 1007 51 10000 2.24 223 21:39 08.12.2021
5013 Clouds 10 1007 50 10000 3.13 281 20:58 08.12.2021
5014 Clouds 10 1006 49 10000 2.68 252 19:57 08.12.2021
5015 Clouds 10 1006 48 10000 1.34 280 19:29 08.12.2021
5016 Clouds 11 1006 45 10000 1.34 235 18:30 08.12.2021
5017 Clouds 12 1005 44 10000 2.68 271 17:24 08.12.2021
5018 Clouds 13 1004 45 10000 4.02 311 15:46 08.12.2021
5019 Clouds 13 1004 45 10000 4.92 315 15:23 08.12.2021
5020 Clouds 13 1004 46 10000 4.47 299 13:40 08.12.2021
5021 Clouds 13 1005 52 10000 4.02 292 10:53 08.12.2021
5022 Clouds 13 1005 52 10000 3.13 252 10:24 08.12.2021
5023 Clouds 12 1004 53 10000 3.13 288 08:54 08.12.2021
5024 Clouds 13 1004 66 10000 1.79 300 07:21 08.12.2021
5025 Clouds 13 1005 76 10000 0.45 290 01:21 08.12.2021
5026 Clouds 13 1007 78 10000 1.34 281 23:31 07.12.2021
5027 Clouds 13 1009 82 10000 0.45 305 21:26 07.12.2021
5028 Clouds 13 1009 83 10000 2.57 260 20:30 07.12.2021
5029 Clouds 13 1010 82 10000 0.45 341 19:50 07.12.2021
5030 Clouds 13 1011 79 10000 0.89 108 18:39 07.12.2021
5031 Clouds 14 1011 74 10000 0.89 220 17:27 07.12.2021
5032 Clouds 14 1012 73 10000 0.89 309 16:57 07.12.2021
5033 Clouds 15 1012 71 10000 0.89 268 16:28 07.12.2021
5034 Clouds 15 1014 66 10000 1.79 255 14:50 07.12.2021
5035 Clear 15 1015 63 10000 0.45 130 13:46 07.12.2021
5036 Clear 14 1017 62 10000 0.45 126 12:46 07.12.2021
5037 Clear 12 1018 67 10000 0.89 188 11:25 07.12.2021
5038 Clear 9 1019 77 10000 1.34 331 09:44 07.12.2021
5039 Clouds 8 1019 80 10000 0.45 0 07:55 07.12.2021
5040 Clear 8 1018 79 10000 3.58 282 05:55 07.12.2021
5041 Clear 8 1018 79 10000 2.24 290 05:30 07.12.2021
5042 Clear 9 1017 77 10000 1.03 0 23:45 06.12.2021
5043 Clear 9 1017 74 10000 0.45 293 22:44 06.12.2021
5044 Clear 9 1017 74 10000 1.79 126 22:22 06.12.2021
5045 Clear 10 1017 71 10000 0.45 302 21:42 06.12.2021
5046 Clouds 10 1018 66 10000 0.45 305 20:33 06.12.2021
5047 Clouds 11 1018 61 10000 0.45 301 19:27 06.12.2021
5048 Clouds 11 1018 59 10000 0.45 289 18:59 06.12.2021
5049 Clear 13 1017 51 10000 0.89 63 17:56 06.12.2021
5050 Clear 13 1017 51 10000 0.45 0 17:37 06.12.2021
5051 Clear 14 1017 44 10000 0.89 269 16:22 06.12.2021
5052 Clear 14 1016 43 10000 1.34 309 15:38 06.12.2021
5053 Clear 13 1016 45 10000 1.79 306 13:46 06.12.2021
5054 Clear 12 1017 49 10000 1.34 294 12:39 06.12.2021
5055 Clear 9 1017 60 10000 2.24 327 10:38 06.12.2021
5056 Clouds 6 1016 68 10000 0.89 336 08:45 06.12.2021
5057 Clouds 6 1014 67 10000 1.34 285 04:56 06.12.2021
5058 Clear 8 1012 52 10000 1.79 314 22:54 05.12.2021
5059 Clouds 8 1012 52 10000 1.34 303 21:43 05.12.2021
5060 Clouds 9 1012 53 10000 1.34 298 21:19 05.12.2021
5061 Clouds 9 1011 53 10000 2.24 0 20:19 05.12.2021
5062 Clouds 10 1011 48 10000 0.89 256 19:33 05.12.2021
5063 Clouds 10 1011 49 10000 0.89 257 18:47 05.12.2021
5064 Clouds 11 1010 55 10000 2.24 345 18:19 05.12.2021
5065 Clouds 11 1009 56 10000 2.68 254 17:48 05.12.2021
5066 Clouds 12 1008 55 10000 2.68 270 16:47 05.12.2021
5067 Clouds 12 1008 55 10000 2.24 347 16:26 05.12.2021
5068 Clouds 12 1007 57 10000 1.79 232 15:34 05.12.2021
5069 Clouds 12 1007 57 10000 3.58 333 14:37 05.12.2021
5070 Clouds 12 1007 58 10000 2.24 277 14:19 05.12.2021
5071 Clouds 11 1008 60 10000 3.58 347 13:22 05.12.2021
5072 Clouds 11 1008 62 10000 1.34 313 12:40 05.12.2021
5073 Clouds 11 1008 61 10000 0.89 67 12:18 05.12.2021
5074 Clouds 11 1009 63 10000 2.24 352 11:29 05.12.2021
5075 Clouds 10 1009 65 10000 0.89 167 09:59 05.12.2021
5076 Clouds 9 1009 68 10000 1.79 286 07:55 05.12.2021
5077 Clouds 9 1012 65 10000 3.13 268 03:27 05.12.2021
5078 Clouds 12 1013 63 10000 3.13 238 23:45 04.12.2021
5079 Clouds 13 1012 62 10000 3.13 248 21:55 04.12.2021
5080 Clouds 13 1012 59 10000 0.45 294 20:57 04.12.2021
5081 Clouds 14 1011 57 10000 0.89 305 20:20 04.12.2021
5082 Clear 14 1012 59 10000 3.58 290 19:32 04.12.2021
5083 Clouds 14 1012 65 10000 0.89 298 18:21 04.12.2021
5084 Clouds 15 1012 65 10000 1.34 5 17:39 04.12.2021
5085 Clouds 15 1011 63 10000 2.68 336 16:51 04.12.2021
5086 Clouds 15 1011 63 10000 3.13 291 16:31 04.12.2021
5087 Clouds 15 1011 60 10000 2.68 340 15:40 04.12.2021
5088 Clouds 15 1014 63 10000 0.45 129 11:51 04.12.2021
5089 Clouds 14 1015 65 10000 0.45 93 11:32 04.12.2021
5090 Clouds 13 1015 68 10000 0.45 49 10:53 04.12.2021
5091 Clear 10 1016 77 10000 3.13 319 08:48 04.12.2021
5092 Clouds 9 1016 80 10000 0.45 296 06:42 04.12.2021
5093 Clouds 9 1016 79 10000 1.79 261 04:42 04.12.2021
5094 Clouds 9 1019 75 10000 0.89 282 00:35 04.12.2021
5095 Clouds 9 1019 71 10000 0.45 292 23:27 03.12.2021
5096 Clouds 9 1019 70 10000 0.45 295 22:47 03.12.2021
5097 Clouds 9 1019 71 10000 0.89 297 21:42 03.12.2021
5098 Clouds 9 1019 71 10000 0.45 295 20:55 03.12.2021
5099 Clouds 9 1019 70 10000 0.45 301 20:26 03.12.2021
5100 Clouds 10 1018 65 10000 1.54 330 18:44 03.12.2021
5101 Clouds 11 1018 62 10000 0.51 0 17:59 03.12.2021
5102 Clouds 13 1017 53 10000 0.89 263 16:43 03.12.2021
5103 Clouds 13 1016 51 10000 0.45 234 13:27 03.12.2021
5104 Clear 11 1017 56 10000 0.45 13 12:20 03.12.2021
5105 Clear 9 1016 62 10000 1.34 279 10:58 03.12.2021
5106 Clouds 5 1014 72 10000 4.02 273 08:31 03.12.2021
5107 Clouds 5 1013 72 10000 4.02 300 07:43 03.12.2021
5108 Clouds 5 1013 72 10000 4.02 300 07:43 03.12.2021
5109 Clouds 6 1012 71 10000 1.79 0 06:40 03.12.2021
5110 Clouds 7 1011 44 10000 0.89 303 00:49 03.12.2021
5111 Clouds 8 1011 40 10000 0.45 233 23:48 02.12.2021
5112 Clouds 9 1011 37 10000 1.79 328 22:48 02.12.2021
5113 Clouds 11 1010 33 10000 2.68 329 21:41 02.12.2021
5114 Clouds 11 1009 38 10000 0.89 161 20:45 02.12.2021
5115 Clouds 11 1009 42 10000 0.89 227 20:22 02.12.2021
5116 Clouds 12 1007 60 10000 0.45 302 18:50 02.12.2021
5117 Clouds 14 1006 52 10000 1.34 112 16:43 02.12.2021
5118 Clouds 14 1005 52 10000 0.89 0 15:41 02.12.2021
5119 Clouds 14 1005 55 10000 0.45 223 14:52 02.12.2021
5120 Clouds 13 1006 60 10000 1.79 312 13:39 02.12.2021
5121 Clouds 12 1006 65 10000 0.89 59 12:36 02.12.2021
5122 Clouds 12 1006 68 10000 1.34 0 11:45 02.12.2021
5123 Clouds 10 1006 78 10000 1.34 344 09:27 02.12.2021
5124 Clouds 9 1005 80 10000 1.34 286 07:20 02.12.2021
5125 Clouds 10 1006 80 10000 0.89 237 01:38 02.12.2021
5126 Clouds 10 1007 81 10000 0.45 0 00:50 02.12.2021
5127 Clouds 11 1009 79 10000 2.24 262 22:33 01.12.2021
5128 Clouds 11 1009 79 10000 4.02 254 21:54 01.12.2021
5129 Clouds 11 1010 81 10000 2.24 317 20:35 01.12.2021
5130 Rain 11 1010 81 10000 2.68 318 19:47 01.12.2021
5131 Rain 11 1011 76 10000 1.79 297 18:55 01.12.2021
5132 Clouds 13 1011 62 10000 0.89 280 17:32 01.12.2021
5133 Clouds 14 1011 61 10000 0.89 288 16:38 01.12.2021
5134 Clouds 14 1012 63 10000 0.45 314 14:48 01.12.2021
5135 Clouds 12 1014 68 10000 0.89 287 13:38 01.12.2021
5136 Clouds 10 1017 74 10000 0.45 264 11:34 01.12.2021
5137 Clouds 10 1018 75 10000 1.34 332 10:41 01.12.2021
5138 Clear 8 1019 81 10000 0.89 323 08:54 01.12.2021
5139 Clear 8 1019 80 10000 0.45 256 08:26 01.12.2021
5140 Clouds 8 1019 80 10000 1.34 265 07:32 01.12.2021
5141 Clear 8 1020 81 10000 0.45 305 04:20 01.12.2021
5142 Clear 8 1021 81 10000 0.45 313 03:38 01.12.2021
5143 Clouds 9 1023 79 10000 0.45 340 00:48 01.12.2021
5144 Clouds 9 1023 79 10000 1.79 252 23:37 30.11.2021
5145 Clouds 9 1024 79 10000 3.6 320 22:48 30.11.2021
5146 Clouds 10 1024 77 10000 0.51 340 20:59 30.11.2021
5147 Clouds 10 1024 77 10000 1.03 320 20:34 30.11.2021
5148 Clouds 10 1024 78 10000 2.06 310 19:53 30.11.2021
5149 Clouds 10 1024 75 10000 2.57 280 19:30 30.11.2021
5150 Clouds 11 1024 76 10000 2.57 260 18:33 30.11.2021
5151 Clouds 14 1024 66 10000 0.45 193 16:34 30.11.2021
5152 Clouds 14 1024 68 10000 0.89 191 14:58 30.11.2021
5153 Clouds 14 1025 70 10000 0.45 140 14:19 30.11.2021
5154 Clouds 13 1025 70 10000 0.89 123 13:25 30.11.2021
5155 Clouds 12 1025 71 10000 0.89 54 12:45 30.11.2021
5156 Clouds 11 1026 73 10000 0.45 134 11:27 30.11.2021
5157 Clouds 10 1026 73 10000 0.45 260 10:56 30.11.2021
5158 Clouds 10 1025 75 10000 1.34 250 10:31 30.11.2021
5159 Drizzle 9 1024 79 10000 0.89 249 08:52 30.11.2021
5160 Clouds 8 1024 79 10000 0.45 243 08:20 30.11.2021
5161 Clouds 8 1024 79 10000 0.45 256 07:47 30.11.2021
5162 Clouds 7 1021 76 10000 0.89 239 02:29 30.11.2021
5163 Clouds 7 1021 74 10000 1.34 266 01:40 30.11.2021
5164 Clouds 7 1020 74 10000 0.45 286 23:57 29.11.2021
5165 Clouds 7 1019 73 10000 0.89 258 23:23 29.11.2021
5166 Clouds 8 1018 72 10000 0.45 327 22:52 29.11.2021
5167 Clouds 8 1018 70 10000 0.45 327 22:32 29.11.2021
5168 Clouds 9 1017 69 10000 1.79 117 21:23 29.11.2021
5169 Clouds 10 1017 68 10000 0.89 148 20:59 29.11.2021
5170 Clouds 10 1016 69 10000 1.34 176 20:32 29.11.2021
5171 Clouds 10 1015 69 10000 2.24 159 19:55 29.11.2021
5172 Clouds 11 1015 69 10000 4.47 136 19:35 29.11.2021
5173 Clouds 11 1015 55 10000 1.98 103 18:51 29.11.2021
5174 Clear 11 1015 48 10000 2.04 178 17:49 29.11.2021
5175 Clear 11 1014 47 10000 3.28 200 17:18 29.11.2021
5176 Clear 11 1013 43 10000 2.91 211 16:29 29.11.2021
5177 Clear 12 1013 43 10000 2.92 212 15:50 29.11.2021
5178 Clear 12 1012 39 10000 2.93 238 14:43 29.11.2021
5179 Clear 11 1012 38 10000 3.47 258 13:33 29.11.2021
5180 Clear 10 1012 35 10000 3.46 280 12:37 29.11.2021
5181 Clear 10 1012 35 10000 3.46 280 11:40 29.11.2021
5182 Clear 9 1012 37 10000 3.54 311 10:51 29.11.2021
5183 Clouds 5 1011 75 10000 5.14 290 09:34 29.11.2021
5184 Clouds 5 1008 75 10000 4.63 330 06:21 29.11.2021
5185 Clear 7 1006 65 10000 8.23 320 02:28 29.11.2021
5186 Clouds 6 1006 70 10000 5.14 290 00:42 29.11.2021
5187 Clouds 6 1007 65 10000 3.09 250 23:44 28.11.2021
5188 Clouds 6 1007 65 10000 3.09 250 23:24 28.11.2021
5189 Clouds 7 1007 61 10000 5.66 300 21:52 28.11.2021
5190 Clouds 7 1007 61 10000 6.69 300 21:23 28.11.2021
5191 Clouds 8 1007 57 10000 7.2 290 20:34 28.11.2021
5192 Clouds 9 1006 53 10000 9.26 290 19:25 28.11.2021
5193 Clouds 9 1004 53 10000 9.77 300 18:35 28.11.2021
5194 Clouds 9 1004 53 10000 9.77 290 17:56 28.11.2021
5195 Clouds 10 1005 50 10000 6.69 270 17:32 28.11.2021
5196 Clouds 11 1005 43 10000 7.72 270 16:44 28.11.2021
5197 Clouds 11 1005 46 10000 5.14 260 16:22 28.11.2021
5198 Clouds 11 1005 46 10000 6.69 280 15:32 28.11.2021
5199 Clouds 11 1005 46 10000 7.72 290 14:48 28.11.2021
5200 Clouds 11 1005 46 10000 7.2 280 13:49 28.11.2021
5201 Clouds 10 1006 53 10000 8.23 290 12:51 28.11.2021
5202 Clouds 9 1006 53 10000 9.77 300 11:18 28.11.2021
5203 Clouds 8 1006 53 10000 8.75 300 10:22 28.11.2021
5204 Clouds 7 1005 61 10000 3.09 360 09:38 28.11.2021
5205 Clouds 6 1004 61 10000 5.66 330 07:59 28.11.2021
5206 Clear 6 1002 70 10000 4.12 290 00:39 28.11.2021
5207 Clouds 8 1001 61 10000 3.6 320 21:40 27.11.2021
5208 Clouds 10 1000 53 10000 4.63 320 19:49 27.11.2021
5209 Clouds 11 999 58 10000 5.66 310 17:57 27.11.2021
5210 Clouds 13 997 54 10000 5.66 300 15:59 27.11.2021
5211 Clouds 14 997 51 10000 7.2 300 14:30 27.11.2021
5212 Clouds 14 998 47 10000 6.69 280 12:58 27.11.2021
5213 Clouds 12 999 58 10000 1.54 330 10:52 27.11.2021
5214 Clouds 10 998 66 10000 6.17 260 09:53 27.11.2021
5215 Clouds 7 999 76 10000 2.06 230 08:45 27.11.2021
5216 Clouds 6 999 75 10000 2.06 290 06:35 27.11.2021
5217 Clouds 6 1002 75 10000 5.14 320 02:25 27.11.2021
5218 Clear 7 1004 81 10000 3.6 320 23:40 26.11.2021
5219 Clear 8 1004 76 10000 4.63 340 22:41 26.11.2021
5220 Clear 8 1004 76 10000 4.63 340 22:19 26.11.2021
5221 Clear 8 1004 81 10000 2.06 320 21:22 26.11.2021
5222 Clear 9 1004 71 10000 3.09 340 20:40 26.11.2021
5223 Clear 9 1004 76 10000 3.09 320 19:55 26.11.2021
5224 Clear 11 1004 62 10000 3.09 330 18:45 26.11.2021
5225 Clear 12 1003 62 10000 4.63 340 17:26 26.11.2021
5226 Clear 13 1003 58 10000 4.63 330 16:45 26.11.2021
5227 Clouds 13 1004 58 10000 4.63 330 14:57 26.11.2021
5228 Clouds 12 1004 64 10000 0.45 296 13:35 26.11.2021
5229 Fog 10 1005 71 10000 3.13 339 10:44 26.11.2021
5230 Clear 9 1005 74 10000 4.02 338 09:53 26.11.2021
5231 Clear 8 1005 75 10000 4.47 298 08:50 26.11.2021
5232 Clear 8 1005 77 10000 3.58 309 08:20 26.11.2021
5233 Clouds 8 1005 76 10000 0.45 0 06:30 26.11.2021
5234 Clouds 8 1005 77 10000 0.45 0 05:35 26.11.2021
5235 Clouds 8 1005 78 10000 0.89 309 03:39 26.11.2021
5236 Clouds 9 1005 77 10000 3.13 264 23:49 25.11.2021
5237 Clouds 10 1005 75 10000 2.68 306 22:34 25.11.2021
5238 Clouds 10 1005 77 10000 1.79 307 20:45 25.11.2021
5239 Clouds 11 1005 78 10000 0.89 176 19:35 25.11.2021
5240 Clouds 11 1004 79 10000 0.45 216 18:35 25.11.2021
5241 Clouds 12 1004 76 10000 2.06 330 17:28 25.11.2021
5242 Clouds 13 1003 72 10000 1.54 360 16:47 25.11.2021
5243 Clouds 13 1003 71 10000 2.06 30 16:25 25.11.2021
5244 Clouds 13 1003 74 10000 0.45 281 14:52 25.11.2021
5245 Clouds 12 1003 78 10000 0.45 260 13:21 25.11.2021
5246 Clouds 12 1004 80 10000 2.24 293 12:19 25.11.2021
5247 Clouds 10 1004 81 10000 1.34 258 10:50 25.11.2021
5248 Clouds 9 1003 90 10000 0.89 233 08:42 25.11.2021
5249 Clouds 9 1004 85 10000 1.34 334 03:42 25.11.2021
5250 Clouds 10 1005 83 10000 0.45 145 02:44 25.11.2021
5251 Rain 10 1006 83 10000 3.09 290 22:44 24.11.2021
5252 Clouds 10 1006 82 10000 0.45 205 22:21 24.11.2021
5253 Clouds 11 1007 78 10000 1.54 220 21:27 24.11.2021
5254 Clouds 11 1007 80 10000 0.45 315 20:42 24.11.2021
5255 Clouds 11 1007 80 10000 0.45 248 20:18 24.11.2021
5256 Clouds 12 1007 80 10000 1.79 257 18:30 24.11.2021
5257 Rain 13 1007 81 10000 5.36 166 16:53 24.11.2021
5258 Clouds 14 1007 85 10000 4.02 131 15:22 24.11.2021
5259 Clouds 13 1008 84 10000 4.92 134 14:42 24.11.2021
5260 Clouds 13 1007 84 4000 4.02 161 14:19 24.11.2021
5261 Clouds 13 1011 84 6000 4.92 184 11:51 24.11.2021
5262 Clouds 13 1011 84 10000 4.92 130 11:20 24.11.2021
5263 Clouds 12 1011 84 10000 5.36 123 10:47 24.11.2021
5264 Clouds 12 1011 84 10000 5.81 109 10:21 24.11.2021
5265 Clouds 11 1011 88 10000 0.45 57 07:46 24.11.2021
5266 Clouds 11 1011 87 10000 1.34 283 06:51 24.11.2021
5267 Drizzle 10 1013 86 10000 1.34 284 03:50 24.11.2021
5268 Clouds 11 1013 86 10000 1.34 312 00:32 24.11.2021
5269 Clouds 12 1013 84 10000 1.34 157 22:40 23.11.2021
5270 Rain 12 1013 84 10000 1.34 167 22:18 23.11.2021
5271 Rain 12 1013 86 6000 0.45 279 21:44 23.11.2021
5272 Clouds 12 1013 85 10000 2.68 155 19:37 23.11.2021
5273 Clouds 12 1013 85 10000 2.68 155 19:37 23.11.2021
5274 Rain 13 1012 85 6000 1.79 181 18:41 23.11.2021
5275 Clouds 13 1012 86 9000 4.02 130 18:18 23.11.2021
5276 Rain 13 1013 86 3000 4.47 146 16:57 23.11.2021
5277 Rain 14 1012 83 3000 5.36 67 15:59 23.11.2021
5278 Rain 14 1012 81 3000 4.92 129 15:22 23.11.2021
5279 Clouds 14 1013 78 10000 3.58 179 13:50 23.11.2021
5280 Clouds 14 1014 74 10000 4.47 142 11:42 23.11.2021
5281 Drizzle 13 1014 75 10000 4.92 154 09:59 23.11.2021
5282 Clouds 12 1014 74 10000 2.24 184 09:18 23.11.2021
5283 Clouds 12 1013 74 10000 0.89 25 06:41 23.11.2021
5284 Clouds 12 1013 74 10000 6.69 70 03:52 23.11.2021
5285 Clouds 12 1013 74 10000 0.45 111 01:49 23.11.2021
5286 Clouds 13 1014 74 10000 0.89 167 23:21 22.11.2021
5287 Clouds 12 1013 75 10000 0.45 121 22:47 22.11.2021
5288 Clouds 13 1013 75 10000 0.89 35 22:25 22.11.2021
5289 Clouds 13 1013 76 10000 0.45 105 21:41 22.11.2021
5290 Clouds 13 1013 77 10000 1.79 108 20:52 22.11.2021
5291 Clouds 13 1012 78 10000 0.45 150 19:56 22.11.2021
5292 Clouds 13 1012 79 10000 1.34 123 19:19 22.11.2021
5293 Clouds 13 1012 79 10000 0.89 0 18:39 22.11.2021
5294 Clouds 14 1011 78 10000 1.34 130 17:43 22.11.2021
5295 Clouds 14 1010 77 10000 1.79 131 16:19 22.11.2021
5296 Clouds 14 1010 77 10000 1.34 76 14:18 22.11.2021
5297 Clouds 14 1010 79 10000 0.45 136 12:18 22.11.2021
5298 Clouds 13 1010 79 10000 0.45 333 10:43 22.11.2021
5299 Clouds 12 1010 80 10000 0.89 360 09:43 22.11.2021
5300 Clouds 11 1009 83 10000 1.34 121 08:40 22.11.2021
5301 Clouds 11 1008 81 10000 1.79 256 06:22 22.11.2021
5302 Clouds 12 1009 81 10000 0.89 319 23:30 21.11.2021
5303 Clouds 12 1010 82 10000 1.54 300 22:50 21.11.2021
5304 Clouds 13 1010 84 10000 0.45 320 21:57 21.11.2021
5305 Clouds 13 1010 86 10000 3.09 290 20:42 21.11.2021
5306 Clouds 14 1010 86 10000 2.06 300 19:59 21.11.2021
5307 Clouds 14 1010 86 10000 1.54 40 18:25 21.11.2021
5308 Clouds 15 1010 84 10000 1.54 80 17:39 21.11.2021
5309 Clouds 16 1010 81 10000 1.54 90 16:42 21.11.2021
5310 Clouds 17 1011 75 10000 1.34 153 14:46 21.11.2021
5311 Clouds 16 1011 71 10000 0.45 0 13:49 21.11.2021
5312 Clouds 16 1012 67 10000 0.45 67 12:38 21.11.2021
5313 Clouds 16 1013 67 10000 0.89 72 11:57 21.11.2021
5314 Clouds 16 1013 66 10000 0.89 69 11:35 21.11.2021
5315 Clouds 13 1014 75 10000 2.24 213 10:19 21.11.2021
5316 Clouds 12 1013 76 10000 1.79 273 09:20 21.11.2021
5317 Clouds 12 1014 76 10000 1.34 262 08:30 21.11.2021
5318 Clouds 12 1014 77 10000 0.89 293 07:50 21.11.2021
5319 Clouds 12 1014 78 10000 0.89 294 06:20 21.11.2021
5320 Clouds 12 1014 80 10000 2.24 291 05:30 21.11.2021
5321 Clouds 13 1016 80 9000 0.89 294 03:20 21.11.2021
5322 Clouds 13 1017 81 9000 0.89 143 02:53 21.11.2021
5323 Clouds 13 1017 81 9000 0.45 272 01:23 21.11.2021
5324 Clouds 13 1018 80 10000 0.45 286 00:23 21.11.2021
5325 Clouds 13 1019 81 10000 0.45 298 21:50 20.11.2021
5326 Clouds 13 1019 81 10000 0.45 292 21:30 20.11.2021
5327 Clouds 14 1020 80 10000 0 0 19:24 20.11.2021
5328 Clouds 14 1021 79 10000 0.45 289 18:45 20.11.2021
5329 Clouds 14 1020 78 10000 1.03 0 18:19 20.11.2021
5330 Clouds 15 1021 75 10000 1.03 0 17:19 20.11.2021
5331 Clear 16 1022 70 10000 0.45 10 14:50 20.11.2021
5332 Clear 16 1023 71 10000 1.03 300 14:28 20.11.2021
5333 Clear 15 1023 68 10000 0.45 289 13:33 20.11.2021
5334 Clear 14 1025 76 10000 2.24 244 11:24 20.11.2021
5335 Clouds 13 1025 78 10000 2.68 241 09:55 20.11.2021
5336 Clear 10 1027 79 10000 0.89 241 08:26 20.11.2021
5337 Clouds 10 981 80 10000 0.45 266 05:30 20.11.2021
5338 Clouds 11 1027 79 10000 1.34 245 04:51 20.11.2021
5339 Clouds 11 1027 81 10000 1.34 290 03:54 20.11.2021
5340 Clouds 11 1028 84 10000 1.34 129 00:42 20.11.2021
5341 Clouds 11 1029 84 10000 0.45 249 23:45 19.11.2021
5342 Clouds 11 1029 85 10000 3.09 320 22:53 19.11.2021
5343 Clouds 12 1028 85 10000 2.57 320 21:24 19.11.2021
5344 Clouds 12 1028 84 10000 1.03 330 20:40 19.11.2021
5345 Clouds 12 1028 83 10000 1.03 330 20:22 19.11.2021
5346 Clouds 12 1028 83 10000 1.54 340 19:43 19.11.2021
5347 Clear 13 1029 80 10000 0.51 0 18:45 19.11.2021
5348 Clear 14 1028 78 10000 0.45 328 17:44 19.11.2021
5349 Clear 16 1028 72 10000 0.45 130 16:40 19.11.2021
5350 Clear 17 1028 68 10000 0.89 129 14:51 19.11.2021
5351 Clear 14 1030 71 10000 0.45 136 11:32 19.11.2021
5352 Clear 13 1029 75 10000 0.45 75 10:24 19.11.2021
5353 Clear 10 1029 79 10000 0.45 296 08:35 19.11.2021
5354 Clouds 10 1028 78 10000 0.45 289 05:36 19.11.2021
5355 Clouds 10 1028 78 10000 1.34 300 03:37 19.11.2021
5356 Clouds 11 1029 80 10000 0.89 275 23:54 18.11.2021
5357 Clouds 11 1028 81 10000 3.6 330 22:49 18.11.2021
5358 Clouds 11 1028 81 10000 1.54 320 21:18 18.11.2021
5359 Clouds 11 1028 80 10000 2.06 320 20:44 18.11.2021
5360 Clouds 12 1028 79 10000 1.54 300 20:23 18.11.2021
5361 Clouds 12 1027 78 10000 0.51 0 19:36 18.11.2021
5362 Clouds 13 1027 75 10000 1.54 200 18:38 18.11.2021
5363 Clouds 14 1026 72 10000 0.45 5 17:52 18.11.2021
5364 Clear 15 1026 67 10000 2.06 210 17:22 18.11.2021
5365 Clear 15 1026 66 10000 0.45 184 16:42 18.11.2021
5366 Clear 16 1026 61 10000 0.45 144 15:23 18.11.2021
5367 Clear 15 1026 59 10000 0.89 0 12:56 18.11.2021
5368 Clear 14 1027 62 10000 2.68 245 11:44 18.11.2021
5369 Clear 13 1027 64 10000 2.24 262 11:26 18.11.2021
5370 Clear 13 1027 64 10000 2.24 254 11:26 18.11.2021
5371 Clear 12 1026 67 10000 4.02 243 10:36 18.11.2021
5372 Clouds 9 1026 75 10000 2.68 306 08:49 18.11.2021
5373 Clouds 8 1025 77 10000 2.24 292 07:19 18.11.2021
5374 Clouds 9 1024 76 10000 2.68 321 05:46 18.11.2021
5375 Clouds 10 1023 76 10000 4.47 295 02:34 18.11.2021
5376 Clouds 11 1023 82 10000 4.63 330 23:46 17.11.2021
5377 Clouds 11 1023 83 10000 0.45 292 22:40 17.11.2021
5378 Clouds 11 1023 83 10000 2.57 330 22:20 17.11.2021
5379 Clouds 11 1022 83 10000 2.57 330 21:36 17.11.2021
5380 Clouds 11 1022 81 10000 0.45 303 20:18 17.11.2021
5381 Clouds 14 1020 75 10000 2.06 170 17:44 17.11.2021
5382 Clouds 15 1019 71 10000 0.45 308 16:59 17.11.2021
5383 Clouds 16 1019 60 10000 0.89 291 13:59 17.11.2021
5384 Clouds 14 1019 62 10000 0.45 11 12:39 17.11.2021
5385 Clear 13 1020 64 10000 1.79 260 11:37 17.11.2021
5386 Clear 11 1019 71 10000 0.45 0 10:28 17.11.2021
5387 Clouds 10 1019 75 10000 1.79 244 09:23 17.11.2021
5388 Clouds 9 1018 76 10000 3.13 311 07:41 17.11.2021
5389 Clear 11 1017 74 10000 3.13 257 03:31 17.11.2021
5390 Clouds 12 1017 70 10000 3.13 269 00:47 17.11.2021
5391 Clouds 12 1018 73 10000 2.24 260 22:44 16.11.2021
5392 Clouds 12 1017 77 10000 2.24 294 20:20 16.11.2021
5393 Clouds 12 1017 77 10000 2.24 294 19:59 16.11.2021
5394 Clouds 12 1017 76 10000 0.45 0 18:53 16.11.2021
5395 Clouds 13 1016 76 10000 2.24 279 18:30 16.11.2021
5396 Clouds 13 1016 75 10000 2.24 275 17:34 16.11.2021
5397 Clouds 13 1016 76 10000 3.58 306 16:32 16.11.2021
5398 Clouds 13 1016 76 10000 3.58 263 15:49 16.11.2021
5399 Clouds 12 1016 80 10000 1.79 227 14:39 16.11.2021
5400 Rain 10 1018 83 10000 0.45 0 11:28 16.11.2021
5401 Clouds 11 1017 77 10000 3.13 314 09:46 16.11.2021
5402 Clouds 11 1017 72 10000 0.45 0 08:26 16.11.2021
5403 Clouds 11 1016 72 10000 3.58 267 07:32 16.11.2021
5404 Clouds 12 1017 77 10000 2.24 269 01:44 16.11.2021
5405 Clouds 12 1017 77 10000 1.34 311 23:20 15.11.2021
5406 Clouds 13 1016 79 10000 0.45 311 22:30 15.11.2021
5407 Clouds 13 1016 79 10000 0.89 259 21:53 15.11.2021
5408 Clouds 13 1016 77 10000 0.45 278 21:28 15.11.2021
5409 Clouds 13 1016 76 10000 1.54 40 19:42 15.11.2021
5410 Clouds 14 1015 73 10000 1.54 180 18:33 15.11.2021
5411 Clouds 15 1014 67 10000 0.51 360 16:20 15.11.2021
5412 Clouds 15 1013 65 10000 0.45 274 15:41 15.11.2021
5413 Clouds 15 1013 65 10000 0.45 292 15:23 15.11.2021
5414 Clouds 15 1014 70 10000 0.89 265 13:29 15.11.2021
5415 Rain 12 1015 82 10000 0.45 281 10:57 15.11.2021
5416 Clouds 11 1014 84 10000 0.45 271 09:28 15.11.2021
5417 Clouds 10 1013 88 10000 1.79 274 07:52 15.11.2021
5418 Clouds 11 1013 86 10000 0.89 256 05:21 15.11.2021
5419 Rain 12 1015 85 8000 4.12 60 23:54 14.11.2021
5420 Clouds 13 1014 84 10000 1.34 47 22:35 14.11.2021
5421 Clouds 15 1014 79 10000 2.24 171 19:57 14.11.2021
5422 Clouds 15 1014 79 10000 1.34 180 19:18 14.11.2021
5423 Clouds 15 1014 79 10000 1.79 167 18:54 14.11.2021
5424 Clouds 15 1014 79 10000 1.79 153 18:36 14.11.2021
5425 Clouds 15 1013 79 10000 1.79 174 18:18 14.11.2021
5426 Clouds 15 1013 78 10000 1.34 0 17:56 14.11.2021
5427 Clouds 15 1013 77 10000 0.45 179 17:38 14.11.2021
5428 Clouds 16 1013 77 10000 0.45 170 17:20 14.11.2021
5429 Clouds 16 1013 76 10000 0.89 75 16:47 14.11.2021
5430 Clouds 16 1013 76 10000 0.89 75 16:47 14.11.2021
5431 Clouds 16 1013 76 10000 0.89 182 16:20 14.11.2021
5432 Clouds 16 1013 74 10000 2.57 120 15:23 14.11.2021
5433 Clouds 16 1013 74 10000 0.45 138 14:49 14.11.2021
5434 Clouds 16 1013 73 10000 0.45 124 14:29 14.11.2021
5435 Clouds 16 1014 74 10000 0.89 59 13:57 14.11.2021
5436 Clouds 16 1014 73 10000 1.34 0 13:39 14.11.2021
5437 Clouds 16 1014 72 10000 0.89 274 12:28 14.11.2021
5438 Clouds 16 1015 72 10000 0.45 284 11:52 14.11.2021
5439 Fog 14 1015 74 10000 0.45 0 10:42 14.11.2021
5440 Fog 14 1015 76 10000 1.34 265 09:52 14.11.2021
5441 Clouds 12 1015 80 10000 0.45 15 08:55 14.11.2021
5442 Clouds 12 1015 80 10000 0.45 132 07:23 14.11.2021
5443 Clouds 14 1016 81 10000 0.45 273 01:24 14.11.2021
5444 Clouds 15 1017 79 10000 0.45 126 22:26 13.11.2021
5445 Clouds 15 1017 78 10000 0.45 270 21:57 13.11.2021
5446 Clouds 15 1017 78 10000 1.34 119 21:23 13.11.2021
5447 Clouds 16 1017 80 10000 1.03 100 19:47 13.11.2021
5448 Clouds 16 1017 80 10000 0.51 0 18:33 13.11.2021
5449 Clouds 17 1017 80 10000 1.54 110 17:56 13.11.2021
5450 Clouds 18 1016 74 10000 0.89 127 16:38 13.11.2021
5451 Clouds 19 1016 70 10000 0.45 40 15:34 13.11.2021
5452 Clouds 20 1016 64 10000 0.45 89 14:30 13.11.2021
5453 Clouds 20 1017 61 10000 0.89 123 13:32 13.11.2021
5454 Clouds 19 1017 63 10000 0.45 281 12:28 13.11.2021
5455 Clouds 18 1018 66 10000 1.34 309 11:38 13.11.2021
5456 Clouds 17 1018 66 10000 1.34 347 10:45 13.11.2021
5457 Clouds 17 1018 66 10000 1.34 347 10:22 13.11.2021
5458 Clouds 16 1017 70 10000 0.45 101 09:38 13.11.2021
5459 Clouds 15 1017 71 10000 0.45 254 08:56 13.11.2021
5460 Clouds 15 1017 72 10000 0.45 324 08:30 13.11.2021
5461 Clouds 15 1016 74 10000 0.89 252 04:48 13.11.2021
5462 Clouds 15 1016 73 10000 0.45 220 04:30 13.11.2021
5463 Clouds 16 1016 72 10000 3.13 284 01:38 13.11.2021
5464 Clouds 16 1016 74 10000 0.89 246 22:58 12.11.2021
5465 Clouds 16 1016 75 10000 1.54 320 21:49 12.11.2021
5466 Clouds 17 1015 69 10000 0.45 300 19:55 12.11.2021
5467 Clouds 17 1015 69 10000 3.13 41 19:28 12.11.2021
5468 Clouds 17 1015 68 10000 3.13 58 18:46 12.11.2021
5469 Clouds 19 1014 62 10000 0.45 260 16:35 12.11.2021
5470 Clouds 18 1014 64 10000 1.79 80 15:33 12.11.2021
5471 Clouds 16 1014 76 10000 0.45 112 12:54 12.11.2021
5472 Clouds 16 1014 76 10000 0.45 112 12:54 12.11.2021
5473 Drizzle 15 1015 79 10000 1.79 254 10:51 12.11.2021
5474 Rain 15 1015 78 10000 4.02 290 09:45 12.11.2021
5475 Clouds 15 1014 77 10000 4.02 351 08:39 12.11.2021
5476 Clouds 15 1015 81 10000 0.45 59 03:27 12.11.2021
5477 Clouds 16 1016 77 10000 2.68 103 23:42 11.11.2021
5478 Clouds 16 1017 76 10000 1.34 33 22:39 11.11.2021
5479 Clouds 16 1017 77 10000 0.89 0 21:28 11.11.2021
5480 Clouds 16 1017 78 10000 1.34 318 20:48 11.11.2021
5481 Clouds 17 1017 81 10000 1.34 65 19:24 11.11.2021
5482 Clouds 17 1016 83 10000 1.34 129 17:58 11.11.2021
5483 Clouds 17 1016 83 10000 3.58 196 17:36 11.11.2021
5484 Clouds 18 1015 82 10000 2.24 161 15:18 11.11.2021
5485 Clouds 18 1015 80 10000 1.79 139 14:30 11.11.2021
5486 Clouds 18 1015 78 10000 2.24 96 13:40 11.11.2021
5487 Clouds 18 1015 81 10000 3.13 103 12:52 11.11.2021
5488 Clouds 17 1016 83 10000 2.68 21 11:30 11.11.2021
5489 Clouds 15 1016 84 9000 0.89 264 09:49 11.11.2021
5490 Rain 15 1015 84 8000 1.34 164 08:19 11.11.2021
5491 Clouds 15 1014 77 10000 2.24 277 06:18 11.11.2021
5492 Clouds 15 1015 80 10000 0.89 192 00:36 11.11.2021
5493 Clouds 14 1015 81 10000 1.79 273 22:32 10.11.2021
5494 Clouds 14 1015 83 10000 0.45 294 21:33 10.11.2021
5495 Clouds 14 1015 82 10000 2.24 317 20:51 10.11.2021
5496 Clouds 14 1015 83 10000 0.45 242 19:48 10.11.2021
5497 Clouds 14 1015 85 10000 0.45 260 19:30 10.11.2021
5498 Rain 13 1014 92 6000 0.89 314 16:40 10.11.2021
5499 Rain 13 1014 90 7000 0.89 296 15:46 10.11.2021
5500 Rain 14 1014 85 8000 1.79 290 14:22 10.11.2021
5501 Rain 15 1014 79 10000 1.34 261 13:26 10.11.2021
5502 Clouds 16 1015 76 10000 1.34 277 11:39 10.11.2021
5503 Clouds 15 1016 74 10000 1.34 341 09:18 10.11.2021
5504 Clouds 15 1016 75 10000 0.45 254 08:40 10.11.2021
5505 Clouds 15 1016 75 10000 1.34 355 06:43 10.11.2021
5506 Clouds 15 1017 74 10000 0.89 216 05:53 10.11.2021
5507 Clouds 15 1017 71 10000 0.89 181 01:44 10.11.2021
5508 Drizzle 15 1017 71 10000 1.79 122 21:59 09.11.2021
5509 Clouds 15 1018 66 10000 1.79 96 20:34 09.11.2021
5510 Clouds 15 1017 63 10000 0.89 291 19:28 09.11.2021
5511 Clouds 15 1017 62 10000 0.89 229 18:47 09.11.2021
5512 Rain 16 1017 49 10000 0.89 0 16:29 09.11.2021
5513 Clouds 16 1017 48 10000 2.24 292 14:59 09.11.2021
5514 Clouds 16 1017 51 10000 0.45 288 13:31 09.11.2021
5515 Clouds 15 1018 55 10000 0.45 46 12:24 09.11.2021
5516 Clouds 13 1018 60 10000 0.45 323 10:53 09.11.2021
5517 Clouds 12 1017 63 10000 0.45 355 09:44 09.11.2021
5518 Clouds 11 1017 66 10000 2.68 307 08:53 09.11.2021
5519 Clouds 11 1016 72 10000 3.13 304 06:59 09.11.2021
5520 Clouds 12 1016 78 10000 1.34 222 02:32 09.11.2021
5521 Clouds 13 1016 78 10000 0.45 286 01:50 09.11.2021
5522 Clouds 13 1016 79 10000 1.34 343 00:22 09.11.2021
5523 Clouds 13 1016 80 10000 1.79 250 23:29 08.11.2021
5524 Clouds 13 1016 80 10000 0.89 251 22:36 08.11.2021
5525 Clear 13 1015 80 10000 2.57 320 21:22 08.11.2021
5526 Clear 14 1015 81 10000 1.03 10 20:31 08.11.2021
5527 Clear 14 1014 78 10000 1.03 30 19:18 08.11.2021
5528 Clear 17 1012 67 10000 1.34 0 17:39 08.11.2021
5529 Clear 18 1012 55 10000 0.45 74 15:48 08.11.2021
5530 Clear 19 1012 50 10000 0.45 30 14:55 08.11.2021
5531 Clear 19 1013 51 10000 0.45 108 14:24 08.11.2021
5532 Clouds 18 1014 50 10000 0.89 158 12:48 08.11.2021
5533 Clouds 16 1014 53 10000 1.34 275 11:37 08.11.2021
5534 Clouds 14 1014 57 10000 3.13 246 10:35 08.11.2021
5535 Clouds 12 1014 62 10000 1.34 306 08:56 08.11.2021
5536 Clouds 10 1014 65 10000 0.89 308 07:56 08.11.2021
5537 Clouds 10 1013 67 10000 1.79 298 06:55 08.11.2021
5538 Clouds 12 1014 59 10000 5.81 277 03:35 08.11.2021
5539 Clouds 13 1015 52 10000 2.68 286 00:18 08.11.2021
5540 Clouds 13 1016 50 10000 2.24 265 22:48 07.11.2021
5541 Clouds 14 1016 49 10000 1.79 241 21:24 07.11.2021
5542 Clouds 14 1016 49 10000 1.34 325 20:18 07.11.2021
5543 Clouds 15 1016 51 10000 2.06 250 18:30 07.11.2021
5544 Clouds 16 1015 44 10000 0.45 348 17:40 07.11.2021
5545 Clouds 18 1015 40 10000 1.79 261 16:21 07.11.2021
5546 Clouds 18 1016 38 10000 0.45 40 14:54 07.11.2021
5547 Clouds 18 1016 37 10000 0.45 257 14:27 07.11.2021
5548 Clouds 15 1017 43 10000 0.45 69 12:48 07.11.2021
5549 Clouds 14 1018 46 10000 0.89 219 11:41 07.11.2021
5550 Clouds 10 1018 53 10000 4.92 202 08:59 07.11.2021
5551 Clear 9 1019 56 10000 2.24 292 02:56 07.11.2021
5552 Clear 10 1019 56 10000 3.13 286 02:18 07.11.2021
5553 Clear 10 1020 59 10000 0.89 284 22:56 06.11.2021
5554 Clear 11 1021 58 10000 1.34 292 21:53 06.11.2021
5555 Clear 12 1020 53 10000 0.89 276 20:59 06.11.2021
5556 Clear 12 1021 50 10000 3.09 350 20:18 06.11.2021
5557 Clear 16 1020 42 10000 3.58 138 17:31 06.11.2021
5558 Clear 18 1020 39 10000 3.13 150 16:32 06.11.2021
5559 Clear 17 1021 37 10000 0.89 31 13:41 06.11.2021
5560 Clouds 16 1022 40 10000 0.89 103 12:56 06.11.2021
5561 Clear 13 1023 46 10000 1.34 313 11:18 06.11.2021
5562 Clear 9 1022 56 10000 2.24 323 08:48 06.11.2021
5563 Clear 9 1022 57 10000 1.79 279 04:50 06.11.2021
5564 Clouds 10 1022 67 10000 1.34 276 23:49 05.11.2021
5565 Clear 10 1022 68 10000 0.45 297 23:28 05.11.2021
5566 Clear 11 1021 70 10000 2.57 330 22:33 05.11.2021
5567 Clouds 12 1020 69 10000 3.09 330 20:32 05.11.2021
5568 Clouds 12 1020 72 10000 0.45 254 19:51 05.11.2021
5569 Clouds 13 1020 72 10000 0.45 288 18:43 05.11.2021
5570 Clouds 14 1019 70 10000 0.45 319 17:52 05.11.2021
5571 Clouds 15 1019 65 10000 0.45 46 16:45 05.11.2021
5572 Clouds 16 1018 60 10000 0.89 113 14:22 05.11.2021
5573 Clouds 14 1018 62 10000 0.89 321 12:27 05.11.2021
5574 Clouds 10 1018 77 10000 0.45 256 09:29 05.11.2021
5575 Clouds 9 1018 81 10000 1.79 315 08:28 05.11.2021
5576 Clouds 9 1016 80 10000 1.34 352 06:21 05.11.2021
5577 Clouds 10 1016 84 10000 1.34 301 02:38 05.11.2021
5578 Clouds 10 1016 83 10000 1.79 284 02:19 05.11.2021
5579 Clouds 11 1016 84 10000 0.45 338 23:57 04.11.2021
5580 Clouds 12 1015 79 10000 0.89 141 22:36 04.11.2021
5581 Rain 12 1015 78 10000 2.06 60 22:18 04.11.2021
5582 Rain 12 1015 77 10000 0.45 311 21:27 04.11.2021
5583 Clouds 12 1014 78 10000 0.89 0 20:29 04.11.2021
5584 Clouds 13 1014 77 10000 0.45 269 19:49 04.11.2021
5585 Clouds 13 1014 79 10000 0.45 313 19:27 04.11.2021
5586 Clouds 14 1013 76 10000 2.57 250 18:26 04.11.2021
5587 Clouds 14 1013 74 10000 0.45 41 17:26 04.11.2021
5588 Clouds 15 1012 70 10000 0.89 125 15:46 04.11.2021
5589 Clouds 15 1012 67 10000 0.89 246 13:50 04.11.2021
5590 Clouds 12 1012 71 10000 0.45 0 10:48 04.11.2021
5591 Clouds 9 1011 79 10000 1.79 275 08:41 04.11.2021
5592 Clouds 9 1009 79 10000 2.24 10 07:49 04.11.2021
5593 Clouds 9 1009 79 10000 0.89 279 07:31 04.11.2021
5594 Clouds 11 1007 72 10000 1.34 262 23:18 03.11.2021
5595 Clouds 12 1007 71 10000 0.45 289 22:26 03.11.2021
5596 Clouds 12 1006 73 10000 2.06 20 21:37 03.11.2021
5597 Clouds 12 1006 75 10000 1.03 0 20:44 03.11.2021
5598 Clouds 13 1005 75 10000 0.45 283 20:25 03.11.2021
5599 Clouds 13 1004 74 10000 3.6 60 19:33 03.11.2021
5600 Clouds 14 1003 69 10000 2.24 144 18:27 03.11.2021
5601 Clouds 14 1003 69 10000 2.24 157 18:27 03.11.2021
5602 Clouds 14 1003 69 10000 2.24 144 18:27 03.11.2021
5603 Clouds 15 1003 65 10000 1.79 148 17:48 03.11.2021
5604 Clouds 16 1002 56 10000 1.79 284 16:49 03.11.2021
5605 Clouds 16 1002 55 10000 1.34 350 15:49 03.11.2021
5606 Clouds 16 1001 55 10000 0.89 0 15:30 03.11.2021
5607 Clouds 16 1002 55 10000 0.45 360 13:42 03.11.2021
5608 Clouds 14 1003 66 10000 1.34 297 11:37 03.11.2021
5609 Clouds 13 1003 68 10000 1.34 263 10:50 03.11.2021
5610 Clouds 13 1003 70 10000 0.45 265 09:47 03.11.2021
5611 Clouds 13 1003 73 10000 1.34 321 08:58 03.11.2021
5612 Clouds 13 1002 76 10000 1.34 0 07:59 03.11.2021
5613 Clouds 13 1002 79 10000 1.34 314 07:35 03.11.2021
5614 Clouds 14 1001 69 10000 0.45 290 04:23 03.11.2021
5615 Clouds 15 1003 66 10000 1.34 319 00:58 03.11.2021
5616 Clouds 15 1004 63 10000 1.34 119 23:30 02.11.2021
5617 Clouds 16 1005 57 10000 0.89 245 21:59 02.11.2021
5618 Clouds 16 1005 57 10000 0.45 277 20:45 02.11.2021
5619 Clouds 16 1006 57 10000 1.34 231 20:21 02.11.2021
5620 Clouds 16 1006 56 10000 0.89 245 19:31 02.11.2021
5621 Clouds 16 1006 56 10000 0.45 266 19:31 02.11.2021
5622 Clouds 17 1006 54 10000 0.89 0 18:36 02.11.2021
5623 Clouds 17 1006 52 10000 0.89 301 17:47 02.11.2021
5624 Clouds 18 1006 52 10000 0.89 0 17:25 02.11.2021
5625 Clouds 18 1007 55 10000 0.89 250 16:19 02.11.2021
5626 Clear 19 1007 51 10000 0.89 278 14:57 02.11.2021
5627 Clear 18 1009 53 10000 1.79 317 13:31 02.11.2021
5628 Clear 17 1010 53 10000 1.34 317 12:59 02.11.2021
5629 Clear 17 1010 56 10000 0.45 333 12:18 02.11.2021
5630 Clear 16 1011 58 10000 1.79 19 11:26 02.11.2021
5631 Clear 15 1010 61 10000 1.79 275 10:45 02.11.2021
5632 Clear 15 1011 61 10000 1.34 244 10:22 02.11.2021
5633 Clouds 12 1010 67 10000 0.89 0 08:22 02.11.2021
5634 Clouds 13 1009 64 10000 1.34 0 06:29 02.11.2021
5635 Clear 14 1010 63 10000 0.45 286 03:30 02.11.2021
5636 Clouds 15 1010 56 10000 0.45 281 00:25 02.11.2021
5637 Clouds 16 1010 55 10000 4.12 250 22:25 01.11.2021
5638 Clouds 17 1009 53 10000 0.45 308 20:47 01.11.2021
5639 Clouds 17 1009 52 10000 0.89 300 20:27 01.11.2021
5640 Clouds 18 1009 50 10000 0.89 315 19:43 01.11.2021
5641 Clouds 18 1009 50 10000 0.45 304 18:54 01.11.2021
5642 Clouds 20 1008 48 10000 2.68 211 17:56 01.11.2021
5643 Clouds 21 1007 45 10000 3.13 287 16:58 01.11.2021
5644 Clouds 22 1007 46 10000 2.68 288 16:33 01.11.2021
5645 Clouds 22 1006 51 10000 2.68 267 15:40 01.11.2021
5646 Clouds 22 1006 54 10000 1.34 333 15:19 01.11.2021
5647 Clouds 22 1006 57 10000 0.89 286 14:39 01.11.2021
5648 Clouds 22 1006 59 10000 2.24 273 14:19 01.11.2021
5649 Clouds 22 1006 59 10000 2.24 273 14:19 01.11.2021
5650 Clouds 22 1006 59 10000 2.24 273 14:19 01.11.2021
5651 Clouds 22 1006 60 10000 1.34 254 12:50 01.11.2021
5652 Clouds 21 1006 65 10000 0.45 248 11:39 01.11.2021
5653 Clouds 19 1006 73 10000 2.24 290 10:21 01.11.2021
5654 Clouds 18 1005 78 10000 0.45 309 08:23 01.11.2021
5655 Clouds 18 1005 80 10000 0.45 269 07:47 01.11.2021
5656 Clouds 18 1004 86 6000 0.45 289 03:55 01.11.2021
5657 Clouds 18 1005 87 6000 0.45 288 03:36 01.11.2021
5658 Clouds 18 1007 87 8000 2.06 40 23:58 31.10.2021
5659 Drizzle 19 1008 86 9000 0.45 0 20:59 31.10.2021
5660 Drizzle 19 1008 86 10000 0.89 45 20:24 31.10.2021
5661 Clouds 22 1007 75 10000 0.45 0 18:43 31.10.2021
5662 Clouds 22 1007 70 10000 0.45 315 18:21 31.10.2021
5663 Clouds 24 1006 66 10000 4.63 250 16:48 31.10.2021
5664 Clouds 24 1006 65 10000 0.89 61 14:53 31.10.2021
5665 Clouds 24 1007 71 10000 0.89 304 12:57 31.10.2021
5666 Clouds 22 1008 76 10000 0.89 274 12:19 31.10.2021
5667 Clouds 20 1008 82 10000 0.45 277 10:51 31.10.2021
5668 Clouds 18 1008 85 10000 0.89 261 09:26 31.10.2021
5669 Clouds 17 1008 85 10000 0.89 255 08:46 31.10.2021
5670 Clouds 18 1009 86 10000 3.09 340 02:59 31.10.2021
5671 Clouds 18 1009 85 10000 0.45 307 23:43 30.10.2021
5672 Clouds 19 1008 86 10000 0.89 267 21:46 30.10.2021
5673 Clouds 19 1008 85 10000 2.68 271 21:25 30.10.2021
5674 Clouds 20 1007 85 10000 0.45 270 19:35 30.10.2021
5675 Clouds 21 1006 85 10000 0.45 251 17:48 30.10.2021
5676 Clouds 20 1006 88 9000 0.45 314 15:34 30.10.2021
5677 Clouds 19 1006 88 9000 0.45 287 13:59 30.10.2021
5678 Mist 19 1006 89 3000 0.45 0 13:38 30.10.2021
5679 Rain 19 1006 88 5000 0.89 0 13:20 30.10.2021
5680 Mist 19 1007 88 5000 1.34 259 11:49 30.10.2021
5681 Rain 18 1007 88 5000 1.79 278 10:44 30.10.2021
5682 Rain 18 1007 88 5000 1.79 251 08:56 30.10.2021
5683 Clouds 17 1007 88 10000 0.89 80 07:55 30.10.2021
5684 Drizzle 17 1007 88 10000 0.45 338 05:46 30.10.2021
5685 Clouds 17 1009 87 10000 0.45 130 02:26 30.10.2021
5686 Clouds 18 1010 88 10000 0.89 123 23:21 29.10.2021
5687 Rain 18 1011 87 6000 1.34 5 22:34 29.10.2021
5688 Clouds 19 1011 85 10000 1.54 200 20:59 29.10.2021
5689 Clouds 19 1011 84 10000 0.51 220 20:32 29.10.2021
5690 Clouds 19 1011 81 10000 0.45 250 19:18 29.10.2021
5691 Clouds 21 1011 75 10000 0.45 230 17:43 29.10.2021
5692 Clouds 21 1011 71 10000 2.24 265 15:26 29.10.2021
5693 Clouds 20 1013 79 10000 0.45 280 12:49 29.10.2021
5694 Clouds 17 1013 86 10000 0.45 319 10:46 29.10.2021
5695 Clouds 16 1014 88 10000 1.34 300 09:45 29.10.2021
5696 Clouds 14 1015 89 10000 0.45 137 02:22 29.10.2021
5697 Clouds 15 1016 87 10000 0.89 137 00:30 29.10.2021
5698 Clouds 15 1016 87 10000 1.54 320 22:27 28.10.2021
5699 Clouds 16 1016 84 10000 0.45 305 20:59 28.10.2021
5700 Clouds 17 1016 81 10000 0.51 0 19:52 28.10.2021
5701 Clouds 18 1016 78 10000 0.89 48 18:46 28.10.2021
5702 Clouds 20 1016 72 10000 0.45 180 17:38 28.10.2021
5703 Clouds 20 1017 69 10000 0.89 146 16:38 28.10.2021
5704 Clouds 20 1017 66 10000 1.34 144 14:40 28.10.2021
5705 Clear 20 1018 61 10000 0.45 78 13:33 28.10.2021
5706 Clear 19 1018 61 10000 0.89 94 12:49 28.10.2021
5707 Clear 18 1019 66 10000 1.34 360 11:49 28.10.2021
5708 Clouds 15 1019 76 10000 0.45 261 10:23 28.10.2021
5709 Clouds 13 1019 80 10000 0.89 229 09:37 28.10.2021
5710 Clouds 13 1019 83 10000 0.89 0 08:36 28.10.2021
5711 Clouds 13 1019 83 10000 0.45 277 07:41 28.10.2021
5712 Clouds 14 1020 84 10000 0.89 350 02:33 28.10.2021
5713 Clouds 16 1021 80 10000 0.45 301 22:54 27.10.2021
5714 Clouds 16 1021 79 10000 2.57 70 21:57 27.10.2021
5715 Clouds 16 1021 79 10000 1.34 88 21:28 27.10.2021
5716 Clouds 17 1021 80 10000 0.89 0 20:43 27.10.2021
5717 Clouds 18 1021 79 10000 2.68 115 19:47 27.10.2021
5718 Clouds 18 1021 78 10000 0.89 88 18:56 27.10.2021
5719 Clouds 18 1021 76 10000 0.89 91 18:36 27.10.2021
5720 Clouds 20 1021 67 10000 0.45 158 16:25 27.10.2021
5721 Clouds 20 1021 63 10000 1.34 138 15:25 27.10.2021
5722 Clouds 20 1022 62 10000 2.24 95 14:28 27.10.2021
5723 Clouds 17 1023 74 10000 0.45 79 11:18 27.10.2021
5724 Clouds 17 1023 74 10000 0.45 17 10:56 27.10.2021
5725 Clouds 14 1022 80 10000 0.45 268 09:28 27.10.2021
5726 Clear 14 1022 81 10000 1.79 299 07:46 27.10.2021
5727 Clear 14 1022 82 10000 0.89 309 05:49 27.10.2021
5728 Clear 15 1023 81 10000 1.34 272 01:26 27.10.2021
5729 Clear 16 1023 82 10000 1.34 271 00:55 27.10.2021
5730 Clear 16 1023 79 10000 1.34 266 23:56 26.10.2021
5731 Clouds 17 1022 77 10000 0.45 289 22:50 26.10.2021
5732 Clouds 17 1022 77 10000 0.45 301 22:27 26.10.2021
5733 Clouds 17 1022 77 10000 0.89 306 21:51 26.10.2021
5734 Clouds 19 1022 71 10000 0.45 304 19:59 26.10.2021
5735 Clouds 19 1021 69 10000 0.45 318 19:22 26.10.2021
5736 Clouds 21 1021 64 10000 0.45 259 18:30 26.10.2021
5737 Clouds 22 1021 60 10000 0.89 71 15:53 26.10.2021
5738 Clouds 21 1022 62 10000 1.34 97 14:18 26.10.2021
5739 Clear 18 1023 72 10000 0.89 251 11:23 26.10.2021
5740 Clear 14 1023 85 10000 0.45 0 09:28 26.10.2021
5741 Clouds 14 1022 87 9000 0.45 271 07:23 26.10.2021
5742 Clouds 16 1022 88 10000 3.6 330 00:31 26.10.2021
5743 Clouds 16 1022 88 10000 2.06 320 23:48 25.10.2021
5744 Clouds 16 1022 88 10000 1.54 310 22:35 25.10.2021
5745 Clouds 17 1021 86 10000 1.03 0 21:48 25.10.2021
5746 Clouds 17 1021 85 10000 0.51 70 21:23 25.10.2021
5747 Clouds 18 1020 82 10000 0.51 20 19:44 25.10.2021
5748 Clouds 18 1020 82 10000 1.34 308 19:24 25.10.2021
5749 Clouds 19 1020 78 10000 0.45 61 18:50 25.10.2021
5750 Clouds 20 1020 76 10000 0.45 120 17:42 25.10.2021
5751 Clouds 21 1020 73 10000 1.79 167 15:31 25.10.2021
5752 Clear 20 1022 70 10000 0.89 147 13:29 25.10.2021
5753 Clear 18 1022 72 10000 0.45 0 11:58 25.10.2021
5754 Clouds 14 1021 84 10000 1.79 240 09:23 25.10.2021
5755 Clouds 14 1021 84 10000 1.34 318 07:40 25.10.2021
5756 Clouds 14 1021 83 10000 1.34 289 05:55 25.10.2021
5757 Clear 16 1022 86 10000 1.79 267 00:53 25.10.2021
5758 Clouds 16 1022 86 10000 1.34 299 00:35 25.10.2021
5759 Clouds 16 1022 86 10000 1.79 272 23:45 24.10.2021
5760 Clouds 17 1022 86 10000 0.89 144 22:40 24.10.2021
5761 Clouds 17 1022 86 10000 0.89 152 22:20 24.10.2021
5762 Clouds 17 1022 84 10000 1.03 0 21:33 24.10.2021
5763 Clouds 18 1022 82 10000 2.24 265 20:42 24.10.2021
5764 Clouds 18 1021 79 10000 0.45 139 19:49 24.10.2021
5765 Clouds 20 1021 68 10000 0.45 81 18:30 24.10.2021
5766 Clouds 21 1021 65 10000 0.89 136 17:48 24.10.2021
5767 Clouds 22 1021 56 10000 1.79 131 15:57 24.10.2021
5768 Clouds 22 1022 56 10000 1.79 131 15:20 24.10.2021
5769 Clouds 21 1023 54 10000 0.89 157 13:23 24.10.2021
5770 Clouds 19 1023 56 10000 0.89 335 12:26 24.10.2021
5771 Clouds 18 1023 59 10000 0.89 331 11:36 24.10.2021
5772 Clouds 17 1023 63 10000 0.45 319 10:38 24.10.2021
5773 Clouds 14 1022 71 10000 0.89 0 08:43 24.10.2021
5774 Clear 14 1022 78 10000 2.24 273 02:58 24.10.2021
5775 Clear 15 1023 78 10000 0.45 133 23:51 23.10.2021
5776 Clear 15 1023 79 10000 0.89 263 22:40 23.10.2021
5777 Clear 16 1022 75 10000 0 0 20:43 23.10.2021
5778 Clear 17 1021 72 10000 0.51 0 19:36 23.10.2021
5779 Clouds 18 1021 66 10000 0.45 133 18:43 23.10.2021
5780 Clouds 19 1020 64 10000 0.89 172 17:44 23.10.2021
5781 Clouds 19 1020 62 10000 0.89 161 16:53 23.10.2021
5782 Clouds 20 1020 55 10000 0.45 178 15:20 23.10.2021
5783 Clouds 18 1021 57 10000 0.45 294 13:31 23.10.2021
5784 Clouds 16 1020 84 10000 0.45 152 00:42 23.10.2021
5785 Clouds 16 1020 84 10000 0.45 256 23:35 22.10.2021
5786 Clouds 17 1019 82 10000 1.03 0 21:29 22.10.2021
5787 Clouds 18 1019 77 10000 1.03 0 19:29 22.10.2021
5788 Clouds 19 1018 73 10000 0.89 0 18:24 22.10.2021
5789 Clouds 21 1018 67 10000 0.45 171 16:27 22.10.2021
5790 Clouds 21 1018 66 10000 0.45 117 14:35 22.10.2021
5791 Clouds 20 1019 65 10000 0.45 142 12:41 22.10.2021
5792 Clouds 20 1019 64 10000 0.45 142 12:41 22.10.2021
5793 Clouds 17 1019 73 10000 1.34 294 10:56 22.10.2021
5794 Clouds 16 1019 81 10000 0.89 143 09:57 22.10.2021
5795 Clouds 16 1018 83 10000 0.89 225 09:32 22.10.2021
5796 Clouds 15 1017 85 10000 1.34 295 07:30 22.10.2021
5797 Clouds 15 1017 85 10000 1.34 249 06:46 22.10.2021
5798 Clouds 17 1018 83 10000 0.45 309 00:40 22.10.2021
5799 Clouds 17 1018 82 10000 1.03 50 23:49 21.10.2021
5800 Clouds 18 1018 82 10000 0.89 305 22:43 21.10.2021
5801 Clouds 18 1017 81 10000 2.06 100 21:28 21.10.2021
5802 Clouds 19 1017 80 10000 0.45 64 20:21 21.10.2021
5803 Clouds 19 1017 79 10000 0.89 122 19:49 21.10.2021
5804 Drizzle 19 1017 80 10000 0.45 65 19:20 21.10.2021
5805 Clouds 20 1017 79 10000 0.45 131 18:30 21.10.2021
5806 Clouds 20 1017 79 10000 0.45 121 17:50 21.10.2021
5807 Clouds 20 1017 80 10000 1.34 43 16:47 21.10.2021
5808 Clouds 21 1016 77 10000 1.34 47 15:28 21.10.2021
5809 Clouds 21 1017 77 10000 1.34 54 14:51 21.10.2021
5810 Clouds 20 1017 81 10000 0.89 54 13:42 21.10.2021
5811 Clouds 20 1017 81 10000 0.45 78 11:49 21.10.2021
5812 Clouds 18 1016 85 10000 1.34 121 09:33 21.10.2021
5813 Clouds 17 1016 88 10000 0.45 255 07:46 21.10.2021
5814 Clouds 17 1016 88 10000 0.89 241 06:28 21.10.2021
5815 Clouds 19 1018 85 10000 0.45 306 00:35 21.10.2021
5816 Clouds 19 1019 82 10000 3.6 240 22:29 20.10.2021
5817 Clouds 19 1019 82 10000 0.45 331 21:47 20.10.2021
5818 Clouds 19 1019 82 10000 0.45 331 21:47 20.10.2021
5819 Clouds 20 1019 80 10000 0.45 86 20:58 20.10.2021
5820 Clouds 20 1019 80 10000 0.45 236 20:38 20.10.2021
5821 Clouds 20 1019 79 10000 0.89 230 20:18 20.10.2021
5822 Clouds 21 1019 77 10000 1.79 208 19:23 20.10.2021
5823 Clouds 21 1019 75 10000 2.68 252 18:29 20.10.2021
5824 Clouds 23 1019 71 10000 4.02 242 16:37 20.10.2021
5825 Clouds 22 1022 77 10000 3.58 206 13:54 20.10.2021
5826 Clouds 21 1023 81 10000 0.89 308 09:53 20.10.2021
5827 Clouds 19 1023 85 10000 0.89 171 05:34 20.10.2021
5828 Clouds 20 1024 86 10000 0.45 134 02:35 20.10.2021
5829 Clouds 20 1025 84 10000 0.45 112 00:33 20.10.2021
5830 Clouds 20 1025 82 10000 0.45 226 22:37 19.10.2021
5831 Clouds 21 1025 81 10000 1.34 91 21:37 19.10.2021
5832 Clouds 21 1025 80 10000 0.89 230 20:26 19.10.2021
5833 Clouds 21 1025 79 10000 1.34 222 19:58 19.10.2021
5834 Clouds 21 1025 79 10000 1.34 237 19:34 19.10.2021
5835 Clouds 22 1024 75 10000 0.45 354 18:40 19.10.2021
5836 Clouds 23 1024 73 10000 3.13 224 17:47 19.10.2021
5837 Clouds 24 1025 71 10000 3.13 151 15:29 19.10.2021
5838 Clouds 24 1025 70 10000 1.79 216 14:40 19.10.2021
5839 Clouds 23 1026 73 10000 0.45 137 13:52 19.10.2021
5840 Clouds 22 1027 78 10000 1.79 52 12:23 19.10.2021
5841 Clouds 21 1027 81 10000 0.89 263 11:24 19.10.2021
5842 Clouds 18 1026 90 10000 0.89 266 09:55 19.10.2021
5843 Clouds 17 1026 90 10000 2.57 340 08:56 19.10.2021
5844 Clouds 18 1026 91 10000 0.45 319 02:25 19.10.2021
5845 Clouds 18 1025 90 10000 1.54 320 23:59 18.10.2021
5846 Clouds 18 1025 90 10000 0.51 0 23:40 18.10.2021
5847 Clouds 19 1025 90 10000 0.51 310 22:56 18.10.2021
5848 Clouds 19 1025 89 10000 0 0 22:30 18.10.2021
5849 Clouds 20 1024 87 10000 1.54 210 20:50 18.10.2021
5850 Clouds 20 1024 85 10000 1.03 0 20:30 18.10.2021
5851 Clouds 21 1023 81 10000 0.89 332 19:32 18.10.2021
5852 Clouds 22 1023 80 10000 1.34 334 18:59 18.10.2021
5853 Clouds 23 1023 77 10000 1.34 193 16:59 18.10.2021
5854 Clouds 23 1023 77 10000 0.89 129 14:57 18.10.2021
5855 Clouds 22 1024 78 10000 0.45 113 12:28 18.10.2021
5856 Clouds 18 1023 87 10000 0.89 309 10:25 18.10.2021
5857 Clouds 17 1022 90 10000 0.45 299 09:25 18.10.2021
5858 Clouds 17 1022 90 10000 0.45 299 09:25 18.10.2021
5859 Clouds 18 1021 89 10000 2.06 340 01:23 18.10.2021
5860 Clouds 18 1021 88 10000 2.06 340 23:20 17.10.2021
5861 Clouds 18 1020 86 10000 1.54 30 21:45 17.10.2021
5862 Clouds 18 1020 86 10000 1.54 30 21:45 17.10.2021
5863 Clouds 19 1020 85 10000 0.45 262 20:59 17.10.2021
5864 Clouds 19 1019 84 10000 0.45 258 20:29 17.10.2021
5865 Clouds 19 1019 82 10000 0.89 262 19:38 17.10.2021
5866 Clouds 20 1019 80 10000 0.45 48 18:44 17.10.2021
5867 Clouds 21 1018 78 10000 0.89 151 17:27 17.10.2021
5868 Clouds 21 1018 76 10000 0.45 0 14:47 17.10.2021
5869 Clouds 21 1019 77 10000 0.45 80 14:24 17.10.2021
5870 Clouds 21 1019 76 10000 0.45 157 13:34 17.10.2021
5871 Clouds 20 1019 75 10000 0.45 64 11:54 17.10.2021
5872 Clouds 20 1019 74 10000 0.45 46 11:54 17.10.2021
5873 Clouds 17 1019 80 10000 3.6 330 10:20 17.10.2021
5874 Clouds 16 1018 86 10000 0.45 104 09:23 17.10.2021
5875 Clouds 16 1017 85 10000 1.34 127 06:56 17.10.2021
5876 Clouds 18 1018 84 10000 0.89 197 00:50 17.10.2021
5877 Clouds 18 1018 83 10000 1.03 30 23:43 16.10.2021
5878 Clouds 18 1018 82 10000 1.54 100 21:30 16.10.2021
5879 Clouds 18 1018 80 10000 0.45 278 20:31 16.10.2021
5880 Clouds 19 1018 78 10000 1.34 300 19:44 16.10.2021
5881 Clouds 19 1017 77 10000 0.89 142 19:21 16.10.2021
5882 Clouds 19 1017 76 10000 0.89 39 18:51 16.10.2021
5883 Clouds 20 1017 74 10000 1.34 53 18:29 16.10.2021
5884 Clouds 20 1017 73 10000 0.45 0 17:53 16.10.2021
5885 Clouds 20 1017 72 10000 0.89 0 17:22 16.10.2021
5886 Clouds 22 1017 69 10000 1.79 0 14:48 16.10.2021
5887 Clouds 20 1018 74 10000 1.34 60 11:31 16.10.2021
5888 Clouds 19 1017 81 10000 1.34 262 10:25 16.10.2021
5889 Clouds 17 1016 87 10000 0.45 305 07:50 16.10.2021
5890 Clouds 18 1016 84 10000 3.09 330 01:25 16.10.2021
5891 Clouds 18 1016 83 10000 0.45 0 23:50 15.10.2021
5892 Clouds 19 1016 83 10000 2.24 34 22:38 15.10.2021
5893 Clouds 19 1016 83 10000 0.45 0 22:18 15.10.2021
5894 Clouds 20 1016 79 10000 0.45 285 21:26 15.10.2021
5895 Clouds 20 1016 77 10000 0.45 318 20:46 15.10.2021
5896 Clouds 21 1015 74 10000 0.89 60 19:26 15.10.2021
5897 Clouds 22 1015 72 10000 0.45 200 18:40 15.10.2021
5898 Clouds 23 1015 68 10000 1.34 265 16:28 15.10.2021
5899 Clouds 24 1016 64 10000 1.34 171 15:36 15.10.2021
5900 Clouds 22 1017 71 10000 1.34 0 13:29 15.10.2021
5901 Clouds 20 1018 74 10000 0.45 101 11:36 15.10.2021
5902 Clouds 18 1018 81 10000 0.45 96 10:46 15.10.2021
5903 Clouds 17 1018 87 10000 1.34 247 09:46 15.10.2021
5904 Clouds 16 1019 88 10000 1.34 331 05:32 15.10.2021
5905 Clouds 16 1019 88 10000 1.34 300 05:32 15.10.2021
5906 Clouds 17 1021 85 10000 0.45 307 01:45 15.10.2021
5907 Clouds 17 1022 83 10000 1.54 330 00:22 15.10.2021
5908 Clouds 17 1022 81 10000 0.45 285 22:52 14.10.2021
5909 Clouds 18 1022 79 10000 0.45 280 21:45 14.10.2021
5910 Clouds 18 1022 77 10000 1.34 45 20:49 14.10.2021
5911 Clouds 18 1022 76 10000 0.45 224 20:19 14.10.2021
5912 Clouds 19 1022 74 10000 0.45 257 19:35 14.10.2021
5913 Clouds 20 1022 66 10000 0.45 144 17:31 14.10.2021
5914 Clouds 21 1022 62 10000 0.45 167 16:50 14.10.2021
5915 Clouds 21 1022 61 10000 0.45 157 16:20 14.10.2021
5916 Clouds 21 1022 57 10000 1.34 151 14:43 14.10.2021
5917 Clouds 21 1023 57 10000 0.45 0 14:21 14.10.2021
5918 Clouds 19 1023 61 10000 0.45 74 11:44 14.10.2021
5919 Clouds 16 1023 69 10000 0.45 292 09:55 14.10.2021
5920 Clouds 16 1023 69 10000 0.45 292 09:55 14.10.2021
5921 Clouds 16 1022 79 10000 1.34 284 06:56 14.10.2021
5922 Clouds 17 1021 70 10000 0.45 297 00:59 14.10.2021
5923 Clouds 17 1021 70 10000 0.45 293 00:28 14.10.2021
5924 Clouds 18 1020 66 10000 0.45 294 21:58 13.10.2021
5925 Clouds 19 1020 64 10000 0.45 328 21:32 13.10.2021
5926 Clouds 19 1019 61 10000 0.89 61 19:59 13.10.2021
5927 Clouds 20 1019 61 10000 0.89 0 18:57 13.10.2021
5928 Clouds 20 1019 62 10000 1.79 158 18:35 13.10.2021
5929 Clouds 22 1017 62 10000 0.89 167 15:32 13.10.2021
5930 Clouds 22 1018 62 10000 1.34 167 14:45 13.10.2021
5931 Clouds 21 1018 62 10000 0.89 26 14:21 13.10.2021
5932 Clouds 20 1018 67 10000 2.24 307 12:22 13.10.2021
5933 Clouds 19 1018 71 10000 0.45 251 11:35 13.10.2021
5934 Clouds 16 1016 85 10000 0.45 0 08:42 13.10.2021
5935 Clouds 16 1016 84 10000 0.45 319 06:51 13.10.2021
5936 Clear 17 1016 85 10000 4.12 320 02:28 13.10.2021
5937 Clear 17 1016 82 10000 3.6 330 01:43 13.10.2021
5938 Clear 17 1016 77 10000 2.06 320 23:30 12.10.2021
5939 Clear 17 1016 77 10000 2.06 320 23:30 12.10.2021
5940 Clear 18 1016 75 10000 0.45 299 22:46 12.10.2021
5941 Clear 18 1016 72 10000 0.45 188 21:50 12.10.2021
5942 Clear 19 1015 68 10000 0.45 302 20:34 12.10.2021
5943 Clear 20 1015 67 10000 0.45 312 19:57 12.10.2021
5944 Clear 22 1015 61 10000 0.45 11 18:36 12.10.2021
5945 Clear 22 1015 59 10000 0.89 146 17:57 12.10.2021
5946 Clear 23 1015 55 10000 0.89 153 16:39 12.10.2021
5947 Clouds 23 1015 56 10000 0.89 144 15:58 12.10.2021
5948 Clouds 23 1016 58 10000 0.89 103 14:45 12.10.2021
5949 Clear 23 1017 56 10000 0.45 132 13:43 12.10.2021
5950 Clear 21 1018 59 10000 0.45 294 12:39 12.10.2021
5951 Clear 18 1018 73 10000 2.68 244 09:59 12.10.2021
5952 Clear 16 1018 81 10000 0.45 326 08:44 12.10.2021
5953 Clear 15 1018 82 10000 0.45 300 07:36 12.10.2021
5954 Clear 15 1019 81 10000 0.89 266 05:31 12.10.2021
5955 Clear 16 1019 81 10000 0.45 269 04:32 12.10.2021
5956 Clear 17 1020 80 10000 2.57 310 00:28 12.10.2021
5957 Clear 17 1021 79 10000 0.45 244 23:41 11.10.2021
5958 Clear 18 1021 80 10000 1.03 320 22:57 11.10.2021
5959 Clear 18 1021 76 10000 1.54 280 21:46 11.10.2021
5960 Clear 19 1020 74 10000 4.12 250 21:18 11.10.2021
5961 Clear 20 1020 73 10000 1.34 40 19:46 11.10.2021
5962 Clear 22 1020 64 10000 0.45 0 18:43 11.10.2021
5963 Clouds 23 1020 62 10000 0.89 0 17:54 11.10.2021
5964 Clouds 23 1020 59 10000 0.45 145 16:39 11.10.2021
5965 Clouds 23 1020 58 10000 1.34 120 15:51 11.10.2021
5966 Clouds 23 1021 58 10000 0.45 172 14:55 11.10.2021
5967 Clouds 23 1021 58 10000 0.89 120 14:33 11.10.2021
5968 Clouds 22 1022 58 10000 1.79 242 13:37 11.10.2021
5969 Clear 20 1022 66 10000 2.68 234 11:51 11.10.2021
5970 Clouds 18 1022 76 10000 3.13 249 10:34 11.10.2021
5971 Clouds 16 1022 84 10000 1.34 152 09:37 11.10.2021
5972 Clouds 15 1021 86 10000 1.34 261 07:27 11.10.2021
5973 Clouds 16 1022 83 10000 2.57 320 01:40 11.10.2021
5974 Clouds 17 1022 81 10000 0.89 255 00:48 11.10.2021
5975 Clouds 17 1022 80 10000 0.45 307 00:23 11.10.2021
5976 Clouds 18 1022 76 10000 1.03 0 21:54 10.10.2021
5977 Clouds 18 1021 76 10000 1.54 180 21:32 10.10.2021
5978 Clouds 19 1021 75 10000 0.51 0 20:47 10.10.2021
5979 Clouds 19 1021 75 10000 1.54 160 20:21 10.10.2021
5980 Clouds 19 1021 75 10000 1.54 160 19:59 10.10.2021
5981 Clouds 19 1021 74 10000 0.45 53 19:36 10.10.2021
5982 Clouds 20 1021 73 10000 0.45 46 18:36 10.10.2021
5983 Clouds 20 1021 67 10000 0.45 0 16:46 10.10.2021
5984 Clouds 21 1021 64 10000 0.45 0 15:46 10.10.2021
5985 Clouds 20 1022 67 10000 1.79 104 13:57 10.10.2021
5986 Clouds 20 1022 68 10000 0.45 77 13:33 10.10.2021
5987 Clouds 20 1022 73 10000 0.89 254 12:35 10.10.2021
5988 Clouds 18 1022 77 10000 1.34 261 10:44 10.10.2021
5989 Clouds 17 1021 83 10000 0.45 241 09:31 10.10.2021
5990 Clouds 17 1021 85 10000 0.45 143 08:54 10.10.2021
5991 Clouds 16 1021 85 10000 0.89 300 07:28 10.10.2021
5992 Clouds 18 1022 84 10000 0.45 0 02:45 10.10.2021
5993 Clouds 18 1022 85 10000 0.45 65 00:58 10.10.2021
5994 Clouds 18 1022 83 10000 1.79 63 00:29 10.10.2021
5995 Clouds 18 1021 84 10000 0.45 144 22:53 09.10.2021
5996 Clouds 18 1021 82 10000 1.03 350 21:47 09.10.2021
5997 Clouds 18 1021 83 10000 0.45 118 21:28 09.10.2021
5998 Clouds 18 1020 82 10000 0.45 224 19:44 09.10.2021
5999 Clouds 18 1020 82 10000 0.45 54 19:19 09.10.2021
6000 Clouds 19 1020 81 10000 0.45 275 18:33 09.10.2021
6001 Clouds 19 1020 78 10000 0.45 54 17:20 09.10.2021
6002 Clouds 20 1020 77 10000 0.89 40 16:19 09.10.2021
6003 Clouds 21 1021 72 10000 1.34 155 13:45 09.10.2021
6004 Clouds 20 1021 74 10000 0.45 58 12:40 09.10.2021
6005 Clouds 19 1021 76 10000 0.45 0 11:48 09.10.2021
6006 Clouds 18 1021 84 10000 0.89 117 10:42 09.10.2021
6007 Clouds 18 1020 87 10000 1.34 244 09:52 09.10.2021
6008 Clouds 17 1020 87 10000 3.09 330 08:30 09.10.2021
6009 Clouds 17 1019 87 10000 3.09 330 07:49 09.10.2021
6010 Clouds 17 1019 86 10000 3.09 330 05:29 09.10.2021
6011 Clouds 17 1020 85 10000 3.09 330 02:59 09.10.2021
6012 Clouds 17 1020 85 10000 3.6 330 02:40 09.10.2021
6013 Clouds 17 1020 83 10000 1.03 0 23:51 08.10.2021
6014 Clouds 18 1020 81 10000 0.51 360 22:55 08.10.2021
6015 Clouds 18 1019 80 10000 0.51 310 22:24 08.10.2021
6016 Clouds 19 1019 77 10000 3.09 240 20:55 08.10.2021
6017 Clouds 21 1019 70 10000 0.89 226 18:54 08.10.2021
6018 Clouds 22 1019 67 10000 0.45 56 17:36 08.10.2021
6019 Clouds 22 1019 65 10000 0.89 123 16:51 08.10.2021
6020 Clouds 22 1019 64 10000 1.34 190 16:23 08.10.2021
6021 Clouds 22 1020 62 10000 0.89 142 13:57 08.10.2021
6022 Clouds 22 1020 62 10000 0.89 74 12:56 08.10.2021
6023 Clouds 20 1020 64 10000 2.24 260 11:33 08.10.2021
6024 Clouds 20 1020 65 10000 1.79 244 10:41 08.10.2021
6025 Clouds 17 1019 71 10000 1.79 302 09:18 08.10.2021
6026 Clouds 18 1019 81 10000 0.89 109 23:59 07.10.2021
6027 Clouds 18 1019 80 10000 2.06 50 23:19 07.10.2021
6028 Clear 19 1018 75 10000 0 0 21:46 07.10.2021
6029 Clear 19 1018 74 10000 2.06 230 21:23 07.10.2021
6030 Clear 20 1018 76 10000 0.45 306 20:20 07.10.2021
6031 Clear 21 1017 72 10000 1.34 188 19:29 07.10.2021
6032 Clouds 22 1017 68 10000 2.68 219 18:22 07.10.2021
6033 Clouds 23 1017 67 10000 0.45 124 17:24 07.10.2021
6034 Clouds 23 1018 66 10000 0.45 173 15:50 07.10.2021
6035 Clouds 22 1019 65 10000 0.89 105 13:52 07.10.2021
6036 Clouds 22 1019 65 10000 0.45 173 13:34 07.10.2021
6037 Clouds 21 1020 63 10000 1.34 138 12:40 07.10.2021
6038 Clouds 18 1021 67 10000 1.34 313 10:52 07.10.2021
6039 Clouds 18 1021 67 10000 1.34 313 10:52 07.10.2021
6040 Clouds 17 1021 70 10000 1.34 230 10:19 07.10.2021
6041 Clouds 16 1021 75 10000 0.45 0 09:33 07.10.2021
6042 Clouds 15 1021 75 10000 1.79 331 08:41 07.10.2021
6043 Clouds 15 1021 78 10000 2.68 300 07:43 07.10.2021
6044 Clouds 15 1021 79 10000 2.68 298 07:19 07.10.2021
6045 Clear 16 1022 85 10000 1.34 323 02:26 07.10.2021
6046 Clouds 17 1022 85 10000 0.45 298 23:55 06.10.2021
6047 Clouds 18 1022 83 10000 0.45 291 22:51 06.10.2021
6048 Clouds 18 1022 81 10000 2.06 210 21:53 06.10.2021
6049 Clouds 19 1022 79 10000 0.45 245 20:38 06.10.2021
6050 Clouds 19 1021 78 10000 0.45 309 19:53 06.10.2021
6051 Clouds 20 1021 73 10000 0.45 272 18:40 06.10.2021
6052 Clouds 22 1021 66 10000 2.24 167 16:56 06.10.2021
6053 Clouds 21 1021 65 10000 1.79 203 15:30 06.10.2021
6054 Clouds 20 1022 69 10000 0.45 143 14:22 06.10.2021
6055 Clouds 20 1022 72 10000 0.45 52 12:59 06.10.2021
6056 Clouds 20 1022 69 10000 0.45 122 12:41 06.10.2021
6057 Clouds 20 1022 67 10000 0.45 311 12:21 06.10.2021
6058 Clouds 19 1022 70 10000 1.79 244 10:21 06.10.2021
6059 Clouds 18 1022 73 10000 0.89 325 09:39 06.10.2021
6060 Clouds 17 1021 77 10000 0.89 128 08:42 06.10.2021
6061 Clouds 17 1020 80 10000 0.45 112 07:48 06.10.2021
6062 Clouds 18 1019 82 10000 0.45 71 05:26 06.10.2021
6063 Clear 19 1019 73 10000 1.79 46 00:29 06.10.2021
6064 Clear 20 1019 71 10000 1.34 51 23:58 05.10.2021
6065 Clear 20 1018 71 10000 0.45 307 23:39 05.10.2021
6066 Clear 20 1018 70 10000 0.45 289 23:20 05.10.2021
6067 Clear 20 1018 68 10000 0.45 280 22:28 05.10.2021
6068 Clear 20 1018 69 10000 1.03 200 21:49 05.10.2021
6069 Clear 21 1017 67 10000 0.45 241 20:42 05.10.2021
6070 Clear 21 1017 65 10000 0.45 226 20:24 05.10.2021
6071 Clear 22 1017 60 10000 5.14 240 19:43 05.10.2021
6072 Clouds 23 1016 53 10000 0.45 241 18:54 05.10.2021
6073 Clear 24 1015 46 10000 1.34 272 16:38 05.10.2021
6074 Clear 24 1016 46 10000 0.45 161 14:38 05.10.2021
6075 Clear 22 1016 50 10000 1.79 298 13:35 05.10.2021
6076 Clear 21 1017 52 10000 0.89 323 12:47 05.10.2021
6077 Clear 21 1017 53 10000 1.34 291 12:18 05.10.2021
6078 Clear 19 1017 58 10000 0.45 327 11:19 05.10.2021
6079 Clear 15 1017 69 10000 0.89 329 09:26 05.10.2021
6080 Clouds 14 1017 80 10000 1.79 277 04:47 05.10.2021
6081 Clouds 16 1018 84 10000 1.34 240 23:53 04.10.2021
6082 Clouds 16 1018 89 10000 0.89 137 22:38 04.10.2021
6083 Clouds 17 1017 84 10000 0.45 305 20:29 04.10.2021
6084 Clouds 18 1016 80 10000 0.45 236 18:34 04.10.2021
6085 Clouds 18 1016 81 10000 0.45 274 16:34 04.10.2021
6086 Clouds 17 1016 83 10000 0.45 41 15:31 04.10.2021
6087 Drizzle 16 1016 87 10000 0.45 294 14:43 04.10.2021
6088 Drizzle 16 1016 89 10000 1.34 335 13:57 04.10.2021
6089 Clouds 15 1017 91 10000 1.34 267 13:25 04.10.2021
6090 Clouds 15 1016 89 9000 1.34 259 12:28 04.10.2021
6091 Rain 15 1016 88 10000 1.34 267 11:31 04.10.2021
6092 Rain 15 1016 88 10000 1.34 262 10:23 04.10.2021
6093 Drizzle 15 1014 88 10000 2.24 302 08:42 04.10.2021
6094 Rain 15 1014 88 10000 2.68 235 07:43 04.10.2021
6095 Rain 17 1012 91 10000 0.89 319 01:56 04.10.2021
6096 Clouds 22 1010 68 10000 0.45 190 22:41 03.10.2021
6097 Clouds 22 1010 72 10000 1.79 292 21:42 03.10.2021
6098 Clouds 23 1010 75 10000 0.89 262 21:23 03.10.2021
6099 Clouds 23 1009 83 10000 4.12 220 20:21 03.10.2021
6100 Clouds 24 1009 81 10000 0.45 76 19:30 03.10.2021
6101 Clouds 24 1008 79 10000 0.45 0 18:28 03.10.2021
6102 Clouds 25 1008 78 10000 0.89 192 17:29 03.10.2021
6103 Clouds 25 1009 78 10000 0.45 97 14:49 03.10.2021
6104 Clouds 25 1009 77 10000 1.34 167 14:27 03.10.2021
6105 Clouds 25 1009 77 10000 3.13 139 13:34 03.10.2021
6106 Clouds 25 1010 80 10000 1.79 30 12:41 03.10.2021
6107 Clouds 24 1010 81 10000 0.89 359 10:52 03.10.2021
6108 Clouds 23 1010 84 10000 1.34 340 09:34 03.10.2021
6109 Clouds 23 1011 86 10000 0.45 0 03:36 03.10.2021
6110 Clouds 23 1013 83 10000 0.45 92 22:46 02.10.2021
6111 Clouds 23 1014 83 10000 0.45 173 21:30 02.10.2021
6112 Clouds 23 1014 82 10000 0.45 253 19:54 02.10.2021
6113 Clouds 23 1014 79 10000 1.34 254 18:56 02.10.2021
6114 Clouds 24 1014 75 10000 1.34 0 18:18 02.10.2021
6115 Clouds 24 1014 75 10000 0.45 132 17:36 02.10.2021
6116 Clouds 25 1015 74 10000 0.45 274 15:53 02.10.2021
6117 Clear 17 1020 89 10000 0.45 273 06:59 01.10.2021
6118 Clouds 24 1023 72 10000 0.45 125 15:37 30.09.2021
6119 Clouds 24 1024 70 10000 2.24 161 13:51 30.09.2021
6120 Clouds 22 1025 67 10000 0.89 155 11:38 30.09.2021
6121 Clouds 21 1025 69 10000 0.45 316 10:46 30.09.2021
6122 Clouds 20 1025 77 10000 0.45 322 09:44 30.09.2021
6123 Clouds 18 1025 85 10000 0.45 318 08:30 30.09.2021
6124 Clouds 19 1024 87 10000 2.24 296 07:34 30.09.2021
6125 Clouds 19 1024 89 10000 0.89 240 05:18 30.09.2021
6126 Clouds 20 1026 84 10000 1.54 320 01:36 30.09.2021
6127 Clouds 21 1026 83 10000 0.51 0 00:23 30.09.2021
6128 Clouds 21 1026 83 10000 1.03 0 22:37 29.09.2021
6129 Clouds 21 1025 81 10000 1.03 0 21:25 29.09.2021
6130 Clouds 21 1025 80 10000 0.45 253 20:27 29.09.2021
6131 Clouds 22 1025 80 10000 1.34 200 19:51 29.09.2021
6132 Clouds 23 1024 76 10000 0.45 1 18:50 29.09.2021
6133 Clouds 23 1024 75 10000 0.45 0 17:41 29.09.2021
6134 Clouds 24 1024 76 10000 0.45 82 16:48 29.09.2021
6135 Clouds 23 1023 78 10000 1.34 167 15:58 29.09.2021
6136 Clouds 23 1023 77 10000 1.34 47 14:39 29.09.2021
6137 Clouds 23 1024 77 10000 0.89 48 13:58 29.09.2021
6138 Rain 23 1024 75 10000 0.89 0 13:18 29.09.2021
6139 Clouds 23 1024 74 10000 0.89 319 12:19 29.09.2021
6140 Clouds 23 1023 75 10000 2.06 140 10:49 29.09.2021
6141 Clouds 22 1023 83 10000 2.57 320 09:51 29.09.2021
6142 Clouds 21 1023 84 10000 2.06 330 09:24 29.09.2021
6143 Clouds 20 1021 84 10000 2.57 330 07:32 29.09.2021
6144 Clouds 21 1020 87 10000 2.57 340 04:19 29.09.2021
6145 Clouds 22 1019 84 10000 2.06 260 23:27 28.09.2021
6146 Clouds 23 1019 82 10000 2.57 250 22:24 28.09.2021
6147 Clouds 23 1019 81 10000 0.89 229 21:44 28.09.2021
6148 Clouds 23 1019 80 10000 1.79 300 20:39 28.09.2021
6149 Clouds 24 1018 79 10000 3.13 232 19:46 28.09.2021
6150 Clouds 24 1018 76 10000 0.45 332 18:50 28.09.2021
6151 Clouds 25 1018 74 10000 2.24 255 18:18 28.09.2021
6152 Clouds 26 1019 67 10000 2.68 263 16:38 28.09.2021
6153 Clouds 27 1020 60 10000 0.45 0 14:30 28.09.2021
6154 Clouds 26 1021 68 10000 0.89 0 12:50 28.09.2021
6155 Clouds 25 1021 69 10000 0.89 0 12:21 28.09.2021
6156 Clouds 25 1021 70 10000 0.45 157 11:46 28.09.2021
6157 Clouds 24 1021 72 10000 0.45 100 11:22 28.09.2021
6158 Clear 22 1021 77 10000 1.79 265 10:21 28.09.2021
6159 Clouds 21 1021 81 10000 1.34 243 09:18 28.09.2021
6160 Clouds 21 1021 83 10000 0.45 247 08:39 28.09.2021
6161 Clouds 20 1021 84 10000 3.6 320 07:48 28.09.2021
6162 Clouds 20 1021 85 10000 1.34 292 05:31 28.09.2021
6163 Clouds 21 1022 83 10000 1.54 310 01:25 28.09.2021
6164 Clouds 22 1022 83 10000 2.06 30 00:26 28.09.2021
6165 Clouds 22 1022 83 10000 2.57 30 23:41 27.09.2021
6166 Clouds 22 1022 83 10000 2.57 30 23:22 27.09.2021
6167 Clouds 23 1021 77 10000 0.89 113 21:55 27.09.2021
6168 Clouds 25 1020 66 10000 0.45 90 20:45 27.09.2021
6169 Clouds 26 1020 58 10000 0.45 99 19:56 27.09.2021
6170 Clouds 26 1019 57 10000 0.89 58 19:28 27.09.2021
6171 Clouds 27 1019 60 10000 0.89 162 18:51 27.09.2021
6172 Clouds 28 1018 57 10000 0.45 138 17:30 27.09.2021
6173 Clouds 28 1018 57 10000 0.45 0 16:50 27.09.2021
6174 Clear 28 1018 58 10000 1.34 355 15:45 27.09.2021
6175 Clear 28 1018 56 10000 1.34 113 15:19 27.09.2021
6176 Clear 28 1018 50 10000 0.45 333 13:32 27.09.2021
6177 Clear 26 1018 52 10000 0.45 346 11:49 27.09.2021
6178 Clear 23 1018 63 10000 0.89 298 10:37 27.09.2021
6179 Clear 22 1018 72 10000 0.89 229 09:28 27.09.2021
6180 Clear 20 1018 81 10000 0.89 240 06:30 27.09.2021
6181 Clear 20 1019 83 10000 0.89 300 03:25 27.09.2021
6182 Clear 22 1020 82 10000 2.57 70 22:39 26.09.2021
6183 Clear 22 1020 81 10000 2.57 80 21:53 26.09.2021
6184 Clouds 22 1019 82 10000 0.45 12 21:26 26.09.2021
6185 Clouds 23 1019 81 10000 2.24 184 20:24 26.09.2021
6186 Clouds 24 1018 80 10000 0.89 115 19:52 26.09.2021
6187 Clouds 25 1018 76 10000 1.34 138 18:48 26.09.2021
6188 Clouds 26 1018 68 10000 2.24 0 17:57 26.09.2021
6189 Clouds 27 1018 65 10000 0.89 146 17:36 26.09.2021
6190 Clouds 27 1017 63 10000 2.24 160 17:18 26.09.2021
6191 Clouds 28 1017 53 10000 0.45 190 16:22 26.09.2021
6192 Clouds 29 1017 48 10000 0.45 60 15:22 26.09.2021
6193 Clear 29 1018 48 10000 1.34 254 13:59 26.09.2021
6194 Clear 28 1018 47 10000 1.34 344 13:31 26.09.2021
6195 Clouds 28 1018 48 10000 2.24 325 12:26 26.09.2021
6196 Clouds 27 1018 49 10000 2.68 302 11:52 26.09.2021
6197 Clouds 25 1018 56 10000 0.45 264 10:52 26.09.2021
6198 Clouds 23 1017 67 10000 2.68 257 09:37 26.09.2021
6199 Clouds 21 1017 80 10000 2.68 324 08:20 26.09.2021
6200 Clouds 23 1016 87 10000 0.45 0 00:28 26.09.2021
6201 Clouds 23 1016 85 10000 1.03 0 23:41 25.09.2021
6202 Clouds 24 1016 84 10000 1.34 292 22:39 25.09.2021
6203 Clouds 24 1015 83 10000 0.45 294 22:18 25.09.2021
6204 Clouds 24 1016 85 10000 0.45 280 21:36 25.09.2021
6205 Clouds 25 1016 84 10000 0.45 279 20:52 25.09.2021
6206 Drizzle 26 1015 80 10000 0.45 216 19:33 25.09.2021
6207 Clouds 26 1015 80 10000 0.89 210 18:27 25.09.2021
6208 Clouds 27 1015 79 10000 0.45 170 17:21 25.09.2021
6209 Clouds 28 1016 73 10000 1.34 142 14:30 25.09.2021
6210 Clouds 28 1016 72 10000 0.89 119 13:54 25.09.2021
6211 Clouds 27 1016 70 10000 0.89 184 12:37 25.09.2021
6212 Clouds 24 1016 74 10000 0.45 299 10:42 25.09.2021
6213 Clouds 24 1016 76 10000 0.45 299 10:18 25.09.2021
6214 Clouds 21 1016 85 10000 1.79 280 08:55 25.09.2021
6215 Clouds 21 1016 85 10000 0.45 299 07:47 25.09.2021
6216 Clouds 22 1017 84 10000 0.89 149 00:52 25.09.2021
6217 Clouds 22 1016 85 10000 0.89 69 22:18 24.09.2021
6218 Clouds 22 1016 85 10000 0.45 19 21:32 24.09.2021
6219 Clouds 23 1015 85 10000 0.45 81 20:32 24.09.2021
6220 Clouds 23 1015 81 10000 0.89 100 19:31 24.09.2021
6221 Clouds 24 1015 77 10000 1.79 142 18:20 24.09.2021
6222 Clouds 24 1016 75 10000 3.13 116 17:49 24.09.2021
6223 Clouds 24 1016 73 10000 0.89 142 17:31 24.09.2021
6224 Clouds 25 1016 64 10000 1.34 0 15:39 24.09.2021
6225 Clouds 25 1017 57 10000 2.24 153 13:21 24.09.2021
6226 Clouds 25 1017 57 10000 2.24 153 13:21 24.09.2021
6227 Clouds 24 1017 58 10000 1.34 153 12:43 24.09.2021
6228 Clouds 23 1017 60 10000 0.45 102 12:25 24.09.2021
6229 Clouds 22 1017 64 10000 0.45 346 10:53 24.09.2021
6230 Clouds 21 1017 66 10000 0.45 5 09:37 24.09.2021
6231 Clouds 18 1017 74 10000 0.45 321 07:57 24.09.2021
6232 Clear 18 1017 75 10000 0.45 293 06:59 24.09.2021
6233 Clear 19 1017 74 10000 0.45 0 05:57 24.09.2021
6234 Clear 19 1018 72 10000 2.68 323 02:29 24.09.2021
6235 Clear 21 1018 73 10000 1.79 136 22:37 23.09.2021
6236 Clear 21 1018 75 10000 2.24 142 21:58 23.09.2021
6237 Clear 22 1018 75 10000 1.79 124 20:54 23.09.2021
6238 Clear 22 1018 73 10000 0.45 0 20:31 23.09.2021
6239 Clear 24 1018 62 10000 2.24 96 18:32 23.09.2021
6240 Clouds 24 1019 67 10000 2.24 0 15:53 23.09.2021
6241 Clouds 23 1020 72 10000 1.79 103 15:19 23.09.2021
6242 Clouds 23 1020 67 10000 1.79 139 14:25 23.09.2021
6243 Drizzle 22 1020 69 10000 2.68 111 13:27 23.09.2021
6244 Drizzle 22 1021 69 10000 0.45 0 12:55 23.09.2021
6245 Clouds 21 1020 74 10000 0.45 235 12:26 23.09.2021
6246 Clouds 21 1020 74 10000 1.34 104 11:57 23.09.2021
6247 Drizzle 19 1020 81 10000 0.45 342 10:30 23.09.2021
6248 Rain 19 1020 81 9000 4.63 50 09:54 23.09.2021
6249 Rain 19 1020 78 10000 0.89 0 08:56 23.09.2021
6250 Rain 20 1018 61 10000 0.45 297 05:32 23.09.2021
6251 Clouds 20 1019 65 10000 1.54 360 23:50 22.09.2021
6252 Clouds 21 1018 61 10000 1.34 344 22:52 22.09.2021
6253 Clouds 21 1019 66 10000 1.34 65 22:20 22.09.2021
6254 Clouds 21 1019 68 10000 0.45 334 21:42 22.09.2021
6255 Clouds 22 1019 67 10000 2.24 103 20:57 22.09.2021
6256 Clouds 23 1018 66 10000 4.92 79 19:48 22.09.2021
6257 Clouds 23 1018 65 10000 4.47 74 19:26 22.09.2021
6258 Clouds 23 1018 63 10000 4.92 70 18:30 22.09.2021
6259 Clouds 24 1019 62 10000 1.79 66 17:18 22.09.2021
6260 Clouds 24 1019 61 10000 0.45 78 15:51 22.09.2021
6261 Clouds 24 1020 58 10000 2.24 80 14:28 22.09.2021
6262 Clouds 23 1020 58 10000 5.36 69 13:19 22.09.2021
6263 Clouds 22 1020 58 10000 0.45 25 11:20 22.09.2021
6264 Clouds 19 1020 67 10000 1.34 334 09:30 22.09.2021
6265 Clouds 18 1020 69 10000 1.34 204 08:45 22.09.2021
6266 Clouds 18 1020 70 10000 0.89 304 07:33 22.09.2021
6267 Clouds 19 1020 68 10000 1.34 297 06:31 22.09.2021
6268 Clouds 19 1020 69 10000 1.34 46 05:48 22.09.2021
6269 Clouds 19 1020 72 10000 1.34 273 04:20 22.09.2021
6270 Clouds 19 1021 71 10000 1.79 28 02:56 22.09.2021
6271 Clouds 19 1022 69 10000 2.06 340 23:54 21.09.2021
6272 Clouds 19 1022 68 10000 1.54 320 22:26 21.09.2021
6273 Clouds 20 1021 64 10000 0.45 159 20:43 21.09.2021
6274 Clouds 21 1020 61 10000 2.59 181 19:36 21.09.2021
6275 Clouds 22 1021 59 10000 1.54 90 19:18 21.09.2021
6276 Clouds 22 1021 57 10000 1.54 80 16:48 21.09.2021
6277 Clouds 22 1021 60 10000 0.89 297 15:57 21.09.2021
6278 Clouds 21 1022 62 10000 1.54 300 14:59 21.09.2021
6279 Clouds 21 1022 62 10000 0.89 308 14:40 21.09.2021
6280 Drizzle 20 1022 68 10000 1.34 314 13:39 21.09.2021
6281 Clouds 19 1022 66 10000 1.34 125 12:45 21.09.2021
6282 Clouds 17 1021 63 10000 5.14 330 10:44 21.09.2021
6283 Clouds 17 1021 67 10000 4.12 330 09:28 21.09.2021
6284 Clouds 17 1020 67 10000 5.14 340 07:40 21.09.2021
6285 Clouds 17 1020 77 10000 6.69 320 05:18 21.09.2021
6286 Clouds 18 1021 77 10000 2.57 50 23:51 20.09.2021
6287 Clouds 17 1020 82 10000 4.63 30 21:52 20.09.2021
6288 Clouds 17 1020 82 10000 4.63 30 21:32 20.09.2021
6289 Thunderstorm 20 1017 79 10000 0.45 80 19:55 20.09.2021
6290 Thunderstorm 22 1017 76 10000 4.92 134 18:37 20.09.2021
6291 Clouds 22 1017 74 10000 0.45 136 17:30 20.09.2021
6292 Clouds 23 1017 72 10000 3.13 113 16:26 20.09.2021
6293 Clouds 23 1017 66 10000 0.45 105 15:47 20.09.2021
6294 Clouds 24 1017 61 10000 0.45 89 14:50 20.09.2021
6295 Clouds 23 1018 55 10000 0.89 77 12:53 20.09.2021
6296 Clouds 23 1018 56 10000 0.45 69 12:29 20.09.2021
6297 Clouds 20 1018 64 10000 1.79 332 10:57 20.09.2021
6298 Clouds 19 1018 69 10000 3.13 121 09:52 20.09.2021
6299 Clouds 19 1018 72 10000 2.24 320 09:33 20.09.2021
6300 Clouds 18 1018 72 10000 2.24 320 08:55 20.09.2021
6301 Clouds 18 1017 79 10000 1.79 237 06:34 20.09.2021
6302 Clouds 21 1018 70 10000 0.45 305 23:30 19.09.2021
6303 Clouds 22 1018 66 10000 2.57 190 21:53 19.09.2021
6304 Clouds 22 1018 65 10000 0.89 218 21:21 19.09.2021
6305 Clouds 23 1017 63 10000 0.45 174 20:32 19.09.2021
6306 Clouds 24 1017 58 10000 1.34 120 18:57 19.09.2021
6307 Clouds 25 1017 53 10000 1.34 157 17:57 19.09.2021
6308 Clouds 25 1017 51 10000 0.89 130 17:21 19.09.2021
6309 Clouds 25 1017 49 10000 0.89 138 15:44 19.09.2021
6310 Clouds 24 1017 51 10000 0.89 144 14:49 19.09.2021
6311 Clouds 24 1017 50 10000 1.34 89 14:25 19.09.2021
6312 Clouds 23 1018 52 10000 0.45 105 12:57 19.09.2021
6313 Clouds 22 1018 53 10000 1.34 316 12:35 19.09.2021
6314 Clouds 21 1018 57 10000 0.45 113 11:25 19.09.2021
6315 Clouds 19 1018 61 10000 3.13 323 09:58 19.09.2021
6316 Clouds 18 1017 64 10000 2.24 300 09:26 19.09.2021
6317 Rain 17 1016 61 10000 6.69 330 07:18 19.09.2021
6318 Clouds 21 1014 88 10000 1.54 340 01:39 19.09.2021
6319 Clouds 21 1014 92 10000 3.6 320 23:26 18.09.2021
6320 Clouds 22 1013 89 10000 1.34 147 21:58 18.09.2021
6321 Clouds 23 1012 86 10000 3.09 340 20:48 18.09.2021
6322 Clouds 23 1012 86 10000 0.45 18 20:26 18.09.2021
6323 Clouds 23 1012 88 10000 1.03 310 19:37 18.09.2021
6324 Clouds 23 1011 85 10000 2.06 360 19:19 18.09.2021
6325 Clouds 23 1012 83 10000 3.09 350 18:31 18.09.2021
6326 Rain 23 1012 86 10000 4.12 40 17:22 18.09.2021
6327 Thunderstorm 24 1013 83 10000 2.24 34 15:46 18.09.2021
6328 Clouds 25 1013 75 10000 0.89 80 13:46 18.09.2021
6329 Clouds 25 1013 75 10000 1.79 109 13:25 18.09.2021
6330 Clouds 25 1014 74 10000 0.45 91 12:24 18.09.2021
6331 Clouds 24 1014 75 10000 1.79 82 11:34 18.09.2021
6332 Rain 23 1014 78 10000 0.45 274 10:31 18.09.2021
6333 Clouds 22 1013 80 10000 0.45 13 09:25 18.09.2021
6334 Rain 21 1013 83 10000 0.89 300 08:30 18.09.2021
6335 Rain 21 1013 83 10000 0.89 300 08:30 18.09.2021
6336 Rain 21 1013 83 10000 0.89 300 08:30 18.09.2021
6337 Clear 22 1013 80 10000 3.81 234 00:56 18.09.2021
6338 Clear 23 1013 79 10000 1.34 150 00:35 18.09.2021
6339 Clear 23 1013 76 10000 0.45 158 23:44 17.09.2021
6340 Clear 24 1013 74 10000 0.45 104 22:32 17.09.2021
6341 Clear 24 1012 72 10000 0.89 264 21:47 17.09.2021
6342 Clear 25 1011 68 10000 0.45 190 20:18 17.09.2021
6343 Clouds 27 1011 58 10000 3.58 295 18:45 17.09.2021
6344 Clouds 28 1011 54 10000 0.45 0 16:47 17.09.2021
6345 Clouds 28 1012 53 10000 3.13 261 15:50 17.09.2021
6346 Clouds 26 1014 64 10000 0.89 146 12:32 17.09.2021
6347 Clouds 23 1015 69 10000 1.79 300 10:40 17.09.2021
6348 Clouds 20 1015 86 10000 1.34 299 07:50 17.09.2021
6349 Clouds 21 1015 86 10000 0.89 142 06:29 17.09.2021
6350 Clouds 22 1017 81 10000 1.79 316 00:39 17.09.2021
6351 Clouds 23 1017 81 10000 0.45 236 22:46 16.09.2021
6352 Clouds 23 1016 80 10000 0.45 193 22:24 16.09.2021
6353 Clouds 23 1016 79 10000 1.34 33 21:36 16.09.2021
6354 Clouds 24 1016 77 10000 0.45 240 20:36 16.09.2021
6355 Clouds 25 1015 72 10000 1.54 140 19:36 16.09.2021
6356 Clouds 25 1015 72 10000 0.89 175 18:19 16.09.2021
6357 Clouds 26 1015 71 10000 0.45 178 17:22 16.09.2021
6358 Clouds 27 1016 64 10000 1.79 124 14:51 16.09.2021
6359 Clouds 26 1016 67 10000 0.89 134 13:47 16.09.2021
6360 Clouds 26 1016 64 10000 0.45 134 12:47 16.09.2021
6361 Clouds 25 1016 64 10000 0.45 179 12:26 16.09.2021
6362 Clouds 25 1016 68 10000 0.89 10 11:24 16.09.2021
6363 Clouds 24 1015 74 10000 1.34 65 10:29 16.09.2021
6364 Clouds 23 1015 81 10000 0.89 263 09:39 16.09.2021
6365 Clouds 21 1014 88 10000 3.09 310 08:28 16.09.2021
6366 Clouds 21 1014 89 10000 0.45 311 06:59 16.09.2021
6367 Clouds 21 1014 89 10000 3.09 330 06:39 16.09.2021
6368 Clouds 22 1014 84 10000 2.68 122 04:18 16.09.2021
6369 Rain 25 1014 80 10000 2.06 240 00:59 16.09.2021
6370 Clouds 25 1014 79 10000 4.12 250 23:32 15.09.2021
6371 Clouds 25 1014 80 10000 4.12 250 23:32 15.09.2021
6372 Clouds 25 1013 79 10000 1.34 227 22:45 15.09.2021
6373 Clouds 26 1013 77 10000 0.89 224 21:37 15.09.2021
6374 Clouds 26 1012 77 10000 0.45 228 20:54 15.09.2021
6375 Clouds 28 1012 72 10000 2.24 236 19:34 15.09.2021
6376 Clear 28 1012 68 10000 0.45 72 18:59 15.09.2021
6377 Clear 29 1011 64 10000 1.34 194 17:46 15.09.2021
6378 Clouds 30 1011 63 10000 0.89 209 16:44 15.09.2021
6379 Clouds 30 1012 63 10000 0.89 107 15:29 15.09.2021
6380 Clouds 29 1012 64 10000 0.45 109 14:44 15.09.2021
6381 Clouds 29 1012 65 10000 1.34 160 13:51 15.09.2021
6382 Clouds 29 1013 64 10000 1.34 166 13:29 15.09.2021
6383 Clouds 28 1013 65 10000 0.45 145 12:34 15.09.2021
6384 Clouds 28 1013 67 10000 0.45 101 11:51 15.09.2021
6385 Clouds 27 1013 70 10000 0.45 35 11:18 15.09.2021
6386 Clouds 25 1013 75 10000 2.06 310 10:35 15.09.2021
6387 Clouds 24 1011 80 10000 0.45 306 09:23 15.09.2021
6388 Clouds 23 1011 82 10000 1.34 290 07:30 15.09.2021
6389 Clouds 23 1011 82 10000 1.34 290 07:30 15.09.2021
6390 Clouds 25 1011 87 10000 0.89 118 02:50 15.09.2021
6391 Clouds 25 1012 85 10000 0.89 36 22:38 14.09.2021
6392 Clouds 26 1013 85 10000 0.45 71 21:38 14.09.2021
6393 Clouds 26 1012 82 10000 0.45 90 20:26 14.09.2021
6394 Clouds 26 1012 80 10000 2.24 304 19:41 14.09.2021
6395 Clouds 28 1013 74 10000 0.45 121 17:34 14.09.2021
6396 Clouds 29 1013 71 10000 0.45 154 16:56 14.09.2021
6397 Clouds 29 1013 74 10000 0.45 130 15:27 14.09.2021
6398 Clouds 29 1013 75 10000 0.45 148 14:28 14.09.2021
6399 Clouds 28 1013 77 10000 0.45 188 11:51 14.09.2021
6400 Clouds 27 1014 83 10000 1.79 158 10:53 14.09.2021
6401 Clouds 25 1014 87 10000 0.45 314 09:50 14.09.2021
6402 Clouds 24 1013 90 10000 0 0 08:36 14.09.2021
6403 Clouds 24 1013 88 10000 1.03 0 06:22 14.09.2021
6404 Clouds 25 1015 83 10000 1.34 229 23:54 13.09.2021
6405 Clouds 26 1015 82 10000 2.24 236 22:30 13.09.2021
6406 Clouds 26 1015 82 10000 0.45 323 21:59 13.09.2021
6407 Clouds 26 1015 82 10000 1.79 219 21:40 13.09.2021
6408 Clouds 26 1014 81 10000 3.13 217 20:47 13.09.2021
6409 Clouds 27 1014 77 10000 2.68 204 18:45 13.09.2021
6410 Clouds 27 1014 77 10000 2.68 204 18:45 13.09.2021
6411 Clouds 27 1014 74 10000 0.89 163 17:41 13.09.2021
6412 Clouds 28 1014 72 10000 0.45 156 16:50 13.09.2021
6413 Clouds 29 1015 69 10000 0.89 203 14:57 13.09.2021
6414 Clouds 29 1015 69 10000 0.89 203 14:57 13.09.2021
6415 Clouds 27 1016 73 10000 1.34 123 11:55 13.09.2021
6416 Clouds 26 1016 80 10000 0.45 64 10:58 13.09.2021
6417 Clouds 23 1015 89 10000 1.34 309 09:31 13.09.2021
6418 Clouds 23 1015 88 10000 1.03 0 01:24 13.09.2021
6419 Clouds 24 1015 85 10000 0.45 81 22:59 12.09.2021
6420 Clouds 24 1015 84 10000 0.45 120 22:25 12.09.2021
6421 Clouds 25 1014 82 10000 3.09 220 21:34 12.09.2021
6422 Clouds 26 1014 79 10000 0.89 220 20:21 12.09.2021
6423 Clouds 26 1014 78 10000 1.79 219 19:49 12.09.2021
6424 Clouds 26 1014 77 10000 2.68 232 19:19 12.09.2021
6425 Clouds 27 1014 76 10000 0.89 71 18:19 12.09.2021
6426 Rain 26 1015 78 10000 1.79 246 16:30 12.09.2021
6427 Rain 26 1015 78 10000 1.79 246 16:30 12.09.2021
6428 Clouds 28 1015 69 10000 1.34 155 14:50 12.09.2021
6429 Thunderstorm 27 1016 73 10000 0.45 141 12:47 12.09.2021
6430 Clouds 25 1016 78 10000 1.34 291 10:35 12.09.2021
6431 Clouds 22 1015 87 10000 0.45 315 08:59 12.09.2021
6432 Clouds 22 1015 87 10000 3.6 330 08:36 12.09.2021
6433 Clouds 23 1017 82 10000 1.03 0 00:56 12.09.2021
6434 Clouds 24 1016 80 10000 0.45 128 23:18 11.09.2021
6435 Clouds 24 1016 79 10000 3.09 220 21:40 11.09.2021
6436 Clouds 25 1016 74 10000 1.34 251 20:18 11.09.2021
6437 Clouds 25 1016 74 10000 1.34 251 20:18 11.09.2021
6438 Clouds 26 1016 68 10000 0.89 187 18:32 11.09.2021
6439 Clouds 26 1016 67 10000 0.45 132 17:29 11.09.2021
6440 Clouds 27 1017 64 10000 1.34 153 15:39 11.09.2021
6441 Clouds 27 1018 60 10000 1.34 147 13:30 11.09.2021
6442 Clear 26 1019 66 10000 1.34 151 11:47 11.09.2021
6443 Clear 24 1018 71 10000 1.34 314 10:51 11.09.2021
6444 Clear 22 1018 78 10000 1.79 293 09:31 11.09.2021
6445 Clear 20 1017 80 10000 0.45 124 07:44 11.09.2021
6446 Clear 20 1017 79 10000 0.45 322 06:31 11.09.2021
6447 Clear 21 1017 82 10000 0.45 298 22:48 10.09.2021
6448 Clouds 21 1018 82 10000 0.45 130 22:22 10.09.2021
6449 Clouds 21 1018 84 10000 1.79 309 21:46 10.09.2021
6450 Clouds 22 1017 80 10000 6.17 70 19:41 10.09.2021
6451 Clouds 23 1017 76 10000 2.68 89 18:20 10.09.2021
6452 Thunderstorm 23 1016 82 6000 5.36 91 16:40 10.09.2021
6453 Clouds 27 1015 63 10000 0.89 155 13:54 10.09.2021
6454 Clouds 27 1015 63 10000 0.45 251 11:46 10.09.2021
6455 Clouds 21 1014 82 10000 1.79 314 08:29 10.09.2021
6456 Clouds 21 1013 82 10000 0.45 306 07:45 10.09.2021
6457 Clouds 23 1013 82 10000 0.45 295 00:42 10.09.2021
6458 Clouds 23 1013 87 10000 1.79 306 22:24 09.09.2021
6459 Rain 23 1013 86 10000 1.34 304 21:28 09.09.2021
6460 Rain 24 1013 83 10000 0.89 259 20:42 09.09.2021
6461 Clouds 25 1012 75 10000 0.89 286 18:55 09.09.2021
6462 Clouds 26 1011 74 10000 2.24 223 17:56 09.09.2021
6463 Clouds 26 1011 73 10000 2.68 68 16:40 09.09.2021
6464 Clouds 28 1011 67 10000 1.34 65 15:27 09.09.2021
6465 Clouds 28 1012 62 10000 2.68 59 12:48 09.09.2021
6466 Clouds 27 1012 65 10000 2.24 73 11:33 09.09.2021
6467 Clouds 25 1012 74 10000 0.45 32 09:39 09.09.2021
6468 Clouds 23 1012 81 10000 1.34 112 08:32 09.09.2021
6469 Clouds 23 1012 84 10000 0.45 298 06:24 09.09.2021
6470 Clouds 24 1012 86 10000 0.45 72 02:18 09.09.2021
6471 Clouds 25 1012 85 10000 0.89 69 22:39 08.09.2021
6472 Clouds 25 1011 83 10000 1.34 51 21:22 08.09.2021
6473 Clouds 26 1011 78 10000 0.89 256 19:56 08.09.2021
6474 Clouds 27 1011 76 10000 1.34 72 18:55 08.09.2021
6475 Clouds 27 1011 74 10000 0.45 80 18:28 08.09.2021
6476 Clouds 28 1011 72 10000 1.34 57 17:55 08.09.2021
6477 Clouds 28 1012 72 10000 0.89 67 16:28 08.09.2021
6478 Clouds 28 1013 71 10000 0.89 105 14:23 08.09.2021
6479 Clear 28 1014 65 10000 0.45 136 12:43 08.09.2021
6480 Clear 28 1014 65 10000 0.89 127 12:25 08.09.2021
6481 Clear 28 1014 65 10000 1.34 79 11:29 08.09.2021
6482 Clear 26 1014 70 10000 0.45 65 10:33 08.09.2021
6483 Clear 25 1014 75 10000 0.89 274 09:59 08.09.2021
6484 Clear 22 1014 84 9000 0.45 121 07:55 08.09.2021
6485 Clear 22 1014 86 10000 0.45 113 07:32 08.09.2021
6486 Clouds 23 1015 82 10000 3.09 330 03:41 08.09.2021
6487 Clouds 24 1017 80 10000 0.51 0 22:38 07.09.2021
6488 Clouds 25 1017 78 10000 1.54 90 21:46 07.09.2021
6489 Clouds 27 1017 70 10000 0.89 197 19:47 07.09.2021
6490 Clouds 28 1017 69 10000 0.89 148 18:39 07.09.2021
6491 Clouds 28 1017 71 10000 0.89 166 17:47 07.09.2021
6492 Clouds 27 1018 73 10000 0.45 94 15:59 07.09.2021
6493 Clouds 27 1018 74 10000 1.34 155 15:35 07.09.2021
6494 Clouds 27 1019 75 10000 1.34 164 14:41 07.09.2021
6495 Clouds 28 1020 72 10000 0.45 134 12:38 07.09.2021
6496 Clouds 28 1020 73 10000 0.45 134 12:38 07.09.2021
6497 Clouds 27 1020 79 10000 0.89 134 11:36 07.09.2021
6498 Clouds 26 1020 82 10000 1.34 132 10:40 07.09.2021
6499 Clouds 24 1019 89 10000 2.57 320 08:23 07.09.2021
6500 Clouds 23 1019 89 10000 2.57 310 06:44 07.09.2021
6501 Clouds 23 1019 90 10000 1.54 350 05:24 07.09.2021
6502 Clouds 24 1019 89 10000 0.45 221 02:32 07.09.2021
6503 Clouds 25 1020 87 10000 1.34 217 00:40 07.09.2021
6504 Clouds 25 1020 86 10000 0.89 321 23:31 06.09.2021
6505 Clouds 25 1020 84 10000 1.34 230 22:53 06.09.2021
6506 Clouds 25 1020 84 10000 1.34 219 22:32 06.09.2021
6507 Thunderstorm 26 1020 82 10000 2.24 35 20:55 06.09.2021
6508 Clouds 27 1019 78 10000 1.34 198 19:22 06.09.2021
6509 Clouds 27 1019 77 10000 0.45 192 18:46 06.09.2021
6510 Clouds 27 1019 76 10000 0.45 140 18:23 06.09.2021
6511 Clouds 28 1019 75 10000 0.45 130 17:36 06.09.2021
6512 Clouds 29 1019 73 10000 0.45 0 15:49 06.09.2021
6513 Clouds 29 1019 72 10000 1.34 135 13:47 06.09.2021
6514 Clouds 29 1019 73 10000 1.34 146 12:46 06.09.2021
6515 Clouds 27 1019 76 10000 1.79 155 10:44 06.09.2021
6516 Clouds 23 1018 89 10000 0.89 112 07:59 06.09.2021
6517 Clear 23 1018 88 10000 0.45 300 04:45 06.09.2021
6518 Clouds 25 1019 84 10000 0.45 232 23:34 05.09.2021
6519 Clouds 25 1018 83 10000 2.24 257 22:47 05.09.2021
6520 Clouds 25 1018 83 10000 0.45 254 21:58 05.09.2021
6521 Clouds 25 1017 82 10000 1.79 252 21:30 05.09.2021
6522 Clouds 27 1016 77 10000 1.34 220 20:21 05.09.2021
6523 Clouds 28 1016 71 10000 2.68 158 18:46 05.09.2021
6524 Clouds 28 1016 70 10000 1.79 235 17:31 05.09.2021
6525 Clouds 29 1016 68 10000 2.24 239 15:28 05.09.2021
6526 Clouds 30 1017 65 10000 0.45 128 14:19 05.09.2021
6527 Clouds 28 1017 69 10000 1.79 96 12:29 05.09.2021
6528 Clouds 26 1017 72 10000 0.45 80 10:53 05.09.2021
6529 Clouds 25 1017 77 10000 0.45 294 10:23 05.09.2021
6530 Clouds 23 1016 85 10000 1.34 129 09:22 05.09.2021
6531 Clouds 22 1016 87 10000 0.45 155 07:51 05.09.2021
6532 Clouds 23 1016 86 10000 0.45 89 01:22 05.09.2021
6533 Clouds 23 1016 85 10000 1.54 260 00:30 05.09.2021
6534 Clouds 24 1016 84 10000 0.51 0 23:39 04.09.2021
6535 Clouds 24 1016 83 10000 2.57 210 22:36 04.09.2021
6536 Clouds 24 1015 83 10000 0.45 163 21:58 04.09.2021
6537 Clouds 25 1014 77 10000 0.45 136 19:42 04.09.2021
6538 Clouds 26 1014 75 10000 0.45 110 18:44 04.09.2021
6539 Clouds 26 1015 72 10000 1.79 0 16:23 04.09.2021
6540 Clouds 26 1016 72 10000 0.45 0 13:22 04.09.2021
6541 Clouds 24 1016 75 10000 0.45 153 11:20 04.09.2021
6542 Clouds 22 1016 80 10000 0.45 304 09:25 04.09.2021
6543 Clouds 21 1015 82 10000 2.06 340 05:53 04.09.2021
6544 Clouds 22 1015 76 10000 1.54 330 00:27 04.09.2021
6545 Clouds 23 1015 76 10000 0.89 313 23:32 03.09.2021
6546 Clouds 23 1015 76 10000 6.17 80 22:39 03.09.2021
6547 Clouds 23 1015 76 10000 3.58 111 21:35 03.09.2021
6548 Clouds 24 1014 77 10000 0.45 132 20:43 03.09.2021
6549 Clouds 24 1014 79 10000 2.24 127 19:55 03.09.2021
6550 Rain 25 1014 79 10000 1.79 90 19:19 03.09.2021
6551 Clouds 26 1014 72 10000 1.79 0 17:53 03.09.2021
6552 Clouds 26 1014 73 10000 0.45 318 16:37 03.09.2021
6553 Clouds 27 1015 65 10000 0.89 0 14:59 03.09.2021
6554 Clouds 27 1016 63 10000 0.45 69 12:24 03.09.2021
6555 Clear 25 1016 69 10000 1.34 65 10:32 03.09.2021
6556 Clear 22 1016 78 10000 0.45 37 08:59 03.09.2021
6557 Clouds 21 1015 81 10000 0.45 288 07:44 03.09.2021
6558 Clouds 21 1016 79 10000 0.45 255 05:24 03.09.2021
6559 Clouds 23 1016 71 10000 0.89 30 23:20 02.09.2021
6560 Clouds 24 1016 73 10000 4.47 63 21:35 02.09.2021
6561 Clouds 25 1015 71 10000 0.89 142 19:56 02.09.2021
6562 Clouds 27 1015 67 10000 4.02 132 17:33 02.09.2021
6563 Clouds 26 1016 69 10000 0.89 323 15:54 02.09.2021
6564 Clouds 25 1017 73 10000 2.24 72 13:59 02.09.2021
6565 Clouds 25 1017 73 10000 2.68 130 12:55 02.09.2021
6566 Clouds 24 1017 73 10000 1.34 5 11:35 02.09.2021
6567 Clouds 22 1016 73 10000 0.45 72 09:44 02.09.2021
6568 Clouds 21 1014 69 10000 0.89 346 07:57 02.09.2021
6569 Clouds 20 1013 73 10000 3.58 167 07:18 02.09.2021
6570 Clouds 20 1013 73 10000 3.58 167 07:18 02.09.2021
6571 Rain 22 1018 65 10000 0.89 136 02:57 02.09.2021
6572 Clouds 22 1018 62 10000 0.89 122 02:33 02.09.2021
6573 Clouds 23 1017 58 10000 1.34 311 01:28 02.09.2021
6574 Clouds 23 1017 61 10000 2.24 142 23:40 01.09.2021
6575 Drizzle 24 1017 56 10000 3.13 135 22:41 01.09.2021
6576 Rain 24 1016 57 10000 0.89 48 21:40 01.09.2021
6577 Clouds 24 1016 64 10000 1.79 113 20:45 01.09.2021
6578 Clouds 24 1017 62 10000 1.34 17 18:53 01.09.2021
6579 Clouds 24 1018 72 10000 0.89 144 17:41 01.09.2021
6580 Rain 24 1018 70 10000 0.89 0 16:47 01.09.2021
6581 Rain 24 1019 68 10000 0.89 0 15:47 01.09.2021
6582 Clouds 25 1018 64 10000 2.24 0 12:23 01.09.2021
6583 Clouds 24 1018 68 10000 2.24 118 11:44 01.09.2021
6584 Clouds 22 1017 77 10000 0.89 305 08:48 01.09.2021
6585 Clouds 21 1016 80 10000 0.89 350 07:52 01.09.2021
6586 Clouds 21 1016 81 10000 0.89 306 05:23 01.09.2021
6587 Clouds 22 1017 83 10000 1.03 0 22:43 31.08.2021
6588 Clouds 23 1016 79 10000 4.63 60 21:33 31.08.2021
6589 Clouds 24 1016 79 10000 1.34 148 19:46 31.08.2021
6590 Clouds 25 1016 76 10000 0.89 0 18:30 31.08.2021
6591 Clouds 26 1016 71 10000 0.45 152 17:38 31.08.2021
6592 Clouds 26 1016 70 10000 0.45 105 17:20 31.08.2021
6593 Clouds 26 1017 68 10000 0.45 127 16:24 31.08.2021
6594 Clouds 26 1017 68 10000 1.79 153 13:40 31.08.2021
6595 Clouds 25 1017 68 10000 1.34 138 11:36 31.08.2021
6596 Clouds 25 1017 69 10000 0.89 110 10:55 31.08.2021
6597 Clouds 23 1017 77 10000 1.79 251 09:45 31.08.2021
6598 Clouds 22 1016 83 10000 3.09 330 08:39 31.08.2021
6599 Clouds 21 1016 87 10000 0.45 128 07:38 31.08.2021
6600 Clouds 21 1015 87 10000 2.57 340 05:36 31.08.2021
6601 Clouds 22 1015 87 10000 0.45 148 23:35 30.08.2021
6602 Clouds 23 1014 85 10000 1.54 30 21:52 30.08.2021
6603 Clouds 23 1014 84 10000 2.06 20 21:32 30.08.2021
6604 Clouds 23 1013 84 10000 0.45 191 20:20 30.08.2021
6605 Clouds 23 1014 83 10000 0.45 253 19:29 30.08.2021
6606 Clouds 23 1013 82 10000 0.45 81 18:44 30.08.2021
6607 Clouds 23 1013 85 10000 0.45 231 17:46 30.08.2021
6608 Rain 23 1014 84 6000 1.03 0 16:24 30.08.2021
6609 Rain 23 1014 79 10000 0.45 340 15:39 30.08.2021
6610 Clouds 24 1014 74 10000 0.45 127 13:45 30.08.2021
6611 Clouds 24 1015 74 10000 2.24 134 12:29 30.08.2021
6612 Clouds 23 1014 74 7000 1.34 92 10:33 30.08.2021
6613 Clouds 23 1014 72 10000 0.45 160 22:30 29.08.2021
6614 Clouds 24 1013 70 10000 0.89 301 21:33 29.08.2021
6615 Clouds 24 1013 67 10000 0.45 140 20:22 29.08.2021
6616 Clouds 25 1013 65 10000 0.89 137 19:19 29.08.2021
6617 Clouds 25 1013 64 10000 0.45 141 17:53 29.08.2021
6618 Clouds 26 1014 62 10000 0.89 185 15:49 29.08.2021
6619 Clouds 26 1014 61 10000 1.79 62 14:20 29.08.2021
6620 Clouds 26 1014 61 10000 2.24 144 13:44 29.08.2021
6621 Clouds 26 1014 59 10000 1.34 161 12:40 29.08.2021
6622 Clouds 26 1014 60 10000 1.34 133 11:50 29.08.2021
6623 Clouds 26 1014 60 10000 0.89 130 11:23 29.08.2021
6624 Clouds 26 1014 58 10000 0.89 122 10:43 29.08.2021
6625 Clouds 26 1014 59 10000 0.45 105 10:24 29.08.2021
6626 Clouds 23 1014 67 10000 0.45 219 08:58 29.08.2021
6627 Clouds 23 1014 68 10000 1.03